<?xml version="1.0" encoding="UTF-8" standalone="no" ?>
<gpx xmlns="http://www.topografix.com/GPX/1/1" xmlns:xsi="http://www.w3.org/2001/XMLSchema-instance" xsi:schemaLocation="http://www.topografix.com/GPX/1/1 http://www.topografix.com/GPX/1/1/gpx.xsd" version="1.1" creator="VisuGPX - https://www.visugpx.com">
  <metadata>
    <name>Pornichet 17/02/2022</name>
    <desc><![CDATA[Sortie jeudi 17 février 2022 ]]></desc>
  </metadata>
  <trk>
    <name><![CDATA[Pornichet Cyclisme]]></name>
    <trkseg>
      <trkpt lat="47.26395" lon="-2.31538">
        <ele>9.8</ele>
        <time>2022-02-17T08:14:05.000Z</time>
      </trkpt>
      <trkpt lat="47.26396" lon="-2.31551">
        <ele>9.4</ele>
        <time>2022-02-17T08:14:08.000Z</time>
      </trkpt>
      <trkpt lat="47.26397" lon="-2.31555">
        <ele>-0.20000000298023</ele>
        <time>2022-02-17T08:14:09.000Z</time>
      </trkpt>
      <trkpt lat="47.26397" lon="-2.31564">
        <ele>-0.20000000298023</ele>
        <time>2022-02-17T08:14:11.000Z</time>
      </trkpt>
      <trkpt lat="47.26396" lon="-2.31591">
        <ele>-0.20000000298023</ele>
        <time>2022-02-17T08:14:18.000Z</time>
      </trkpt>
      <trkpt lat="47.26398" lon="-2.3163">
        <ele>-0.20000000298023</ele>
        <time>2022-02-17T08:14:26.000Z</time>
      </trkpt>
      <trkpt lat="47.26395" lon="-2.31643">
        <ele>-0.20000000298023</ele>
        <time>2022-02-17T08:14:29.000Z</time>
      </trkpt>
      <trkpt lat="47.26393" lon="-2.31646">
        <ele>-0.20000000298023</ele>
        <time>2022-02-17T08:14:30.000Z</time>
      </trkpt>
      <trkpt lat="47.26376" lon="-2.31657">
        <ele>-0.20000000298023</ele>
        <time>2022-02-17T08:14:35.000Z</time>
      </trkpt>
      <trkpt lat="47.26372" lon="-2.3166">
        <ele>-0.60000002384186</ele>
        <time>2022-02-17T08:14:36.000Z</time>
      </trkpt>
      <trkpt lat="47.26368" lon="-2.31662">
        <ele>-1</ele>
        <time>2022-02-17T08:14:37.000Z</time>
      </trkpt>
      <trkpt lat="47.26365" lon="-2.31664">
        <ele>-1.3999999761581</ele>
        <time>2022-02-17T08:14:38.000Z</time>
      </trkpt>
      <trkpt lat="47.26361" lon="-2.31667">
        <ele>-1.7999999523163</ele>
        <time>2022-02-17T08:14:39.000Z</time>
      </trkpt>
      <trkpt lat="47.26357" lon="-2.3167">
        <ele>-2.2000000476837</ele>
        <time>2022-02-17T08:14:40.000Z</time>
      </trkpt>
      <trkpt lat="47.26329" lon="-2.31685">
        <ele>-2.2000000476837</ele>
        <time>2022-02-17T08:14:47.000Z</time>
      </trkpt>
      <trkpt lat="47.26306" lon="-2.31696">
        <ele>-2.5999999046326</ele>
        <time>2022-02-17T08:14:52.000Z</time>
      </trkpt>
      <trkpt lat="47.26302" lon="-2.31699">
        <ele>-3</ele>
        <time>2022-02-17T08:14:53.000Z</time>
      </trkpt>
      <trkpt lat="47.26299" lon="-2.31701">
        <ele>-3.4000000953674</ele>
        <time>2022-02-17T08:14:54.000Z</time>
      </trkpt>
      <trkpt lat="47.26297" lon="-2.31705">
        <ele>-3.7999999523163</ele>
        <time>2022-02-17T08:14:55.000Z</time>
      </trkpt>
      <trkpt lat="47.26295" lon="-2.31708">
        <ele>-4.1999998092651</ele>
        <time>2022-02-17T08:14:56.000Z</time>
      </trkpt>
      <trkpt lat="47.26293" lon="-2.31718">
        <ele>-4.1999998092651</ele>
        <time>2022-02-17T08:15:00.000Z</time>
      </trkpt>
      <trkpt lat="47.26294" lon="-2.31741">
        <ele>-4.1999998092651</ele>
        <time>2022-02-17T08:15:06.000Z</time>
      </trkpt>
      <trkpt lat="47.26295" lon="-2.31772">
        <ele>-4.1999998092651</ele>
        <time>2022-02-17T08:15:14.000Z</time>
      </trkpt>
      <trkpt lat="47.26292" lon="-2.31794">
        <ele>-4.1999998092651</ele>
        <time>2022-02-17T08:15:19.000Z</time>
      </trkpt>
      <trkpt lat="47.26289" lon="-2.31821">
        <ele>-4.1999998092651</ele>
        <time>2022-02-17T08:15:26.000Z</time>
      </trkpt>
      <trkpt lat="47.26288" lon="-2.31843">
        <ele>-4.1999998092651</ele>
        <time>2022-02-17T08:15:32.000Z</time>
      </trkpt>
      <trkpt lat="47.26278" lon="-2.31853">
        <ele>-4.1999998092651</ele>
        <time>2022-02-17T08:15:36.000Z</time>
      </trkpt>
      <trkpt lat="47.26276" lon="-2.31855">
        <ele>-4.5999999046326</ele>
        <time>2022-02-17T08:15:37.000Z</time>
      </trkpt>
      <trkpt lat="47.26273" lon="-2.31858">
        <ele>-5</ele>
        <time>2022-02-17T08:15:38.000Z</time>
      </trkpt>
      <trkpt lat="47.26271" lon="-2.31862">
        <ele>-5.4000000953674</ele>
        <time>2022-02-17T08:15:39.000Z</time>
      </trkpt>
      <trkpt lat="47.26269" lon="-2.31865">
        <ele>-5.8000001907349</ele>
        <time>2022-02-17T08:15:40.000Z</time>
      </trkpt>
      <trkpt lat="47.26267" lon="-2.31868">
        <ele>-6.1999998092651</ele>
        <time>2022-02-17T08:15:41.000Z</time>
      </trkpt>
      <trkpt lat="47.26254" lon="-2.31892">
        <ele>-6.1999998092651</ele>
        <time>2022-02-17T08:15:47.000Z</time>
      </trkpt>
      <trkpt lat="47.26244" lon="-2.31909">
        <ele>-6.1999998092651</ele>
        <time>2022-02-17T08:15:52.000Z</time>
      </trkpt>
      <trkpt lat="47.2623" lon="-2.31923">
        <ele>-6.1999998092651</ele>
        <time>2022-02-17T08:15:57.000Z</time>
      </trkpt>
      <trkpt lat="47.26225" lon="-2.31927">
        <ele>-6.1999998092651</ele>
        <time>2022-02-17T08:16:00.000Z</time>
      </trkpt>
      <trkpt lat="47.26223" lon="-2.31928">
        <ele>-6.1999998092651</ele>
        <time>2022-02-17T08:16:02.000Z</time>
      </trkpt>
      <trkpt lat="47.26221" lon="-2.31931">
        <ele>-6.1999998092651</ele>
        <time>2022-02-17T08:16:04.000Z</time>
      </trkpt>
      <trkpt lat="47.26215" lon="-2.31937">
        <ele>-6.1999998092651</ele>
        <time>2022-02-17T08:16:08.000Z</time>
      </trkpt>
      <trkpt lat="47.26201" lon="-2.31949">
        <ele>-6.1999998092651</ele>
        <time>2022-02-17T08:16:14.000Z</time>
      </trkpt>
      <trkpt lat="47.26198" lon="-2.31959">
        <ele>-6.1999998092651</ele>
        <time>2022-02-17T08:16:18.000Z</time>
      </trkpt>
      <trkpt lat="47.26193" lon="-2.31968">
        <ele>-6.1999998092651</ele>
        <time>2022-02-17T08:16:24.000Z</time>
      </trkpt>
      <trkpt lat="47.26183" lon="-2.31964">
        <ele>-6.1999998092651</ele>
        <time>2022-02-17T08:16:29.000Z</time>
      </trkpt>
      <trkpt lat="47.26173" lon="-2.31968">
        <ele>-6.1999998092651</ele>
        <time>2022-02-17T08:16:34.000Z</time>
      </trkpt>
      <trkpt lat="47.26163" lon="-2.31981">
        <ele>-6.1999998092651</ele>
        <time>2022-02-17T08:16:38.000Z</time>
      </trkpt>
      <trkpt lat="47.26153" lon="-2.32006">
        <ele>-6.1999998092651</ele>
        <time>2022-02-17T08:16:43.000Z</time>
      </trkpt>
      <trkpt lat="47.26149" lon="-2.32017">
        <ele>-6.1999998092651</ele>
        <time>2022-02-17T08:16:45.000Z</time>
      </trkpt>
      <trkpt lat="47.26139" lon="-2.32051">
        <ele>-6.1999998092651</ele>
        <time>2022-02-17T08:16:51.000Z</time>
      </trkpt>
      <trkpt lat="47.26128" lon="-2.32084">
        <ele>-6.1999998092651</ele>
        <time>2022-02-17T08:16:57.000Z</time>
      </trkpt>
      <trkpt lat="47.26115" lon="-2.32116">
        <ele>-6.1999998092651</ele>
        <time>2022-02-17T08:17:03.000Z</time>
      </trkpt>
      <trkpt lat="47.26113" lon="-2.32122">
        <ele>-6.1999998092651</ele>
        <time>2022-02-17T08:17:04.000Z</time>
      </trkpt>
      <trkpt lat="47.26093" lon="-2.32161">
        <ele>-6.1999998092651</ele>
        <time>2022-02-17T08:17:12.000Z</time>
      </trkpt>
      <trkpt lat="47.2607" lon="-2.3219">
        <ele>-6.1999998092651</ele>
        <time>2022-02-17T08:17:19.000Z</time>
      </trkpt>
      <trkpt lat="47.26048" lon="-2.32215">
        <ele>-6.1999998092651</ele>
        <time>2022-02-17T08:17:25.000Z</time>
      </trkpt>
      <trkpt lat="47.26024" lon="-2.32243">
        <ele>-6.1999998092651</ele>
        <time>2022-02-17T08:17:32.000Z</time>
      </trkpt>
      <trkpt lat="47.26003" lon="-2.32267">
        <ele>-6.1999998092651</ele>
        <time>2022-02-17T08:17:38.000Z</time>
      </trkpt>
      <trkpt lat="47.25977" lon="-2.323">
        <ele>-6.1999998092651</ele>
        <time>2022-02-17T08:17:46.000Z</time>
      </trkpt>
      <trkpt lat="47.25954" lon="-2.3233">
        <ele>-6.1999998092651</ele>
        <time>2022-02-17T08:17:53.000Z</time>
      </trkpt>
      <trkpt lat="47.25945" lon="-2.32343">
        <ele>-6.1999998092651</ele>
        <time>2022-02-17T08:17:56.000Z</time>
      </trkpt>
      <trkpt lat="47.25935" lon="-2.32355">
        <ele>-6.1999998092651</ele>
        <time>2022-02-17T08:17:59.000Z</time>
      </trkpt>
      <trkpt lat="47.25914" lon="-2.32392">
        <ele>-6.1999998092651</ele>
        <time>2022-02-17T08:18:06.000Z</time>
      </trkpt>
      <trkpt lat="47.25912" lon="-2.32398">
        <ele>-6.1999998092651</ele>
        <time>2022-02-17T08:18:07.000Z</time>
      </trkpt>
      <trkpt lat="47.25899" lon="-2.3242">
        <ele>-6.1999998092651</ele>
        <time>2022-02-17T08:18:12.000Z</time>
      </trkpt>
      <trkpt lat="47.25899" lon="-2.32424">
        <ele>-6.1999998092651</ele>
        <time>2022-02-17T08:18:13.000Z</time>
      </trkpt>
      <trkpt lat="47.259" lon="-2.32437">
        <ele>-6.1999998092651</ele>
        <time>2022-02-17T08:18:16.000Z</time>
      </trkpt>
      <trkpt lat="47.25903" lon="-2.32445">
        <ele>-6.1999998092651</ele>
        <time>2022-02-17T08:18:18.000Z</time>
      </trkpt>
      <trkpt lat="47.2591" lon="-2.32461">
        <ele>-6.1999998092651</ele>
        <time>2022-02-17T08:18:21.000Z</time>
      </trkpt>
      <trkpt lat="47.25912" lon="-2.32467">
        <ele>-6.1999998092651</ele>
        <time>2022-02-17T08:18:22.000Z</time>
      </trkpt>
      <trkpt lat="47.25915" lon="-2.32479">
        <ele>-7</ele>
        <time>2022-02-17T08:18:24.000Z</time>
      </trkpt>
      <trkpt lat="47.25917" lon="-2.32486">
        <ele>-7.4000000953674</ele>
        <time>2022-02-17T08:18:25.000Z</time>
      </trkpt>
      <trkpt lat="47.25919" lon="-2.32492">
        <ele>-7.8000001907349</ele>
        <time>2022-02-17T08:18:26.000Z</time>
      </trkpt>
      <trkpt lat="47.25921" lon="-2.32498">
        <ele>-8.1999998092651</ele>
        <time>2022-02-17T08:18:27.000Z</time>
      </trkpt>
      <trkpt lat="47.25937" lon="-2.32548">
        <ele>-8.1999998092651</ele>
        <time>2022-02-17T08:18:35.000Z</time>
      </trkpt>
      <trkpt lat="47.25945" lon="-2.32591">
        <ele>-8.1999998092651</ele>
        <time>2022-02-17T08:18:42.000Z</time>
      </trkpt>
      <trkpt lat="47.25947" lon="-2.32626">
        <ele>-8.1999998092651</ele>
        <time>2022-02-17T08:18:48.000Z</time>
      </trkpt>
      <trkpt lat="47.25951" lon="-2.32631">
        <ele>-8.1999998092651</ele>
        <time>2022-02-17T08:18:50.000Z</time>
      </trkpt>
      <trkpt lat="47.25954" lon="-2.32631">
        <ele>-8.1999998092651</ele>
        <time>2022-02-17T08:18:51.000Z</time>
      </trkpt>
      <trkpt lat="47.25973" lon="-2.32633">
        <ele>-8.1999998092651</ele>
        <time>2022-02-17T08:18:56.000Z</time>
      </trkpt>
      <trkpt lat="47.25997" lon="-2.3263">
        <ele>-8.1999998092651</ele>
        <time>2022-02-17T08:19:02.000Z</time>
      </trkpt>
      <trkpt lat="47.26035" lon="-2.32625">
        <ele>-8.1999998092651</ele>
        <time>2022-02-17T08:19:12.000Z</time>
      </trkpt>
      <trkpt lat="47.26077" lon="-2.32618">
        <ele>-8.1999998092651</ele>
        <time>2022-02-17T08:19:22.000Z</time>
      </trkpt>
      <trkpt lat="47.26119" lon="-2.32615">
        <ele>-8.1999998092651</ele>
        <time>2022-02-17T08:19:29.000Z</time>
      </trkpt>
      <trkpt lat="47.26124" lon="-2.32616">
        <ele>-8.1999998092651</ele>
        <time>2022-02-17T08:19:30.000Z</time>
      </trkpt>
      <trkpt lat="47.26163" lon="-2.32628">
        <ele>-8.1999998092651</ele>
        <time>2022-02-17T08:19:38.000Z</time>
      </trkpt>
      <trkpt lat="47.26168" lon="-2.32629">
        <ele>-8.1999998092651</ele>
        <time>2022-02-17T08:19:39.000Z</time>
      </trkpt>
      <trkpt lat="47.26182" lon="-2.32634">
        <ele>-8.1999998092651</ele>
        <time>2022-02-17T08:19:42.000Z</time>
      </trkpt>
      <trkpt lat="47.26186" lon="-2.32637">
        <ele>-8.1999998092651</ele>
        <time>2022-02-17T08:19:43.000Z</time>
      </trkpt>
      <trkpt lat="47.26214" lon="-2.32663">
        <ele>-8.1999998092651</ele>
        <time>2022-02-17T08:19:50.000Z</time>
      </trkpt>
      <trkpt lat="47.26221" lon="-2.32673">
        <ele>-7.8000001907349</ele>
        <time>2022-02-17T08:19:52.000Z</time>
      </trkpt>
      <trkpt lat="47.26224" lon="-2.32679">
        <ele>-7.4000000953674</ele>
        <time>2022-02-17T08:19:53.000Z</time>
      </trkpt>
      <trkpt lat="47.26227" lon="-2.32684">
        <ele>-7</ele>
        <time>2022-02-17T08:19:54.000Z</time>
      </trkpt>
      <trkpt lat="47.26231" lon="-2.32689">
        <ele>-6.5999999046326</ele>
        <time>2022-02-17T08:19:55.000Z</time>
      </trkpt>
      <trkpt lat="47.26234" lon="-2.32695">
        <ele>-6.1999998092651</ele>
        <time>2022-02-17T08:19:56.000Z</time>
      </trkpt>
      <trkpt lat="47.26264" lon="-2.32741">
        <ele>-6.1999998092651</ele>
        <time>2022-02-17T08:20:04.000Z</time>
      </trkpt>
      <trkpt lat="47.26268" lon="-2.32748">
        <ele>-6.1999998092651</ele>
        <time>2022-02-17T08:20:05.000Z</time>
      </trkpt>
      <trkpt lat="47.26284" lon="-2.32785">
        <ele>-6.1999998092651</ele>
        <time>2022-02-17T08:20:10.000Z</time>
      </trkpt>
      <trkpt lat="47.2629" lon="-2.32807">
        <ele>-6.5999999046326</ele>
        <time>2022-02-17T08:20:13.000Z</time>
      </trkpt>
      <trkpt lat="47.26292" lon="-2.32815">
        <ele>-7</ele>
        <time>2022-02-17T08:20:14.000Z</time>
      </trkpt>
      <trkpt lat="47.26294" lon="-2.32822">
        <ele>-7.4000000953674</ele>
        <time>2022-02-17T08:20:15.000Z</time>
      </trkpt>
      <trkpt lat="47.26296" lon="-2.32828">
        <ele>-7.8000001907349</ele>
        <time>2022-02-17T08:20:16.000Z</time>
      </trkpt>
      <trkpt lat="47.26299" lon="-2.32834">
        <ele>-8.1999998092651</ele>
        <time>2022-02-17T08:20:17.000Z</time>
      </trkpt>
      <trkpt lat="47.26316" lon="-2.32849">
        <ele>-8.1999998092651</ele>
        <time>2022-02-17T08:20:21.000Z</time>
      </trkpt>
      <trkpt lat="47.2633" lon="-2.32864">
        <ele>-8.1999998092651</ele>
        <time>2022-02-17T08:20:25.000Z</time>
      </trkpt>
      <trkpt lat="47.26334" lon="-2.32877">
        <ele>-8.1999998092651</ele>
        <time>2022-02-17T08:20:27.000Z</time>
      </trkpt>
      <trkpt lat="47.26339" lon="-2.32893">
        <ele>-8.1999998092651</ele>
        <time>2022-02-17T08:20:30.000Z</time>
      </trkpt>
      <trkpt lat="47.26352" lon="-2.32931">
        <ele>-8.1999998092651</ele>
        <time>2022-02-17T08:20:37.000Z</time>
      </trkpt>
      <trkpt lat="47.2636" lon="-2.32953">
        <ele>-8.1999998092651</ele>
        <time>2022-02-17T08:20:41.000Z</time>
      </trkpt>
      <trkpt lat="47.26366" lon="-2.3296">
        <ele>-8.1999998092651</ele>
        <time>2022-02-17T08:20:43.000Z</time>
      </trkpt>
      <trkpt lat="47.26372" lon="-2.32968">
        <ele>-8.1999998092651</ele>
        <time>2022-02-17T08:20:45.000Z</time>
      </trkpt>
      <trkpt lat="47.26377" lon="-2.32985">
        <ele>-8.1999998092651</ele>
        <time>2022-02-17T08:20:48.000Z</time>
      </trkpt>
      <trkpt lat="47.26379" lon="-2.33003">
        <ele>-8.1999998092651</ele>
        <time>2022-02-17T08:20:51.000Z</time>
      </trkpt>
      <trkpt lat="47.26378" lon="-2.33016">
        <ele>-8.1999998092651</ele>
        <time>2022-02-17T08:20:53.000Z</time>
      </trkpt>
      <trkpt lat="47.26377" lon="-2.3305">
        <ele>-8.1999998092651</ele>
        <time>2022-02-17T08:20:58.000Z</time>
      </trkpt>
      <trkpt lat="47.26377" lon="-2.33063">
        <ele>-8.1999998092651</ele>
        <time>2022-02-17T08:21:00.000Z</time>
      </trkpt>
      <trkpt lat="47.26378" lon="-2.33088">
        <ele>-8.1999998092651</ele>
        <time>2022-02-17T08:21:04.000Z</time>
      </trkpt>
      <trkpt lat="47.2638" lon="-2.331">
        <ele>-8.1999998092651</ele>
        <time>2022-02-17T08:21:06.000Z</time>
      </trkpt>
      <trkpt lat="47.26383" lon="-2.33151">
        <ele>-8.1999998092651</ele>
        <time>2022-02-17T08:21:14.000Z</time>
      </trkpt>
      <trkpt lat="47.26385" lon="-2.33206">
        <ele>-8.1999998092651</ele>
        <time>2022-02-17T08:21:23.000Z</time>
      </trkpt>
      <trkpt lat="47.26387" lon="-2.33225">
        <ele>-8.1999998092651</ele>
        <time>2022-02-17T08:21:26.000Z</time>
      </trkpt>
      <trkpt lat="47.26391" lon="-2.33243">
        <ele>-8.1999998092651</ele>
        <time>2022-02-17T08:21:29.000Z</time>
      </trkpt>
      <trkpt lat="47.26401" lon="-2.33252">
        <ele>-8.1999998092651</ele>
        <time>2022-02-17T08:21:32.000Z</time>
      </trkpt>
      <trkpt lat="47.26411" lon="-2.33254">
        <ele>-8.1999998092651</ele>
        <time>2022-02-17T08:21:34.000Z</time>
      </trkpt>
      <trkpt lat="47.26433" lon="-2.33256">
        <ele>-8.1999998092651</ele>
        <time>2022-02-17T08:21:39.000Z</time>
      </trkpt>
      <trkpt lat="47.2646" lon="-2.33262">
        <ele>-8.1999998092651</ele>
        <time>2022-02-17T08:21:45.000Z</time>
      </trkpt>
      <trkpt lat="47.26468" lon="-2.33265">
        <ele>-8.1999998092651</ele>
        <time>2022-02-17T08:21:47.000Z</time>
      </trkpt>
      <trkpt lat="47.26496" lon="-2.33268">
        <ele>-8.1999998092651</ele>
        <time>2022-02-17T08:21:54.000Z</time>
      </trkpt>
      <trkpt lat="47.26509" lon="-2.33275">
        <ele>-7.8000001907349</ele>
        <time>2022-02-17T08:21:58.000Z</time>
      </trkpt>
      <trkpt lat="47.26512" lon="-2.33277">
        <ele>-7.4000000953674</ele>
        <time>2022-02-17T08:21:59.000Z</time>
      </trkpt>
      <trkpt lat="47.26515" lon="-2.33279">
        <ele>-7</ele>
        <time>2022-02-17T08:22:00.000Z</time>
      </trkpt>
      <trkpt lat="47.26518" lon="-2.33282">
        <ele>-6.5999999046326</ele>
        <time>2022-02-17T08:22:01.000Z</time>
      </trkpt>
      <trkpt lat="47.26521" lon="-2.33284">
        <ele>-6.1999998092651</ele>
        <time>2022-02-17T08:22:02.000Z</time>
      </trkpt>
      <trkpt lat="47.26524" lon="-2.33287">
        <ele>-6.1999998092651</ele>
        <time>2022-02-17T08:22:03.000Z</time>
      </trkpt>
      <trkpt lat="47.2653" lon="-2.33304">
        <ele>-6.1999998092651</ele>
        <time>2022-02-17T08:22:06.000Z</time>
      </trkpt>
      <trkpt lat="47.26529" lon="-2.3333">
        <ele>-6.1999998092651</ele>
        <time>2022-02-17T08:22:10.000Z</time>
      </trkpt>
      <trkpt lat="47.26529" lon="-2.33337">
        <ele>-6.1999998092651</ele>
        <time>2022-02-17T08:22:11.000Z</time>
      </trkpt>
      <trkpt lat="47.26536" lon="-2.33366">
        <ele>-6.1999998092651</ele>
        <time>2022-02-17T08:22:15.000Z</time>
      </trkpt>
      <trkpt lat="47.26548" lon="-2.33414">
        <ele>-6.1999998092651</ele>
        <time>2022-02-17T08:22:22.000Z</time>
      </trkpt>
      <trkpt lat="47.26557" lon="-2.3347">
        <ele>-6.1999998092651</ele>
        <time>2022-02-17T08:22:30.000Z</time>
      </trkpt>
      <trkpt lat="47.2656" lon="-2.3349">
        <ele>-6.1999998092651</ele>
        <time>2022-02-17T08:22:33.000Z</time>
      </trkpt>
      <trkpt lat="47.26566" lon="-2.33508">
        <ele>-6.1999998092651</ele>
        <time>2022-02-17T08:22:36.000Z</time>
      </trkpt>
      <trkpt lat="47.26568" lon="-2.3352">
        <ele>-6.1999998092651</ele>
        <time>2022-02-17T08:22:38.000Z</time>
      </trkpt>
      <trkpt lat="47.26569" lon="-2.33533">
        <ele>-5.8000001907349</ele>
        <time>2022-02-17T08:22:40.000Z</time>
      </trkpt>
      <trkpt lat="47.2657" lon="-2.3354">
        <ele>-5.4000000953674</ele>
        <time>2022-02-17T08:22:41.000Z</time>
      </trkpt>
      <trkpt lat="47.2657" lon="-2.33545">
        <ele>-5</ele>
        <time>2022-02-17T08:22:42.000Z</time>
      </trkpt>
      <trkpt lat="47.26572" lon="-2.33551">
        <ele>-4.5999999046326</ele>
        <time>2022-02-17T08:22:43.000Z</time>
      </trkpt>
      <trkpt lat="47.26573" lon="-2.33557">
        <ele>-4.1999998092651</ele>
        <time>2022-02-17T08:22:44.000Z</time>
      </trkpt>
      <trkpt lat="47.26576" lon="-2.33574">
        <ele>-4.1999998092651</ele>
        <time>2022-02-17T08:22:47.000Z</time>
      </trkpt>
      <trkpt lat="47.26581" lon="-2.33609">
        <ele>-4.1999998092651</ele>
        <time>2022-02-17T08:22:53.000Z</time>
      </trkpt>
      <trkpt lat="47.26584" lon="-2.33635">
        <ele>-3.7999999523163</ele>
        <time>2022-02-17T08:22:58.000Z</time>
      </trkpt>
      <trkpt lat="47.26584" lon="-2.33639">
        <ele>-3.4000000953674</ele>
        <time>2022-02-17T08:22:59.000Z</time>
      </trkpt>
      <trkpt lat="47.26585" lon="-2.33644">
        <ele>-3</ele>
        <time>2022-02-17T08:23:00.000Z</time>
      </trkpt>
      <trkpt lat="47.26585" lon="-2.33648">
        <ele>-2.5999999046326</ele>
        <time>2022-02-17T08:23:01.000Z</time>
      </trkpt>
      <trkpt lat="47.26586" lon="-2.33653">
        <ele>-2.2000000476837</ele>
        <time>2022-02-17T08:23:02.000Z</time>
      </trkpt>
      <trkpt lat="47.26593" lon="-2.3367">
        <ele>-2.2000000476837</ele>
        <time>2022-02-17T08:23:06.000Z</time>
      </trkpt>
      <trkpt lat="47.26606" lon="-2.33691">
        <ele>-1.7999999523163</ele>
        <time>2022-02-17T08:23:11.000Z</time>
      </trkpt>
      <trkpt lat="47.26609" lon="-2.33695">
        <ele>-1.3999999761581</ele>
        <time>2022-02-17T08:23:12.000Z</time>
      </trkpt>
      <trkpt lat="47.26612" lon="-2.33699">
        <ele>-0.80000001192093</ele>
        <time>2022-02-17T08:23:13.000Z</time>
      </trkpt>
      <trkpt lat="47.26615" lon="-2.33703">
        <ele>-0.40000000596046</ele>
        <time>2022-02-17T08:23:14.000Z</time>
      </trkpt>
      <trkpt lat="47.26617" lon="-2.33707">
        <ele>7.5</ele>
        <time>2022-02-17T08:23:15.000Z</time>
      </trkpt>
      <trkpt lat="47.26628" lon="-2.33724">
        <ele>8</ele>
        <time>2022-02-17T08:23:19.000Z</time>
      </trkpt>
      <trkpt lat="47.26637" lon="-2.33738">
        <ele>8</ele>
        <time>2022-02-17T08:23:22.000Z</time>
      </trkpt>
      <trkpt lat="47.26644" lon="-2.33747">
        <ele>8</ele>
        <time>2022-02-17T08:23:24.000Z</time>
      </trkpt>
      <trkpt lat="47.26646" lon="-2.33752">
        <ele>8</ele>
        <time>2022-02-17T08:23:25.000Z</time>
      </trkpt>
      <trkpt lat="47.26666" lon="-2.33786">
        <ele>8</ele>
        <time>2022-02-17T08:23:32.000Z</time>
      </trkpt>
      <trkpt lat="47.26683" lon="-2.33815">
        <ele>0.40000000596046</ele>
        <time>2022-02-17T08:23:38.000Z</time>
      </trkpt>
      <trkpt lat="47.26685" lon="-2.3382">
        <ele>0.80000001192093</ele>
        <time>2022-02-17T08:23:39.000Z</time>
      </trkpt>
      <trkpt lat="47.26688" lon="-2.33826">
        <ele>1.2000000476837</ele>
        <time>2022-02-17T08:23:40.000Z</time>
      </trkpt>
      <trkpt lat="47.26691" lon="-2.3383">
        <ele>1.6000000238419</ele>
        <time>2022-02-17T08:23:41.000Z</time>
      </trkpt>
      <trkpt lat="47.26694" lon="-2.33836">
        <ele>2</ele>
        <time>2022-02-17T08:23:42.000Z</time>
      </trkpt>
      <trkpt lat="47.26708" lon="-2.33859">
        <ele>2</ele>
        <time>2022-02-17T08:23:47.000Z</time>
      </trkpt>
      <trkpt lat="47.26732" lon="-2.33897">
        <ele>2</ele>
        <time>2022-02-17T08:23:55.000Z</time>
      </trkpt>
      <trkpt lat="47.26756" lon="-2.33935">
        <ele>2</ele>
        <time>2022-02-17T08:24:03.000Z</time>
      </trkpt>
      <trkpt lat="47.26771" lon="-2.33959">
        <ele>2</ele>
        <time>2022-02-17T08:24:08.000Z</time>
      </trkpt>
      <trkpt lat="47.26775" lon="-2.33964">
        <ele>2</ele>
        <time>2022-02-17T08:24:09.000Z</time>
      </trkpt>
      <trkpt lat="47.26793" lon="-2.33992">
        <ele>2.4000000953674</ele>
        <time>2022-02-17T08:24:15.000Z</time>
      </trkpt>
      <trkpt lat="47.26796" lon="-2.33996">
        <ele>2.7999999523163</ele>
        <time>2022-02-17T08:24:16.000Z</time>
      </trkpt>
      <trkpt lat="47.26799" lon="-2.34001">
        <ele>3.4000000953674</ele>
        <time>2022-02-17T08:24:17.000Z</time>
      </trkpt>
      <trkpt lat="47.26802" lon="-2.34006">
        <ele>3.7999999523163</ele>
        <time>2022-02-17T08:24:18.000Z</time>
      </trkpt>
      <trkpt lat="47.26806" lon="-2.34011">
        <ele>4.1999998092651</ele>
        <time>2022-02-17T08:24:19.000Z</time>
      </trkpt>
      <trkpt lat="47.26815" lon="-2.34025">
        <ele>4.1999998092651</ele>
        <time>2022-02-17T08:24:22.000Z</time>
      </trkpt>
      <trkpt lat="47.26817" lon="-2.34028">
        <ele>4.1999998092651</ele>
        <time>2022-02-17T08:24:23.000Z</time>
      </trkpt>
      <trkpt lat="47.26829" lon="-2.34046">
        <ele>4.1999998092651</ele>
        <time>2022-02-17T08:24:27.000Z</time>
      </trkpt>
      <trkpt lat="47.26834" lon="-2.34056">
        <ele>4.1999998092651</ele>
        <time>2022-02-17T08:24:29.000Z</time>
      </trkpt>
      <trkpt lat="47.2686" lon="-2.34101">
        <ele>4.1999998092651</ele>
        <time>2022-02-17T08:24:38.000Z</time>
      </trkpt>
      <trkpt lat="47.26881" lon="-2.34135">
        <ele>4.1999998092651</ele>
        <time>2022-02-17T08:24:45.000Z</time>
      </trkpt>
      <trkpt lat="47.26884" lon="-2.3414">
        <ele>4.1999998092651</ele>
        <time>2022-02-17T08:24:46.000Z</time>
      </trkpt>
      <trkpt lat="47.26906" lon="-2.34173">
        <ele>4.1999998092651</ele>
        <time>2022-02-17T08:24:53.000Z</time>
      </trkpt>
      <trkpt lat="47.26932" lon="-2.34213">
        <ele>4.1999998092651</ele>
        <time>2022-02-17T08:25:01.000Z</time>
      </trkpt>
      <trkpt lat="47.26953" lon="-2.34247">
        <ele>4.1999998092651</ele>
        <time>2022-02-17T08:25:08.000Z</time>
      </trkpt>
      <trkpt lat="47.26959" lon="-2.34256">
        <ele>4.5999999046326</ele>
        <time>2022-02-17T08:25:10.000Z</time>
      </trkpt>
      <trkpt lat="47.26961" lon="-2.34261">
        <ele>5</ele>
        <time>2022-02-17T08:25:11.000Z</time>
      </trkpt>
      <trkpt lat="47.26965" lon="-2.34267">
        <ele>5.4000000953674</ele>
        <time>2022-02-17T08:25:12.000Z</time>
      </trkpt>
      <trkpt lat="47.26968" lon="-2.34272">
        <ele>5.8000001907349</ele>
        <time>2022-02-17T08:25:13.000Z</time>
      </trkpt>
      <trkpt lat="47.26971" lon="-2.34277">
        <ele>6.1999998092651</ele>
        <time>2022-02-17T08:25:14.000Z</time>
      </trkpt>
      <trkpt lat="47.26982" lon="-2.34296">
        <ele>6.1999998092651</ele>
        <time>2022-02-17T08:25:18.000Z</time>
      </trkpt>
      <trkpt lat="47.26991" lon="-2.34316">
        <ele>6.1999998092651</ele>
        <time>2022-02-17T08:25:23.000Z</time>
      </trkpt>
      <trkpt lat="47.26995" lon="-2.34318">
        <ele>6.1999998092651</ele>
        <time>2022-02-17T08:25:24.000Z</time>
      </trkpt>
      <trkpt lat="47.27002" lon="-2.3432">
        <ele>6.1999998092651</ele>
        <time>2022-02-17T08:25:26.000Z</time>
      </trkpt>
      <trkpt lat="47.27013" lon="-2.34322">
        <ele>6.1999998092651</ele>
        <time>2022-02-17T08:25:29.000Z</time>
      </trkpt>
      <trkpt lat="47.27024" lon="-2.34323">
        <ele>6.1999998092651</ele>
        <time>2022-02-17T08:25:32.000Z</time>
      </trkpt>
      <trkpt lat="47.27041" lon="-2.34332">
        <ele>6.1999998092651</ele>
        <time>2022-02-17T08:25:37.000Z</time>
      </trkpt>
      <trkpt lat="47.27047" lon="-2.34356">
        <ele>6.1999998092651</ele>
        <time>2022-02-17T08:25:41.000Z</time>
      </trkpt>
      <trkpt lat="47.27059" lon="-2.34401">
        <ele>6.1999998092651</ele>
        <time>2022-02-17T08:25:48.000Z</time>
      </trkpt>
      <trkpt lat="47.2706" lon="-2.34408">
        <ele>6.5999999046326</ele>
        <time>2022-02-17T08:25:49.000Z</time>
      </trkpt>
      <trkpt lat="47.27062" lon="-2.34414">
        <ele>7</ele>
        <time>2022-02-17T08:25:50.000Z</time>
      </trkpt>
      <trkpt lat="47.27063" lon="-2.3442">
        <ele>7.4000000953674</ele>
        <time>2022-02-17T08:25:51.000Z</time>
      </trkpt>
      <trkpt lat="47.27064" lon="-2.34426">
        <ele>7.8000001907349</ele>
        <time>2022-02-17T08:25:52.000Z</time>
      </trkpt>
      <trkpt lat="47.27066" lon="-2.34433">
        <ele>8.1999998092651</ele>
        <time>2022-02-17T08:25:53.000Z</time>
      </trkpt>
      <trkpt lat="47.27067" lon="-2.34439">
        <ele>8.1999998092651</ele>
        <time>2022-02-17T08:25:54.000Z</time>
      </trkpt>
      <trkpt lat="47.27071" lon="-2.34457">
        <ele>8.1999998092651</ele>
        <time>2022-02-17T08:25:57.000Z</time>
      </trkpt>
      <trkpt lat="47.27077" lon="-2.34481">
        <ele>8.1999998092651</ele>
        <time>2022-02-17T08:26:01.000Z</time>
      </trkpt>
      <trkpt lat="47.27081" lon="-2.345">
        <ele>8.1999998092651</ele>
        <time>2022-02-17T08:26:04.000Z</time>
      </trkpt>
      <trkpt lat="47.27092" lon="-2.34549">
        <ele>8.1999998092651</ele>
        <time>2022-02-17T08:26:12.000Z</time>
      </trkpt>
      <trkpt lat="47.27103" lon="-2.346">
        <ele>8.1999998092651</ele>
        <time>2022-02-17T08:26:20.000Z</time>
      </trkpt>
      <trkpt lat="47.27114" lon="-2.3465">
        <ele>8.1999998092651</ele>
        <time>2022-02-17T08:26:27.000Z</time>
      </trkpt>
      <trkpt lat="47.27129" lon="-2.34717">
        <ele>8.1999998092651</ele>
        <time>2022-02-17T08:26:37.000Z</time>
      </trkpt>
      <trkpt lat="47.27135" lon="-2.34742">
        <ele>8.1999998092651</ele>
        <time>2022-02-17T08:26:41.000Z</time>
      </trkpt>
      <trkpt lat="47.27137" lon="-2.34754">
        <ele>8.1999998092651</ele>
        <time>2022-02-17T08:26:43.000Z</time>
      </trkpt>
      <trkpt lat="47.2714" lon="-2.34767">
        <ele>8.1999998092651</ele>
        <time>2022-02-17T08:26:45.000Z</time>
      </trkpt>
      <trkpt lat="47.27147" lon="-2.348">
        <ele>8.6000003814697</ele>
        <time>2022-02-17T08:26:50.000Z</time>
      </trkpt>
      <trkpt lat="47.27148" lon="-2.34807">
        <ele>9</ele>
        <time>2022-02-17T08:26:51.000Z</time>
      </trkpt>
      <trkpt lat="47.2715" lon="-2.34813">
        <ele>9.3999996185303</ele>
        <time>2022-02-17T08:26:52.000Z</time>
      </trkpt>
      <trkpt lat="47.27151" lon="-2.3482">
        <ele>9.8000001907349</ele>
        <time>2022-02-17T08:26:53.000Z</time>
      </trkpt>
      <trkpt lat="47.27153" lon="-2.34827">
        <ele>10.199999809265</ele>
        <time>2022-02-17T08:26:54.000Z</time>
      </trkpt>
      <trkpt lat="47.27163" lon="-2.34871">
        <ele>10.199999809265</ele>
        <time>2022-02-17T08:27:01.000Z</time>
      </trkpt>
      <trkpt lat="47.27172" lon="-2.34901">
        <ele>10.199999809265</ele>
        <time>2022-02-17T08:27:06.000Z</time>
      </trkpt>
      <trkpt lat="47.27177" lon="-2.34916">
        <ele>10.199999809265</ele>
        <time>2022-02-17T08:27:09.000Z</time>
      </trkpt>
      <trkpt lat="47.27192" lon="-2.34962">
        <ele>10.199999809265</ele>
        <time>2022-02-17T08:27:17.000Z</time>
      </trkpt>
      <trkpt lat="47.27203" lon="-2.34996">
        <ele>10.800000190735</ele>
        <time>2022-02-17T08:27:23.000Z</time>
      </trkpt>
      <trkpt lat="47.27205" lon="-2.35001">
        <ele>11.199999809265</ele>
        <time>2022-02-17T08:27:24.000Z</time>
      </trkpt>
      <trkpt lat="47.27207" lon="-2.35006">
        <ele>11.60000038147</ele>
        <time>2022-02-17T08:27:25.000Z</time>
      </trkpt>
      <trkpt lat="47.27209" lon="-2.35012">
        <ele>12</ele>
        <time>2022-02-17T08:27:26.000Z</time>
      </trkpt>
      <trkpt lat="47.27211" lon="-2.35018">
        <ele>12.39999961853</ele>
        <time>2022-02-17T08:27:27.000Z</time>
      </trkpt>
      <trkpt lat="47.27221" lon="-2.35047">
        <ele>12.39999961853</ele>
        <time>2022-02-17T08:27:32.000Z</time>
      </trkpt>
      <trkpt lat="47.2723" lon="-2.35071">
        <ele>12.39999961853</ele>
        <time>2022-02-17T08:27:36.000Z</time>
      </trkpt>
      <trkpt lat="47.2724" lon="-2.35092">
        <ele>12.39999961853</ele>
        <time>2022-02-17T08:27:40.000Z</time>
      </trkpt>
      <trkpt lat="47.27257" lon="-2.35124">
        <ele>12.39999961853</ele>
        <time>2022-02-17T08:27:47.000Z</time>
      </trkpt>
      <trkpt lat="47.27268" lon="-2.3512">
        <ele>12.39999961853</ele>
        <time>2022-02-17T08:27:50.000Z</time>
      </trkpt>
      <trkpt lat="47.27283" lon="-2.35111">
        <ele>12.39999961853</ele>
        <time>2022-02-17T08:27:55.000Z</time>
      </trkpt>
      <trkpt lat="47.27289" lon="-2.35108">
        <ele>12.800000190735</ele>
        <time>2022-02-17T08:27:57.000Z</time>
      </trkpt>
      <trkpt lat="47.27291" lon="-2.35105">
        <ele>13.199999809265</ele>
        <time>2022-02-17T08:27:58.000Z</time>
      </trkpt>
      <trkpt lat="47.27294" lon="-2.35105">
        <ele>13.60000038147</ele>
        <time>2022-02-17T08:27:59.000Z</time>
      </trkpt>
      <trkpt lat="47.27297" lon="-2.35105">
        <ele>14.199999809265</ele>
        <time>2022-02-17T08:28:00.000Z</time>
      </trkpt>
      <trkpt lat="47.27299" lon="-2.35105">
        <ele>14.60000038147</ele>
        <time>2022-02-17T08:28:01.000Z</time>
      </trkpt>
      <trkpt lat="47.27309" lon="-2.35098">
        <ele>14.60000038147</ele>
        <time>2022-02-17T08:28:05.000Z</time>
      </trkpt>
      <trkpt lat="47.27323" lon="-2.35089">
        <ele>15.39999961853</ele>
        <time>2022-02-17T08:28:10.000Z</time>
      </trkpt>
      <trkpt lat="47.27326" lon="-2.35087">
        <ele>15.800000190735</ele>
        <time>2022-02-17T08:28:11.000Z</time>
      </trkpt>
      <trkpt lat="47.27329" lon="-2.35085">
        <ele>16.200000762939</ele>
        <time>2022-02-17T08:28:12.000Z</time>
      </trkpt>
      <trkpt lat="47.27332" lon="-2.35083">
        <ele>16.60000038147</ele>
        <time>2022-02-17T08:28:13.000Z</time>
      </trkpt>
      <trkpt lat="47.27345" lon="-2.35075">
        <ele>16.60000038147</ele>
        <time>2022-02-17T08:28:18.000Z</time>
      </trkpt>
      <trkpt lat="47.27348" lon="-2.35073">
        <ele>17</ele>
        <time>2022-02-17T08:28:19.000Z</time>
      </trkpt>
      <trkpt lat="47.27351" lon="-2.35072">
        <ele>17.39999961853</ele>
        <time>2022-02-17T08:28:20.000Z</time>
      </trkpt>
      <trkpt lat="47.27354" lon="-2.35071">
        <ele>17.799999237061</ele>
        <time>2022-02-17T08:28:21.000Z</time>
      </trkpt>
      <trkpt lat="47.27357" lon="-2.3507">
        <ele>18.39999961853</ele>
        <time>2022-02-17T08:28:22.000Z</time>
      </trkpt>
      <trkpt lat="47.27361" lon="-2.35068">
        <ele>18.799999237061</ele>
        <time>2022-02-17T08:28:23.000Z</time>
      </trkpt>
      <trkpt lat="47.27366" lon="-2.35065">
        <ele>18.799999237061</ele>
        <time>2022-02-17T08:28:25.000Z</time>
      </trkpt>
      <trkpt lat="47.27378" lon="-2.35057">
        <ele>19.200000762939</ele>
        <time>2022-02-17T08:28:29.000Z</time>
      </trkpt>
      <trkpt lat="47.27381" lon="-2.35055">
        <ele>19.60000038147</ele>
        <time>2022-02-17T08:28:30.000Z</time>
      </trkpt>
      <trkpt lat="47.27384" lon="-2.35054">
        <ele>20</ele>
        <time>2022-02-17T08:28:31.000Z</time>
      </trkpt>
      <trkpt lat="47.27387" lon="-2.35053">
        <ele>20.39999961853</ele>
        <time>2022-02-17T08:28:32.000Z</time>
      </trkpt>
      <trkpt lat="47.2739" lon="-2.35053">
        <ele>20.799999237061</ele>
        <time>2022-02-17T08:28:33.000Z</time>
      </trkpt>
      <trkpt lat="47.27395" lon="-2.35053">
        <ele>20.799999237061</ele>
        <time>2022-02-17T08:28:35.000Z</time>
      </trkpt>
      <trkpt lat="47.27399" lon="-2.35058">
        <ele>20.799999237061</ele>
        <time>2022-02-17T08:28:37.000Z</time>
      </trkpt>
      <trkpt lat="47.27402" lon="-2.35065">
        <ele>20.799999237061</ele>
        <time>2022-02-17T08:28:39.000Z</time>
      </trkpt>
      <trkpt lat="47.27406" lon="-2.35082">
        <ele>20.799999237061</ele>
        <time>2022-02-17T08:28:43.000Z</time>
      </trkpt>
      <trkpt lat="47.27408" lon="-2.35091">
        <ele>21.200000762939</ele>
        <time>2022-02-17T08:28:45.000Z</time>
      </trkpt>
      <trkpt lat="47.27409" lon="-2.35095">
        <ele>21.60000038147</ele>
        <time>2022-02-17T08:28:46.000Z</time>
      </trkpt>
      <trkpt lat="47.2741" lon="-2.35099">
        <ele>22</ele>
        <time>2022-02-17T08:28:47.000Z</time>
      </trkpt>
      <trkpt lat="47.27411" lon="-2.35103">
        <ele>22.39999961853</ele>
        <time>2022-02-17T08:28:48.000Z</time>
      </trkpt>
      <trkpt lat="47.27412" lon="-2.35108">
        <ele>22.799999237061</ele>
        <time>2022-02-17T08:28:49.000Z</time>
      </trkpt>
      <trkpt lat="47.27417" lon="-2.35126">
        <ele>22.799999237061</ele>
        <time>2022-02-17T08:28:53.000Z</time>
      </trkpt>
      <trkpt lat="47.27424" lon="-2.35156">
        <ele>22.799999237061</ele>
        <time>2022-02-17T08:28:59.000Z</time>
      </trkpt>
      <trkpt lat="47.27431" lon="-2.35173">
        <ele>22.799999237061</ele>
        <time>2022-02-17T08:29:03.000Z</time>
      </trkpt>
      <trkpt lat="47.27444" lon="-2.35168">
        <ele>22.799999237061</ele>
        <time>2022-02-17T08:29:07.000Z</time>
      </trkpt>
      <trkpt lat="47.27467" lon="-2.35155">
        <ele>22.799999237061</ele>
        <time>2022-02-17T08:29:15.000Z</time>
      </trkpt>
      <trkpt lat="47.2747" lon="-2.35153">
        <ele>23.200000762939</ele>
        <time>2022-02-17T08:29:16.000Z</time>
      </trkpt>
      <trkpt lat="47.27473" lon="-2.35151">
        <ele>23.60000038147</ele>
        <time>2022-02-17T08:29:17.000Z</time>
      </trkpt>
      <trkpt lat="47.27476" lon="-2.3515">
        <ele>24.200000762939</ele>
        <time>2022-02-17T08:29:18.000Z</time>
      </trkpt>
      <trkpt lat="47.27479" lon="-2.35149">
        <ele>24.60000038147</ele>
        <time>2022-02-17T08:29:19.000Z</time>
      </trkpt>
      <trkpt lat="47.27482" lon="-2.35147">
        <ele>25</ele>
        <time>2022-02-17T08:29:20.000Z</time>
      </trkpt>
      <trkpt lat="47.27491" lon="-2.35142">
        <ele>25</ele>
        <time>2022-02-17T08:29:23.000Z</time>
      </trkpt>
      <trkpt lat="47.275" lon="-2.35131">
        <ele>25</ele>
        <time>2022-02-17T08:29:27.000Z</time>
      </trkpt>
      <trkpt lat="47.27503" lon="-2.35127">
        <ele>25</ele>
        <time>2022-02-17T08:29:29.000Z</time>
      </trkpt>
      <trkpt lat="47.27506" lon="-2.35127">
        <ele>25</ele>
        <time>2022-02-17T08:29:30.000Z</time>
      </trkpt>
      <trkpt lat="47.27515" lon="-2.35131">
        <ele>25.39999961853</ele>
        <time>2022-02-17T08:29:33.000Z</time>
      </trkpt>
      <trkpt lat="47.27518" lon="-2.35132">
        <ele>25.799999237061</ele>
        <time>2022-02-17T08:29:34.000Z</time>
      </trkpt>
      <trkpt lat="47.2752" lon="-2.35133">
        <ele>26.200000762939</ele>
        <time>2022-02-17T08:29:35.000Z</time>
      </trkpt>
      <trkpt lat="47.27524" lon="-2.35135">
        <ele>26.60000038147</ele>
        <time>2022-02-17T08:29:36.000Z</time>
      </trkpt>
      <trkpt lat="47.27528" lon="-2.35137">
        <ele>27</ele>
        <time>2022-02-17T08:29:37.000Z</time>
      </trkpt>
      <trkpt lat="47.27547" lon="-2.35139">
        <ele>27</ele>
        <time>2022-02-17T08:29:43.000Z</time>
      </trkpt>
      <trkpt lat="47.27565" lon="-2.35136">
        <ele>27</ele>
        <time>2022-02-17T08:29:50.000Z</time>
      </trkpt>
      <trkpt lat="47.27591" lon="-2.35135">
        <ele>27</ele>
        <time>2022-02-17T08:29:57.000Z</time>
      </trkpt>
      <trkpt lat="47.27595" lon="-2.35138">
        <ele>27</ele>
        <time>2022-02-17T08:29:58.000Z</time>
      </trkpt>
      <trkpt lat="47.27605" lon="-2.35148">
        <ele>27</ele>
        <time>2022-02-17T08:30:01.000Z</time>
      </trkpt>
      <trkpt lat="47.2762" lon="-2.35148">
        <ele>27</ele>
        <time>2022-02-17T08:30:05.000Z</time>
      </trkpt>
      <trkpt lat="47.27635" lon="-2.35149">
        <ele>27</ele>
        <time>2022-02-17T08:30:09.000Z</time>
      </trkpt>
      <trkpt lat="47.27645" lon="-2.3515">
        <ele>27</ele>
        <time>2022-02-17T08:30:12.000Z</time>
      </trkpt>
      <trkpt lat="47.27649" lon="-2.35152">
        <ele>27</ele>
        <time>2022-02-17T08:30:13.000Z</time>
      </trkpt>
      <trkpt lat="47.27664" lon="-2.35161">
        <ele>27</ele>
        <time>2022-02-17T08:30:17.000Z</time>
      </trkpt>
      <trkpt lat="47.27669" lon="-2.35175">
        <ele>27</ele>
        <time>2022-02-17T08:30:20.000Z</time>
      </trkpt>
      <trkpt lat="47.2767" lon="-2.3518">
        <ele>27</ele>
        <time>2022-02-17T08:30:21.000Z</time>
      </trkpt>
      <trkpt lat="47.27674" lon="-2.35211">
        <ele>27</ele>
        <time>2022-02-17T08:30:26.000Z</time>
      </trkpt>
      <trkpt lat="47.27678" lon="-2.35223">
        <ele>26.60000038147</ele>
        <time>2022-02-17T08:30:29.000Z</time>
      </trkpt>
      <trkpt lat="47.27681" lon="-2.35223">
        <ele>26.200000762939</ele>
        <time>2022-02-17T08:30:30.000Z</time>
      </trkpt>
      <trkpt lat="47.27685" lon="-2.35222">
        <ele>25.60000038147</ele>
        <time>2022-02-17T08:30:31.000Z</time>
      </trkpt>
      <trkpt lat="47.27688" lon="-2.3522">
        <ele>25.200000762939</ele>
        <time>2022-02-17T08:30:32.000Z</time>
      </trkpt>
      <trkpt lat="47.27692" lon="-2.35218">
        <ele>24.799999237061</ele>
        <time>2022-02-17T08:30:33.000Z</time>
      </trkpt>
      <trkpt lat="47.27724" lon="-2.35208">
        <ele>24.799999237061</ele>
        <time>2022-02-17T08:30:40.000Z</time>
      </trkpt>
      <trkpt lat="47.27728" lon="-2.35207">
        <ele>24.799999237061</ele>
        <time>2022-02-17T08:30:41.000Z</time>
      </trkpt>
      <trkpt lat="47.27737" lon="-2.35205">
        <ele>24.799999237061</ele>
        <time>2022-02-17T08:30:43.000Z</time>
      </trkpt>
      <trkpt lat="47.27746" lon="-2.35201">
        <ele>24.799999237061</ele>
        <time>2022-02-17T08:30:45.000Z</time>
      </trkpt>
      <trkpt lat="47.27755" lon="-2.35199">
        <ele>24.39999961853</ele>
        <time>2022-02-17T08:30:47.000Z</time>
      </trkpt>
      <trkpt lat="47.27759" lon="-2.35198">
        <ele>23.799999237061</ele>
        <time>2022-02-17T08:30:48.000Z</time>
      </trkpt>
      <trkpt lat="47.27764" lon="-2.35198">
        <ele>23.39999961853</ele>
        <time>2022-02-17T08:30:49.000Z</time>
      </trkpt>
      <trkpt lat="47.27768" lon="-2.35197">
        <ele>23</ele>
        <time>2022-02-17T08:30:50.000Z</time>
      </trkpt>
      <trkpt lat="47.27771" lon="-2.35197">
        <ele>22.60000038147</ele>
        <time>2022-02-17T08:30:51.000Z</time>
      </trkpt>
      <trkpt lat="47.27777" lon="-2.35198">
        <ele>22.60000038147</ele>
        <time>2022-02-17T08:30:55.000Z</time>
      </trkpt>
      <trkpt lat="47.2778" lon="-2.35204">
        <ele>22.60000038147</ele>
        <time>2022-02-17T08:30:57.000Z</time>
      </trkpt>
      <trkpt lat="47.2778" lon="-2.35212">
        <ele>22.60000038147</ele>
        <time>2022-02-17T08:30:59.000Z</time>
      </trkpt>
      <trkpt lat="47.27783" lon="-2.35243">
        <ele>22.60000038147</ele>
        <time>2022-02-17T08:31:05.000Z</time>
      </trkpt>
      <trkpt lat="47.27791" lon="-2.35284">
        <ele>22.60000038147</ele>
        <time>2022-02-17T08:31:12.000Z</time>
      </trkpt>
      <trkpt lat="47.27793" lon="-2.3529">
        <ele>22.60000038147</ele>
        <time>2022-02-17T08:31:13.000Z</time>
      </trkpt>
      <trkpt lat="47.278" lon="-2.35326">
        <ele>22.60000038147</ele>
        <time>2022-02-17T08:31:19.000Z</time>
      </trkpt>
      <trkpt lat="47.27801" lon="-2.35331">
        <ele>22.60000038147</ele>
        <time>2022-02-17T08:31:20.000Z</time>
      </trkpt>
      <trkpt lat="47.27804" lon="-2.35344">
        <ele>22.60000038147</ele>
        <time>2022-02-17T08:31:22.000Z</time>
      </trkpt>
      <trkpt lat="47.27809" lon="-2.35354">
        <ele>22.60000038147</ele>
        <time>2022-02-17T08:31:24.000Z</time>
      </trkpt>
      <trkpt lat="47.2782" lon="-2.3536">
        <ele>22.60000038147</ele>
        <time>2022-02-17T08:31:27.000Z</time>
      </trkpt>
      <trkpt lat="47.27824" lon="-2.3536">
        <ele>22.60000038147</ele>
        <time>2022-02-17T08:31:28.000Z</time>
      </trkpt>
      <trkpt lat="47.27847" lon="-2.35358">
        <ele>22.60000038147</ele>
        <time>2022-02-17T08:31:34.000Z</time>
      </trkpt>
      <trkpt lat="47.27876" lon="-2.35359">
        <ele>22.60000038147</ele>
        <time>2022-02-17T08:31:42.000Z</time>
      </trkpt>
      <trkpt lat="47.27882" lon="-2.35364">
        <ele>23</ele>
        <time>2022-02-17T08:31:44.000Z</time>
      </trkpt>
      <trkpt lat="47.27884" lon="-2.35368">
        <ele>23.39999961853</ele>
        <time>2022-02-17T08:31:45.000Z</time>
      </trkpt>
      <trkpt lat="47.27887" lon="-2.35373">
        <ele>23.799999237061</ele>
        <time>2022-02-17T08:31:46.000Z</time>
      </trkpt>
      <trkpt lat="47.27889" lon="-2.35377">
        <ele>24.200000762939</ele>
        <time>2022-02-17T08:31:47.000Z</time>
      </trkpt>
      <trkpt lat="47.27892" lon="-2.35381">
        <ele>24.60000038147</ele>
        <time>2022-02-17T08:31:48.000Z</time>
      </trkpt>
      <trkpt lat="47.27909" lon="-2.35404">
        <ele>24.60000038147</ele>
        <time>2022-02-17T08:31:54.000Z</time>
      </trkpt>
      <trkpt lat="47.27931" lon="-2.35437">
        <ele>24.60000038147</ele>
        <time>2022-02-17T08:32:02.000Z</time>
      </trkpt>
      <trkpt lat="47.27948" lon="-2.35455">
        <ele>24.60000038147</ele>
        <time>2022-02-17T08:32:07.000Z</time>
      </trkpt>
      <trkpt lat="47.27956" lon="-2.35459">
        <ele>24.60000038147</ele>
        <time>2022-02-17T08:32:09.000Z</time>
      </trkpt>
      <trkpt lat="47.27972" lon="-2.3547">
        <ele>24.60000038147</ele>
        <time>2022-02-17T08:32:13.000Z</time>
      </trkpt>
      <trkpt lat="47.27975" lon="-2.35474">
        <ele>24.60000038147</ele>
        <time>2022-02-17T08:32:14.000Z</time>
      </trkpt>
      <trkpt lat="47.27992" lon="-2.35506">
        <ele>24.60000038147</ele>
        <time>2022-02-17T08:32:20.000Z</time>
      </trkpt>
      <trkpt lat="47.28005" lon="-2.35531">
        <ele>24.60000038147</ele>
        <time>2022-02-17T08:32:26.000Z</time>
      </trkpt>
      <trkpt lat="47.28006" lon="-2.35535">
        <ele>25</ele>
        <time>2022-02-17T08:32:27.000Z</time>
      </trkpt>
      <trkpt lat="47.28007" lon="-2.35539">
        <ele>25.60000038147</ele>
        <time>2022-02-17T08:32:28.000Z</time>
      </trkpt>
      <trkpt lat="47.28008" lon="-2.35543">
        <ele>26</ele>
        <time>2022-02-17T08:32:29.000Z</time>
      </trkpt>
      <trkpt lat="47.28009" lon="-2.35546">
        <ele>26.39999961853</ele>
        <time>2022-02-17T08:32:30.000Z</time>
      </trkpt>
      <trkpt lat="47.28011" lon="-2.3555">
        <ele>26.799999237061</ele>
        <time>2022-02-17T08:32:31.000Z</time>
      </trkpt>
      <trkpt lat="47.28016" lon="-2.3556">
        <ele>26.799999237061</ele>
        <time>2022-02-17T08:32:34.000Z</time>
      </trkpt>
      <trkpt lat="47.28019" lon="-2.35561">
        <ele>26.799999237061</ele>
        <time>2022-02-17T08:32:35.000Z</time>
      </trkpt>
      <trkpt lat="47.28029" lon="-2.35563">
        <ele>27.200000762939</ele>
        <time>2022-02-17T08:32:38.000Z</time>
      </trkpt>
      <trkpt lat="47.28032" lon="-2.35565">
        <ele>27.60000038147</ele>
        <time>2022-02-17T08:32:39.000Z</time>
      </trkpt>
      <trkpt lat="47.28036" lon="-2.35567">
        <ele>28</ele>
        <time>2022-02-17T08:32:40.000Z</time>
      </trkpt>
      <trkpt lat="47.28038" lon="-2.35569">
        <ele>28.39999961853</ele>
        <time>2022-02-17T08:32:41.000Z</time>
      </trkpt>
      <trkpt lat="47.28041" lon="-2.3557">
        <ele>28.799999237061</ele>
        <time>2022-02-17T08:32:42.000Z</time>
      </trkpt>
      <trkpt lat="47.28059" lon="-2.35576">
        <ele>28.799999237061</ele>
        <time>2022-02-17T08:32:48.000Z</time>
      </trkpt>
      <trkpt lat="47.28068" lon="-2.35582">
        <ele>28.799999237061</ele>
        <time>2022-02-17T08:32:52.000Z</time>
      </trkpt>
      <trkpt lat="47.28069" lon="-2.35584">
        <ele>29.200000762939</ele>
        <time>2022-02-17T08:32:53.000Z</time>
      </trkpt>
      <trkpt lat="47.28071" lon="-2.35588">
        <ele>29.60000038147</ele>
        <time>2022-02-17T08:32:54.000Z</time>
      </trkpt>
      <trkpt lat="47.28073" lon="-2.35591">
        <ele>30</ele>
        <time>2022-02-17T08:32:55.000Z</time>
      </trkpt>
      <trkpt lat="47.28074" lon="-2.35595">
        <ele>30.39999961853</ele>
        <time>2022-02-17T08:32:56.000Z</time>
      </trkpt>
      <trkpt lat="47.28076" lon="-2.35599">
        <ele>30.799999237061</ele>
        <time>2022-02-17T08:32:57.000Z</time>
      </trkpt>
      <trkpt lat="47.2808" lon="-2.35607">
        <ele>30.799999237061</ele>
        <time>2022-02-17T08:32:59.000Z</time>
      </trkpt>
      <trkpt lat="47.28083" lon="-2.35616">
        <ele>30.799999237061</ele>
        <time>2022-02-17T08:33:03.000Z</time>
      </trkpt>
      <trkpt lat="47.28084" lon="-2.35619">
        <ele>30.799999237061</ele>
        <time>2022-02-17T08:33:08.000Z</time>
      </trkpt>
      <trkpt lat="47.28081" lon="-2.35615">
        <ele>39.200000762939</ele>
        <time>2022-02-17T08:39:41.000Z</time>
      </trkpt>
      <trkpt lat="47.28077" lon="-2.3562">
        <ele>39.200000762939</ele>
        <time>2022-02-17T08:39:45.000Z</time>
      </trkpt>
      <trkpt lat="47.28077" lon="-2.35622">
        <ele>39.200000762939</ele>
        <time>2022-02-17T08:39:46.000Z</time>
      </trkpt>
      <trkpt lat="47.28078" lon="-2.3563">
        <ele>39.599998474121</ele>
        <time>2022-02-17T08:39:50.000Z</time>
      </trkpt>
      <trkpt lat="47.28078" lon="-2.35632">
        <ele>40</ele>
        <time>2022-02-17T08:39:51.000Z</time>
      </trkpt>
      <trkpt lat="47.28078" lon="-2.35634">
        <ele>40.400001525879</ele>
        <time>2022-02-17T08:39:52.000Z</time>
      </trkpt>
      <trkpt lat="47.28079" lon="-2.35636">
        <ele>40.799999237061</ele>
        <time>2022-02-17T08:39:53.000Z</time>
      </trkpt>
      <trkpt lat="47.28079" lon="-2.35639">
        <ele>41.200000762939</ele>
        <time>2022-02-17T08:39:54.000Z</time>
      </trkpt>
      <trkpt lat="47.28081" lon="-2.35645">
        <ele>41.599998474121</ele>
        <time>2022-02-17T08:39:56.000Z</time>
      </trkpt>
      <trkpt lat="47.28082" lon="-2.35649">
        <ele>42</ele>
        <time>2022-02-17T08:39:57.000Z</time>
      </trkpt>
      <trkpt lat="47.28083" lon="-2.35652">
        <ele>42.400001525879</ele>
        <time>2022-02-17T08:39:58.000Z</time>
      </trkpt>
      <trkpt lat="47.28085" lon="-2.35656">
        <ele>43</ele>
        <time>2022-02-17T08:39:59.000Z</time>
      </trkpt>
      <trkpt lat="47.28086" lon="-2.3566">
        <ele>43.400001525879</ele>
        <time>2022-02-17T08:40:00.000Z</time>
      </trkpt>
      <trkpt lat="47.28091" lon="-2.35674">
        <ele>43.400001525879</ele>
        <time>2022-02-17T08:40:04.000Z</time>
      </trkpt>
      <trkpt lat="47.28092" lon="-2.35677">
        <ele>43.799999237061</ele>
        <time>2022-02-17T08:40:05.000Z</time>
      </trkpt>
      <trkpt lat="47.28093" lon="-2.3568">
        <ele>44.200000762939</ele>
        <time>2022-02-17T08:40:06.000Z</time>
      </trkpt>
      <trkpt lat="47.28094" lon="-2.35682">
        <ele>45</ele>
        <time>2022-02-17T08:40:07.000Z</time>
      </trkpt>
      <trkpt lat="47.28094" lon="-2.35684">
        <ele>45.400001525879</ele>
        <time>2022-02-17T08:40:08.000Z</time>
      </trkpt>
      <trkpt lat="47.28095" lon="-2.3569">
        <ele>45.400001525879</ele>
        <time>2022-02-17T08:40:10.000Z</time>
      </trkpt>
      <trkpt lat="47.28096" lon="-2.35694">
        <ele>45.400001525879</ele>
        <time>2022-02-17T08:40:11.000Z</time>
      </trkpt>
      <trkpt lat="47.28095" lon="-2.35715">
        <ele>45.400001525879</ele>
        <time>2022-02-17T08:40:17.000Z</time>
      </trkpt>
      <trkpt lat="47.28091" lon="-2.35742">
        <ele>45.400001525879</ele>
        <time>2022-02-17T08:40:22.000Z</time>
      </trkpt>
      <trkpt lat="47.28083" lon="-2.35772">
        <ele>45.400001525879</ele>
        <time>2022-02-17T08:40:27.000Z</time>
      </trkpt>
      <trkpt lat="47.28078" lon="-2.3579">
        <ele>45.400001525879</ele>
        <time>2022-02-17T08:40:31.000Z</time>
      </trkpt>
      <trkpt lat="47.28079" lon="-2.35795">
        <ele>44.599998474121</ele>
        <time>2022-02-17T08:40:32.000Z</time>
      </trkpt>
      <trkpt lat="47.28081" lon="-2.358">
        <ele>44.200000762939</ele>
        <time>2022-02-17T08:40:33.000Z</time>
      </trkpt>
      <trkpt lat="47.28084" lon="-2.35805">
        <ele>43.799999237061</ele>
        <time>2022-02-17T08:40:34.000Z</time>
      </trkpt>
      <trkpt lat="47.28087" lon="-2.3581">
        <ele>43.400001525879</ele>
        <time>2022-02-17T08:40:35.000Z</time>
      </trkpt>
      <trkpt lat="47.28092" lon="-2.3582">
        <ele>43.400001525879</ele>
        <time>2022-02-17T08:40:37.000Z</time>
      </trkpt>
      <trkpt lat="47.28102" lon="-2.35842">
        <ele>43.400001525879</ele>
        <time>2022-02-17T08:40:43.000Z</time>
      </trkpt>
      <trkpt lat="47.28111" lon="-2.35857">
        <ele>43.400001525879</ele>
        <time>2022-02-17T08:40:48.000Z</time>
      </trkpt>
      <trkpt lat="47.28121" lon="-2.35872">
        <ele>43.400001525879</ele>
        <time>2022-02-17T08:40:53.000Z</time>
      </trkpt>
      <trkpt lat="47.28131" lon="-2.35887">
        <ele>43.400001525879</ele>
        <time>2022-02-17T08:41:00.000Z</time>
      </trkpt>
      <trkpt lat="47.28143" lon="-2.35912">
        <ele>43.400001525879</ele>
        <time>2022-02-17T08:41:07.000Z</time>
      </trkpt>
      <trkpt lat="47.2815" lon="-2.35929">
        <ele>43.400001525879</ele>
        <time>2022-02-17T08:41:14.000Z</time>
      </trkpt>
      <trkpt lat="47.28162" lon="-2.35947">
        <ele>43.400001525879</ele>
        <time>2022-02-17T08:41:19.000Z</time>
      </trkpt>
      <trkpt lat="47.28166" lon="-2.35948">
        <ele>43.400001525879</ele>
        <time>2022-02-17T08:41:20.000Z</time>
      </trkpt>
      <trkpt lat="47.28171" lon="-2.35945">
        <ele>43.400001525879</ele>
        <time>2022-02-17T08:41:22.000Z</time>
      </trkpt>
      <trkpt lat="47.28177" lon="-2.35942">
        <ele>43.400001525879</ele>
        <time>2022-02-17T08:41:24.000Z</time>
      </trkpt>
      <trkpt lat="47.28186" lon="-2.35932">
        <ele>43.400001525879</ele>
        <time>2022-02-17T08:41:28.000Z</time>
      </trkpt>
      <trkpt lat="47.28194" lon="-2.35911">
        <ele>43.400001525879</ele>
        <time>2022-02-17T08:41:33.000Z</time>
      </trkpt>
      <trkpt lat="47.28197" lon="-2.35898">
        <ele>43.400001525879</ele>
        <time>2022-02-17T08:41:38.000Z</time>
      </trkpt>
      <trkpt lat="47.28203" lon="-2.35899">
        <ele>43.400001525879</ele>
        <time>2022-02-17T08:41:42.000Z</time>
      </trkpt>
      <trkpt lat="47.28205" lon="-2.35899">
        <ele>43.400001525879</ele>
        <time>2022-02-17T08:41:43.000Z</time>
      </trkpt>
      <trkpt lat="47.28212" lon="-2.35901">
        <ele>43.400001525879</ele>
        <time>2022-02-17T08:41:46.000Z</time>
      </trkpt>
      <trkpt lat="47.2822" lon="-2.35903">
        <ele>43.400001525879</ele>
        <time>2022-02-17T08:41:49.000Z</time>
      </trkpt>
      <trkpt lat="47.28223" lon="-2.35903">
        <ele>43.799999237061</ele>
        <time>2022-02-17T08:41:50.000Z</time>
      </trkpt>
      <trkpt lat="47.28224" lon="-2.35904">
        <ele>44.200000762939</ele>
        <time>2022-02-17T08:41:51.000Z</time>
      </trkpt>
      <trkpt lat="47.28226" lon="-2.35904">
        <ele>44.599998474121</ele>
        <time>2022-02-17T08:41:52.000Z</time>
      </trkpt>
      <trkpt lat="47.28228" lon="-2.35903">
        <ele>45</ele>
        <time>2022-02-17T08:41:53.000Z</time>
      </trkpt>
      <trkpt lat="47.2823" lon="-2.35902">
        <ele>45.400001525879</ele>
        <time>2022-02-17T08:41:54.000Z</time>
      </trkpt>
      <trkpt lat="47.28239" lon="-2.359">
        <ele>45.400001525879</ele>
        <time>2022-02-17T08:41:59.000Z</time>
      </trkpt>
      <trkpt lat="47.28241" lon="-2.35904">
        <ele>45.799999237061</ele>
        <time>2022-02-17T08:42:01.000Z</time>
      </trkpt>
      <trkpt lat="47.28242" lon="-2.35905">
        <ele>46.200000762939</ele>
        <time>2022-02-17T08:42:02.000Z</time>
      </trkpt>
      <trkpt lat="47.28243" lon="-2.35907">
        <ele>46.599998474121</ele>
        <time>2022-02-17T08:42:03.000Z</time>
      </trkpt>
      <trkpt lat="47.28245" lon="-2.3591">
        <ele>47</ele>
        <time>2022-02-17T08:42:04.000Z</time>
      </trkpt>
      <trkpt lat="47.28247" lon="-2.35913">
        <ele>47.400001525879</ele>
        <time>2022-02-17T08:42:05.000Z</time>
      </trkpt>
      <trkpt lat="47.2826" lon="-2.35942">
        <ele>47.400001525879</ele>
        <time>2022-02-17T08:42:11.000Z</time>
      </trkpt>
      <trkpt lat="47.28271" lon="-2.35968">
        <ele>47.400001525879</ele>
        <time>2022-02-17T08:42:16.000Z</time>
      </trkpt>
      <trkpt lat="47.28276" lon="-2.35975">
        <ele>47.400001525879</ele>
        <time>2022-02-17T08:42:18.000Z</time>
      </trkpt>
      <trkpt lat="47.28284" lon="-2.35976">
        <ele>47.400001525879</ele>
        <time>2022-02-17T08:42:20.000Z</time>
      </trkpt>
      <trkpt lat="47.28297" lon="-2.35963">
        <ele>47.400001525879</ele>
        <time>2022-02-17T08:42:25.000Z</time>
      </trkpt>
      <trkpt lat="47.283" lon="-2.3596">
        <ele>47.400001525879</ele>
        <time>2022-02-17T08:42:26.000Z</time>
      </trkpt>
      <trkpt lat="47.28312" lon="-2.35942">
        <ele>47.400001525879</ele>
        <time>2022-02-17T08:42:32.000Z</time>
      </trkpt>
      <trkpt lat="47.28319" lon="-2.35932">
        <ele>47.400001525879</ele>
        <time>2022-02-17T08:42:38.000Z</time>
      </trkpt>
      <trkpt lat="47.28331" lon="-2.35921">
        <ele>47.799999237061</ele>
        <time>2022-02-17T08:42:45.000Z</time>
      </trkpt>
      <trkpt lat="47.28332" lon="-2.3592">
        <ele>48.200000762939</ele>
        <time>2022-02-17T08:42:46.000Z</time>
      </trkpt>
      <trkpt lat="47.28335" lon="-2.35918">
        <ele>48.599998474121</ele>
        <time>2022-02-17T08:42:47.000Z</time>
      </trkpt>
      <trkpt lat="47.28337" lon="-2.35916">
        <ele>49</ele>
        <time>2022-02-17T08:42:48.000Z</time>
      </trkpt>
      <trkpt lat="47.2834" lon="-2.35915">
        <ele>49.400001525879</ele>
        <time>2022-02-17T08:42:49.000Z</time>
      </trkpt>
      <trkpt lat="47.28343" lon="-2.35914">
        <ele>49.400001525879</ele>
        <time>2022-02-17T08:42:50.000Z</time>
      </trkpt>
      <trkpt lat="47.28345" lon="-2.35913">
        <ele>49.400001525879</ele>
        <time>2022-02-17T08:42:51.000Z</time>
      </trkpt>
      <trkpt lat="47.28358" lon="-2.35903">
        <ele>49.400001525879</ele>
        <time>2022-02-17T08:42:57.000Z</time>
      </trkpt>
      <trkpt lat="47.28372" lon="-2.35889">
        <ele>49.400001525879</ele>
        <time>2022-02-17T08:43:03.000Z</time>
      </trkpt>
      <trkpt lat="47.28383" lon="-2.3588">
        <ele>49.799999237061</ele>
        <time>2022-02-17T08:43:07.000Z</time>
      </trkpt>
      <trkpt lat="47.28385" lon="-2.35879">
        <ele>50.200000762939</ele>
        <time>2022-02-17T08:43:08.000Z</time>
      </trkpt>
      <trkpt lat="47.28388" lon="-2.35877">
        <ele>50.599998474121</ele>
        <time>2022-02-17T08:43:09.000Z</time>
      </trkpt>
      <trkpt lat="47.28391" lon="-2.35875">
        <ele>51</ele>
        <time>2022-02-17T08:43:10.000Z</time>
      </trkpt>
      <trkpt lat="47.28394" lon="-2.35874">
        <ele>51.400001525879</ele>
        <time>2022-02-17T08:43:11.000Z</time>
      </trkpt>
      <trkpt lat="47.28406" lon="-2.35867">
        <ele>51.400001525879</ele>
        <time>2022-02-17T08:43:16.000Z</time>
      </trkpt>
      <trkpt lat="47.28418" lon="-2.35858">
        <ele>51.400001525879</ele>
        <time>2022-02-17T08:43:22.000Z</time>
      </trkpt>
      <trkpt lat="47.28429" lon="-2.35852">
        <ele>51.400001525879</ele>
        <time>2022-02-17T08:43:27.000Z</time>
      </trkpt>
      <trkpt lat="47.28434" lon="-2.35849">
        <ele>51.400001525879</ele>
        <time>2022-02-17T08:43:30.000Z</time>
      </trkpt>
      <trkpt lat="47.28438" lon="-2.35844">
        <ele>51.400001525879</ele>
        <time>2022-02-17T08:43:33.000Z</time>
      </trkpt>
      <trkpt lat="47.28445" lon="-2.35838">
        <ele>51.400001525879</ele>
        <time>2022-02-17T08:43:40.000Z</time>
      </trkpt>
      <trkpt lat="47.28447" lon="-2.35837">
        <ele>51.400001525879</ele>
        <time>2022-02-17T08:43:41.000Z</time>
      </trkpt>
      <trkpt lat="47.28455" lon="-2.35835">
        <ele>51.400001525879</ele>
        <time>2022-02-17T08:43:45.000Z</time>
      </trkpt>
      <trkpt lat="47.28458" lon="-2.35834">
        <ele>51.799999237061</ele>
        <time>2022-02-17T08:43:46.000Z</time>
      </trkpt>
      <trkpt lat="47.2846" lon="-2.35832">
        <ele>52.400001525879</ele>
        <time>2022-02-17T08:43:47.000Z</time>
      </trkpt>
      <trkpt lat="47.28463" lon="-2.35831">
        <ele>52.799999237061</ele>
        <time>2022-02-17T08:43:48.000Z</time>
      </trkpt>
      <trkpt lat="47.28464" lon="-2.35829">
        <ele>53.200000762939</ele>
        <time>2022-02-17T08:43:49.000Z</time>
      </trkpt>
      <trkpt lat="47.28466" lon="-2.35827">
        <ele>53.599998474121</ele>
        <time>2022-02-17T08:43:50.000Z</time>
      </trkpt>
      <trkpt lat="47.28474" lon="-2.35819">
        <ele>53.599998474121</ele>
        <time>2022-02-17T08:43:56.000Z</time>
      </trkpt>
      <trkpt lat="47.28478" lon="-2.35817">
        <ele>53.599998474121</ele>
        <time>2022-02-17T08:43:58.000Z</time>
      </trkpt>
      <trkpt lat="47.28482" lon="-2.35817">
        <ele>53.599998474121</ele>
        <time>2022-02-17T08:44:01.000Z</time>
      </trkpt>
      <trkpt lat="47.28495" lon="-2.35816">
        <ele>53.599998474121</ele>
        <time>2022-02-17T08:44:05.000Z</time>
      </trkpt>
      <trkpt lat="47.28514" lon="-2.35823">
        <ele>53.599998474121</ele>
        <time>2022-02-17T08:44:11.000Z</time>
      </trkpt>
      <trkpt lat="47.28536" lon="-2.35833">
        <ele>53.599998474121</ele>
        <time>2022-02-17T08:44:17.000Z</time>
      </trkpt>
      <trkpt lat="47.28557" lon="-2.35846">
        <ele>53.599998474121</ele>
        <time>2022-02-17T08:44:22.000Z</time>
      </trkpt>
      <trkpt lat="47.2856" lon="-2.35851">
        <ele>54</ele>
        <time>2022-02-17T08:44:23.000Z</time>
      </trkpt>
      <trkpt lat="47.28564" lon="-2.35856">
        <ele>54.400001525879</ele>
        <time>2022-02-17T08:44:24.000Z</time>
      </trkpt>
      <trkpt lat="47.28567" lon="-2.35861">
        <ele>54.799999237061</ele>
        <time>2022-02-17T08:44:25.000Z</time>
      </trkpt>
      <trkpt lat="47.2857" lon="-2.35866">
        <ele>55.200000762939</ele>
        <time>2022-02-17T08:44:26.000Z</time>
      </trkpt>
      <trkpt lat="47.28573" lon="-2.35872">
        <ele>55.599998474121</ele>
        <time>2022-02-17T08:44:27.000Z</time>
      </trkpt>
      <trkpt lat="47.28579" lon="-2.35881">
        <ele>55.599998474121</ele>
        <time>2022-02-17T08:44:29.000Z</time>
      </trkpt>
      <trkpt lat="47.28597" lon="-2.35921">
        <ele>55.599998474121</ele>
        <time>2022-02-17T08:44:36.000Z</time>
      </trkpt>
      <trkpt lat="47.28606" lon="-2.35935">
        <ele>56.400001525879</ele>
        <time>2022-02-17T08:44:39.000Z</time>
      </trkpt>
      <trkpt lat="47.28609" lon="-2.35938">
        <ele>56.799999237061</ele>
        <time>2022-02-17T08:44:40.000Z</time>
      </trkpt>
      <trkpt lat="47.28612" lon="-2.35942">
        <ele>57.200000762939</ele>
        <time>2022-02-17T08:44:41.000Z</time>
      </trkpt>
      <trkpt lat="47.28615" lon="-2.35944">
        <ele>57.599998474121</ele>
        <time>2022-02-17T08:44:42.000Z</time>
      </trkpt>
      <trkpt lat="47.28623" lon="-2.35949">
        <ele>57.599998474121</ele>
        <time>2022-02-17T08:44:44.000Z</time>
      </trkpt>
      <trkpt lat="47.28636" lon="-2.35954">
        <ele>57.599998474121</ele>
        <time>2022-02-17T08:44:47.000Z</time>
      </trkpt>
      <trkpt lat="47.2864" lon="-2.35954">
        <ele>57.599998474121</ele>
        <time>2022-02-17T08:44:48.000Z</time>
      </trkpt>
      <trkpt lat="47.28659" lon="-2.35955">
        <ele>57.599998474121</ele>
        <time>2022-02-17T08:44:53.000Z</time>
      </trkpt>
      <trkpt lat="47.28679" lon="-2.3596">
        <ele>57.599998474121</ele>
        <time>2022-02-17T08:44:58.000Z</time>
      </trkpt>
      <trkpt lat="47.28682" lon="-2.35964">
        <ele>57.599998474121</ele>
        <time>2022-02-17T08:44:59.000Z</time>
      </trkpt>
      <trkpt lat="47.28688" lon="-2.3598">
        <ele>57.599998474121</ele>
        <time>2022-02-17T08:45:02.000Z</time>
      </trkpt>
      <trkpt lat="47.28689" lon="-2.35985">
        <ele>57.599998474121</ele>
        <time>2022-02-17T08:45:03.000Z</time>
      </trkpt>
      <trkpt lat="47.28699" lon="-2.36011">
        <ele>57.599998474121</ele>
        <time>2022-02-17T08:45:08.000Z</time>
      </trkpt>
      <trkpt lat="47.28706" lon="-2.36032">
        <ele>57.599998474121</ele>
        <time>2022-02-17T08:45:12.000Z</time>
      </trkpt>
      <trkpt lat="47.2871" lon="-2.36042">
        <ele>57.599998474121</ele>
        <time>2022-02-17T08:45:14.000Z</time>
      </trkpt>
      <trkpt lat="47.28716" lon="-2.36059">
        <ele>58</ele>
        <time>2022-02-17T08:45:17.000Z</time>
      </trkpt>
      <trkpt lat="47.28719" lon="-2.36064">
        <ele>58.400001525879</ele>
        <time>2022-02-17T08:45:18.000Z</time>
      </trkpt>
      <trkpt lat="47.28721" lon="-2.36069">
        <ele>58.799999237061</ele>
        <time>2022-02-17T08:45:19.000Z</time>
      </trkpt>
      <trkpt lat="47.28723" lon="-2.36075">
        <ele>59.200000762939</ele>
        <time>2022-02-17T08:45:20.000Z</time>
      </trkpt>
      <trkpt lat="47.28725" lon="-2.3608">
        <ele>59.599998474121</ele>
        <time>2022-02-17T08:45:21.000Z</time>
      </trkpt>
      <trkpt lat="47.28728" lon="-2.36086">
        <ele>59.599998474121</ele>
        <time>2022-02-17T08:45:22.000Z</time>
      </trkpt>
      <trkpt lat="47.2874" lon="-2.36125">
        <ele>59.599998474121</ele>
        <time>2022-02-17T08:45:29.000Z</time>
      </trkpt>
      <trkpt lat="47.28744" lon="-2.36141">
        <ele>59.599998474121</ele>
        <time>2022-02-17T08:45:32.000Z</time>
      </trkpt>
      <trkpt lat="47.2875" lon="-2.36171">
        <ele>59.599998474121</ele>
        <time>2022-02-17T08:45:37.000Z</time>
      </trkpt>
      <trkpt lat="47.2876" lon="-2.36216">
        <ele>59.599998474121</ele>
        <time>2022-02-17T08:45:45.000Z</time>
      </trkpt>
      <trkpt lat="47.28768" lon="-2.3623">
        <ele>59.599998474121</ele>
        <time>2022-02-17T08:45:48.000Z</time>
      </trkpt>
      <trkpt lat="47.28776" lon="-2.36244">
        <ele>59.599998474121</ele>
        <time>2022-02-17T08:45:51.000Z</time>
      </trkpt>
      <trkpt lat="47.288" lon="-2.36272">
        <ele>59.599998474121</ele>
        <time>2022-02-17T08:45:58.000Z</time>
      </trkpt>
      <trkpt lat="47.28824" lon="-2.36294">
        <ele>59.599998474121</ele>
        <time>2022-02-17T08:46:03.000Z</time>
      </trkpt>
      <trkpt lat="47.28839" lon="-2.36311">
        <ele>59.599998474121</ele>
        <time>2022-02-17T08:46:07.000Z</time>
      </trkpt>
      <trkpt lat="47.2885" lon="-2.3632">
        <ele>59.599998474121</ele>
        <time>2022-02-17T08:46:11.000Z</time>
      </trkpt>
      <trkpt lat="47.28853" lon="-2.36319">
        <ele>59.599998474121</ele>
        <time>2022-02-17T08:46:12.000Z</time>
      </trkpt>
      <trkpt lat="47.2887" lon="-2.36308">
        <ele>59.599998474121</ele>
        <time>2022-02-17T08:46:16.000Z</time>
      </trkpt>
      <trkpt lat="47.28881" lon="-2.36302">
        <ele>58.799999237061</ele>
        <time>2022-02-17T08:46:18.000Z</time>
      </trkpt>
      <trkpt lat="47.28887" lon="-2.36299">
        <ele>58.400001525879</ele>
        <time>2022-02-17T08:46:19.000Z</time>
      </trkpt>
      <trkpt lat="47.28893" lon="-2.36297">
        <ele>58</ele>
        <time>2022-02-17T08:46:20.000Z</time>
      </trkpt>
      <trkpt lat="47.28899" lon="-2.36295">
        <ele>57.599998474121</ele>
        <time>2022-02-17T08:46:21.000Z</time>
      </trkpt>
      <trkpt lat="47.28904" lon="-2.36292">
        <ele>57.599998474121</ele>
        <time>2022-02-17T08:46:22.000Z</time>
      </trkpt>
      <trkpt lat="47.28958" lon="-2.36269">
        <ele>57.599998474121</ele>
        <time>2022-02-17T08:46:31.000Z</time>
      </trkpt>
      <trkpt lat="47.2899" lon="-2.36256">
        <ele>57.599998474121</ele>
        <time>2022-02-17T08:46:37.000Z</time>
      </trkpt>
      <trkpt lat="47.29027" lon="-2.36239">
        <ele>57.599998474121</ele>
        <time>2022-02-17T08:46:44.000Z</time>
      </trkpt>
      <trkpt lat="47.29056" lon="-2.36227">
        <ele>57.599998474121</ele>
        <time>2022-02-17T08:46:50.000Z</time>
      </trkpt>
      <trkpt lat="47.29066" lon="-2.36221">
        <ele>57.599998474121</ele>
        <time>2022-02-17T08:46:52.000Z</time>
      </trkpt>
      <trkpt lat="47.29087" lon="-2.36213">
        <ele>57.599998474121</ele>
        <time>2022-02-17T08:46:56.000Z</time>
      </trkpt>
      <trkpt lat="47.29125" lon="-2.36196">
        <ele>57.599998474121</ele>
        <time>2022-02-17T08:47:04.000Z</time>
      </trkpt>
      <trkpt lat="47.29161" lon="-2.36181">
        <ele>57.599998474121</ele>
        <time>2022-02-17T08:47:12.000Z</time>
      </trkpt>
      <trkpt lat="47.29179" lon="-2.36173">
        <ele>58</ele>
        <time>2022-02-17T08:47:16.000Z</time>
      </trkpt>
      <trkpt lat="47.29183" lon="-2.36171">
        <ele>58.400001525879</ele>
        <time>2022-02-17T08:47:17.000Z</time>
      </trkpt>
      <trkpt lat="47.29188" lon="-2.3617">
        <ele>58.799999237061</ele>
        <time>2022-02-17T08:47:18.000Z</time>
      </trkpt>
      <trkpt lat="47.29193" lon="-2.36168">
        <ele>59.200000762939</ele>
        <time>2022-02-17T08:47:19.000Z</time>
      </trkpt>
      <trkpt lat="47.29197" lon="-2.36166">
        <ele>59.599998474121</ele>
        <time>2022-02-17T08:47:20.000Z</time>
      </trkpt>
      <trkpt lat="47.29226" lon="-2.36153">
        <ele>59.599998474121</ele>
        <time>2022-02-17T08:47:26.000Z</time>
      </trkpt>
      <trkpt lat="47.29265" lon="-2.36136">
        <ele>59.599998474121</ele>
        <time>2022-02-17T08:47:34.000Z</time>
      </trkpt>
      <trkpt lat="47.29306" lon="-2.36117">
        <ele>59.599998474121</ele>
        <time>2022-02-17T08:47:41.000Z</time>
      </trkpt>
      <trkpt lat="47.29349" lon="-2.36089">
        <ele>59.599998474121</ele>
        <time>2022-02-17T08:47:49.000Z</time>
      </trkpt>
      <trkpt lat="47.29381" lon="-2.36063">
        <ele>59.599998474121</ele>
        <time>2022-02-17T08:47:56.000Z</time>
      </trkpt>
      <trkpt lat="47.29408" lon="-2.3604">
        <ele>59.599998474121</ele>
        <time>2022-02-17T08:48:03.000Z</time>
      </trkpt>
      <trkpt lat="47.29411" lon="-2.36036">
        <ele>59.599998474121</ele>
        <time>2022-02-17T08:48:04.000Z</time>
      </trkpt>
      <trkpt lat="47.29438" lon="-2.36011">
        <ele>59.599998474121</ele>
        <time>2022-02-17T08:48:11.000Z</time>
      </trkpt>
      <trkpt lat="47.29442" lon="-2.36008">
        <ele>59.599998474121</ele>
        <time>2022-02-17T08:48:12.000Z</time>
      </trkpt>
      <trkpt lat="47.29456" lon="-2.35995">
        <ele>59.599998474121</ele>
        <time>2022-02-17T08:48:16.000Z</time>
      </trkpt>
      <trkpt lat="47.29459" lon="-2.3599">
        <ele>60</ele>
        <time>2022-02-17T08:48:17.000Z</time>
      </trkpt>
      <trkpt lat="47.29461" lon="-2.35984">
        <ele>60.400001525879</ele>
        <time>2022-02-17T08:48:18.000Z</time>
      </trkpt>
      <trkpt lat="47.29464" lon="-2.35979">
        <ele>60.799999237061</ele>
        <time>2022-02-17T08:48:19.000Z</time>
      </trkpt>
      <trkpt lat="47.29467" lon="-2.35975">
        <ele>61.200000762939</ele>
        <time>2022-02-17T08:48:20.000Z</time>
      </trkpt>
      <trkpt lat="47.2947" lon="-2.35976">
        <ele>61.599998474121</ele>
        <time>2022-02-17T08:48:21.000Z</time>
      </trkpt>
      <trkpt lat="47.29477" lon="-2.3599">
        <ele>61.599998474121</ele>
        <time>2022-02-17T08:48:24.000Z</time>
      </trkpt>
      <trkpt lat="47.29479" lon="-2.36011">
        <ele>61.599998474121</ele>
        <time>2022-02-17T08:48:27.000Z</time>
      </trkpt>
      <trkpt lat="47.29483" lon="-2.36025">
        <ele>61.599998474121</ele>
        <time>2022-02-17T08:48:29.000Z</time>
      </trkpt>
      <trkpt lat="47.29493" lon="-2.36054">
        <ele>61.599998474121</ele>
        <time>2022-02-17T08:48:33.000Z</time>
      </trkpt>
      <trkpt lat="47.29507" lon="-2.36097">
        <ele>61.599998474121</ele>
        <time>2022-02-17T08:48:39.000Z</time>
      </trkpt>
      <trkpt lat="47.29531" lon="-2.3615">
        <ele>61.599998474121</ele>
        <time>2022-02-17T08:48:47.000Z</time>
      </trkpt>
      <trkpt lat="47.29543" lon="-2.36174">
        <ele>61.599998474121</ele>
        <time>2022-02-17T08:48:51.000Z</time>
      </trkpt>
      <trkpt lat="47.29549" lon="-2.36187">
        <ele>61.599998474121</ele>
        <time>2022-02-17T08:48:53.000Z</time>
      </trkpt>
      <trkpt lat="47.29573" lon="-2.36237">
        <ele>61.200000762939</ele>
        <time>2022-02-17T08:49:00.000Z</time>
      </trkpt>
      <trkpt lat="47.29576" lon="-2.36244">
        <ele>60.799999237061</ele>
        <time>2022-02-17T08:49:01.000Z</time>
      </trkpt>
      <trkpt lat="47.2958" lon="-2.3625">
        <ele>60.400001525879</ele>
        <time>2022-02-17T08:49:02.000Z</time>
      </trkpt>
      <trkpt lat="47.29584" lon="-2.36257">
        <ele>60</ele>
        <time>2022-02-17T08:49:03.000Z</time>
      </trkpt>
      <trkpt lat="47.29587" lon="-2.36264">
        <ele>59.599998474121</ele>
        <time>2022-02-17T08:49:04.000Z</time>
      </trkpt>
      <trkpt lat="47.29602" lon="-2.36292">
        <ele>59.599998474121</ele>
        <time>2022-02-17T08:49:08.000Z</time>
      </trkpt>
      <trkpt lat="47.29626" lon="-2.36343">
        <ele>59.599998474121</ele>
        <time>2022-02-17T08:49:15.000Z</time>
      </trkpt>
      <trkpt lat="47.29634" lon="-2.36358">
        <ele>59</ele>
        <time>2022-02-17T08:49:17.000Z</time>
      </trkpt>
      <trkpt lat="47.29637" lon="-2.36366">
        <ele>58.599998474121</ele>
        <time>2022-02-17T08:49:18.000Z</time>
      </trkpt>
      <trkpt lat="47.29641" lon="-2.36374">
        <ele>58.200000762939</ele>
        <time>2022-02-17T08:49:19.000Z</time>
      </trkpt>
      <trkpt lat="47.29644" lon="-2.36381">
        <ele>57.799999237061</ele>
        <time>2022-02-17T08:49:20.000Z</time>
      </trkpt>
      <trkpt lat="47.29648" lon="-2.36388">
        <ele>57.400001525879</ele>
        <time>2022-02-17T08:49:21.000Z</time>
      </trkpt>
      <trkpt lat="47.29654" lon="-2.36402">
        <ele>57.400001525879</ele>
        <time>2022-02-17T08:49:23.000Z</time>
      </trkpt>
      <trkpt lat="47.29671" lon="-2.3644">
        <ele>57.400001525879</ele>
        <time>2022-02-17T08:49:29.000Z</time>
      </trkpt>
      <trkpt lat="47.29686" lon="-2.3648">
        <ele>57.400001525879</ele>
        <time>2022-02-17T08:49:35.000Z</time>
      </trkpt>
      <trkpt lat="47.29689" lon="-2.36486">
        <ele>57.799999237061</ele>
        <time>2022-02-17T08:49:36.000Z</time>
      </trkpt>
      <trkpt lat="47.29691" lon="-2.36492">
        <ele>58.200000762939</ele>
        <time>2022-02-17T08:49:37.000Z</time>
      </trkpt>
      <trkpt lat="47.29694" lon="-2.36499">
        <ele>58.799999237061</ele>
        <time>2022-02-17T08:49:38.000Z</time>
      </trkpt>
      <trkpt lat="47.29696" lon="-2.36505">
        <ele>59.200000762939</ele>
        <time>2022-02-17T08:49:39.000Z</time>
      </trkpt>
      <trkpt lat="47.29698" lon="-2.36511">
        <ele>59.599998474121</ele>
        <time>2022-02-17T08:49:40.000Z</time>
      </trkpt>
      <trkpt lat="47.29706" lon="-2.3653">
        <ele>59.599998474121</ele>
        <time>2022-02-17T08:49:43.000Z</time>
      </trkpt>
      <trkpt lat="47.29713" lon="-2.36546">
        <ele>60</ele>
        <time>2022-02-17T08:49:46.000Z</time>
      </trkpt>
      <trkpt lat="47.29715" lon="-2.36552">
        <ele>60.400001525879</ele>
        <time>2022-02-17T08:49:47.000Z</time>
      </trkpt>
      <trkpt lat="47.29717" lon="-2.36556">
        <ele>60.799999237061</ele>
        <time>2022-02-17T08:49:48.000Z</time>
      </trkpt>
      <trkpt lat="47.29719" lon="-2.36561">
        <ele>61.200000762939</ele>
        <time>2022-02-17T08:49:49.000Z</time>
      </trkpt>
      <trkpt lat="47.2972" lon="-2.36566">
        <ele>61.799999237061</ele>
        <time>2022-02-17T08:49:50.000Z</time>
      </trkpt>
      <trkpt lat="47.29734" lon="-2.36603">
        <ele>62.200000762939</ele>
        <time>2022-02-17T08:49:57.000Z</time>
      </trkpt>
      <trkpt lat="47.29736" lon="-2.36608">
        <ele>62.599998474121</ele>
        <time>2022-02-17T08:49:58.000Z</time>
      </trkpt>
      <trkpt lat="47.29738" lon="-2.36613">
        <ele>63</ele>
        <time>2022-02-17T08:49:59.000Z</time>
      </trkpt>
      <trkpt lat="47.2974" lon="-2.36618">
        <ele>63.799999237061</ele>
        <time>2022-02-17T08:50:00.000Z</time>
      </trkpt>
      <trkpt lat="47.29749" lon="-2.36648">
        <ele>63.799999237061</ele>
        <time>2022-02-17T08:50:06.000Z</time>
      </trkpt>
      <trkpt lat="47.29758" lon="-2.36676">
        <ele>64.199996948242</ele>
        <time>2022-02-17T08:50:12.000Z</time>
      </trkpt>
      <trkpt lat="47.2976" lon="-2.36681">
        <ele>64.599998474121</ele>
        <time>2022-02-17T08:50:13.000Z</time>
      </trkpt>
      <trkpt lat="47.29761" lon="-2.36687">
        <ele>65</ele>
        <time>2022-02-17T08:50:14.000Z</time>
      </trkpt>
      <trkpt lat="47.29763" lon="-2.36692">
        <ele>65.400001525879</ele>
        <time>2022-02-17T08:50:15.000Z</time>
      </trkpt>
      <trkpt lat="47.29765" lon="-2.36698">
        <ele>65.800003051758</ele>
        <time>2022-02-17T08:50:16.000Z</time>
      </trkpt>
      <trkpt lat="47.29774" lon="-2.36724">
        <ele>65.800003051758</ele>
        <time>2022-02-17T08:50:21.000Z</time>
      </trkpt>
      <trkpt lat="47.29793" lon="-2.36767">
        <ele>65.800003051758</ele>
        <time>2022-02-17T08:50:29.000Z</time>
      </trkpt>
      <trkpt lat="47.29799" lon="-2.36777">
        <ele>66.199996948242</ele>
        <time>2022-02-17T08:50:31.000Z</time>
      </trkpt>
      <trkpt lat="47.29801" lon="-2.36782">
        <ele>66.800003051758</ele>
        <time>2022-02-17T08:50:32.000Z</time>
      </trkpt>
      <trkpt lat="47.29804" lon="-2.36787">
        <ele>67.199996948242</ele>
        <time>2022-02-17T08:50:33.000Z</time>
      </trkpt>
      <trkpt lat="47.29807" lon="-2.36793">
        <ele>67.599998474121</ele>
        <time>2022-02-17T08:50:34.000Z</time>
      </trkpt>
      <trkpt lat="47.29809" lon="-2.36798">
        <ele>68</ele>
        <time>2022-02-17T08:50:35.000Z</time>
      </trkpt>
      <trkpt lat="47.29816" lon="-2.36815">
        <ele>68</ele>
        <time>2022-02-17T08:50:38.000Z</time>
      </trkpt>
      <trkpt lat="47.29833" lon="-2.36854">
        <ele>68.400001525879</ele>
        <time>2022-02-17T08:50:45.000Z</time>
      </trkpt>
      <trkpt lat="47.29836" lon="-2.36859">
        <ele>68.800003051758</ele>
        <time>2022-02-17T08:50:46.000Z</time>
      </trkpt>
      <trkpt lat="47.29838" lon="-2.36865">
        <ele>69.199996948242</ele>
        <time>2022-02-17T08:50:47.000Z</time>
      </trkpt>
      <trkpt lat="47.2984" lon="-2.3687">
        <ele>69.599998474121</ele>
        <time>2022-02-17T08:50:48.000Z</time>
      </trkpt>
      <trkpt lat="47.29842" lon="-2.36875">
        <ele>70</ele>
        <time>2022-02-17T08:50:49.000Z</time>
      </trkpt>
      <trkpt lat="47.2986" lon="-2.36911">
        <ele>70</ele>
        <time>2022-02-17T08:50:56.000Z</time>
      </trkpt>
      <trkpt lat="47.29878" lon="-2.36945">
        <ele>70</ele>
        <time>2022-02-17T08:51:03.000Z</time>
      </trkpt>
      <trkpt lat="47.29888" lon="-2.36954">
        <ele>70</ele>
        <time>2022-02-17T08:51:06.000Z</time>
      </trkpt>
      <trkpt lat="47.29892" lon="-2.36956">
        <ele>70.400001525879</ele>
        <time>2022-02-17T08:51:07.000Z</time>
      </trkpt>
      <trkpt lat="47.29897" lon="-2.36957">
        <ele>71</ele>
        <time>2022-02-17T08:51:08.000Z</time>
      </trkpt>
      <trkpt lat="47.29901" lon="-2.36955">
        <ele>71.400001525879</ele>
        <time>2022-02-17T08:51:09.000Z</time>
      </trkpt>
      <trkpt lat="47.29905" lon="-2.36952">
        <ele>71.800003051758</ele>
        <time>2022-02-17T08:51:10.000Z</time>
      </trkpt>
      <trkpt lat="47.29909" lon="-2.36948">
        <ele>72.199996948242</ele>
        <time>2022-02-17T08:51:11.000Z</time>
      </trkpt>
      <trkpt lat="47.29916" lon="-2.36937">
        <ele>72.199996948242</ele>
        <time>2022-02-17T08:51:13.000Z</time>
      </trkpt>
      <trkpt lat="47.29927" lon="-2.36921">
        <ele>72.199996948242</ele>
        <time>2022-02-17T08:51:16.000Z</time>
      </trkpt>
      <trkpt lat="47.29959" lon="-2.36882">
        <ele>72.199996948242</ele>
        <time>2022-02-17T08:51:24.000Z</time>
      </trkpt>
      <trkpt lat="47.29993" lon="-2.36842">
        <ele>72.199996948242</ele>
        <time>2022-02-17T08:51:33.000Z</time>
      </trkpt>
      <trkpt lat="47.30027" lon="-2.368">
        <ele>72.199996948242</ele>
        <time>2022-02-17T08:51:42.000Z</time>
      </trkpt>
      <trkpt lat="47.3006" lon="-2.36761">
        <ele>72.199996948242</ele>
        <time>2022-02-17T08:51:50.000Z</time>
      </trkpt>
      <trkpt lat="47.30095" lon="-2.36725">
        <ele>72.199996948242</ele>
        <time>2022-02-17T08:51:58.000Z</time>
      </trkpt>
      <trkpt lat="47.30125" lon="-2.36701">
        <ele>71.800003051758</ele>
        <time>2022-02-17T08:52:03.000Z</time>
      </trkpt>
      <trkpt lat="47.30131" lon="-2.36695">
        <ele>70.800003051758</ele>
        <time>2022-02-17T08:52:04.000Z</time>
      </trkpt>
      <trkpt lat="47.30138" lon="-2.3669">
        <ele>70.400001525879</ele>
        <time>2022-02-17T08:52:05.000Z</time>
      </trkpt>
      <trkpt lat="47.30144" lon="-2.36684">
        <ele>70</ele>
        <time>2022-02-17T08:52:06.000Z</time>
      </trkpt>
      <trkpt lat="47.30159" lon="-2.36671">
        <ele>70</ele>
        <time>2022-02-17T08:52:10.000Z</time>
      </trkpt>
      <trkpt lat="47.30165" lon="-2.36672">
        <ele>70</ele>
        <time>2022-02-17T08:52:13.000Z</time>
      </trkpt>
      <trkpt lat="47.30167" lon="-2.36675">
        <ele>70</ele>
        <time>2022-02-17T08:52:14.000Z</time>
      </trkpt>
      <trkpt lat="47.30173" lon="-2.3668">
        <ele>70</ele>
        <time>2022-02-17T08:52:18.000Z</time>
      </trkpt>
      <trkpt lat="47.30174" lon="-2.36679">
        <ele>70</ele>
        <time>2022-02-17T08:52:19.000Z</time>
      </trkpt>
      <trkpt lat="47.30175" lon="-2.36679">
        <ele>70.400001525879</ele>
        <time>2022-02-17T08:52:20.000Z</time>
      </trkpt>
      <trkpt lat="47.30177" lon="-2.36678">
        <ele>70.800003051758</ele>
        <time>2022-02-17T08:52:21.000Z</time>
      </trkpt>
      <trkpt lat="47.30176" lon="-2.36678">
        <ele>71.199996948242</ele>
        <time>2022-02-17T08:52:22.000Z</time>
      </trkpt>
      <trkpt lat="47.30186" lon="-2.36675">
        <ele>72</ele>
        <time>2022-02-17T08:53:18.000Z</time>
      </trkpt>
      <trkpt lat="47.30188" lon="-2.36675">
        <ele>72</ele>
        <time>2022-02-17T08:53:19.000Z</time>
      </trkpt>
      <trkpt lat="47.302" lon="-2.36672">
        <ele>72</ele>
        <time>2022-02-17T08:53:24.000Z</time>
      </trkpt>
      <trkpt lat="47.30221" lon="-2.36669">
        <ele>72</ele>
        <time>2022-02-17T08:53:29.000Z</time>
      </trkpt>
      <trkpt lat="47.3023" lon="-2.36668">
        <ele>72.400001525879</ele>
        <time>2022-02-17T08:53:31.000Z</time>
      </trkpt>
      <trkpt lat="47.30235" lon="-2.36667">
        <ele>72.800003051758</ele>
        <time>2022-02-17T08:53:32.000Z</time>
      </trkpt>
      <trkpt lat="47.3024" lon="-2.36667">
        <ele>73.400001525879</ele>
        <time>2022-02-17T08:53:33.000Z</time>
      </trkpt>
      <trkpt lat="47.30245" lon="-2.36666">
        <ele>73.800003051758</ele>
        <time>2022-02-17T08:53:34.000Z</time>
      </trkpt>
      <trkpt lat="47.30249" lon="-2.36664">
        <ele>74.199996948242</ele>
        <time>2022-02-17T08:53:35.000Z</time>
      </trkpt>
      <trkpt lat="47.30254" lon="-2.36663">
        <ele>74.199996948242</ele>
        <time>2022-02-17T08:53:36.000Z</time>
      </trkpt>
      <trkpt lat="47.30289" lon="-2.3665">
        <ele>74.199996948242</ele>
        <time>2022-02-17T08:53:44.000Z</time>
      </trkpt>
      <trkpt lat="47.30318" lon="-2.36644">
        <ele>74.199996948242</ele>
        <time>2022-02-17T08:53:51.000Z</time>
      </trkpt>
      <trkpt lat="47.30326" lon="-2.36646">
        <ele>74.199996948242</ele>
        <time>2022-02-17T08:53:53.000Z</time>
      </trkpt>
      <trkpt lat="47.30337" lon="-2.36651">
        <ele>74.199996948242</ele>
        <time>2022-02-17T08:53:56.000Z</time>
      </trkpt>
      <trkpt lat="47.30368" lon="-2.36655">
        <ele>74.199996948242</ele>
        <time>2022-02-17T08:54:03.000Z</time>
      </trkpt>
      <trkpt lat="47.30379" lon="-2.36656">
        <ele>74.599998474121</ele>
        <time>2022-02-17T08:54:06.000Z</time>
      </trkpt>
      <trkpt lat="47.30383" lon="-2.36656">
        <ele>75.400001525879</ele>
        <time>2022-02-17T08:54:07.000Z</time>
      </trkpt>
      <trkpt lat="47.30387" lon="-2.36656">
        <ele>75.800003051758</ele>
        <time>2022-02-17T08:54:08.000Z</time>
      </trkpt>
      <trkpt lat="47.30391" lon="-2.36656">
        <ele>76.199996948242</ele>
        <time>2022-02-17T08:54:09.000Z</time>
      </trkpt>
      <trkpt lat="47.30407" lon="-2.36652">
        <ele>76.199996948242</ele>
        <time>2022-02-17T08:54:13.000Z</time>
      </trkpt>
      <trkpt lat="47.30431" lon="-2.3664">
        <ele>76.199996948242</ele>
        <time>2022-02-17T08:54:19.000Z</time>
      </trkpt>
      <trkpt lat="47.30435" lon="-2.36635">
        <ele>76.199996948242</ele>
        <time>2022-02-17T08:54:20.000Z</time>
      </trkpt>
      <trkpt lat="47.3045" lon="-2.36621">
        <ele>76.199996948242</ele>
        <time>2022-02-17T08:54:24.000Z</time>
      </trkpt>
      <trkpt lat="47.3047" lon="-2.36609">
        <ele>76.199996948242</ele>
        <time>2022-02-17T08:54:30.000Z</time>
      </trkpt>
      <trkpt lat="47.30476" lon="-2.36607">
        <ele>76.199996948242</ele>
        <time>2022-02-17T08:54:35.000Z</time>
      </trkpt>
      <trkpt lat="47.30487" lon="-2.36602">
        <ele>76.199996948242</ele>
        <time>2022-02-17T08:54:41.000Z</time>
      </trkpt>
      <trkpt lat="47.30501" lon="-2.36598">
        <ele>76.199996948242</ele>
        <time>2022-02-17T08:54:47.000Z</time>
      </trkpt>
      <trkpt lat="47.30521" lon="-2.36593">
        <ele>76.199996948242</ele>
        <time>2022-02-17T08:54:53.000Z</time>
      </trkpt>
      <trkpt lat="47.30541" lon="-2.3658">
        <ele>76.199996948242</ele>
        <time>2022-02-17T08:54:59.000Z</time>
      </trkpt>
      <trkpt lat="47.30559" lon="-2.36567">
        <ele>76.199996948242</ele>
        <time>2022-02-17T08:55:05.000Z</time>
      </trkpt>
      <trkpt lat="47.30574" lon="-2.36556">
        <ele>76.199996948242</ele>
        <time>2022-02-17T08:55:10.000Z</time>
      </trkpt>
      <trkpt lat="47.30597" lon="-2.36548">
        <ele>76.199996948242</ele>
        <time>2022-02-17T08:55:17.000Z</time>
      </trkpt>
      <trkpt lat="47.30604" lon="-2.36547">
        <ele>76.599998474121</ele>
        <time>2022-02-17T08:55:19.000Z</time>
      </trkpt>
      <trkpt lat="47.30608" lon="-2.36546">
        <ele>77</ele>
        <time>2022-02-17T08:55:20.000Z</time>
      </trkpt>
      <trkpt lat="47.30612" lon="-2.36544">
        <ele>77.800003051758</ele>
        <time>2022-02-17T08:55:21.000Z</time>
      </trkpt>
      <trkpt lat="47.30616" lon="-2.36544">
        <ele>78.199996948242</ele>
        <time>2022-02-17T08:55:22.000Z</time>
      </trkpt>
      <trkpt lat="47.30623" lon="-2.36541">
        <ele>78.199996948242</ele>
        <time>2022-02-17T08:55:24.000Z</time>
      </trkpt>
      <trkpt lat="47.30653" lon="-2.36524">
        <ele>78.199996948242</ele>
        <time>2022-02-17T08:55:32.000Z</time>
      </trkpt>
      <trkpt lat="47.30686" lon="-2.36509">
        <ele>78.199996948242</ele>
        <time>2022-02-17T08:55:39.000Z</time>
      </trkpt>
      <trkpt lat="47.30696" lon="-2.36513">
        <ele>78.199996948242</ele>
        <time>2022-02-17T08:55:43.000Z</time>
      </trkpt>
      <trkpt lat="47.30707" lon="-2.36516">
        <ele>78.199996948242</ele>
        <time>2022-02-17T08:55:48.000Z</time>
      </trkpt>
      <trkpt lat="47.30721" lon="-2.365">
        <ele>78.199996948242</ele>
        <time>2022-02-17T08:55:52.000Z</time>
      </trkpt>
      <trkpt lat="47.30736" lon="-2.36492">
        <ele>78.199996948242</ele>
        <time>2022-02-17T08:55:55.000Z</time>
      </trkpt>
      <trkpt lat="47.30742" lon="-2.3649">
        <ele>77.800003051758</ele>
        <time>2022-02-17T08:55:56.000Z</time>
      </trkpt>
      <trkpt lat="47.30747" lon="-2.36488">
        <ele>77.400001525879</ele>
        <time>2022-02-17T08:55:57.000Z</time>
      </trkpt>
      <trkpt lat="47.30753" lon="-2.36487">
        <ele>77</ele>
        <time>2022-02-17T08:55:58.000Z</time>
      </trkpt>
      <trkpt lat="47.30759" lon="-2.36484">
        <ele>76.599998474121</ele>
        <time>2022-02-17T08:55:59.000Z</time>
      </trkpt>
      <trkpt lat="47.30764" lon="-2.36483">
        <ele>76.199996948242</ele>
        <time>2022-02-17T08:56:00.000Z</time>
      </trkpt>
      <trkpt lat="47.30781" lon="-2.36478">
        <ele>76.199996948242</ele>
        <time>2022-02-17T08:56:03.000Z</time>
      </trkpt>
      <trkpt lat="47.30805" lon="-2.36471">
        <ele>76.199996948242</ele>
        <time>2022-02-17T08:56:08.000Z</time>
      </trkpt>
      <trkpt lat="47.30816" lon="-2.36471">
        <ele>76.199996948242</ele>
        <time>2022-02-17T08:56:11.000Z</time>
      </trkpt>
      <trkpt lat="47.30819" lon="-2.36475">
        <ele>76.199996948242</ele>
        <time>2022-02-17T08:56:12.000Z</time>
      </trkpt>
      <trkpt lat="47.30837" lon="-2.36485">
        <ele>76.199996948242</ele>
        <time>2022-02-17T08:56:17.000Z</time>
      </trkpt>
      <trkpt lat="47.30856" lon="-2.36482">
        <ele>76.199996948242</ele>
        <time>2022-02-17T08:56:22.000Z</time>
      </trkpt>
      <trkpt lat="47.30882" lon="-2.36474">
        <ele>76.199996948242</ele>
        <time>2022-02-17T08:56:28.000Z</time>
      </trkpt>
      <trkpt lat="47.30887" lon="-2.36473">
        <ele>75.800003051758</ele>
        <time>2022-02-17T08:56:29.000Z</time>
      </trkpt>
      <trkpt lat="47.30891" lon="-2.36471">
        <ele>75.400001525879</ele>
        <time>2022-02-17T08:56:30.000Z</time>
      </trkpt>
      <trkpt lat="47.30896" lon="-2.36469">
        <ele>75</ele>
        <time>2022-02-17T08:56:31.000Z</time>
      </trkpt>
      <trkpt lat="47.309" lon="-2.36468">
        <ele>74.599998474121</ele>
        <time>2022-02-17T08:56:32.000Z</time>
      </trkpt>
      <trkpt lat="47.30904" lon="-2.36466">
        <ele>74</ele>
        <time>2022-02-17T08:56:33.000Z</time>
      </trkpt>
      <trkpt lat="47.30914" lon="-2.36463">
        <ele>74</ele>
        <time>2022-02-17T08:56:35.000Z</time>
      </trkpt>
      <trkpt lat="47.30948" lon="-2.36454">
        <ele>74</ele>
        <time>2022-02-17T08:56:42.000Z</time>
      </trkpt>
      <trkpt lat="47.30971" lon="-2.36445">
        <ele>74</ele>
        <time>2022-02-17T08:56:47.000Z</time>
      </trkpt>
      <trkpt lat="47.30976" lon="-2.36443">
        <ele>74</ele>
        <time>2022-02-17T08:56:48.000Z</time>
      </trkpt>
      <trkpt lat="47.31001" lon="-2.3643">
        <ele>74</ele>
        <time>2022-02-17T08:56:53.000Z</time>
      </trkpt>
      <trkpt lat="47.31032" lon="-2.3642">
        <ele>74</ele>
        <time>2022-02-17T08:56:59.000Z</time>
      </trkpt>
      <trkpt lat="47.31036" lon="-2.3642">
        <ele>74</ele>
        <time>2022-02-17T08:57:00.000Z</time>
      </trkpt>
      <trkpt lat="47.31068" lon="-2.36418">
        <ele>74</ele>
        <time>2022-02-17T08:57:06.000Z</time>
      </trkpt>
      <trkpt lat="47.31088" lon="-2.36415">
        <ele>74</ele>
        <time>2022-02-17T08:57:11.000Z</time>
      </trkpt>
      <trkpt lat="47.31103" lon="-2.36413">
        <ele>74</ele>
        <time>2022-02-17T08:57:15.000Z</time>
      </trkpt>
      <trkpt lat="47.31113" lon="-2.36407">
        <ele>74</ele>
        <time>2022-02-17T08:57:17.000Z</time>
      </trkpt>
      <trkpt lat="47.31128" lon="-2.36398">
        <ele>74</ele>
        <time>2022-02-17T08:57:20.000Z</time>
      </trkpt>
      <trkpt lat="47.31153" lon="-2.36382">
        <ele>74</ele>
        <time>2022-02-17T08:57:26.000Z</time>
      </trkpt>
      <trkpt lat="47.31178" lon="-2.36363">
        <ele>74</ele>
        <time>2022-02-17T08:57:32.000Z</time>
      </trkpt>
      <trkpt lat="47.3121" lon="-2.36345">
        <ele>74</ele>
        <time>2022-02-17T08:57:39.000Z</time>
      </trkpt>
      <trkpt lat="47.31244" lon="-2.36324">
        <ele>74</ele>
        <time>2022-02-17T08:57:47.000Z</time>
      </trkpt>
      <trkpt lat="47.31277" lon="-2.36306">
        <ele>74</ele>
        <time>2022-02-17T08:57:55.000Z</time>
      </trkpt>
      <trkpt lat="47.31289" lon="-2.36299">
        <ele>74</ele>
        <time>2022-02-17T08:57:58.000Z</time>
      </trkpt>
      <trkpt lat="47.313" lon="-2.36292">
        <ele>74</ele>
        <time>2022-02-17T08:58:01.000Z</time>
      </trkpt>
      <trkpt lat="47.31321" lon="-2.36278">
        <ele>74.400001525879</ele>
        <time>2022-02-17T08:58:07.000Z</time>
      </trkpt>
      <trkpt lat="47.31324" lon="-2.36274">
        <ele>75</ele>
        <time>2022-02-17T08:58:08.000Z</time>
      </trkpt>
      <trkpt lat="47.31327" lon="-2.36271">
        <ele>75.400001525879</ele>
        <time>2022-02-17T08:58:09.000Z</time>
      </trkpt>
      <trkpt lat="47.3133" lon="-2.36268">
        <ele>75.800003051758</ele>
        <time>2022-02-17T08:58:10.000Z</time>
      </trkpt>
      <trkpt lat="47.31333" lon="-2.36265">
        <ele>76.199996948242</ele>
        <time>2022-02-17T08:58:11.000Z</time>
      </trkpt>
      <trkpt lat="47.3135" lon="-2.36247">
        <ele>76.199996948242</ele>
        <time>2022-02-17T08:58:17.000Z</time>
      </trkpt>
      <trkpt lat="47.31365" lon="-2.36224">
        <ele>76.199996948242</ele>
        <time>2022-02-17T08:58:23.000Z</time>
      </trkpt>
      <trkpt lat="47.3138" lon="-2.36214">
        <ele>76.199996948242</ele>
        <time>2022-02-17T08:58:28.000Z</time>
      </trkpt>
      <trkpt lat="47.31401" lon="-2.36208">
        <ele>76.199996948242</ele>
        <time>2022-02-17T08:58:34.000Z</time>
      </trkpt>
      <trkpt lat="47.31416" lon="-2.36201">
        <ele>76.199996948242</ele>
        <time>2022-02-17T08:58:39.000Z</time>
      </trkpt>
      <trkpt lat="47.31437" lon="-2.36186">
        <ele>76.199996948242</ele>
        <time>2022-02-17T08:58:45.000Z</time>
      </trkpt>
      <trkpt lat="47.31451" lon="-2.36174">
        <ele>76.199996948242</ele>
        <time>2022-02-17T08:58:50.000Z</time>
      </trkpt>
      <trkpt lat="47.31453" lon="-2.36169">
        <ele>76.199996948242</ele>
        <time>2022-02-17T08:58:51.000Z</time>
      </trkpt>
      <trkpt lat="47.31455" lon="-2.36157">
        <ele>76.199996948242</ele>
        <time>2022-02-17T08:58:54.000Z</time>
      </trkpt>
      <trkpt lat="47.31455" lon="-2.36155">
        <ele>76.199996948242</ele>
        <time>2022-02-17T08:58:55.000Z</time>
      </trkpt>
      <trkpt lat="47.31454" lon="-2.36152">
        <ele>76.199996948242</ele>
        <time>2022-02-17T08:58:56.000Z</time>
      </trkpt>
      <trkpt lat="47.31452" lon="-2.3614">
        <ele>76.199996948242</ele>
        <time>2022-02-17T08:58:58.000Z</time>
      </trkpt>
      <trkpt lat="47.31441" lon="-2.36105">
        <ele>76.199996948242</ele>
        <time>2022-02-17T08:59:05.000Z</time>
      </trkpt>
      <trkpt lat="47.31429" lon="-2.36069">
        <ele>76.199996948242</ele>
        <time>2022-02-17T08:59:12.000Z</time>
      </trkpt>
      <trkpt lat="47.31421" lon="-2.36038">
        <ele>75.800003051758</ele>
        <time>2022-02-17T08:59:18.000Z</time>
      </trkpt>
      <trkpt lat="47.31419" lon="-2.36032">
        <ele>75.199996948242</ele>
        <time>2022-02-17T08:59:19.000Z</time>
      </trkpt>
      <trkpt lat="47.31417" lon="-2.36027">
        <ele>74.800003051758</ele>
        <time>2022-02-17T08:59:20.000Z</time>
      </trkpt>
      <trkpt lat="47.31415" lon="-2.36021">
        <ele>74.400001525879</ele>
        <time>2022-02-17T08:59:21.000Z</time>
      </trkpt>
      <trkpt lat="47.31412" lon="-2.36016">
        <ele>74</ele>
        <time>2022-02-17T08:59:22.000Z</time>
      </trkpt>
      <trkpt lat="47.31406" lon="-2.35998">
        <ele>74</ele>
        <time>2022-02-17T08:59:25.000Z</time>
      </trkpt>
      <trkpt lat="47.31403" lon="-2.35991">
        <ele>74</ele>
        <time>2022-02-17T08:59:26.000Z</time>
      </trkpt>
      <trkpt lat="47.31393" lon="-2.35963">
        <ele>73.599998474121</ele>
        <time>2022-02-17T08:59:30.000Z</time>
      </trkpt>
      <trkpt lat="47.31389" lon="-2.35957">
        <ele>73.199996948242</ele>
        <time>2022-02-17T08:59:31.000Z</time>
      </trkpt>
      <trkpt lat="47.31386" lon="-2.35951">
        <ele>72.800003051758</ele>
        <time>2022-02-17T08:59:32.000Z</time>
      </trkpt>
      <trkpt lat="47.31383" lon="-2.35945">
        <ele>72.400001525879</ele>
        <time>2022-02-17T08:59:33.000Z</time>
      </trkpt>
      <trkpt lat="47.31379" lon="-2.35939">
        <ele>72</ele>
        <time>2022-02-17T08:59:34.000Z</time>
      </trkpt>
      <trkpt lat="47.31378" lon="-2.35932">
        <ele>72</ele>
        <time>2022-02-17T08:59:35.000Z</time>
      </trkpt>
      <trkpt lat="47.31372" lon="-2.3592">
        <ele>72</ele>
        <time>2022-02-17T08:59:37.000Z</time>
      </trkpt>
      <trkpt lat="47.31357" lon="-2.35884">
        <ele>72</ele>
        <time>2022-02-17T08:59:43.000Z</time>
      </trkpt>
      <trkpt lat="47.31345" lon="-2.3585">
        <ele>72</ele>
        <time>2022-02-17T08:59:49.000Z</time>
      </trkpt>
      <trkpt lat="47.31342" lon="-2.3583">
        <ele>72.400001525879</ele>
        <time>2022-02-17T08:59:52.000Z</time>
      </trkpt>
      <trkpt lat="47.31341" lon="-2.35822">
        <ele>73.199996948242</ele>
        <time>2022-02-17T08:59:53.000Z</time>
      </trkpt>
      <trkpt lat="47.31341" lon="-2.35816">
        <ele>73.599998474121</ele>
        <time>2022-02-17T08:59:54.000Z</time>
      </trkpt>
      <trkpt lat="47.31341" lon="-2.35809">
        <ele>74</ele>
        <time>2022-02-17T08:59:55.000Z</time>
      </trkpt>
      <trkpt lat="47.31336" lon="-2.35775">
        <ele>74</ele>
        <time>2022-02-17T09:00:00.000Z</time>
      </trkpt>
      <trkpt lat="47.31335" lon="-2.35735">
        <ele>74</ele>
        <time>2022-02-17T09:00:06.000Z</time>
      </trkpt>
      <trkpt lat="47.31335" lon="-2.35729">
        <ele>74</ele>
        <time>2022-02-17T09:00:07.000Z</time>
      </trkpt>
      <trkpt lat="47.31334" lon="-2.35698">
        <ele>74</ele>
        <time>2022-02-17T09:00:12.000Z</time>
      </trkpt>
      <trkpt lat="47.31333" lon="-2.35657">
        <ele>74</ele>
        <time>2022-02-17T09:00:19.000Z</time>
      </trkpt>
      <trkpt lat="47.31331" lon="-2.35628">
        <ele>74</ele>
        <time>2022-02-17T09:00:24.000Z</time>
      </trkpt>
      <trkpt lat="47.31331" lon="-2.35614">
        <ele>74</ele>
        <time>2022-02-17T09:00:26.000Z</time>
      </trkpt>
      <trkpt lat="47.31329" lon="-2.35581">
        <ele>74</ele>
        <time>2022-02-17T09:00:31.000Z</time>
      </trkpt>
      <trkpt lat="47.31332" lon="-2.35556">
        <ele>74</ele>
        <time>2022-02-17T09:00:36.000Z</time>
      </trkpt>
      <trkpt lat="47.31343" lon="-2.35548">
        <ele>74</ele>
        <time>2022-02-17T09:00:40.000Z</time>
      </trkpt>
      <trkpt lat="47.31345" lon="-2.35546">
        <ele>74</ele>
        <time>2022-02-17T09:00:41.000Z</time>
      </trkpt>
      <trkpt lat="47.31363" lon="-2.35535">
        <ele>74</ele>
        <time>2022-02-17T09:00:47.000Z</time>
      </trkpt>
      <trkpt lat="47.3139" lon="-2.35526">
        <ele>74</ele>
        <time>2022-02-17T09:00:54.000Z</time>
      </trkpt>
      <trkpt lat="47.31416" lon="-2.35525">
        <ele>74</ele>
        <time>2022-02-17T09:01:00.000Z</time>
      </trkpt>
      <trkpt lat="47.31443" lon="-2.35525">
        <ele>74</ele>
        <time>2022-02-17T09:01:06.000Z</time>
      </trkpt>
      <trkpt lat="47.31464" lon="-2.35519">
        <ele>74</ele>
        <time>2022-02-17T09:01:13.000Z</time>
      </trkpt>
      <trkpt lat="47.31469" lon="-2.35514">
        <ele>74</ele>
        <time>2022-02-17T09:01:16.000Z</time>
      </trkpt>
      <trkpt lat="47.3147" lon="-2.35511">
        <ele>74</ele>
        <time>2022-02-17T09:01:17.000Z</time>
      </trkpt>
      <trkpt lat="47.31477" lon="-2.35496">
        <ele>74</ele>
        <time>2022-02-17T09:01:21.000Z</time>
      </trkpt>
      <trkpt lat="47.31479" lon="-2.35491">
        <ele>74</ele>
        <time>2022-02-17T09:01:22.000Z</time>
      </trkpt>
      <trkpt lat="47.31481" lon="-2.35486">
        <ele>73.599998474121</ele>
        <time>2022-02-17T09:01:23.000Z</time>
      </trkpt>
      <trkpt lat="47.31483" lon="-2.3548">
        <ele>73.199996948242</ele>
        <time>2022-02-17T09:01:24.000Z</time>
      </trkpt>
      <trkpt lat="47.31484" lon="-2.35475">
        <ele>72.800003051758</ele>
        <time>2022-02-17T09:01:25.000Z</time>
      </trkpt>
      <trkpt lat="47.31484" lon="-2.35468">
        <ele>72.400001525879</ele>
        <time>2022-02-17T09:01:26.000Z</time>
      </trkpt>
      <trkpt lat="47.31485" lon="-2.35462">
        <ele>72</ele>
        <time>2022-02-17T09:01:27.000Z</time>
      </trkpt>
      <trkpt lat="47.31487" lon="-2.35449">
        <ele>72</ele>
        <time>2022-02-17T09:01:29.000Z</time>
      </trkpt>
      <trkpt lat="47.31494" lon="-2.3543">
        <ele>72</ele>
        <time>2022-02-17T09:01:32.000Z</time>
      </trkpt>
      <trkpt lat="47.31505" lon="-2.35417">
        <ele>72</ele>
        <time>2022-02-17T09:01:35.000Z</time>
      </trkpt>
      <trkpt lat="47.31509" lon="-2.35413">
        <ele>72</ele>
        <time>2022-02-17T09:01:36.000Z</time>
      </trkpt>
      <trkpt lat="47.31522" lon="-2.35403">
        <ele>72</ele>
        <time>2022-02-17T09:01:39.000Z</time>
      </trkpt>
      <trkpt lat="47.31529" lon="-2.35397">
        <ele>72</ele>
        <time>2022-02-17T09:01:41.000Z</time>
      </trkpt>
      <trkpt lat="47.31556" lon="-2.35382">
        <ele>72</ele>
        <time>2022-02-17T09:01:47.000Z</time>
      </trkpt>
      <trkpt lat="47.31561" lon="-2.3538">
        <ele>72</ele>
        <time>2022-02-17T09:01:48.000Z</time>
      </trkpt>
      <trkpt lat="47.31583" lon="-2.35367">
        <ele>72</ele>
        <time>2022-02-17T09:01:53.000Z</time>
      </trkpt>
      <trkpt lat="47.31606" lon="-2.35361">
        <ele>72</ele>
        <time>2022-02-17T09:01:58.000Z</time>
      </trkpt>
      <trkpt lat="47.31611" lon="-2.35361">
        <ele>72</ele>
        <time>2022-02-17T09:01:59.000Z</time>
      </trkpt>
      <trkpt lat="47.31637" lon="-2.35368">
        <ele>72</ele>
        <time>2022-02-17T09:02:04.000Z</time>
      </trkpt>
      <trkpt lat="47.31648" lon="-2.3537">
        <ele>72</ele>
        <time>2022-02-17T09:02:06.000Z</time>
      </trkpt>
      <trkpt lat="47.31671" lon="-2.35372">
        <ele>72</ele>
        <time>2022-02-17T09:02:10.000Z</time>
      </trkpt>
      <trkpt lat="47.31704" lon="-2.3537">
        <ele>72</ele>
        <time>2022-02-17T09:02:16.000Z</time>
      </trkpt>
      <trkpt lat="47.31738" lon="-2.35362">
        <ele>72</ele>
        <time>2022-02-17T09:02:23.000Z</time>
      </trkpt>
      <trkpt lat="47.31746" lon="-2.35358">
        <ele>71.599998474121</ele>
        <time>2022-02-17T09:02:25.000Z</time>
      </trkpt>
      <trkpt lat="47.3175" lon="-2.35356">
        <ele>71.199996948242</ele>
        <time>2022-02-17T09:02:26.000Z</time>
      </trkpt>
      <trkpt lat="47.31754" lon="-2.35354">
        <ele>70.599998474121</ele>
        <time>2022-02-17T09:02:27.000Z</time>
      </trkpt>
      <trkpt lat="47.31759" lon="-2.3535">
        <ele>70.199996948242</ele>
        <time>2022-02-17T09:02:28.000Z</time>
      </trkpt>
      <trkpt lat="47.31763" lon="-2.35347">
        <ele>69.800003051758</ele>
        <time>2022-02-17T09:02:29.000Z</time>
      </trkpt>
      <trkpt lat="47.3178" lon="-2.35335">
        <ele>69.800003051758</ele>
        <time>2022-02-17T09:02:34.000Z</time>
      </trkpt>
      <trkpt lat="47.31783" lon="-2.35334">
        <ele>69.400001525879</ele>
        <time>2022-02-17T09:02:35.000Z</time>
      </trkpt>
      <trkpt lat="47.31786" lon="-2.35333">
        <ele>69</ele>
        <time>2022-02-17T09:02:36.000Z</time>
      </trkpt>
      <trkpt lat="47.31788" lon="-2.35331">
        <ele>68.599998474121</ele>
        <time>2022-02-17T09:02:37.000Z</time>
      </trkpt>
      <trkpt lat="47.3179" lon="-2.3533">
        <ele>68.199996948242</ele>
        <time>2022-02-17T09:02:38.000Z</time>
      </trkpt>
      <trkpt lat="47.31793" lon="-2.35329">
        <ele>67.800003051758</ele>
        <time>2022-02-17T09:02:39.000Z</time>
      </trkpt>
      <trkpt lat="47.31812" lon="-2.35317">
        <ele>67.800003051758</ele>
        <time>2022-02-17T09:02:45.000Z</time>
      </trkpt>
      <trkpt lat="47.31825" lon="-2.35308">
        <ele>67.800003051758</ele>
        <time>2022-02-17T09:02:47.000Z</time>
      </trkpt>
      <trkpt lat="47.31838" lon="-2.35297">
        <ele>67.800003051758</ele>
        <time>2022-02-17T09:02:49.000Z</time>
      </trkpt>
      <trkpt lat="47.3185" lon="-2.35288">
        <ele>67.800003051758</ele>
        <time>2022-02-17T09:02:51.000Z</time>
      </trkpt>
      <trkpt lat="47.3186" lon="-2.35281">
        <ele>67.400001525879</ele>
        <time>2022-02-17T09:02:53.000Z</time>
      </trkpt>
      <trkpt lat="47.31865" lon="-2.35277">
        <ele>67</ele>
        <time>2022-02-17T09:02:54.000Z</time>
      </trkpt>
      <trkpt lat="47.31871" lon="-2.35273">
        <ele>66.599998474121</ele>
        <time>2022-02-17T09:02:55.000Z</time>
      </trkpt>
      <trkpt lat="47.31877" lon="-2.35267">
        <ele>66</ele>
        <time>2022-02-17T09:02:56.000Z</time>
      </trkpt>
      <trkpt lat="47.31882" lon="-2.35262">
        <ele>65.599998474121</ele>
        <time>2022-02-17T09:02:57.000Z</time>
      </trkpt>
      <trkpt lat="47.31892" lon="-2.35252">
        <ele>65.599998474121</ele>
        <time>2022-02-17T09:02:59.000Z</time>
      </trkpt>
      <trkpt lat="47.31922" lon="-2.35224">
        <ele>65.599998474121</ele>
        <time>2022-02-17T09:03:06.000Z</time>
      </trkpt>
      <trkpt lat="47.3195" lon="-2.35195">
        <ele>65.599998474121</ele>
        <time>2022-02-17T09:03:13.000Z</time>
      </trkpt>
      <trkpt lat="47.31981" lon="-2.35164">
        <ele>65.199996948242</ele>
        <time>2022-02-17T09:03:20.000Z</time>
      </trkpt>
      <trkpt lat="47.31986" lon="-2.3516">
        <ele>64.800003051758</ele>
        <time>2022-02-17T09:03:21.000Z</time>
      </trkpt>
      <trkpt lat="47.3199" lon="-2.35156">
        <ele>64.400001525879</ele>
        <time>2022-02-17T09:03:22.000Z</time>
      </trkpt>
      <trkpt lat="47.31994" lon="-2.35152">
        <ele>64</ele>
        <time>2022-02-17T09:03:23.000Z</time>
      </trkpt>
      <trkpt lat="47.31999" lon="-2.35148">
        <ele>63.599998474121</ele>
        <time>2022-02-17T09:03:24.000Z</time>
      </trkpt>
      <trkpt lat="47.32008" lon="-2.35139">
        <ele>63.599998474121</ele>
        <time>2022-02-17T09:03:26.000Z</time>
      </trkpt>
      <trkpt lat="47.32023" lon="-2.35126">
        <ele>63.599998474121</ele>
        <time>2022-02-17T09:03:29.000Z</time>
      </trkpt>
      <trkpt lat="47.3203" lon="-2.35115">
        <ele>63.599998474121</ele>
        <time>2022-02-17T09:03:31.000Z</time>
      </trkpt>
      <trkpt lat="47.32035" lon="-2.35091">
        <ele>63.599998474121</ele>
        <time>2022-02-17T09:03:35.000Z</time>
      </trkpt>
      <trkpt lat="47.32036" lon="-2.35065">
        <ele>63.599998474121</ele>
        <time>2022-02-17T09:03:40.000Z</time>
      </trkpt>
      <trkpt lat="47.32045" lon="-2.35061">
        <ele>63.599998474121</ele>
        <time>2022-02-17T09:03:43.000Z</time>
      </trkpt>
      <trkpt lat="47.3206" lon="-2.35064">
        <ele>63.599998474121</ele>
        <time>2022-02-17T09:03:47.000Z</time>
      </trkpt>
      <trkpt lat="47.32064" lon="-2.35064">
        <ele>63.599998474121</ele>
        <time>2022-02-17T09:03:48.000Z</time>
      </trkpt>
      <trkpt lat="47.32068" lon="-2.35064">
        <ele>63.599998474121</ele>
        <time>2022-02-17T09:03:49.000Z</time>
      </trkpt>
      <trkpt lat="47.32092" lon="-2.35064">
        <ele>63.599998474121</ele>
        <time>2022-02-17T09:03:54.000Z</time>
      </trkpt>
      <trkpt lat="47.32122" lon="-2.35063">
        <ele>63.599998474121</ele>
        <time>2022-02-17T09:04:00.000Z</time>
      </trkpt>
      <trkpt lat="47.32151" lon="-2.35059">
        <ele>63.599998474121</ele>
        <time>2022-02-17T09:04:06.000Z</time>
      </trkpt>
      <trkpt lat="47.32188" lon="-2.35056">
        <ele>63.599998474121</ele>
        <time>2022-02-17T09:04:13.000Z</time>
      </trkpt>
      <trkpt lat="47.32216" lon="-2.35051">
        <ele>63.599998474121</ele>
        <time>2022-02-17T09:04:18.000Z</time>
      </trkpt>
      <trkpt lat="47.32241" lon="-2.35047">
        <ele>64</ele>
        <time>2022-02-17T09:04:23.000Z</time>
      </trkpt>
      <trkpt lat="47.32246" lon="-2.35046">
        <ele>64.599998474121</ele>
        <time>2022-02-17T09:04:24.000Z</time>
      </trkpt>
      <trkpt lat="47.32251" lon="-2.35045">
        <ele>65.400001525879</ele>
        <time>2022-02-17T09:04:25.000Z</time>
      </trkpt>
      <trkpt lat="47.32256" lon="-2.35044">
        <ele>65.800003051758</ele>
        <time>2022-02-17T09:04:26.000Z</time>
      </trkpt>
      <trkpt lat="47.32271" lon="-2.35044">
        <ele>65.800003051758</ele>
        <time>2022-02-17T09:04:29.000Z</time>
      </trkpt>
      <trkpt lat="47.323" lon="-2.35045">
        <ele>65.800003051758</ele>
        <time>2022-02-17T09:04:35.000Z</time>
      </trkpt>
      <trkpt lat="47.32331" lon="-2.35045">
        <ele>66.199996948242</ele>
        <time>2022-02-17T09:04:41.000Z</time>
      </trkpt>
      <trkpt lat="47.32336" lon="-2.35045">
        <ele>66.599998474121</ele>
        <time>2022-02-17T09:04:42.000Z</time>
      </trkpt>
      <trkpt lat="47.32341" lon="-2.35046">
        <ele>67</ele>
        <time>2022-02-17T09:04:43.000Z</time>
      </trkpt>
      <trkpt lat="47.32346" lon="-2.35046">
        <ele>67.400001525879</ele>
        <time>2022-02-17T09:04:44.000Z</time>
      </trkpt>
      <trkpt lat="47.32351" lon="-2.35046">
        <ele>68</ele>
        <time>2022-02-17T09:04:45.000Z</time>
      </trkpt>
      <trkpt lat="47.32365" lon="-2.35045">
        <ele>68</ele>
        <time>2022-02-17T09:04:48.000Z</time>
      </trkpt>
      <trkpt lat="47.324" lon="-2.35044">
        <ele>68</ele>
        <time>2022-02-17T09:04:56.000Z</time>
      </trkpt>
      <trkpt lat="47.3241" lon="-2.35043">
        <ele>68.400001525879</ele>
        <time>2022-02-17T09:04:58.000Z</time>
      </trkpt>
      <trkpt lat="47.32415" lon="-2.35043">
        <ele>68.800003051758</ele>
        <time>2022-02-17T09:04:59.000Z</time>
      </trkpt>
      <trkpt lat="47.3242" lon="-2.35042">
        <ele>69.199996948242</ele>
        <time>2022-02-17T09:05:00.000Z</time>
      </trkpt>
      <trkpt lat="47.32425" lon="-2.35041">
        <ele>69.599998474121</ele>
        <time>2022-02-17T09:05:01.000Z</time>
      </trkpt>
      <trkpt lat="47.3243" lon="-2.35041">
        <ele>70</ele>
        <time>2022-02-17T09:05:02.000Z</time>
      </trkpt>
      <trkpt lat="47.32463" lon="-2.35031">
        <ele>70</ele>
        <time>2022-02-17T09:05:09.000Z</time>
      </trkpt>
      <trkpt lat="47.32483" lon="-2.35025">
        <ele>70</ele>
        <time>2022-02-17T09:05:13.000Z</time>
      </trkpt>
      <trkpt lat="47.32494" lon="-2.35023">
        <ele>70</ele>
        <time>2022-02-17T09:05:15.000Z</time>
      </trkpt>
      <trkpt lat="47.32532" lon="-2.35012">
        <ele>70</ele>
        <time>2022-02-17T09:05:22.000Z</time>
      </trkpt>
      <trkpt lat="47.3256" lon="-2.35003">
        <ele>70</ele>
        <time>2022-02-17T09:05:27.000Z</time>
      </trkpt>
      <trkpt lat="47.32596" lon="-2.34987">
        <ele>70</ele>
        <time>2022-02-17T09:05:34.000Z</time>
      </trkpt>
      <trkpt lat="47.32611" lon="-2.34981">
        <ele>70</ele>
        <time>2022-02-17T09:05:37.000Z</time>
      </trkpt>
      <trkpt lat="47.32616" lon="-2.34978">
        <ele>70</ele>
        <time>2022-02-17T09:05:38.000Z</time>
      </trkpt>
      <trkpt lat="47.3262" lon="-2.34975">
        <ele>69.199996948242</ele>
        <time>2022-02-17T09:05:39.000Z</time>
      </trkpt>
      <trkpt lat="47.32625" lon="-2.34973">
        <ele>68.800003051758</ele>
        <time>2022-02-17T09:05:40.000Z</time>
      </trkpt>
      <trkpt lat="47.32629" lon="-2.34971">
        <ele>68.400001525879</ele>
        <time>2022-02-17T09:05:41.000Z</time>
      </trkpt>
      <trkpt lat="47.32632" lon="-2.34969">
        <ele>68</ele>
        <time>2022-02-17T09:05:42.000Z</time>
      </trkpt>
      <trkpt lat="47.32639" lon="-2.34967">
        <ele>68</ele>
        <time>2022-02-17T09:05:44.000Z</time>
      </trkpt>
      <trkpt lat="47.32656" lon="-2.34953">
        <ele>68</ele>
        <time>2022-02-17T09:05:50.000Z</time>
      </trkpt>
      <trkpt lat="47.32667" lon="-2.34947">
        <ele>68</ele>
        <time>2022-02-17T09:05:53.000Z</time>
      </trkpt>
      <trkpt lat="47.32675" lon="-2.3494">
        <ele>68</ele>
        <time>2022-02-17T09:05:55.000Z</time>
      </trkpt>
      <trkpt lat="47.32705" lon="-2.34913">
        <ele>68</ele>
        <time>2022-02-17T09:06:02.000Z</time>
      </trkpt>
      <trkpt lat="47.32709" lon="-2.34909">
        <ele>68</ele>
        <time>2022-02-17T09:06:03.000Z</time>
      </trkpt>
      <trkpt lat="47.3273" lon="-2.34897">
        <ele>68</ele>
        <time>2022-02-17T09:06:07.000Z</time>
      </trkpt>
      <trkpt lat="47.32766" lon="-2.34873">
        <ele>68</ele>
        <time>2022-02-17T09:06:14.000Z</time>
      </trkpt>
      <trkpt lat="47.32771" lon="-2.3487">
        <ele>67.400001525879</ele>
        <time>2022-02-17T09:06:15.000Z</time>
      </trkpt>
      <trkpt lat="47.32776" lon="-2.34866">
        <ele>67</ele>
        <time>2022-02-17T09:06:16.000Z</time>
      </trkpt>
      <trkpt lat="47.32781" lon="-2.34862">
        <ele>66.599998474121</ele>
        <time>2022-02-17T09:06:17.000Z</time>
      </trkpt>
      <trkpt lat="47.32786" lon="-2.34859">
        <ele>66.199996948242</ele>
        <time>2022-02-17T09:06:18.000Z</time>
      </trkpt>
      <trkpt lat="47.32791" lon="-2.34855">
        <ele>65.800003051758</ele>
        <time>2022-02-17T09:06:19.000Z</time>
      </trkpt>
      <trkpt lat="47.32801" lon="-2.34848">
        <ele>65.800003051758</ele>
        <time>2022-02-17T09:06:21.000Z</time>
      </trkpt>
      <trkpt lat="47.32807" lon="-2.34844">
        <ele>65.800003051758</ele>
        <time>2022-02-17T09:06:22.000Z</time>
      </trkpt>
      <trkpt lat="47.32827" lon="-2.34828">
        <ele>65.800003051758</ele>
        <time>2022-02-17T09:06:26.000Z</time>
      </trkpt>
      <trkpt lat="47.3286" lon="-2.34804">
        <ele>65.800003051758</ele>
        <time>2022-02-17T09:06:32.000Z</time>
      </trkpt>
      <trkpt lat="47.32887" lon="-2.34784">
        <ele>65.800003051758</ele>
        <time>2022-02-17T09:06:37.000Z</time>
      </trkpt>
      <trkpt lat="47.32892" lon="-2.34781">
        <ele>65.800003051758</ele>
        <time>2022-02-17T09:06:38.000Z</time>
      </trkpt>
      <trkpt lat="47.32901" lon="-2.34778">
        <ele>65.400001525879</ele>
        <time>2022-02-17T09:06:41.000Z</time>
      </trkpt>
      <trkpt lat="47.32904" lon="-2.3478">
        <ele>65</ele>
        <time>2022-02-17T09:06:42.000Z</time>
      </trkpt>
      <trkpt lat="47.32906" lon="-2.34781">
        <ele>64.599998474121</ele>
        <time>2022-02-17T09:06:43.000Z</time>
      </trkpt>
      <trkpt lat="47.32906" lon="-2.34783">
        <ele>64.199996948242</ele>
        <time>2022-02-17T09:06:44.000Z</time>
      </trkpt>
      <trkpt lat="47.32906" lon="-2.34785">
        <ele>63.599998474121</ele>
        <time>2022-02-17T09:06:45.000Z</time>
      </trkpt>
      <trkpt lat="47.32904" lon="-2.34785">
        <ele>63.599998474121</ele>
        <time>2022-02-17T09:06:48.000Z</time>
      </trkpt>
      <trkpt lat="47.32904" lon="-2.34783">
        <ele>63.599998474121</ele>
        <time>2022-02-17T09:06:49.000Z</time>
      </trkpt>
      <trkpt lat="47.32912" lon="-2.34771">
        <ele>63.599998474121</ele>
        <time>2022-02-17T09:06:53.000Z</time>
      </trkpt>
      <trkpt lat="47.32915" lon="-2.34768">
        <ele>63.599998474121</ele>
        <time>2022-02-17T09:06:54.000Z</time>
      </trkpt>
      <trkpt lat="47.32938" lon="-2.34753">
        <ele>63.599998474121</ele>
        <time>2022-02-17T09:06:59.000Z</time>
      </trkpt>
      <trkpt lat="47.32967" lon="-2.34733">
        <ele>63.599998474121</ele>
        <time>2022-02-17T09:07:04.000Z</time>
      </trkpt>
      <trkpt lat="47.32998" lon="-2.3471">
        <ele>63.200000762939</ele>
        <time>2022-02-17T09:07:09.000Z</time>
      </trkpt>
      <trkpt lat="47.33004" lon="-2.34705">
        <ele>62.799999237061</ele>
        <time>2022-02-17T09:07:10.000Z</time>
      </trkpt>
      <trkpt lat="47.33009" lon="-2.347">
        <ele>62.400001525879</ele>
        <time>2022-02-17T09:07:11.000Z</time>
      </trkpt>
      <trkpt lat="47.33014" lon="-2.34695">
        <ele>62</ele>
        <time>2022-02-17T09:07:12.000Z</time>
      </trkpt>
      <trkpt lat="47.33019" lon="-2.3469">
        <ele>61.599998474121</ele>
        <time>2022-02-17T09:07:13.000Z</time>
      </trkpt>
      <trkpt lat="47.33041" lon="-2.3467">
        <ele>61.599998474121</ele>
        <time>2022-02-17T09:07:17.000Z</time>
      </trkpt>
      <trkpt lat="47.33065" lon="-2.34645">
        <ele>61.599998474121</ele>
        <time>2022-02-17T09:07:22.000Z</time>
      </trkpt>
      <trkpt lat="47.3307" lon="-2.3464">
        <ele>61.599998474121</ele>
        <time>2022-02-17T09:07:23.000Z</time>
      </trkpt>
      <trkpt lat="47.33089" lon="-2.34621">
        <ele>61.599998474121</ele>
        <time>2022-02-17T09:07:27.000Z</time>
      </trkpt>
      <trkpt lat="47.33098" lon="-2.3461">
        <ele>61.599998474121</ele>
        <time>2022-02-17T09:07:29.000Z</time>
      </trkpt>
      <trkpt lat="47.3313" lon="-2.34579">
        <ele>61.599998474121</ele>
        <time>2022-02-17T09:07:35.000Z</time>
      </trkpt>
      <trkpt lat="47.33171" lon="-2.3454">
        <ele>61.599998474121</ele>
        <time>2022-02-17T09:07:43.000Z</time>
      </trkpt>
      <trkpt lat="47.3321" lon="-2.34502">
        <ele>61.599998474121</ele>
        <time>2022-02-17T09:07:51.000Z</time>
      </trkpt>
      <trkpt lat="47.33232" lon="-2.3448">
        <ele>61.599998474121</ele>
        <time>2022-02-17T09:07:56.000Z</time>
      </trkpt>
      <trkpt lat="47.33246" lon="-2.3447">
        <ele>61.599998474121</ele>
        <time>2022-02-17T09:07:59.000Z</time>
      </trkpt>
      <trkpt lat="47.33257" lon="-2.34469">
        <ele>61.599998474121</ele>
        <time>2022-02-17T09:08:01.000Z</time>
      </trkpt>
      <trkpt lat="47.33272" lon="-2.34474">
        <ele>61.599998474121</ele>
        <time>2022-02-17T09:08:04.000Z</time>
      </trkpt>
      <trkpt lat="47.33281" lon="-2.34479">
        <ele>61.599998474121</ele>
        <time>2022-02-17T09:08:06.000Z</time>
      </trkpt>
      <trkpt lat="47.33312" lon="-2.34496">
        <ele>61.599998474121</ele>
        <time>2022-02-17T09:08:13.000Z</time>
      </trkpt>
      <trkpt lat="47.33337" lon="-2.34505">
        <ele>61.599998474121</ele>
        <time>2022-02-17T09:08:19.000Z</time>
      </trkpt>
      <trkpt lat="47.3334" lon="-2.34503">
        <ele>61.599998474121</ele>
        <time>2022-02-17T09:08:20.000Z</time>
      </trkpt>
      <trkpt lat="47.33345" lon="-2.34497">
        <ele>61.599998474121</ele>
        <time>2022-02-17T09:08:22.000Z</time>
      </trkpt>
      <trkpt lat="47.33346" lon="-2.34494">
        <ele>62</ele>
        <time>2022-02-17T09:08:23.000Z</time>
      </trkpt>
      <trkpt lat="47.33348" lon="-2.34492">
        <ele>62.400001525879</ele>
        <time>2022-02-17T09:08:24.000Z</time>
      </trkpt>
      <trkpt lat="47.3335" lon="-2.34489">
        <ele>62.799999237061</ele>
        <time>2022-02-17T09:08:25.000Z</time>
      </trkpt>
      <trkpt lat="47.33353" lon="-2.34487">
        <ele>63.200000762939</ele>
        <time>2022-02-17T09:08:26.000Z</time>
      </trkpt>
      <trkpt lat="47.33356" lon="-2.34486">
        <ele>63.599998474121</ele>
        <time>2022-02-17T09:08:27.000Z</time>
      </trkpt>
      <trkpt lat="47.33366" lon="-2.34493">
        <ele>63.599998474121</ele>
        <time>2022-02-17T09:08:30.000Z</time>
      </trkpt>
      <trkpt lat="47.33373" lon="-2.34503">
        <ele>63.599998474121</ele>
        <time>2022-02-17T09:08:32.000Z</time>
      </trkpt>
      <trkpt lat="47.33385" lon="-2.34523">
        <ele>63.599998474121</ele>
        <time>2022-02-17T09:08:36.000Z</time>
      </trkpt>
      <trkpt lat="47.33401" lon="-2.34554">
        <ele>63.599998474121</ele>
        <time>2022-02-17T09:08:42.000Z</time>
      </trkpt>
      <trkpt lat="47.33419" lon="-2.34587">
        <ele>64</ele>
        <time>2022-02-17T09:08:48.000Z</time>
      </trkpt>
      <trkpt lat="47.33422" lon="-2.34592">
        <ele>64.400001525879</ele>
        <time>2022-02-17T09:08:49.000Z</time>
      </trkpt>
      <trkpt lat="47.33425" lon="-2.34597">
        <ele>65</ele>
        <time>2022-02-17T09:08:50.000Z</time>
      </trkpt>
      <trkpt lat="47.33428" lon="-2.34601">
        <ele>65.400001525879</ele>
        <time>2022-02-17T09:08:51.000Z</time>
      </trkpt>
      <trkpt lat="47.33431" lon="-2.34606">
        <ele>65.800003051758</ele>
        <time>2022-02-17T09:08:52.000Z</time>
      </trkpt>
      <trkpt lat="47.33441" lon="-2.34625">
        <ele>65.800003051758</ele>
        <time>2022-02-17T09:08:56.000Z</time>
      </trkpt>
      <trkpt lat="47.33455" lon="-2.34649">
        <ele>66.199996948242</ele>
        <time>2022-02-17T09:09:01.000Z</time>
      </trkpt>
      <trkpt lat="47.33458" lon="-2.34655">
        <ele>66.599998474121</ele>
        <time>2022-02-17T09:09:02.000Z</time>
      </trkpt>
      <trkpt lat="47.33462" lon="-2.3466">
        <ele>67</ele>
        <time>2022-02-17T09:09:03.000Z</time>
      </trkpt>
      <trkpt lat="47.33465" lon="-2.34665">
        <ele>67.400001525879</ele>
        <time>2022-02-17T09:09:04.000Z</time>
      </trkpt>
      <trkpt lat="47.33468" lon="-2.3467">
        <ele>67.800003051758</ele>
        <time>2022-02-17T09:09:05.000Z</time>
      </trkpt>
      <trkpt lat="47.3349" lon="-2.34703">
        <ele>67.800003051758</ele>
        <time>2022-02-17T09:09:12.000Z</time>
      </trkpt>
      <trkpt lat="47.33495" lon="-2.34711">
        <ele>67.800003051758</ele>
        <time>2022-02-17T09:09:14.000Z</time>
      </trkpt>
      <trkpt lat="47.33504" lon="-2.34724">
        <ele>68.199996948242</ele>
        <time>2022-02-17T09:09:17.000Z</time>
      </trkpt>
      <trkpt lat="47.33508" lon="-2.34729">
        <ele>68.800003051758</ele>
        <time>2022-02-17T09:09:18.000Z</time>
      </trkpt>
      <trkpt lat="47.33511" lon="-2.34733">
        <ele>69.199996948242</ele>
        <time>2022-02-17T09:09:19.000Z</time>
      </trkpt>
      <trkpt lat="47.33513" lon="-2.34738">
        <ele>69.599998474121</ele>
        <time>2022-02-17T09:09:20.000Z</time>
      </trkpt>
      <trkpt lat="47.33516" lon="-2.34742">
        <ele>70</ele>
        <time>2022-02-17T09:09:21.000Z</time>
      </trkpt>
      <trkpt lat="47.33529" lon="-2.34761">
        <ele>70</ele>
        <time>2022-02-17T09:09:25.000Z</time>
      </trkpt>
      <trkpt lat="47.33548" lon="-2.34786">
        <ele>70</ele>
        <time>2022-02-17T09:09:31.000Z</time>
      </trkpt>
      <trkpt lat="47.33566" lon="-2.34808">
        <ele>70</ele>
        <time>2022-02-17T09:09:36.000Z</time>
      </trkpt>
      <trkpt lat="47.33591" lon="-2.34844">
        <ele>70</ele>
        <time>2022-02-17T09:09:42.000Z</time>
      </trkpt>
      <trkpt lat="47.33618" lon="-2.34883">
        <ele>70</ele>
        <time>2022-02-17T09:09:49.000Z</time>
      </trkpt>
      <trkpt lat="47.33653" lon="-2.34927">
        <ele>70</ele>
        <time>2022-02-17T09:09:57.000Z</time>
      </trkpt>
      <trkpt lat="47.3368" lon="-2.34962">
        <ele>70</ele>
        <time>2022-02-17T09:10:03.000Z</time>
      </trkpt>
      <trkpt lat="47.33706" lon="-2.35004">
        <ele>69.199996948242</ele>
        <time>2022-02-17T09:10:10.000Z</time>
      </trkpt>
      <trkpt lat="47.33709" lon="-2.35009">
        <ele>68.800003051758</ele>
        <time>2022-02-17T09:10:11.000Z</time>
      </trkpt>
      <trkpt lat="47.33712" lon="-2.35014">
        <ele>68.400001525879</ele>
        <time>2022-02-17T09:10:12.000Z</time>
      </trkpt>
      <trkpt lat="47.33715" lon="-2.35018">
        <ele>68</ele>
        <time>2022-02-17T09:10:13.000Z</time>
      </trkpt>
      <trkpt lat="47.33725" lon="-2.35034">
        <ele>68</ele>
        <time>2022-02-17T09:10:16.000Z</time>
      </trkpt>
      <trkpt lat="47.33729" lon="-2.35039">
        <ele>68</ele>
        <time>2022-02-17T09:10:17.000Z</time>
      </trkpt>
      <trkpt lat="47.33745" lon="-2.35058">
        <ele>68</ele>
        <time>2022-02-17T09:10:21.000Z</time>
      </trkpt>
      <trkpt lat="47.3375" lon="-2.35062">
        <ele>68</ele>
        <time>2022-02-17T09:10:22.000Z</time>
      </trkpt>
      <trkpt lat="47.33759" lon="-2.35069">
        <ele>68</ele>
        <time>2022-02-17T09:10:24.000Z</time>
      </trkpt>
      <trkpt lat="47.33769" lon="-2.35075">
        <ele>68</ele>
        <time>2022-02-17T09:10:26.000Z</time>
      </trkpt>
      <trkpt lat="47.33806" lon="-2.35095">
        <ele>68</ele>
        <time>2022-02-17T09:10:34.000Z</time>
      </trkpt>
      <trkpt lat="47.33828" lon="-2.3511">
        <ele>68.400001525879</ele>
        <time>2022-02-17T09:10:39.000Z</time>
      </trkpt>
      <trkpt lat="47.33832" lon="-2.35112">
        <ele>68.800003051758</ele>
        <time>2022-02-17T09:10:40.000Z</time>
      </trkpt>
      <trkpt lat="47.33837" lon="-2.35115">
        <ele>69.199996948242</ele>
        <time>2022-02-17T09:10:41.000Z</time>
      </trkpt>
      <trkpt lat="47.33841" lon="-2.35118">
        <ele>69.599998474121</ele>
        <time>2022-02-17T09:10:42.000Z</time>
      </trkpt>
      <trkpt lat="47.33846" lon="-2.35121">
        <ele>70</ele>
        <time>2022-02-17T09:10:43.000Z</time>
      </trkpt>
      <trkpt lat="47.33877" lon="-2.35147">
        <ele>70</ele>
        <time>2022-02-17T09:10:50.000Z</time>
      </trkpt>
      <trkpt lat="47.33889" lon="-2.35158">
        <ele>70</ele>
        <time>2022-02-17T09:10:53.000Z</time>
      </trkpt>
      <trkpt lat="47.33907" lon="-2.35171">
        <ele>70</ele>
        <time>2022-02-17T09:10:57.000Z</time>
      </trkpt>
      <trkpt lat="47.33915" lon="-2.35179">
        <ele>70.400001525879</ele>
        <time>2022-02-17T09:10:59.000Z</time>
      </trkpt>
      <trkpt lat="47.33919" lon="-2.35184">
        <ele>70.800003051758</ele>
        <time>2022-02-17T09:11:00.000Z</time>
      </trkpt>
      <trkpt lat="47.33923" lon="-2.35188">
        <ele>71.199996948242</ele>
        <time>2022-02-17T09:11:01.000Z</time>
      </trkpt>
      <trkpt lat="47.33927" lon="-2.35193">
        <ele>71.599998474121</ele>
        <time>2022-02-17T09:11:02.000Z</time>
      </trkpt>
      <trkpt lat="47.33931" lon="-2.35198">
        <ele>72</ele>
        <time>2022-02-17T09:11:03.000Z</time>
      </trkpt>
      <trkpt lat="47.33941" lon="-2.35216">
        <ele>72</ele>
        <time>2022-02-17T09:11:06.000Z</time>
      </trkpt>
      <trkpt lat="47.33948" lon="-2.35236">
        <ele>72</ele>
        <time>2022-02-17T09:11:09.000Z</time>
      </trkpt>
      <trkpt lat="47.33963" lon="-2.35268">
        <ele>72</ele>
        <time>2022-02-17T09:11:14.000Z</time>
      </trkpt>
      <trkpt lat="47.33968" lon="-2.35274">
        <ele>72</ele>
        <time>2022-02-17T09:11:15.000Z</time>
      </trkpt>
      <trkpt lat="47.33972" lon="-2.3528">
        <ele>72</ele>
        <time>2022-02-17T09:11:16.000Z</time>
      </trkpt>
      <trkpt lat="47.33983" lon="-2.35292">
        <ele>71.599998474121</ele>
        <time>2022-02-17T09:11:18.000Z</time>
      </trkpt>
      <trkpt lat="47.33988" lon="-2.35298">
        <ele>71.199996948242</ele>
        <time>2022-02-17T09:11:19.000Z</time>
      </trkpt>
      <trkpt lat="47.33994" lon="-2.35304">
        <ele>70.800003051758</ele>
        <time>2022-02-17T09:11:20.000Z</time>
      </trkpt>
      <trkpt lat="47.34" lon="-2.3531">
        <ele>70.400001525879</ele>
        <time>2022-02-17T09:11:21.000Z</time>
      </trkpt>
      <trkpt lat="47.34005" lon="-2.35315">
        <ele>70</ele>
        <time>2022-02-17T09:11:22.000Z</time>
      </trkpt>
      <trkpt lat="47.34016" lon="-2.35326">
        <ele>69.199996948242</ele>
        <time>2022-02-17T09:11:24.000Z</time>
      </trkpt>
      <trkpt lat="47.34022" lon="-2.35331">
        <ele>68.800003051758</ele>
        <time>2022-02-17T09:11:25.000Z</time>
      </trkpt>
      <trkpt lat="47.34028" lon="-2.35336">
        <ele>68.400001525879</ele>
        <time>2022-02-17T09:11:26.000Z</time>
      </trkpt>
      <trkpt lat="47.34033" lon="-2.35341">
        <ele>67.800003051758</ele>
        <time>2022-02-17T09:11:27.000Z</time>
      </trkpt>
      <trkpt lat="47.34057" lon="-2.3537">
        <ele>67.800003051758</ele>
        <time>2022-02-17T09:11:32.000Z</time>
      </trkpt>
      <trkpt lat="47.34072" lon="-2.35402">
        <ele>67.800003051758</ele>
        <time>2022-02-17T09:11:36.000Z</time>
      </trkpt>
      <trkpt lat="47.34075" lon="-2.35411">
        <ele>67.800003051758</ele>
        <time>2022-02-17T09:11:37.000Z</time>
      </trkpt>
      <trkpt lat="47.341" lon="-2.35477">
        <ele>67.400001525879</ele>
        <time>2022-02-17T09:11:45.000Z</time>
      </trkpt>
      <trkpt lat="47.34103" lon="-2.35485">
        <ele>67</ele>
        <time>2022-02-17T09:11:46.000Z</time>
      </trkpt>
      <trkpt lat="47.34106" lon="-2.35492">
        <ele>66.599998474121</ele>
        <time>2022-02-17T09:11:47.000Z</time>
      </trkpt>
      <trkpt lat="47.34109" lon="-2.355">
        <ele>66.199996948242</ele>
        <time>2022-02-17T09:11:48.000Z</time>
      </trkpt>
      <trkpt lat="47.34112" lon="-2.35508">
        <ele>65.800003051758</ele>
        <time>2022-02-17T09:11:49.000Z</time>
      </trkpt>
      <trkpt lat="47.34126" lon="-2.35547">
        <ele>65.800003051758</ele>
        <time>2022-02-17T09:11:54.000Z</time>
      </trkpt>
      <trkpt lat="47.34144" lon="-2.35598">
        <ele>65.800003051758</ele>
        <time>2022-02-17T09:12:01.000Z</time>
      </trkpt>
      <trkpt lat="47.34164" lon="-2.35634">
        <ele>65.800003051758</ele>
        <time>2022-02-17T09:12:07.000Z</time>
      </trkpt>
      <trkpt lat="47.34193" lon="-2.3568">
        <ele>65.800003051758</ele>
        <time>2022-02-17T09:12:15.000Z</time>
      </trkpt>
      <trkpt lat="47.34198" lon="-2.35687">
        <ele>65.400001525879</ele>
        <time>2022-02-17T09:12:17.000Z</time>
      </trkpt>
      <trkpt lat="47.342" lon="-2.3569">
        <ele>64.800003051758</ele>
        <time>2022-02-17T09:12:18.000Z</time>
      </trkpt>
      <trkpt lat="47.34202" lon="-2.35693">
        <ele>64.400001525879</ele>
        <time>2022-02-17T09:12:19.000Z</time>
      </trkpt>
      <trkpt lat="47.34204" lon="-2.35695">
        <ele>64</ele>
        <time>2022-02-17T09:12:20.000Z</time>
      </trkpt>
      <trkpt lat="47.34204" lon="-2.35697">
        <ele>63.400001525879</ele>
        <time>2022-02-17T09:12:21.000Z</time>
      </trkpt>
      <trkpt lat="47.34205" lon="-2.35702">
        <ele>63.400001525879</ele>
        <time>2022-02-17T09:12:24.000Z</time>
      </trkpt>
      <trkpt lat="47.34206" lon="-2.35704">
        <ele>63.400001525879</ele>
        <time>2022-02-17T09:12:25.000Z</time>
      </trkpt>
      <trkpt lat="47.34207" lon="-2.35708">
        <ele>63</ele>
        <time>2022-02-17T09:12:27.000Z</time>
      </trkpt>
      <trkpt lat="47.34207" lon="-2.35712">
        <ele>62.599998474121</ele>
        <time>2022-02-17T09:12:28.000Z</time>
      </trkpt>
      <trkpt lat="47.34207" lon="-2.35715">
        <ele>62.200000762939</ele>
        <time>2022-02-17T09:12:29.000Z</time>
      </trkpt>
      <trkpt lat="47.34208" lon="-2.35719">
        <ele>61.799999237061</ele>
        <time>2022-02-17T09:12:30.000Z</time>
      </trkpt>
      <trkpt lat="47.3421" lon="-2.35723">
        <ele>61.400001525879</ele>
        <time>2022-02-17T09:12:31.000Z</time>
      </trkpt>
      <trkpt lat="47.34212" lon="-2.35727">
        <ele>60.799999237061</ele>
        <time>2022-02-17T09:12:32.000Z</time>
      </trkpt>
      <trkpt lat="47.34215" lon="-2.35731">
        <ele>60.400001525879</ele>
        <time>2022-02-17T09:12:33.000Z</time>
      </trkpt>
      <trkpt lat="47.34218" lon="-2.35736">
        <ele>59.799999237061</ele>
        <time>2022-02-17T09:12:34.000Z</time>
      </trkpt>
      <trkpt lat="47.3422" lon="-2.35742">
        <ele>59.400001525879</ele>
        <time>2022-02-17T09:12:35.000Z</time>
      </trkpt>
      <trkpt lat="47.34222" lon="-2.35747">
        <ele>58.799999237061</ele>
        <time>2022-02-17T09:12:36.000Z</time>
      </trkpt>
      <trkpt lat="47.34225" lon="-2.35762">
        <ele>58.799999237061</ele>
        <time>2022-02-17T09:12:38.000Z</time>
      </trkpt>
      <trkpt lat="47.34227" lon="-2.35777">
        <ele>58.799999237061</ele>
        <time>2022-02-17T09:12:40.000Z</time>
      </trkpt>
      <trkpt lat="47.34236" lon="-2.35799">
        <ele>58.799999237061</ele>
        <time>2022-02-17T09:12:43.000Z</time>
      </trkpt>
      <trkpt lat="47.3424" lon="-2.35806">
        <ele>58.799999237061</ele>
        <time>2022-02-17T09:12:44.000Z</time>
      </trkpt>
      <trkpt lat="47.3425" lon="-2.3584">
        <ele>58.799999237061</ele>
        <time>2022-02-17T09:12:48.000Z</time>
      </trkpt>
      <trkpt lat="47.34252" lon="-2.35848">
        <ele>58.799999237061</ele>
        <time>2022-02-17T09:12:49.000Z</time>
      </trkpt>
      <trkpt lat="47.34251" lon="-2.35875">
        <ele>58.799999237061</ele>
        <time>2022-02-17T09:12:52.000Z</time>
      </trkpt>
      <trkpt lat="47.34251" lon="-2.35883">
        <ele>58.799999237061</ele>
        <time>2022-02-17T09:12:53.000Z</time>
      </trkpt>
      <trkpt lat="47.34244" lon="-2.35929">
        <ele>58.799999237061</ele>
        <time>2022-02-17T09:12:59.000Z</time>
      </trkpt>
      <trkpt lat="47.34243" lon="-2.35936">
        <ele>58.799999237061</ele>
        <time>2022-02-17T09:13:00.000Z</time>
      </trkpt>
      <trkpt lat="47.34248" lon="-2.35945">
        <ele>58.799999237061</ele>
        <time>2022-02-17T09:13:02.000Z</time>
      </trkpt>
      <trkpt lat="47.34261" lon="-2.35946">
        <ele>58.799999237061</ele>
        <time>2022-02-17T09:13:05.000Z</time>
      </trkpt>
      <trkpt lat="47.34265" lon="-2.35946">
        <ele>58.799999237061</ele>
        <time>2022-02-17T09:13:06.000Z</time>
      </trkpt>
      <trkpt lat="47.34275" lon="-2.35946">
        <ele>58.799999237061</ele>
        <time>2022-02-17T09:13:08.000Z</time>
      </trkpt>
      <trkpt lat="47.34279" lon="-2.35946">
        <ele>59.200000762939</ele>
        <time>2022-02-17T09:13:09.000Z</time>
      </trkpt>
      <trkpt lat="47.34284" lon="-2.35946">
        <ele>59.799999237061</ele>
        <time>2022-02-17T09:13:10.000Z</time>
      </trkpt>
      <trkpt lat="47.34289" lon="-2.35946">
        <ele>60.200000762939</ele>
        <time>2022-02-17T09:13:11.000Z</time>
      </trkpt>
      <trkpt lat="47.34293" lon="-2.35947">
        <ele>60.599998474121</ele>
        <time>2022-02-17T09:13:12.000Z</time>
      </trkpt>
      <trkpt lat="47.34298" lon="-2.35949">
        <ele>61.200000762939</ele>
        <time>2022-02-17T09:13:13.000Z</time>
      </trkpt>
      <trkpt lat="47.34307" lon="-2.35951">
        <ele>61.599998474121</ele>
        <time>2022-02-17T09:13:15.000Z</time>
      </trkpt>
      <trkpt lat="47.34311" lon="-2.35952">
        <ele>62</ele>
        <time>2022-02-17T09:13:16.000Z</time>
      </trkpt>
      <trkpt lat="47.34316" lon="-2.35953">
        <ele>62.400001525879</ele>
        <time>2022-02-17T09:13:17.000Z</time>
      </trkpt>
      <trkpt lat="47.3432" lon="-2.35954">
        <ele>62.799999237061</ele>
        <time>2022-02-17T09:13:18.000Z</time>
      </trkpt>
      <trkpt lat="47.34324" lon="-2.35956">
        <ele>63.200000762939</ele>
        <time>2022-02-17T09:13:19.000Z</time>
      </trkpt>
      <trkpt lat="47.34329" lon="-2.35958">
        <ele>63.200000762939</ele>
        <time>2022-02-17T09:13:20.000Z</time>
      </trkpt>
      <trkpt lat="47.34337" lon="-2.35963">
        <ele>63.200000762939</ele>
        <time>2022-02-17T09:13:22.000Z</time>
      </trkpt>
      <trkpt lat="47.34364" lon="-2.35976">
        <ele>63.599998474121</ele>
        <time>2022-02-17T09:13:28.000Z</time>
      </trkpt>
      <trkpt lat="47.34369" lon="-2.35978">
        <ele>64</ele>
        <time>2022-02-17T09:13:29.000Z</time>
      </trkpt>
      <trkpt lat="47.34373" lon="-2.3598">
        <ele>64.400001525879</ele>
        <time>2022-02-17T09:13:30.000Z</time>
      </trkpt>
      <trkpt lat="47.34378" lon="-2.35982">
        <ele>64.800003051758</ele>
        <time>2022-02-17T09:13:31.000Z</time>
      </trkpt>
      <trkpt lat="47.34383" lon="-2.35985">
        <ele>65.199996948242</ele>
        <time>2022-02-17T09:13:32.000Z</time>
      </trkpt>
      <trkpt lat="47.34398" lon="-2.35993">
        <ele>65.199996948242</ele>
        <time>2022-02-17T09:13:35.000Z</time>
      </trkpt>
      <trkpt lat="47.34403" lon="-2.35998">
        <ele>65.199996948242</ele>
        <time>2022-02-17T09:13:36.000Z</time>
      </trkpt>
      <trkpt lat="47.34414" lon="-2.36017">
        <ele>65.199996948242</ele>
        <time>2022-02-17T09:13:39.000Z</time>
      </trkpt>
      <trkpt lat="47.34417" lon="-2.36023">
        <ele>65.199996948242</ele>
        <time>2022-02-17T09:13:40.000Z</time>
      </trkpt>
      <trkpt lat="47.34419" lon="-2.3603">
        <ele>65.199996948242</ele>
        <time>2022-02-17T09:13:41.000Z</time>
      </trkpt>
      <trkpt lat="47.34425" lon="-2.36053">
        <ele>65.199996948242</ele>
        <time>2022-02-17T09:13:44.000Z</time>
      </trkpt>
      <trkpt lat="47.34442" lon="-2.36104">
        <ele>65.199996948242</ele>
        <time>2022-02-17T09:13:51.000Z</time>
      </trkpt>
      <trkpt lat="47.34461" lon="-2.3615">
        <ele>64.800003051758</ele>
        <time>2022-02-17T09:13:57.000Z</time>
      </trkpt>
      <trkpt lat="47.34464" lon="-2.36158">
        <ele>64.400001525879</ele>
        <time>2022-02-17T09:13:58.000Z</time>
      </trkpt>
      <trkpt lat="47.34468" lon="-2.36166">
        <ele>64</ele>
        <time>2022-02-17T09:13:59.000Z</time>
      </trkpt>
      <trkpt lat="47.34472" lon="-2.36174">
        <ele>63.599998474121</ele>
        <time>2022-02-17T09:14:00.000Z</time>
      </trkpt>
      <trkpt lat="47.34476" lon="-2.36181">
        <ele>63.200000762939</ele>
        <time>2022-02-17T09:14:01.000Z</time>
      </trkpt>
      <trkpt lat="47.3448" lon="-2.36188">
        <ele>63.200000762939</ele>
        <time>2022-02-17T09:14:02.000Z</time>
      </trkpt>
      <trkpt lat="47.34501" lon="-2.36224">
        <ele>63.200000762939</ele>
        <time>2022-02-17T09:14:07.000Z</time>
      </trkpt>
      <trkpt lat="47.34504" lon="-2.36232">
        <ele>63.200000762939</ele>
        <time>2022-02-17T09:14:08.000Z</time>
      </trkpt>
      <trkpt lat="47.34513" lon="-2.36256">
        <ele>63.200000762939</ele>
        <time>2022-02-17T09:14:11.000Z</time>
      </trkpt>
      <trkpt lat="47.34515" lon="-2.36263">
        <ele>63.200000762939</ele>
        <time>2022-02-17T09:14:12.000Z</time>
      </trkpt>
      <trkpt lat="47.34517" lon="-2.36271">
        <ele>63.200000762939</ele>
        <time>2022-02-17T09:14:13.000Z</time>
      </trkpt>
      <trkpt lat="47.34527" lon="-2.36301">
        <ele>63.200000762939</ele>
        <time>2022-02-17T09:14:17.000Z</time>
      </trkpt>
      <trkpt lat="47.34546" lon="-2.36354">
        <ele>63.200000762939</ele>
        <time>2022-02-17T09:14:24.000Z</time>
      </trkpt>
      <trkpt lat="47.34553" lon="-2.36374">
        <ele>63.200000762939</ele>
        <time>2022-02-17T09:14:27.000Z</time>
      </trkpt>
      <trkpt lat="47.34561" lon="-2.36385">
        <ele>63.200000762939</ele>
        <time>2022-02-17T09:14:29.000Z</time>
      </trkpt>
      <trkpt lat="47.3459" lon="-2.36429">
        <ele>63.200000762939</ele>
        <time>2022-02-17T09:14:37.000Z</time>
      </trkpt>
      <trkpt lat="47.34593" lon="-2.36434">
        <ele>63.200000762939</ele>
        <time>2022-02-17T09:14:38.000Z</time>
      </trkpt>
      <trkpt lat="47.34602" lon="-2.36437">
        <ele>63.200000762939</ele>
        <time>2022-02-17T09:14:40.000Z</time>
      </trkpt>
      <trkpt lat="47.34612" lon="-2.36433">
        <ele>63.599998474121</ele>
        <time>2022-02-17T09:14:42.000Z</time>
      </trkpt>
      <trkpt lat="47.34616" lon="-2.3643">
        <ele>64</ele>
        <time>2022-02-17T09:14:43.000Z</time>
      </trkpt>
      <trkpt lat="47.34621" lon="-2.36428">
        <ele>64.599998474121</ele>
        <time>2022-02-17T09:14:44.000Z</time>
      </trkpt>
      <trkpt lat="47.34626" lon="-2.36425">
        <ele>65</ele>
        <time>2022-02-17T09:14:45.000Z</time>
      </trkpt>
      <trkpt lat="47.34631" lon="-2.36422">
        <ele>65.400001525879</ele>
        <time>2022-02-17T09:14:46.000Z</time>
      </trkpt>
      <trkpt lat="47.34655" lon="-2.36409">
        <ele>65.400001525879</ele>
        <time>2022-02-17T09:14:51.000Z</time>
      </trkpt>
      <trkpt lat="47.34674" lon="-2.36401">
        <ele>65.800003051758</ele>
        <time>2022-02-17T09:14:55.000Z</time>
      </trkpt>
      <trkpt lat="47.34679" lon="-2.36399">
        <ele>66.199996948242</ele>
        <time>2022-02-17T09:14:56.000Z</time>
      </trkpt>
      <trkpt lat="47.34684" lon="-2.36398">
        <ele>66.599998474121</ele>
        <time>2022-02-17T09:14:57.000Z</time>
      </trkpt>
      <trkpt lat="47.34689" lon="-2.36396">
        <ele>67</ele>
        <time>2022-02-17T09:14:58.000Z</time>
      </trkpt>
      <trkpt lat="47.34694" lon="-2.36394">
        <ele>67.400001525879</ele>
        <time>2022-02-17T09:14:59.000Z</time>
      </trkpt>
      <trkpt lat="47.34722" lon="-2.36383">
        <ele>67.400001525879</ele>
        <time>2022-02-17T09:15:05.000Z</time>
      </trkpt>
      <trkpt lat="47.34726" lon="-2.36381">
        <ele>68.199996948242</ele>
        <time>2022-02-17T09:15:06.000Z</time>
      </trkpt>
      <trkpt lat="47.34731" lon="-2.36379">
        <ele>68.599998474121</ele>
        <time>2022-02-17T09:15:07.000Z</time>
      </trkpt>
      <trkpt lat="47.34735" lon="-2.36376">
        <ele>69</ele>
        <time>2022-02-17T09:15:08.000Z</time>
      </trkpt>
      <trkpt lat="47.3474" lon="-2.36373">
        <ele>69.400001525879</ele>
        <time>2022-02-17T09:15:09.000Z</time>
      </trkpt>
      <trkpt lat="47.34755" lon="-2.36365">
        <ele>69.400001525879</ele>
        <time>2022-02-17T09:15:12.000Z</time>
      </trkpt>
      <trkpt lat="47.34788" lon="-2.36342">
        <ele>69.400001525879</ele>
        <time>2022-02-17T09:15:19.000Z</time>
      </trkpt>
      <trkpt lat="47.34828" lon="-2.36318">
        <ele>69.400001525879</ele>
        <time>2022-02-17T09:15:27.000Z</time>
      </trkpt>
      <trkpt lat="47.34846" lon="-2.36323">
        <ele>69.400001525879</ele>
        <time>2022-02-17T09:15:31.000Z</time>
      </trkpt>
      <trkpt lat="47.34854" lon="-2.36329">
        <ele>69.400001525879</ele>
        <time>2022-02-17T09:15:33.000Z</time>
      </trkpt>
      <trkpt lat="47.3487" lon="-2.36339">
        <ele>69.400001525879</ele>
        <time>2022-02-17T09:15:37.000Z</time>
      </trkpt>
      <trkpt lat="47.34897" lon="-2.36356">
        <ele>69.400001525879</ele>
        <time>2022-02-17T09:15:44.000Z</time>
      </trkpt>
      <trkpt lat="47.34926" lon="-2.36376">
        <ele>69.400001525879</ele>
        <time>2022-02-17T09:15:50.000Z</time>
      </trkpt>
      <trkpt lat="47.34957" lon="-2.36394">
        <ele>68.599998474121</ele>
        <time>2022-02-17T09:15:55.000Z</time>
      </trkpt>
      <trkpt lat="47.34963" lon="-2.36398">
        <ele>68.199996948242</ele>
        <time>2022-02-17T09:15:56.000Z</time>
      </trkpt>
      <trkpt lat="47.34971" lon="-2.36402">
        <ele>67.599998474121</ele>
        <time>2022-02-17T09:15:57.000Z</time>
      </trkpt>
      <trkpt lat="47.34978" lon="-2.36407">
        <ele>67.199996948242</ele>
        <time>2022-02-17T09:15:58.000Z</time>
      </trkpt>
      <trkpt lat="47.34991" lon="-2.36416">
        <ele>66.800003051758</ele>
        <time>2022-02-17T09:16:00.000Z</time>
      </trkpt>
      <trkpt lat="47.34998" lon="-2.36421">
        <ele>66.400001525879</ele>
        <time>2022-02-17T09:16:01.000Z</time>
      </trkpt>
      <trkpt lat="47.35003" lon="-2.36428">
        <ele>65.800003051758</ele>
        <time>2022-02-17T09:16:02.000Z</time>
      </trkpt>
      <trkpt lat="47.35008" lon="-2.36436">
        <ele>65.400001525879</ele>
        <time>2022-02-17T09:16:03.000Z</time>
      </trkpt>
      <trkpt lat="47.35011" lon="-2.36445">
        <ele>65</ele>
        <time>2022-02-17T09:16:04.000Z</time>
      </trkpt>
      <trkpt lat="47.35014" lon="-2.36455">
        <ele>65</ele>
        <time>2022-02-17T09:16:05.000Z</time>
      </trkpt>
      <trkpt lat="47.35017" lon="-2.36465">
        <ele>65</ele>
        <time>2022-02-17T09:16:06.000Z</time>
      </trkpt>
      <trkpt lat="47.35028" lon="-2.36492">
        <ele>65</ele>
        <time>2022-02-17T09:16:09.000Z</time>
      </trkpt>
      <trkpt lat="47.35032" lon="-2.36499">
        <ele>65</ele>
        <time>2022-02-17T09:16:10.000Z</time>
      </trkpt>
      <trkpt lat="47.35054" lon="-2.36538">
        <ele>65</ele>
        <time>2022-02-17T09:16:16.000Z</time>
      </trkpt>
      <trkpt lat="47.35068" lon="-2.36572">
        <ele>65.400001525879</ele>
        <time>2022-02-17T09:16:21.000Z</time>
      </trkpt>
      <trkpt lat="47.3507" lon="-2.36579">
        <ele>65.800003051758</ele>
        <time>2022-02-17T09:16:22.000Z</time>
      </trkpt>
      <trkpt lat="47.35072" lon="-2.36586">
        <ele>66.199996948242</ele>
        <time>2022-02-17T09:16:23.000Z</time>
      </trkpt>
      <trkpt lat="47.35075" lon="-2.36593">
        <ele>66.599998474121</ele>
        <time>2022-02-17T09:16:24.000Z</time>
      </trkpt>
      <trkpt lat="47.35077" lon="-2.366">
        <ele>67</ele>
        <time>2022-02-17T09:16:25.000Z</time>
      </trkpt>
      <trkpt lat="47.35091" lon="-2.36639">
        <ele>67</ele>
        <time>2022-02-17T09:16:30.000Z</time>
      </trkpt>
      <trkpt lat="47.35106" lon="-2.36683">
        <ele>67</ele>
        <time>2022-02-17T09:16:36.000Z</time>
      </trkpt>
      <trkpt lat="47.3512" lon="-2.36735">
        <ele>67</ele>
        <time>2022-02-17T09:16:43.000Z</time>
      </trkpt>
      <trkpt lat="47.35122" lon="-2.36742">
        <ele>67.800003051758</ele>
        <time>2022-02-17T09:16:44.000Z</time>
      </trkpt>
      <trkpt lat="47.35123" lon="-2.36749">
        <ele>68.199996948242</ele>
        <time>2022-02-17T09:16:45.000Z</time>
      </trkpt>
      <trkpt lat="47.35125" lon="-2.36756">
        <ele>68.599998474121</ele>
        <time>2022-02-17T09:16:46.000Z</time>
      </trkpt>
      <trkpt lat="47.35127" lon="-2.36764">
        <ele>69</ele>
        <time>2022-02-17T09:16:47.000Z</time>
      </trkpt>
      <trkpt lat="47.35136" lon="-2.36793">
        <ele>69</ele>
        <time>2022-02-17T09:16:51.000Z</time>
      </trkpt>
      <trkpt lat="47.35149" lon="-2.36852">
        <ele>69</ele>
        <time>2022-02-17T09:16:58.000Z</time>
      </trkpt>
      <trkpt lat="47.35165" lon="-2.36911">
        <ele>69</ele>
        <time>2022-02-17T09:17:06.000Z</time>
      </trkpt>
      <trkpt lat="47.35189" lon="-2.36965">
        <ele>69</ele>
        <time>2022-02-17T09:17:14.000Z</time>
      </trkpt>
      <trkpt lat="47.35211" lon="-2.37011">
        <ele>69</ele>
        <time>2022-02-17T09:17:21.000Z</time>
      </trkpt>
      <trkpt lat="47.35224" lon="-2.3706">
        <ele>69</ele>
        <time>2022-02-17T09:17:27.000Z</time>
      </trkpt>
      <trkpt lat="47.35229" lon="-2.37095">
        <ele>69</ele>
        <time>2022-02-17T09:17:31.000Z</time>
      </trkpt>
      <trkpt lat="47.35232" lon="-2.37111">
        <ele>69</ele>
        <time>2022-02-17T09:17:33.000Z</time>
      </trkpt>
      <trkpt lat="47.35246" lon="-2.37164">
        <ele>69</ele>
        <time>2022-02-17T09:17:40.000Z</time>
      </trkpt>
      <trkpt lat="47.35248" lon="-2.3717">
        <ele>69</ele>
        <time>2022-02-17T09:17:41.000Z</time>
      </trkpt>
      <trkpt lat="47.35253" lon="-2.3718">
        <ele>69</ele>
        <time>2022-02-17T09:17:43.000Z</time>
      </trkpt>
      <trkpt lat="47.35259" lon="-2.3719">
        <ele>69</ele>
        <time>2022-02-17T09:17:45.000Z</time>
      </trkpt>
      <trkpt lat="47.35272" lon="-2.37209">
        <ele>69</ele>
        <time>2022-02-17T09:17:50.000Z</time>
      </trkpt>
      <trkpt lat="47.35279" lon="-2.37219">
        <ele>69</ele>
        <time>2022-02-17T09:17:56.000Z</time>
      </trkpt>
      <trkpt lat="47.35281" lon="-2.37226">
        <ele>69</ele>
        <time>2022-02-17T09:17:59.000Z</time>
      </trkpt>
      <trkpt lat="47.35284" lon="-2.37229">
        <ele>69</ele>
        <time>2022-02-17T09:18:01.000Z</time>
      </trkpt>
      <trkpt lat="47.35284" lon="-2.37229">
        <ele>69</ele>
        <time>2022-02-17T09:18:02.000Z</time>
      </trkpt>
      <trkpt lat="47.35284" lon="-2.37224">
        <ele>69</ele>
        <time>2022-02-17T09:18:11.000Z</time>
      </trkpt>
      <trkpt lat="47.35283" lon="-2.37222">
        <ele>69</ele>
        <time>2022-02-17T09:18:12.000Z</time>
      </trkpt>
      <trkpt lat="47.35279" lon="-2.37211">
        <ele>69</ele>
        <time>2022-02-17T09:18:17.000Z</time>
      </trkpt>
      <trkpt lat="47.35279" lon="-2.37211">
        <ele>69</ele>
        <time>2022-02-17T09:18:18.000Z</time>
      </trkpt>
      <trkpt lat="47.35279" lon="-2.37211">
        <ele>69</ele>
        <time>2022-02-17T09:18:22.000Z</time>
      </trkpt>
      <trkpt lat="47.35281" lon="-2.37216">
        <ele>69</ele>
        <time>2022-02-17T09:18:43.000Z</time>
      </trkpt>
      <trkpt lat="47.35284" lon="-2.37232">
        <ele>69</ele>
        <time>2022-02-17T09:18:48.000Z</time>
      </trkpt>
      <trkpt lat="47.35285" lon="-2.37266">
        <ele>69</ele>
        <time>2022-02-17T09:18:55.000Z</time>
      </trkpt>
      <trkpt lat="47.35285" lon="-2.37302">
        <ele>69</ele>
        <time>2022-02-17T09:19:02.000Z</time>
      </trkpt>
      <trkpt lat="47.35286" lon="-2.37343">
        <ele>69</ele>
        <time>2022-02-17T09:19:09.000Z</time>
      </trkpt>
      <trkpt lat="47.35288" lon="-2.37399">
        <ele>69</ele>
        <time>2022-02-17T09:19:17.000Z</time>
      </trkpt>
      <trkpt lat="47.35291" lon="-2.37446">
        <ele>69</ele>
        <time>2022-02-17T09:19:23.000Z</time>
      </trkpt>
      <trkpt lat="47.35292" lon="-2.37455">
        <ele>69</ele>
        <time>2022-02-17T09:19:24.000Z</time>
      </trkpt>
      <trkpt lat="47.35298" lon="-2.37494">
        <ele>69</ele>
        <time>2022-02-17T09:19:28.000Z</time>
      </trkpt>
      <trkpt lat="47.35299" lon="-2.37504">
        <ele>68.599998474121</ele>
        <time>2022-02-17T09:19:29.000Z</time>
      </trkpt>
      <trkpt lat="47.35301" lon="-2.37514">
        <ele>68.199996948242</ele>
        <time>2022-02-17T09:19:30.000Z</time>
      </trkpt>
      <trkpt lat="47.35304" lon="-2.37524">
        <ele>67.800003051758</ele>
        <time>2022-02-17T09:19:31.000Z</time>
      </trkpt>
      <trkpt lat="47.35306" lon="-2.37534">
        <ele>67.400001525879</ele>
        <time>2022-02-17T09:19:32.000Z</time>
      </trkpt>
      <trkpt lat="47.35308" lon="-2.37544">
        <ele>67</ele>
        <time>2022-02-17T09:19:33.000Z</time>
      </trkpt>
      <trkpt lat="47.35316" lon="-2.37581">
        <ele>67</ele>
        <time>2022-02-17T09:19:37.000Z</time>
      </trkpt>
      <trkpt lat="47.35334" lon="-2.37659">
        <ele>67</ele>
        <time>2022-02-17T09:19:46.000Z</time>
      </trkpt>
      <trkpt lat="47.35351" lon="-2.37718">
        <ele>67</ele>
        <time>2022-02-17T09:19:53.000Z</time>
      </trkpt>
      <trkpt lat="47.35364" lon="-2.37771">
        <ele>67</ele>
        <time>2022-02-17T09:20:00.000Z</time>
      </trkpt>
      <trkpt lat="47.35364" lon="-2.37778">
        <ele>66.400001525879</ele>
        <time>2022-02-17T09:20:01.000Z</time>
      </trkpt>
      <trkpt lat="47.35361" lon="-2.37783">
        <ele>66</ele>
        <time>2022-02-17T09:20:02.000Z</time>
      </trkpt>
      <trkpt lat="47.35357" lon="-2.37787">
        <ele>65.199996948242</ele>
        <time>2022-02-17T09:20:03.000Z</time>
      </trkpt>
      <trkpt lat="47.35352" lon="-2.3779">
        <ele>64.800003051758</ele>
        <time>2022-02-17T09:20:04.000Z</time>
      </trkpt>
      <trkpt lat="47.35341" lon="-2.37793">
        <ele>64.800003051758</ele>
        <time>2022-02-17T09:20:06.000Z</time>
      </trkpt>
      <trkpt lat="47.35301" lon="-2.37805">
        <ele>64.800003051758</ele>
        <time>2022-02-17T09:20:13.000Z</time>
      </trkpt>
      <trkpt lat="47.35281" lon="-2.37813">
        <ele>64.800003051758</ele>
        <time>2022-02-17T09:20:17.000Z</time>
      </trkpt>
      <trkpt lat="47.35268" lon="-2.37821">
        <ele>64.800003051758</ele>
        <time>2022-02-17T09:20:20.000Z</time>
      </trkpt>
      <trkpt lat="47.35253" lon="-2.37835">
        <ele>64.800003051758</ele>
        <time>2022-02-17T09:20:24.000Z</time>
      </trkpt>
      <trkpt lat="47.35246" lon="-2.37844">
        <ele>64.800003051758</ele>
        <time>2022-02-17T09:20:26.000Z</time>
      </trkpt>
      <trkpt lat="47.35228" lon="-2.37859">
        <ele>64.400001525879</ele>
        <time>2022-02-17T09:20:30.000Z</time>
      </trkpt>
      <trkpt lat="47.35223" lon="-2.37862">
        <ele>64</ele>
        <time>2022-02-17T09:20:31.000Z</time>
      </trkpt>
      <trkpt lat="47.35219" lon="-2.37866">
        <ele>63.599998474121</ele>
        <time>2022-02-17T09:20:32.000Z</time>
      </trkpt>
      <trkpt lat="47.35214" lon="-2.37869">
        <ele>63.200000762939</ele>
        <time>2022-02-17T09:20:33.000Z</time>
      </trkpt>
      <trkpt lat="47.35209" lon="-2.37873">
        <ele>62.799999237061</ele>
        <time>2022-02-17T09:20:34.000Z</time>
      </trkpt>
      <trkpt lat="47.35184" lon="-2.37891">
        <ele>62.799999237061</ele>
        <time>2022-02-17T09:20:39.000Z</time>
      </trkpt>
      <trkpt lat="47.35169" lon="-2.37902">
        <ele>62.799999237061</ele>
        <time>2022-02-17T09:20:42.000Z</time>
      </trkpt>
      <trkpt lat="47.35155" lon="-2.37913">
        <ele>62.799999237061</ele>
        <time>2022-02-17T09:20:45.000Z</time>
      </trkpt>
      <trkpt lat="47.3515" lon="-2.37917">
        <ele>62.799999237061</ele>
        <time>2022-02-17T09:20:46.000Z</time>
      </trkpt>
      <trkpt lat="47.35122" lon="-2.37939">
        <ele>62.799999237061</ele>
        <time>2022-02-17T09:20:52.000Z</time>
      </trkpt>
      <trkpt lat="47.35093" lon="-2.3796">
        <ele>62.799999237061</ele>
        <time>2022-02-17T09:20:58.000Z</time>
      </trkpt>
      <trkpt lat="47.35088" lon="-2.37964">
        <ele>62.799999237061</ele>
        <time>2022-02-17T09:20:59.000Z</time>
      </trkpt>
      <trkpt lat="47.35048" lon="-2.37997">
        <ele>62.799999237061</ele>
        <time>2022-02-17T09:21:08.000Z</time>
      </trkpt>
      <trkpt lat="47.35012" lon="-2.38027">
        <ele>62.799999237061</ele>
        <time>2022-02-17T09:21:16.000Z</time>
      </trkpt>
      <trkpt lat="47.34983" lon="-2.38051">
        <ele>62.799999237061</ele>
        <time>2022-02-17T09:21:23.000Z</time>
      </trkpt>
      <trkpt lat="47.34978" lon="-2.38067">
        <ele>62.799999237061</ele>
        <time>2022-02-17T09:21:26.000Z</time>
      </trkpt>
      <trkpt lat="47.34985" lon="-2.38083">
        <ele>62.799999237061</ele>
        <time>2022-02-17T09:21:29.000Z</time>
      </trkpt>
      <trkpt lat="47.34988" lon="-2.38089">
        <ele>62.799999237061</ele>
        <time>2022-02-17T09:21:30.000Z</time>
      </trkpt>
      <trkpt lat="47.34994" lon="-2.38101">
        <ele>62.799999237061</ele>
        <time>2022-02-17T09:21:32.000Z</time>
      </trkpt>
      <trkpt lat="47.35001" lon="-2.38114">
        <ele>62.799999237061</ele>
        <time>2022-02-17T09:21:34.000Z</time>
      </trkpt>
      <trkpt lat="47.35004" lon="-2.3812">
        <ele>62.799999237061</ele>
        <time>2022-02-17T09:21:35.000Z</time>
      </trkpt>
      <trkpt lat="47.35011" lon="-2.38133">
        <ele>62.799999237061</ele>
        <time>2022-02-17T09:21:37.000Z</time>
      </trkpt>
      <trkpt lat="47.35025" lon="-2.38157">
        <ele>62.799999237061</ele>
        <time>2022-02-17T09:21:41.000Z</time>
      </trkpt>
      <trkpt lat="47.35046" lon="-2.38197">
        <ele>62.799999237061</ele>
        <time>2022-02-17T09:21:47.000Z</time>
      </trkpt>
      <trkpt lat="47.3507" lon="-2.3824">
        <ele>62.799999237061</ele>
        <time>2022-02-17T09:21:54.000Z</time>
      </trkpt>
      <trkpt lat="47.3508" lon="-2.38259">
        <ele>62.799999237061</ele>
        <time>2022-02-17T09:21:57.000Z</time>
      </trkpt>
      <trkpt lat="47.35085" lon="-2.38274">
        <ele>62.799999237061</ele>
        <time>2022-02-17T09:21:59.000Z</time>
      </trkpt>
      <trkpt lat="47.35087" lon="-2.3828">
        <ele>62.799999237061</ele>
        <time>2022-02-17T09:22:00.000Z</time>
      </trkpt>
      <trkpt lat="47.35089" lon="-2.38288">
        <ele>62.799999237061</ele>
        <time>2022-02-17T09:22:01.000Z</time>
      </trkpt>
      <trkpt lat="47.35092" lon="-2.38311">
        <ele>62.799999237061</ele>
        <time>2022-02-17T09:22:04.000Z</time>
      </trkpt>
      <trkpt lat="47.35094" lon="-2.38319">
        <ele>62.799999237061</ele>
        <time>2022-02-17T09:22:05.000Z</time>
      </trkpt>
      <trkpt lat="47.35109" lon="-2.38379">
        <ele>62.799999237061</ele>
        <time>2022-02-17T09:22:13.000Z</time>
      </trkpt>
      <trkpt lat="47.35117" lon="-2.3843">
        <ele>62.799999237061</ele>
        <time>2022-02-17T09:22:19.000Z</time>
      </trkpt>
      <trkpt lat="47.35128" lon="-2.38493">
        <ele>62.799999237061</ele>
        <time>2022-02-17T09:22:27.000Z</time>
      </trkpt>
      <trkpt lat="47.3513" lon="-2.38499">
        <ele>62.799999237061</ele>
        <time>2022-02-17T09:22:28.000Z</time>
      </trkpt>
      <trkpt lat="47.35133" lon="-2.38518">
        <ele>62.799999237061</ele>
        <time>2022-02-17T09:22:31.000Z</time>
      </trkpt>
      <trkpt lat="47.35133" lon="-2.38524">
        <ele>62.799999237061</ele>
        <time>2022-02-17T09:22:32.000Z</time>
      </trkpt>
      <trkpt lat="47.35127" lon="-2.38544">
        <ele>62.799999237061</ele>
        <time>2022-02-17T09:22:35.000Z</time>
      </trkpt>
      <trkpt lat="47.35125" lon="-2.3855">
        <ele>62.799999237061</ele>
        <time>2022-02-17T09:22:36.000Z</time>
      </trkpt>
      <trkpt lat="47.35116" lon="-2.38569">
        <ele>62.799999237061</ele>
        <time>2022-02-17T09:22:39.000Z</time>
      </trkpt>
      <trkpt lat="47.35111" lon="-2.38582">
        <ele>62.799999237061</ele>
        <time>2022-02-17T09:22:41.000Z</time>
      </trkpt>
      <trkpt lat="47.35087" lon="-2.38636">
        <ele>62.799999237061</ele>
        <time>2022-02-17T09:22:49.000Z</time>
      </trkpt>
      <trkpt lat="47.35063" lon="-2.38685">
        <ele>62.799999237061</ele>
        <time>2022-02-17T09:22:56.000Z</time>
      </trkpt>
      <trkpt lat="47.35039" lon="-2.38734">
        <ele>62.799999237061</ele>
        <time>2022-02-17T09:23:03.000Z</time>
      </trkpt>
      <trkpt lat="47.35023" lon="-2.38761">
        <ele>62.799999237061</ele>
        <time>2022-02-17T09:23:08.000Z</time>
      </trkpt>
      <trkpt lat="47.35001" lon="-2.38777">
        <ele>62.799999237061</ele>
        <time>2022-02-17T09:23:13.000Z</time>
      </trkpt>
      <trkpt lat="47.34997" lon="-2.38781">
        <ele>62.799999237061</ele>
        <time>2022-02-17T09:23:14.000Z</time>
      </trkpt>
      <trkpt lat="47.34985" lon="-2.38796">
        <ele>62.799999237061</ele>
        <time>2022-02-17T09:23:17.000Z</time>
      </trkpt>
      <trkpt lat="47.34978" lon="-2.38808">
        <ele>62.799999237061</ele>
        <time>2022-02-17T09:23:19.000Z</time>
      </trkpt>
      <trkpt lat="47.34957" lon="-2.38843">
        <ele>62.799999237061</ele>
        <time>2022-02-17T09:23:25.000Z</time>
      </trkpt>
      <trkpt lat="47.34929" lon="-2.38895">
        <ele>62.799999237061</ele>
        <time>2022-02-17T09:23:34.000Z</time>
      </trkpt>
      <trkpt lat="47.34929" lon="-2.38901">
        <ele>62.799999237061</ele>
        <time>2022-02-17T09:23:35.000Z</time>
      </trkpt>
      <trkpt lat="47.34932" lon="-2.38911">
        <ele>62.799999237061</ele>
        <time>2022-02-17T09:23:37.000Z</time>
      </trkpt>
      <trkpt lat="47.34939" lon="-2.38926">
        <ele>62.799999237061</ele>
        <time>2022-02-17T09:23:40.000Z</time>
      </trkpt>
      <trkpt lat="47.34944" lon="-2.38938">
        <ele>62.799999237061</ele>
        <time>2022-02-17T09:23:42.000Z</time>
      </trkpt>
      <trkpt lat="47.34962" lon="-2.38977">
        <ele>62.799999237061</ele>
        <time>2022-02-17T09:23:48.000Z</time>
      </trkpt>
      <trkpt lat="47.34984" lon="-2.39029">
        <ele>62.799999237061</ele>
        <time>2022-02-17T09:23:56.000Z</time>
      </trkpt>
      <trkpt lat="47.34987" lon="-2.39036">
        <ele>62.799999237061</ele>
        <time>2022-02-17T09:23:57.000Z</time>
      </trkpt>
      <trkpt lat="47.34998" lon="-2.39055">
        <ele>62.799999237061</ele>
        <time>2022-02-17T09:24:00.000Z</time>
      </trkpt>
      <trkpt lat="47.35002" lon="-2.39062">
        <ele>62.799999237061</ele>
        <time>2022-02-17T09:24:01.000Z</time>
      </trkpt>
      <trkpt lat="47.35031" lon="-2.39124">
        <ele>62.799999237061</ele>
        <time>2022-02-17T09:24:10.000Z</time>
      </trkpt>
      <trkpt lat="47.35038" lon="-2.39155">
        <ele>62.799999237061</ele>
        <time>2022-02-17T09:24:14.000Z</time>
      </trkpt>
      <trkpt lat="47.35039" lon="-2.39164">
        <ele>62.799999237061</ele>
        <time>2022-02-17T09:24:15.000Z</time>
      </trkpt>
      <trkpt lat="47.35042" lon="-2.39229">
        <ele>62.799999237061</ele>
        <time>2022-02-17T09:24:23.000Z</time>
      </trkpt>
      <trkpt lat="47.35044" lon="-2.39237">
        <ele>62.799999237061</ele>
        <time>2022-02-17T09:24:24.000Z</time>
      </trkpt>
      <trkpt lat="47.35046" lon="-2.39261">
        <ele>62.799999237061</ele>
        <time>2022-02-17T09:24:27.000Z</time>
      </trkpt>
      <trkpt lat="47.35049" lon="-2.39311">
        <ele>62.799999237061</ele>
        <time>2022-02-17T09:24:33.000Z</time>
      </trkpt>
      <trkpt lat="47.35046" lon="-2.39344">
        <ele>63.200000762939</ele>
        <time>2022-02-17T09:24:37.000Z</time>
      </trkpt>
      <trkpt lat="47.35044" lon="-2.39352">
        <ele>63.599998474121</ele>
        <time>2022-02-17T09:24:38.000Z</time>
      </trkpt>
      <trkpt lat="47.35042" lon="-2.39361">
        <ele>64</ele>
        <time>2022-02-17T09:24:39.000Z</time>
      </trkpt>
      <trkpt lat="47.35041" lon="-2.39368">
        <ele>64.599998474121</ele>
        <time>2022-02-17T09:24:40.000Z</time>
      </trkpt>
      <trkpt lat="47.3504" lon="-2.39375">
        <ele>65</ele>
        <time>2022-02-17T09:24:41.000Z</time>
      </trkpt>
      <trkpt lat="47.35036" lon="-2.39395">
        <ele>65</ele>
        <time>2022-02-17T09:24:44.000Z</time>
      </trkpt>
      <trkpt lat="47.35033" lon="-2.39418">
        <ele>65</ele>
        <time>2022-02-17T09:24:49.000Z</time>
      </trkpt>
      <trkpt lat="47.35033" lon="-2.39433">
        <ele>65</ele>
        <time>2022-02-17T09:24:54.000Z</time>
      </trkpt>
      <trkpt lat="47.35034" lon="-2.39458">
        <ele>65</ele>
        <time>2022-02-17T09:24:59.000Z</time>
      </trkpt>
      <trkpt lat="47.35034" lon="-2.39476">
        <ele>65</ele>
        <time>2022-02-17T09:25:02.000Z</time>
      </trkpt>
      <trkpt lat="47.35032" lon="-2.39496">
        <ele>65</ele>
        <time>2022-02-17T09:25:05.000Z</time>
      </trkpt>
      <trkpt lat="47.35031" lon="-2.39531">
        <ele>65</ele>
        <time>2022-02-17T09:25:10.000Z</time>
      </trkpt>
      <trkpt lat="47.35031" lon="-2.39545">
        <ele>65</ele>
        <time>2022-02-17T09:25:12.000Z</time>
      </trkpt>
      <trkpt lat="47.3503" lon="-2.39553">
        <ele>65</ele>
        <time>2022-02-17T09:25:13.000Z</time>
      </trkpt>
      <trkpt lat="47.35029" lon="-2.39575">
        <ele>65</ele>
        <time>2022-02-17T09:25:16.000Z</time>
      </trkpt>
      <trkpt lat="47.35028" lon="-2.39599">
        <ele>65</ele>
        <time>2022-02-17T09:25:19.000Z</time>
      </trkpt>
      <trkpt lat="47.35024" lon="-2.39665">
        <ele>65</ele>
        <time>2022-02-17T09:25:27.000Z</time>
      </trkpt>
      <trkpt lat="47.35022" lon="-2.39698">
        <ele>65.400001525879</ele>
        <time>2022-02-17T09:25:31.000Z</time>
      </trkpt>
      <trkpt lat="47.35021" lon="-2.39706">
        <ele>65.800003051758</ele>
        <time>2022-02-17T09:25:32.000Z</time>
      </trkpt>
      <trkpt lat="47.3502" lon="-2.39714">
        <ele>66.199996948242</ele>
        <time>2022-02-17T09:25:33.000Z</time>
      </trkpt>
      <trkpt lat="47.35019" lon="-2.39721">
        <ele>66.599998474121</ele>
        <time>2022-02-17T09:25:34.000Z</time>
      </trkpt>
      <trkpt lat="47.35019" lon="-2.39729">
        <ele>67.199996948242</ele>
        <time>2022-02-17T09:25:35.000Z</time>
      </trkpt>
      <trkpt lat="47.35014" lon="-2.39786">
        <ele>67.199996948242</ele>
        <time>2022-02-17T09:25:42.000Z</time>
      </trkpt>
      <trkpt lat="47.35013" lon="-2.39847">
        <ele>67.199996948242</ele>
        <time>2022-02-17T09:25:49.000Z</time>
      </trkpt>
      <trkpt lat="47.35016" lon="-2.39863">
        <ele>67.199996948242</ele>
        <time>2022-02-17T09:25:51.000Z</time>
      </trkpt>
      <trkpt lat="47.35019" lon="-2.39885">
        <ele>67.199996948242</ele>
        <time>2022-02-17T09:25:54.000Z</time>
      </trkpt>
      <trkpt lat="47.35014" lon="-2.39912">
        <ele>67.199996948242</ele>
        <time>2022-02-17T09:25:58.000Z</time>
      </trkpt>
      <trkpt lat="47.35003" lon="-2.39933">
        <ele>67.199996948242</ele>
        <time>2022-02-17T09:26:01.000Z</time>
      </trkpt>
      <trkpt lat="47.35" lon="-2.3994">
        <ele>67.199996948242</ele>
        <time>2022-02-17T09:26:02.000Z</time>
      </trkpt>
      <trkpt lat="47.34969" lon="-2.39995">
        <ele>67.199996948242</ele>
        <time>2022-02-17T09:26:10.000Z</time>
      </trkpt>
      <trkpt lat="47.34947" lon="-2.40016">
        <ele>67.199996948242</ele>
        <time>2022-02-17T09:26:15.000Z</time>
      </trkpt>
      <trkpt lat="47.34923" lon="-2.40033">
        <ele>67.199996948242</ele>
        <time>2022-02-17T09:26:20.000Z</time>
      </trkpt>
      <trkpt lat="47.34914" lon="-2.40043">
        <ele>67.199996948242</ele>
        <time>2022-02-17T09:26:22.000Z</time>
      </trkpt>
      <trkpt lat="47.34878" lon="-2.4008">
        <ele>67.199996948242</ele>
        <time>2022-02-17T09:26:30.000Z</time>
      </trkpt>
      <trkpt lat="47.3487" lon="-2.40089">
        <ele>67.199996948242</ele>
        <time>2022-02-17T09:26:32.000Z</time>
      </trkpt>
      <trkpt lat="47.34864" lon="-2.401">
        <ele>67.199996948242</ele>
        <time>2022-02-17T09:26:34.000Z</time>
      </trkpt>
      <trkpt lat="47.3486" lon="-2.40114">
        <ele>67.199996948242</ele>
        <time>2022-02-17T09:26:36.000Z</time>
      </trkpt>
      <trkpt lat="47.34854" lon="-2.40154">
        <ele>67.199996948242</ele>
        <time>2022-02-17T09:26:42.000Z</time>
      </trkpt>
      <trkpt lat="47.34858" lon="-2.40189">
        <ele>67.199996948242</ele>
        <time>2022-02-17T09:26:48.000Z</time>
      </trkpt>
      <trkpt lat="47.34873" lon="-2.40205">
        <ele>67.199996948242</ele>
        <time>2022-02-17T09:26:52.000Z</time>
      </trkpt>
      <trkpt lat="47.34883" lon="-2.40218">
        <ele>67.199996948242</ele>
        <time>2022-02-17T09:26:55.000Z</time>
      </trkpt>
      <trkpt lat="47.34891" lon="-2.40232">
        <ele>67.199996948242</ele>
        <time>2022-02-17T09:26:58.000Z</time>
      </trkpt>
      <trkpt lat="47.34894" lon="-2.40237">
        <ele>67.199996948242</ele>
        <time>2022-02-17T09:26:59.000Z</time>
      </trkpt>
      <trkpt lat="47.34905" lon="-2.40258">
        <ele>67.199996948242</ele>
        <time>2022-02-17T09:27:04.000Z</time>
      </trkpt>
      <trkpt lat="47.34924" lon="-2.40277">
        <ele>67.199996948242</ele>
        <time>2022-02-17T09:27:10.000Z</time>
      </trkpt>
      <trkpt lat="47.34929" lon="-2.40277">
        <ele>67.199996948242</ele>
        <time>2022-02-17T09:27:11.000Z</time>
      </trkpt>
      <trkpt lat="47.34943" lon="-2.40276">
        <ele>67.199996948242</ele>
        <time>2022-02-17T09:27:14.000Z</time>
      </trkpt>
      <trkpt lat="47.34948" lon="-2.40278">
        <ele>67.199996948242</ele>
        <time>2022-02-17T09:27:15.000Z</time>
      </trkpt>
      <trkpt lat="47.34963" lon="-2.4029">
        <ele>67.199996948242</ele>
        <time>2022-02-17T09:27:18.000Z</time>
      </trkpt>
      <trkpt lat="47.34974" lon="-2.40319">
        <ele>67.199996948242</ele>
        <time>2022-02-17T09:27:22.000Z</time>
      </trkpt>
      <trkpt lat="47.34977" lon="-2.40342">
        <ele>67.199996948242</ele>
        <time>2022-02-17T09:27:25.000Z</time>
      </trkpt>
      <trkpt lat="47.34979" lon="-2.40356">
        <ele>67.199996948242</ele>
        <time>2022-02-17T09:27:27.000Z</time>
      </trkpt>
      <trkpt lat="47.34989" lon="-2.40409">
        <ele>67.199996948242</ele>
        <time>2022-02-17T09:27:34.000Z</time>
      </trkpt>
      <trkpt lat="47.34991" lon="-2.40416">
        <ele>67.199996948242</ele>
        <time>2022-02-17T09:27:35.000Z</time>
      </trkpt>
      <trkpt lat="47.35004" lon="-2.40431">
        <ele>67.199996948242</ele>
        <time>2022-02-17T09:27:38.000Z</time>
      </trkpt>
      <trkpt lat="47.3502" lon="-2.40431">
        <ele>67.199996948242</ele>
        <time>2022-02-17T09:27:41.000Z</time>
      </trkpt>
      <trkpt lat="47.35036" lon="-2.40421">
        <ele>67.199996948242</ele>
        <time>2022-02-17T09:27:44.000Z</time>
      </trkpt>
      <trkpt lat="47.35046" lon="-2.40415">
        <ele>67.199996948242</ele>
        <time>2022-02-17T09:27:46.000Z</time>
      </trkpt>
      <trkpt lat="47.35074" lon="-2.40399">
        <ele>67.199996948242</ele>
        <time>2022-02-17T09:27:53.000Z</time>
      </trkpt>
      <trkpt lat="47.35107" lon="-2.4038">
        <ele>67.199996948242</ele>
        <time>2022-02-17T09:28:03.000Z</time>
      </trkpt>
      <trkpt lat="47.35127" lon="-2.4036">
        <ele>67.199996948242</ele>
        <time>2022-02-17T09:28:10.000Z</time>
      </trkpt>
      <trkpt lat="47.35137" lon="-2.40351">
        <ele>67.199996948242</ele>
        <time>2022-02-17T09:28:13.000Z</time>
      </trkpt>
      <trkpt lat="47.35149" lon="-2.40343">
        <ele>67.199996948242</ele>
        <time>2022-02-17T09:28:16.000Z</time>
      </trkpt>
      <trkpt lat="47.35185" lon="-2.4032">
        <ele>67.199996948242</ele>
        <time>2022-02-17T09:28:24.000Z</time>
      </trkpt>
      <trkpt lat="47.35222" lon="-2.40294">
        <ele>67.199996948242</ele>
        <time>2022-02-17T09:28:32.000Z</time>
      </trkpt>
      <trkpt lat="47.35244" lon="-2.40278">
        <ele>67.199996948242</ele>
        <time>2022-02-17T09:28:38.000Z</time>
      </trkpt>
      <trkpt lat="47.35247" lon="-2.40276">
        <ele>66.800003051758</ele>
        <time>2022-02-17T09:28:39.000Z</time>
      </trkpt>
      <trkpt lat="47.3525" lon="-2.40275">
        <ele>65.800003051758</ele>
        <time>2022-02-17T09:28:40.000Z</time>
      </trkpt>
      <trkpt lat="47.35252" lon="-2.40273">
        <ele>65.400001525879</ele>
        <time>2022-02-17T09:28:41.000Z</time>
      </trkpt>
      <trkpt lat="47.35255" lon="-2.40272">
        <ele>65</ele>
        <time>2022-02-17T09:28:42.000Z</time>
      </trkpt>
      <trkpt lat="47.35262" lon="-2.40271">
        <ele>65</ele>
        <time>2022-02-17T09:28:44.000Z</time>
      </trkpt>
      <trkpt lat="47.35281" lon="-2.40267">
        <ele>65</ele>
        <time>2022-02-17T09:28:48.000Z</time>
      </trkpt>
      <trkpt lat="47.35308" lon="-2.40264">
        <ele>65</ele>
        <time>2022-02-17T09:28:54.000Z</time>
      </trkpt>
      <trkpt lat="47.35341" lon="-2.4026">
        <ele>65</ele>
        <time>2022-02-17T09:29:01.000Z</time>
      </trkpt>
      <trkpt lat="47.35365" lon="-2.40258">
        <ele>65</ele>
        <time>2022-02-17T09:29:08.000Z</time>
      </trkpt>
      <trkpt lat="47.35374" lon="-2.40256">
        <ele>65</ele>
        <time>2022-02-17T09:29:13.000Z</time>
      </trkpt>
      <trkpt lat="47.35381" lon="-2.40255">
        <ele>65</ele>
        <time>2022-02-17T09:29:19.000Z</time>
      </trkpt>
      <trkpt lat="47.35384" lon="-2.40251">
        <ele>65</ele>
        <time>2022-02-17T09:29:24.000Z</time>
      </trkpt>
      <trkpt lat="47.35392" lon="-2.40238">
        <ele>65</ele>
        <time>2022-02-17T09:29:30.000Z</time>
      </trkpt>
      <trkpt lat="47.35396" lon="-2.40233">
        <ele>64.599998474121</ele>
        <time>2022-02-17T09:29:32.000Z</time>
      </trkpt>
      <trkpt lat="47.35399" lon="-2.40231">
        <ele>64.199996948242</ele>
        <time>2022-02-17T09:29:33.000Z</time>
      </trkpt>
      <trkpt lat="47.35401" lon="-2.40228">
        <ele>63.799999237061</ele>
        <time>2022-02-17T09:29:34.000Z</time>
      </trkpt>
      <trkpt lat="47.35405" lon="-2.40226">
        <ele>63.400001525879</ele>
        <time>2022-02-17T09:29:35.000Z</time>
      </trkpt>
      <trkpt lat="47.35408" lon="-2.40223">
        <ele>63</ele>
        <time>2022-02-17T09:29:36.000Z</time>
      </trkpt>
      <trkpt lat="47.35411" lon="-2.40221">
        <ele>63</ele>
        <time>2022-02-17T09:29:37.000Z</time>
      </trkpt>
      <trkpt lat="47.35432" lon="-2.40205">
        <ele>63</ele>
        <time>2022-02-17T09:29:43.000Z</time>
      </trkpt>
      <trkpt lat="47.35456" lon="-2.40191">
        <ele>63</ele>
        <time>2022-02-17T09:29:49.000Z</time>
      </trkpt>
      <trkpt lat="47.35479" lon="-2.40176">
        <ele>63</ele>
        <time>2022-02-17T09:29:55.000Z</time>
      </trkpt>
      <trkpt lat="47.35496" lon="-2.40165">
        <ele>63</ele>
        <time>2022-02-17T09:30:00.000Z</time>
      </trkpt>
      <trkpt lat="47.35516" lon="-2.40156">
        <ele>63</ele>
        <time>2022-02-17T09:30:06.000Z</time>
      </trkpt>
      <trkpt lat="47.35535" lon="-2.4015">
        <ele>63</ele>
        <time>2022-02-17T09:30:10.000Z</time>
      </trkpt>
      <trkpt lat="47.3554" lon="-2.40148">
        <ele>63</ele>
        <time>2022-02-17T09:30:11.000Z</time>
      </trkpt>
      <trkpt lat="47.35572" lon="-2.40138">
        <ele>63</ele>
        <time>2022-02-17T09:30:18.000Z</time>
      </trkpt>
      <trkpt lat="47.35581" lon="-2.40137">
        <ele>63</ele>
        <time>2022-02-17T09:30:23.000Z</time>
      </trkpt>
      <trkpt lat="47.35584" lon="-2.40136">
        <ele>63</ele>
        <time>2022-02-17T09:30:45.000Z</time>
      </trkpt>
      <trkpt lat="47.3559" lon="-2.40133">
        <ele>63</ele>
        <time>2022-02-17T09:30:48.000Z</time>
      </trkpt>
      <trkpt lat="47.35607" lon="-2.4013">
        <ele>63</ele>
        <time>2022-02-17T09:30:53.000Z</time>
      </trkpt>
      <trkpt lat="47.35632" lon="-2.4012">
        <ele>63</ele>
        <time>2022-02-17T09:31:00.000Z</time>
      </trkpt>
      <trkpt lat="47.35638" lon="-2.40118">
        <ele>62.599998474121</ele>
        <time>2022-02-17T09:31:02.000Z</time>
      </trkpt>
      <trkpt lat="47.35641" lon="-2.40119">
        <ele>62.200000762939</ele>
        <time>2022-02-17T09:31:03.000Z</time>
      </trkpt>
      <trkpt lat="47.35643" lon="-2.40121">
        <ele>61.799999237061</ele>
        <time>2022-02-17T09:31:04.000Z</time>
      </trkpt>
      <trkpt lat="47.35645" lon="-2.40125">
        <ele>61.400001525879</ele>
        <time>2022-02-17T09:31:05.000Z</time>
      </trkpt>
      <trkpt lat="47.35646" lon="-2.4013">
        <ele>61</ele>
        <time>2022-02-17T09:31:06.000Z</time>
      </trkpt>
      <trkpt lat="47.35648" lon="-2.40148">
        <ele>61</ele>
        <time>2022-02-17T09:31:09.000Z</time>
      </trkpt>
      <trkpt lat="47.35649" lon="-2.40162">
        <ele>61</ele>
        <time>2022-02-17T09:31:11.000Z</time>
      </trkpt>
      <trkpt lat="47.3565" lon="-2.40183">
        <ele>61</ele>
        <time>2022-02-17T09:31:14.000Z</time>
      </trkpt>
      <trkpt lat="47.35653" lon="-2.40236">
        <ele>61.400001525879</ele>
        <time>2022-02-17T09:31:21.000Z</time>
      </trkpt>
      <trkpt lat="47.35653" lon="-2.40244">
        <ele>61.799999237061</ele>
        <time>2022-02-17T09:31:22.000Z</time>
      </trkpt>
      <trkpt lat="47.35654" lon="-2.40252">
        <ele>62.200000762939</ele>
        <time>2022-02-17T09:31:23.000Z</time>
      </trkpt>
      <trkpt lat="47.35655" lon="-2.40259">
        <ele>62.799999237061</ele>
        <time>2022-02-17T09:31:24.000Z</time>
      </trkpt>
      <trkpt lat="47.35656" lon="-2.40267">
        <ele>63.200000762939</ele>
        <time>2022-02-17T09:31:25.000Z</time>
      </trkpt>
      <trkpt lat="47.35659" lon="-2.40288">
        <ele>63.200000762939</ele>
        <time>2022-02-17T09:31:28.000Z</time>
      </trkpt>
      <trkpt lat="47.35662" lon="-2.40335">
        <ele>63.200000762939</ele>
        <time>2022-02-17T09:31:34.000Z</time>
      </trkpt>
      <trkpt lat="47.35665" lon="-2.40389">
        <ele>63.200000762939</ele>
        <time>2022-02-17T09:31:40.000Z</time>
      </trkpt>
      <trkpt lat="47.3567" lon="-2.40469">
        <ele>63.200000762939</ele>
        <time>2022-02-17T09:31:49.000Z</time>
      </trkpt>
      <trkpt lat="47.35676" lon="-2.40526">
        <ele>63.200000762939</ele>
        <time>2022-02-17T09:31:55.000Z</time>
      </trkpt>
      <trkpt lat="47.35689" lon="-2.4059">
        <ele>63.200000762939</ele>
        <time>2022-02-17T09:32:02.000Z</time>
      </trkpt>
      <trkpt lat="47.35698" lon="-2.40642">
        <ele>63.200000762939</ele>
        <time>2022-02-17T09:32:08.000Z</time>
      </trkpt>
      <trkpt lat="47.35707" lon="-2.40708">
        <ele>63.200000762939</ele>
        <time>2022-02-17T09:32:16.000Z</time>
      </trkpt>
      <trkpt lat="47.35709" lon="-2.40734">
        <ele>63.200000762939</ele>
        <time>2022-02-17T09:32:19.000Z</time>
      </trkpt>
      <trkpt lat="47.3571" lon="-2.40759">
        <ele>63.200000762939</ele>
        <time>2022-02-17T09:32:22.000Z</time>
      </trkpt>
      <trkpt lat="47.3571" lon="-2.40811">
        <ele>63.200000762939</ele>
        <time>2022-02-17T09:32:28.000Z</time>
      </trkpt>
      <trkpt lat="47.35703" lon="-2.40874">
        <ele>63.200000762939</ele>
        <time>2022-02-17T09:32:35.000Z</time>
      </trkpt>
      <trkpt lat="47.35696" lon="-2.40955">
        <ele>63.200000762939</ele>
        <time>2022-02-17T09:32:44.000Z</time>
      </trkpt>
      <trkpt lat="47.35694" lon="-2.40963">
        <ele>63.200000762939</ele>
        <time>2022-02-17T09:32:45.000Z</time>
      </trkpt>
      <trkpt lat="47.35686" lon="-2.40975">
        <ele>63.200000762939</ele>
        <time>2022-02-17T09:32:47.000Z</time>
      </trkpt>
      <trkpt lat="47.35678" lon="-2.40987">
        <ele>63.200000762939</ele>
        <time>2022-02-17T09:32:49.000Z</time>
      </trkpt>
      <trkpt lat="47.35659" lon="-2.41017">
        <ele>63.200000762939</ele>
        <time>2022-02-17T09:32:54.000Z</time>
      </trkpt>
      <trkpt lat="47.3565" lon="-2.41029">
        <ele>63.599998474121</ele>
        <time>2022-02-17T09:32:56.000Z</time>
      </trkpt>
      <trkpt lat="47.35646" lon="-2.41035">
        <ele>64</ele>
        <time>2022-02-17T09:32:57.000Z</time>
      </trkpt>
      <trkpt lat="47.35642" lon="-2.41041">
        <ele>64.400001525879</ele>
        <time>2022-02-17T09:32:58.000Z</time>
      </trkpt>
      <trkpt lat="47.35637" lon="-2.41047">
        <ele>64.800003051758</ele>
        <time>2022-02-17T09:32:59.000Z</time>
      </trkpt>
      <trkpt lat="47.35632" lon="-2.41052">
        <ele>65.199996948242</ele>
        <time>2022-02-17T09:33:00.000Z</time>
      </trkpt>
      <trkpt lat="47.35623" lon="-2.41062">
        <ele>65.199996948242</ele>
        <time>2022-02-17T09:33:02.000Z</time>
      </trkpt>
      <trkpt lat="47.35591" lon="-2.41099">
        <ele>65.199996948242</ele>
        <time>2022-02-17T09:33:09.000Z</time>
      </trkpt>
      <trkpt lat="47.35572" lon="-2.41119">
        <ele>65.199996948242</ele>
        <time>2022-02-17T09:33:13.000Z</time>
      </trkpt>
      <trkpt lat="47.35568" lon="-2.41122">
        <ele>65.199996948242</ele>
        <time>2022-02-17T09:33:14.000Z</time>
      </trkpt>
      <trkpt lat="47.3554" lon="-2.41143">
        <ele>65.199996948242</ele>
        <time>2022-02-17T09:33:19.000Z</time>
      </trkpt>
      <trkpt lat="47.35496" lon="-2.41177">
        <ele>65.199996948242</ele>
        <time>2022-02-17T09:33:27.000Z</time>
      </trkpt>
      <trkpt lat="47.35458" lon="-2.4121">
        <ele>65.199996948242</ele>
        <time>2022-02-17T09:33:35.000Z</time>
      </trkpt>
      <trkpt lat="47.35454" lon="-2.41215">
        <ele>65.199996948242</ele>
        <time>2022-02-17T09:33:36.000Z</time>
      </trkpt>
      <trkpt lat="47.35424" lon="-2.41257">
        <ele>65.199996948242</ele>
        <time>2022-02-17T09:33:44.000Z</time>
      </trkpt>
      <trkpt lat="47.35398" lon="-2.41278">
        <ele>65.199996948242</ele>
        <time>2022-02-17T09:33:51.000Z</time>
      </trkpt>
      <trkpt lat="47.35375" lon="-2.413">
        <ele>65.199996948242</ele>
        <time>2022-02-17T09:33:57.000Z</time>
      </trkpt>
      <trkpt lat="47.35352" lon="-2.41333">
        <ele>65.199996948242</ele>
        <time>2022-02-17T09:34:03.000Z</time>
      </trkpt>
      <trkpt lat="47.3533" lon="-2.41364">
        <ele>65.199996948242</ele>
        <time>2022-02-17T09:34:09.000Z</time>
      </trkpt>
      <trkpt lat="47.35327" lon="-2.41369">
        <ele>65.199996948242</ele>
        <time>2022-02-17T09:34:10.000Z</time>
      </trkpt>
      <trkpt lat="47.35315" lon="-2.41392">
        <ele>65.199996948242</ele>
        <time>2022-02-17T09:34:15.000Z</time>
      </trkpt>
      <trkpt lat="47.35296" lon="-2.41421">
        <ele>65.199996948242</ele>
        <time>2022-02-17T09:34:22.000Z</time>
      </trkpt>
      <trkpt lat="47.35279" lon="-2.41436">
        <ele>65.199996948242</ele>
        <time>2022-02-17T09:34:28.000Z</time>
      </trkpt>
      <trkpt lat="47.35263" lon="-2.41443">
        <ele>65.199996948242</ele>
        <time>2022-02-17T09:34:33.000Z</time>
      </trkpt>
      <trkpt lat="47.35254" lon="-2.4144">
        <ele>65.199996948242</ele>
        <time>2022-02-17T09:34:35.000Z</time>
      </trkpt>
      <trkpt lat="47.35245" lon="-2.41432">
        <ele>65.199996948242</ele>
        <time>2022-02-17T09:34:37.000Z</time>
      </trkpt>
      <trkpt lat="47.3524" lon="-2.41427">
        <ele>65.199996948242</ele>
        <time>2022-02-17T09:34:38.000Z</time>
      </trkpt>
      <trkpt lat="47.35226" lon="-2.41401">
        <ele>65.199996948242</ele>
        <time>2022-02-17T09:34:42.000Z</time>
      </trkpt>
      <trkpt lat="47.35206" lon="-2.41369">
        <ele>65.199996948242</ele>
        <time>2022-02-17T09:34:48.000Z</time>
      </trkpt>
      <trkpt lat="47.35199" lon="-2.4136">
        <ele>65.199996948242</ele>
        <time>2022-02-17T09:34:50.000Z</time>
      </trkpt>
      <trkpt lat="47.35189" lon="-2.41352">
        <ele>65.199996948242</ele>
        <time>2022-02-17T09:34:53.000Z</time>
      </trkpt>
      <trkpt lat="47.35185" lon="-2.41352">
        <ele>65.199996948242</ele>
        <time>2022-02-17T09:34:54.000Z</time>
      </trkpt>
      <trkpt lat="47.3517" lon="-2.41357">
        <ele>65.199996948242</ele>
        <time>2022-02-17T09:34:57.000Z</time>
      </trkpt>
      <trkpt lat="47.35166" lon="-2.41359">
        <ele>65.199996948242</ele>
        <time>2022-02-17T09:34:58.000Z</time>
      </trkpt>
      <trkpt lat="47.35144" lon="-2.41375">
        <ele>65.199996948242</ele>
        <time>2022-02-17T09:35:03.000Z</time>
      </trkpt>
      <trkpt lat="47.35139" lon="-2.41378">
        <ele>65.199996948242</ele>
        <time>2022-02-17T09:35:04.000Z</time>
      </trkpt>
      <trkpt lat="47.35119" lon="-2.41391">
        <ele>65.199996948242</ele>
        <time>2022-02-17T09:35:08.000Z</time>
      </trkpt>
      <trkpt lat="47.35084" lon="-2.41411">
        <ele>65.199996948242</ele>
        <time>2022-02-17T09:35:15.000Z</time>
      </trkpt>
      <trkpt lat="47.3507" lon="-2.41419">
        <ele>65.199996948242</ele>
        <time>2022-02-17T09:35:18.000Z</time>
      </trkpt>
      <trkpt lat="47.35055" lon="-2.41425">
        <ele>65.199996948242</ele>
        <time>2022-02-17T09:35:21.000Z</time>
      </trkpt>
      <trkpt lat="47.35046" lon="-2.41429">
        <ele>65.199996948242</ele>
        <time>2022-02-17T09:35:23.000Z</time>
      </trkpt>
      <trkpt lat="47.35031" lon="-2.41435">
        <ele>65.199996948242</ele>
        <time>2022-02-17T09:35:26.000Z</time>
      </trkpt>
      <trkpt lat="47.35016" lon="-2.41441">
        <ele>65.199996948242</ele>
        <time>2022-02-17T09:35:29.000Z</time>
      </trkpt>
      <trkpt lat="47.3501" lon="-2.41444">
        <ele>65.599998474121</ele>
        <time>2022-02-17T09:35:30.000Z</time>
      </trkpt>
      <trkpt lat="47.35005" lon="-2.41446">
        <ele>66</ele>
        <time>2022-02-17T09:35:31.000Z</time>
      </trkpt>
      <trkpt lat="47.35" lon="-2.41449">
        <ele>66.400001525879</ele>
        <time>2022-02-17T09:35:32.000Z</time>
      </trkpt>
      <trkpt lat="47.34995" lon="-2.4145">
        <ele>66.800003051758</ele>
        <time>2022-02-17T09:35:33.000Z</time>
      </trkpt>
      <trkpt lat="47.3499" lon="-2.4145">
        <ele>67.199996948242</ele>
        <time>2022-02-17T09:35:34.000Z</time>
      </trkpt>
      <trkpt lat="47.34985" lon="-2.41451">
        <ele>67.199996948242</ele>
        <time>2022-02-17T09:35:35.000Z</time>
      </trkpt>
      <trkpt lat="47.3498" lon="-2.41453">
        <ele>67.199996948242</ele>
        <time>2022-02-17T09:35:36.000Z</time>
      </trkpt>
      <trkpt lat="47.34953" lon="-2.41462">
        <ele>67.199996948242</ele>
        <time>2022-02-17T09:35:42.000Z</time>
      </trkpt>
      <trkpt lat="47.34922" lon="-2.41472">
        <ele>67.199996948242</ele>
        <time>2022-02-17T09:35:48.000Z</time>
      </trkpt>
      <trkpt lat="47.34916" lon="-2.41474">
        <ele>67.199996948242</ele>
        <time>2022-02-17T09:35:49.000Z</time>
      </trkpt>
      <trkpt lat="47.34879" lon="-2.41484">
        <ele>67.199996948242</ele>
        <time>2022-02-17T09:35:56.000Z</time>
      </trkpt>
      <trkpt lat="47.34869" lon="-2.41487">
        <ele>67.199996948242</ele>
        <time>2022-02-17T09:35:58.000Z</time>
      </trkpt>
      <trkpt lat="47.34856" lon="-2.41491">
        <ele>67.199996948242</ele>
        <time>2022-02-17T09:36:01.000Z</time>
      </trkpt>
      <trkpt lat="47.34851" lon="-2.41492">
        <ele>67.199996948242</ele>
        <time>2022-02-17T09:36:02.000Z</time>
      </trkpt>
      <trkpt lat="47.34837" lon="-2.41495">
        <ele>67.199996948242</ele>
        <time>2022-02-17T09:36:05.000Z</time>
      </trkpt>
      <trkpt lat="47.34832" lon="-2.41496">
        <ele>67.199996948242</ele>
        <time>2022-02-17T09:36:06.000Z</time>
      </trkpt>
      <trkpt lat="47.34813" lon="-2.41501">
        <ele>67.199996948242</ele>
        <time>2022-02-17T09:36:10.000Z</time>
      </trkpt>
      <trkpt lat="47.34793" lon="-2.41509">
        <ele>67.199996948242</ele>
        <time>2022-02-17T09:36:14.000Z</time>
      </trkpt>
      <trkpt lat="47.34787" lon="-2.4151">
        <ele>67.199996948242</ele>
        <time>2022-02-17T09:36:15.000Z</time>
      </trkpt>
      <trkpt lat="47.34783" lon="-2.41511">
        <ele>67.599998474121</ele>
        <time>2022-02-17T09:36:16.000Z</time>
      </trkpt>
      <trkpt lat="47.34778" lon="-2.41513">
        <ele>68</ele>
        <time>2022-02-17T09:36:17.000Z</time>
      </trkpt>
      <trkpt lat="47.34773" lon="-2.41514">
        <ele>68.400001525879</ele>
        <time>2022-02-17T09:36:18.000Z</time>
      </trkpt>
      <trkpt lat="47.34766" lon="-2.41516">
        <ele>68.800003051758</ele>
        <time>2022-02-17T09:36:19.000Z</time>
      </trkpt>
      <trkpt lat="47.3476" lon="-2.41519">
        <ele>69.199996948242</ele>
        <time>2022-02-17T09:36:20.000Z</time>
      </trkpt>
      <trkpt lat="47.34754" lon="-2.41521">
        <ele>69.199996948242</ele>
        <time>2022-02-17T09:36:21.000Z</time>
      </trkpt>
      <trkpt lat="47.34725" lon="-2.4153">
        <ele>69.199996948242</ele>
        <time>2022-02-17T09:36:26.000Z</time>
      </trkpt>
      <trkpt lat="47.34705" lon="-2.41536">
        <ele>69.599998474121</ele>
        <time>2022-02-17T09:36:30.000Z</time>
      </trkpt>
      <trkpt lat="47.34699" lon="-2.41538">
        <ele>70</ele>
        <time>2022-02-17T09:36:31.000Z</time>
      </trkpt>
      <trkpt lat="47.34694" lon="-2.4154">
        <ele>70.599998474121</ele>
        <time>2022-02-17T09:36:32.000Z</time>
      </trkpt>
      <trkpt lat="47.34689" lon="-2.41542">
        <ele>71</ele>
        <time>2022-02-17T09:36:33.000Z</time>
      </trkpt>
      <trkpt lat="47.34683" lon="-2.41544">
        <ele>71.400001525879</ele>
        <time>2022-02-17T09:36:34.000Z</time>
      </trkpt>
      <trkpt lat="47.34657" lon="-2.41551">
        <ele>71.400001525879</ele>
        <time>2022-02-17T09:36:39.000Z</time>
      </trkpt>
      <trkpt lat="47.34652" lon="-2.41552">
        <ele>71.400001525879</ele>
        <time>2022-02-17T09:36:40.000Z</time>
      </trkpt>
      <trkpt lat="47.34634" lon="-2.41559">
        <ele>71.400001525879</ele>
        <time>2022-02-17T09:36:44.000Z</time>
      </trkpt>
      <trkpt lat="47.34629" lon="-2.41561">
        <ele>71.400001525879</ele>
        <time>2022-02-17T09:36:45.000Z</time>
      </trkpt>
      <trkpt lat="47.34606" lon="-2.41572">
        <ele>71.400001525879</ele>
        <time>2022-02-17T09:36:50.000Z</time>
      </trkpt>
      <trkpt lat="47.34573" lon="-2.41587">
        <ele>71.400001525879</ele>
        <time>2022-02-17T09:36:57.000Z</time>
      </trkpt>
      <trkpt lat="47.34569" lon="-2.41588">
        <ele>71.400001525879</ele>
        <time>2022-02-17T09:36:58.000Z</time>
      </trkpt>
      <trkpt lat="47.34546" lon="-2.41596">
        <ele>71.400001525879</ele>
        <time>2022-02-17T09:37:03.000Z</time>
      </trkpt>
      <trkpt lat="47.34537" lon="-2.41599">
        <ele>71.400001525879</ele>
        <time>2022-02-17T09:37:05.000Z</time>
      </trkpt>
      <trkpt lat="47.34524" lon="-2.41603">
        <ele>71.400001525879</ele>
        <time>2022-02-17T09:37:08.000Z</time>
      </trkpt>
      <trkpt lat="47.3452" lon="-2.41604">
        <ele>71.400001525879</ele>
        <time>2022-02-17T09:37:09.000Z</time>
      </trkpt>
      <trkpt lat="47.34515" lon="-2.41606">
        <ele>71.800003051758</ele>
        <time>2022-02-17T09:37:10.000Z</time>
      </trkpt>
      <trkpt lat="47.34511" lon="-2.41608">
        <ele>72.199996948242</ele>
        <time>2022-02-17T09:37:11.000Z</time>
      </trkpt>
      <trkpt lat="47.34507" lon="-2.4161">
        <ele>72.599998474121</ele>
        <time>2022-02-17T09:37:12.000Z</time>
      </trkpt>
      <trkpt lat="47.34503" lon="-2.41612">
        <ele>73</ele>
        <time>2022-02-17T09:37:13.000Z</time>
      </trkpt>
      <trkpt lat="47.34499" lon="-2.41614">
        <ele>73.400001525879</ele>
        <time>2022-02-17T09:37:14.000Z</time>
      </trkpt>
      <trkpt lat="47.34487" lon="-2.4162">
        <ele>73.400001525879</ele>
        <time>2022-02-17T09:37:17.000Z</time>
      </trkpt>
      <trkpt lat="47.34475" lon="-2.41628">
        <ele>73.400001525879</ele>
        <time>2022-02-17T09:37:20.000Z</time>
      </trkpt>
      <trkpt lat="47.34455" lon="-2.41643">
        <ele>73.400001525879</ele>
        <time>2022-02-17T09:37:25.000Z</time>
      </trkpt>
      <trkpt lat="47.3445" lon="-2.41648">
        <ele>73.400001525879</ele>
        <time>2022-02-17T09:37:26.000Z</time>
      </trkpt>
      <trkpt lat="47.34432" lon="-2.41673">
        <ele>73.400001525879</ele>
        <time>2022-02-17T09:37:32.000Z</time>
      </trkpt>
      <trkpt lat="47.3442" lon="-2.41691">
        <ele>73.800003051758</ele>
        <time>2022-02-17T09:37:37.000Z</time>
      </trkpt>
      <trkpt lat="47.34416" lon="-2.41693">
        <ele>74.199996948242</ele>
        <time>2022-02-17T09:37:38.000Z</time>
      </trkpt>
      <trkpt lat="47.34412" lon="-2.41696">
        <ele>74.599998474121</ele>
        <time>2022-02-17T09:37:39.000Z</time>
      </trkpt>
      <trkpt lat="47.34408" lon="-2.41698">
        <ele>75</ele>
        <time>2022-02-17T09:37:40.000Z</time>
      </trkpt>
      <trkpt lat="47.34404" lon="-2.417">
        <ele>75.400001525879</ele>
        <time>2022-02-17T09:37:41.000Z</time>
      </trkpt>
      <trkpt lat="47.34394" lon="-2.41707">
        <ele>75.400001525879</ele>
        <time>2022-02-17T09:37:44.000Z</time>
      </trkpt>
      <trkpt lat="47.34373" lon="-2.41719">
        <ele>75.400001525879</ele>
        <time>2022-02-17T09:37:50.000Z</time>
      </trkpt>
      <trkpt lat="47.3437" lon="-2.41721">
        <ele>76</ele>
        <time>2022-02-17T09:37:51.000Z</time>
      </trkpt>
      <trkpt lat="47.34367" lon="-2.41723">
        <ele>76.400001525879</ele>
        <time>2022-02-17T09:37:52.000Z</time>
      </trkpt>
      <trkpt lat="47.34363" lon="-2.41724">
        <ele>76.800003051758</ele>
        <time>2022-02-17T09:37:53.000Z</time>
      </trkpt>
      <trkpt lat="47.34359" lon="-2.41725">
        <ele>77.199996948242</ele>
        <time>2022-02-17T09:37:54.000Z</time>
      </trkpt>
      <trkpt lat="47.34355" lon="-2.41726">
        <ele>77.599998474121</ele>
        <time>2022-02-17T09:37:55.000Z</time>
      </trkpt>
      <trkpt lat="47.34335" lon="-2.41737">
        <ele>77.599998474121</ele>
        <time>2022-02-17T09:38:00.000Z</time>
      </trkpt>
      <trkpt lat="47.34308" lon="-2.41747">
        <ele>77.599998474121</ele>
        <time>2022-02-17T09:38:06.000Z</time>
      </trkpt>
      <trkpt lat="47.34292" lon="-2.41758">
        <ele>78</ele>
        <time>2022-02-17T09:38:10.000Z</time>
      </trkpt>
      <trkpt lat="47.34289" lon="-2.4176">
        <ele>78.400001525879</ele>
        <time>2022-02-17T09:38:11.000Z</time>
      </trkpt>
      <trkpt lat="47.34285" lon="-2.41763">
        <ele>78.800003051758</ele>
        <time>2022-02-17T09:38:12.000Z</time>
      </trkpt>
      <trkpt lat="47.34281" lon="-2.41765">
        <ele>79.400001525879</ele>
        <time>2022-02-17T09:38:13.000Z</time>
      </trkpt>
      <trkpt lat="47.34278" lon="-2.41767">
        <ele>79.800003051758</ele>
        <time>2022-02-17T09:38:14.000Z</time>
      </trkpt>
      <trkpt lat="47.34263" lon="-2.41775">
        <ele>79.800003051758</ele>
        <time>2022-02-17T09:38:18.000Z</time>
      </trkpt>
      <trkpt lat="47.34246" lon="-2.41775">
        <ele>79.800003051758</ele>
        <time>2022-02-17T09:38:22.000Z</time>
      </trkpt>
      <trkpt lat="47.34236" lon="-2.41756">
        <ele>79.800003051758</ele>
        <time>2022-02-17T09:38:26.000Z</time>
      </trkpt>
      <trkpt lat="47.34232" lon="-2.41741">
        <ele>79.800003051758</ele>
        <time>2022-02-17T09:38:28.000Z</time>
      </trkpt>
      <trkpt lat="47.34225" lon="-2.41716">
        <ele>79.800003051758</ele>
        <time>2022-02-17T09:38:32.000Z</time>
      </trkpt>
      <trkpt lat="47.34218" lon="-2.41693">
        <ele>79.800003051758</ele>
        <time>2022-02-17T09:38:37.000Z</time>
      </trkpt>
      <trkpt lat="47.34207" lon="-2.41688">
        <ele>79.800003051758</ele>
        <time>2022-02-17T09:38:41.000Z</time>
      </trkpt>
      <trkpt lat="47.34192" lon="-2.41694">
        <ele>79.800003051758</ele>
        <time>2022-02-17T09:38:46.000Z</time>
      </trkpt>
      <trkpt lat="47.34184" lon="-2.41701">
        <ele>79.800003051758</ele>
        <time>2022-02-17T09:38:51.000Z</time>
      </trkpt>
      <trkpt lat="47.34172" lon="-2.41715">
        <ele>79.800003051758</ele>
        <time>2022-02-17T09:38:57.000Z</time>
      </trkpt>
      <trkpt lat="47.34168" lon="-2.4172">
        <ele>80.199996948242</ele>
        <time>2022-02-17T09:38:59.000Z</time>
      </trkpt>
      <trkpt lat="47.34165" lon="-2.41723">
        <ele>80.599998474121</ele>
        <time>2022-02-17T09:39:00.000Z</time>
      </trkpt>
      <trkpt lat="47.34162" lon="-2.41726">
        <ele>81</ele>
        <time>2022-02-17T09:39:01.000Z</time>
      </trkpt>
      <trkpt lat="47.34159" lon="-2.41728">
        <ele>81.400001525879</ele>
        <time>2022-02-17T09:39:02.000Z</time>
      </trkpt>
      <trkpt lat="47.34156" lon="-2.41731">
        <ele>81.800003051758</ele>
        <time>2022-02-17T09:39:03.000Z</time>
      </trkpt>
      <trkpt lat="47.34153" lon="-2.41735">
        <ele>81.800003051758</ele>
        <time>2022-02-17T09:39:04.000Z</time>
      </trkpt>
      <trkpt lat="47.34132" lon="-2.41754">
        <ele>81.800003051758</ele>
        <time>2022-02-17T09:39:11.000Z</time>
      </trkpt>
      <trkpt lat="47.34117" lon="-2.41768">
        <ele>81.800003051758</ele>
        <time>2022-02-17T09:39:17.000Z</time>
      </trkpt>
      <trkpt lat="47.34099" lon="-2.41783">
        <ele>81.800003051758</ele>
        <time>2022-02-17T09:39:23.000Z</time>
      </trkpt>
      <trkpt lat="47.34089" lon="-2.41792">
        <ele>82.199996948242</ele>
        <time>2022-02-17T09:39:26.000Z</time>
      </trkpt>
      <trkpt lat="47.34086" lon="-2.41795">
        <ele>82.599998474121</ele>
        <time>2022-02-17T09:39:27.000Z</time>
      </trkpt>
      <trkpt lat="47.34083" lon="-2.41798">
        <ele>83.199996948242</ele>
        <time>2022-02-17T09:39:28.000Z</time>
      </trkpt>
      <trkpt lat="47.34079" lon="-2.41801">
        <ele>83.599998474121</ele>
        <time>2022-02-17T09:39:29.000Z</time>
      </trkpt>
      <trkpt lat="47.34076" lon="-2.41804">
        <ele>84</ele>
        <time>2022-02-17T09:39:30.000Z</time>
      </trkpt>
      <trkpt lat="47.34056" lon="-2.41831">
        <ele>84</ele>
        <time>2022-02-17T09:39:38.000Z</time>
      </trkpt>
      <trkpt lat="47.34042" lon="-2.41852">
        <ele>84.400001525879</ele>
        <time>2022-02-17T09:39:44.000Z</time>
      </trkpt>
      <trkpt lat="47.3404" lon="-2.41856">
        <ele>84.800003051758</ele>
        <time>2022-02-17T09:39:45.000Z</time>
      </trkpt>
      <trkpt lat="47.34038" lon="-2.4186">
        <ele>85.599998474121</ele>
        <time>2022-02-17T09:39:46.000Z</time>
      </trkpt>
      <trkpt lat="47.34035" lon="-2.41864">
        <ele>86</ele>
        <time>2022-02-17T09:39:47.000Z</time>
      </trkpt>
      <trkpt lat="47.34016" lon="-2.41897">
        <ele>86</ele>
        <time>2022-02-17T09:39:55.000Z</time>
      </trkpt>
      <trkpt lat="47.34001" lon="-2.41921">
        <ele>86</ele>
        <time>2022-02-17T09:40:01.000Z</time>
      </trkpt>
      <trkpt lat="47.33992" lon="-2.41933">
        <ele>86</ele>
        <time>2022-02-17T09:40:04.000Z</time>
      </trkpt>
      <trkpt lat="47.33983" lon="-2.41946">
        <ele>86</ele>
        <time>2022-02-17T09:40:07.000Z</time>
      </trkpt>
      <trkpt lat="47.33957" lon="-2.41976">
        <ele>86</ele>
        <time>2022-02-17T09:40:15.000Z</time>
      </trkpt>
      <trkpt lat="47.33931" lon="-2.42005">
        <ele>86</ele>
        <time>2022-02-17T09:40:23.000Z</time>
      </trkpt>
      <trkpt lat="47.33909" lon="-2.42025">
        <ele>86.599998474121</ele>
        <time>2022-02-17T09:40:29.000Z</time>
      </trkpt>
      <trkpt lat="47.33906" lon="-2.42029">
        <ele>87</ele>
        <time>2022-02-17T09:40:30.000Z</time>
      </trkpt>
      <trkpt lat="47.33902" lon="-2.42032">
        <ele>87.400001525879</ele>
        <time>2022-02-17T09:40:31.000Z</time>
      </trkpt>
      <trkpt lat="47.33899" lon="-2.42035">
        <ele>87.800003051758</ele>
        <time>2022-02-17T09:40:32.000Z</time>
      </trkpt>
      <trkpt lat="47.33896" lon="-2.42038">
        <ele>88.199996948242</ele>
        <time>2022-02-17T09:40:33.000Z</time>
      </trkpt>
      <trkpt lat="47.3388" lon="-2.42051">
        <ele>88.199996948242</ele>
        <time>2022-02-17T09:40:37.000Z</time>
      </trkpt>
      <trkpt lat="47.3385" lon="-2.42072">
        <ele>88.199996948242</ele>
        <time>2022-02-17T09:40:45.000Z</time>
      </trkpt>
      <trkpt lat="47.33822" lon="-2.42092">
        <ele>88.199996948242</ele>
        <time>2022-02-17T09:40:53.000Z</time>
      </trkpt>
      <trkpt lat="47.33819" lon="-2.42103">
        <ele>88.199996948242</ele>
        <time>2022-02-17T09:40:55.000Z</time>
      </trkpt>
      <trkpt lat="47.3382" lon="-2.42117">
        <ele>88.199996948242</ele>
        <time>2022-02-17T09:40:57.000Z</time>
      </trkpt>
      <trkpt lat="47.33822" lon="-2.4213">
        <ele>88.199996948242</ele>
        <time>2022-02-17T09:40:59.000Z</time>
      </trkpt>
      <trkpt lat="47.33826" lon="-2.42156">
        <ele>88.599998474121</ele>
        <time>2022-02-17T09:41:03.000Z</time>
      </trkpt>
      <trkpt lat="47.33827" lon="-2.42162">
        <ele>89</ele>
        <time>2022-02-17T09:41:04.000Z</time>
      </trkpt>
      <trkpt lat="47.33828" lon="-2.42169">
        <ele>89.400001525879</ele>
        <time>2022-02-17T09:41:05.000Z</time>
      </trkpt>
      <trkpt lat="47.33828" lon="-2.42176">
        <ele>89.800003051758</ele>
        <time>2022-02-17T09:41:06.000Z</time>
      </trkpt>
      <trkpt lat="47.33829" lon="-2.42182">
        <ele>90.199996948242</ele>
        <time>2022-02-17T09:41:07.000Z</time>
      </trkpt>
      <trkpt lat="47.33831" lon="-2.42194">
        <ele>90.199996948242</ele>
        <time>2022-02-17T09:41:09.000Z</time>
      </trkpt>
      <trkpt lat="47.33837" lon="-2.42234">
        <ele>90.800003051758</ele>
        <time>2022-02-17T09:41:16.000Z</time>
      </trkpt>
      <trkpt lat="47.33838" lon="-2.4224">
        <ele>91.199996948242</ele>
        <time>2022-02-17T09:41:17.000Z</time>
      </trkpt>
      <trkpt lat="47.33838" lon="-2.42245">
        <ele>91.599998474121</ele>
        <time>2022-02-17T09:41:18.000Z</time>
      </trkpt>
      <trkpt lat="47.33839" lon="-2.4225">
        <ele>92</ele>
        <time>2022-02-17T09:41:19.000Z</time>
      </trkpt>
      <trkpt lat="47.3384" lon="-2.42256">
        <ele>92.400001525879</ele>
        <time>2022-02-17T09:41:20.000Z</time>
      </trkpt>
      <trkpt lat="47.33843" lon="-2.42282">
        <ele>92.400001525879</ele>
        <time>2022-02-17T09:41:25.000Z</time>
      </trkpt>
      <trkpt lat="47.33844" lon="-2.42287">
        <ele>92.800003051758</ele>
        <time>2022-02-17T09:41:26.000Z</time>
      </trkpt>
      <trkpt lat="47.33845" lon="-2.42292">
        <ele>93.199996948242</ele>
        <time>2022-02-17T09:41:27.000Z</time>
      </trkpt>
      <trkpt lat="47.33846" lon="-2.42297">
        <ele>93.599998474121</ele>
        <time>2022-02-17T09:41:28.000Z</time>
      </trkpt>
      <trkpt lat="47.33847" lon="-2.42303">
        <ele>94</ele>
        <time>2022-02-17T09:41:29.000Z</time>
      </trkpt>
      <trkpt lat="47.33847" lon="-2.42308">
        <ele>94.400001525879</ele>
        <time>2022-02-17T09:41:30.000Z</time>
      </trkpt>
      <trkpt lat="47.33849" lon="-2.42319">
        <ele>94.400001525879</ele>
        <time>2022-02-17T09:41:32.000Z</time>
      </trkpt>
      <trkpt lat="47.33852" lon="-2.42364">
        <ele>94.400001525879</ele>
        <time>2022-02-17T09:41:40.000Z</time>
      </trkpt>
      <trkpt lat="47.33853" lon="-2.42376">
        <ele>94.400001525879</ele>
        <time>2022-02-17T09:41:42.000Z</time>
      </trkpt>
      <trkpt lat="47.33853" lon="-2.42401">
        <ele>94.400001525879</ele>
        <time>2022-02-17T09:41:46.000Z</time>
      </trkpt>
      <trkpt lat="47.33852" lon="-2.42425">
        <ele>94.400001525879</ele>
        <time>2022-02-17T09:41:50.000Z</time>
      </trkpt>
      <trkpt lat="47.3385" lon="-2.42436">
        <ele>94.400001525879</ele>
        <time>2022-02-17T09:41:52.000Z</time>
      </trkpt>
      <trkpt lat="47.33848" lon="-2.42448">
        <ele>94</ele>
        <time>2022-02-17T09:41:55.000Z</time>
      </trkpt>
      <trkpt lat="47.33849" lon="-2.4245">
        <ele>93.400001525879</ele>
        <time>2022-02-17T09:41:56.000Z</time>
      </trkpt>
      <trkpt lat="47.33849" lon="-2.42453">
        <ele>93</ele>
        <time>2022-02-17T09:41:57.000Z</time>
      </trkpt>
      <trkpt lat="47.3385" lon="-2.42457">
        <ele>92.599998474121</ele>
        <time>2022-02-17T09:41:58.000Z</time>
      </trkpt>
      <trkpt lat="47.3385" lon="-2.42461">
        <ele>92</ele>
        <time>2022-02-17T09:41:59.000Z</time>
      </trkpt>
      <trkpt lat="47.33849" lon="-2.42465">
        <ele>91.599998474121</ele>
        <time>2022-02-17T09:42:00.000Z</time>
      </trkpt>
      <trkpt lat="47.33849" lon="-2.42468">
        <ele>91</ele>
        <time>2022-02-17T09:42:01.000Z</time>
      </trkpt>
      <trkpt lat="47.33847" lon="-2.42473">
        <ele>90.400001525879</ele>
        <time>2022-02-17T09:42:02.000Z</time>
      </trkpt>
      <trkpt lat="47.33846" lon="-2.42478">
        <ele>90</ele>
        <time>2022-02-17T09:42:03.000Z</time>
      </trkpt>
      <trkpt lat="47.33844" lon="-2.42482">
        <ele>90</ele>
        <time>2022-02-17T09:42:04.000Z</time>
      </trkpt>
      <trkpt lat="47.33835" lon="-2.42516">
        <ele>90</ele>
        <time>2022-02-17T09:42:09.000Z</time>
      </trkpt>
      <trkpt lat="47.3383" lon="-2.42534">
        <ele>90</ele>
        <time>2022-02-17T09:42:12.000Z</time>
      </trkpt>
      <trkpt lat="47.33825" lon="-2.42552">
        <ele>90</ele>
        <time>2022-02-17T09:42:15.000Z</time>
      </trkpt>
      <trkpt lat="47.33822" lon="-2.42564">
        <ele>90.400001525879</ele>
        <time>2022-02-17T09:42:17.000Z</time>
      </trkpt>
      <trkpt lat="47.3382" lon="-2.42569">
        <ele>90.800003051758</ele>
        <time>2022-02-17T09:42:18.000Z</time>
      </trkpt>
      <trkpt lat="47.33818" lon="-2.42574">
        <ele>91.400001525879</ele>
        <time>2022-02-17T09:42:19.000Z</time>
      </trkpt>
      <trkpt lat="47.33816" lon="-2.4258">
        <ele>91.800003051758</ele>
        <time>2022-02-17T09:42:20.000Z</time>
      </trkpt>
      <trkpt lat="47.33815" lon="-2.42585">
        <ele>92.199996948242</ele>
        <time>2022-02-17T09:42:21.000Z</time>
      </trkpt>
      <trkpt lat="47.33813" lon="-2.4259">
        <ele>92.199996948242</ele>
        <time>2022-02-17T09:42:22.000Z</time>
      </trkpt>
      <trkpt lat="47.33811" lon="-2.42594">
        <ele>92.599998474121</ele>
        <time>2022-02-17T09:42:23.000Z</time>
      </trkpt>
      <trkpt lat="47.3381" lon="-2.42597">
        <ele>93</ele>
        <time>2022-02-17T09:42:24.000Z</time>
      </trkpt>
      <trkpt lat="47.33809" lon="-2.42601">
        <ele>93.400001525879</ele>
        <time>2022-02-17T09:42:25.000Z</time>
      </trkpt>
      <trkpt lat="47.33807" lon="-2.42606">
        <ele>94</ele>
        <time>2022-02-17T09:42:26.000Z</time>
      </trkpt>
      <trkpt lat="47.33806" lon="-2.42611">
        <ele>94.400001525879</ele>
        <time>2022-02-17T09:42:27.000Z</time>
      </trkpt>
      <trkpt lat="47.33798" lon="-2.42651">
        <ele>94.400001525879</ele>
        <time>2022-02-17T09:42:35.000Z</time>
      </trkpt>
      <trkpt lat="47.33791" lon="-2.42689">
        <ele>94.400001525879</ele>
        <time>2022-02-17T09:42:42.000Z</time>
      </trkpt>
      <trkpt lat="47.33787" lon="-2.42719">
        <ele>94.400001525879</ele>
        <time>2022-02-17T09:42:48.000Z</time>
      </trkpt>
      <trkpt lat="47.33782" lon="-2.42742">
        <ele>94.400001525879</ele>
        <time>2022-02-17T09:42:53.000Z</time>
      </trkpt>
      <trkpt lat="47.33778" lon="-2.42779">
        <ele>94.400001525879</ele>
        <time>2022-02-17T09:42:59.000Z</time>
      </trkpt>
      <trkpt lat="47.33778" lon="-2.42785">
        <ele>94.400001525879</ele>
        <time>2022-02-17T09:43:00.000Z</time>
      </trkpt>
      <trkpt lat="47.33778" lon="-2.42791">
        <ele>93.800003051758</ele>
        <time>2022-02-17T09:43:01.000Z</time>
      </trkpt>
      <trkpt lat="47.33778" lon="-2.42796">
        <ele>93.400001525879</ele>
        <time>2022-02-17T09:43:02.000Z</time>
      </trkpt>
      <trkpt lat="47.33778" lon="-2.42801">
        <ele>93</ele>
        <time>2022-02-17T09:43:03.000Z</time>
      </trkpt>
      <trkpt lat="47.33778" lon="-2.42805">
        <ele>92.199996948242</ele>
        <time>2022-02-17T09:43:04.000Z</time>
      </trkpt>
      <trkpt lat="47.33777" lon="-2.42811">
        <ele>92.199996948242</ele>
        <time>2022-02-17T09:43:06.000Z</time>
      </trkpt>
      <trkpt lat="47.33777" lon="-2.4282">
        <ele>92.199996948242</ele>
        <time>2022-02-17T09:43:10.000Z</time>
      </trkpt>
      <trkpt lat="47.33774" lon="-2.42843">
        <ele>92.199996948242</ele>
        <time>2022-02-17T09:43:15.000Z</time>
      </trkpt>
      <trkpt lat="47.33772" lon="-2.42874">
        <ele>92.199996948242</ele>
        <time>2022-02-17T09:43:21.000Z</time>
      </trkpt>
      <trkpt lat="47.3377" lon="-2.42911">
        <ele>92.199996948242</ele>
        <time>2022-02-17T09:43:28.000Z</time>
      </trkpt>
      <trkpt lat="47.3377" lon="-2.42921">
        <ele>92.599998474121</ele>
        <time>2022-02-17T09:43:30.000Z</time>
      </trkpt>
      <trkpt lat="47.3377" lon="-2.42926">
        <ele>93</ele>
        <time>2022-02-17T09:43:31.000Z</time>
      </trkpt>
      <trkpt lat="47.3377" lon="-2.42931">
        <ele>93.400001525879</ele>
        <time>2022-02-17T09:43:32.000Z</time>
      </trkpt>
      <trkpt lat="47.33769" lon="-2.42936">
        <ele>94</ele>
        <time>2022-02-17T09:43:33.000Z</time>
      </trkpt>
      <trkpt lat="47.33769" lon="-2.42942">
        <ele>94.400001525879</ele>
        <time>2022-02-17T09:43:34.000Z</time>
      </trkpt>
      <trkpt lat="47.33768" lon="-2.42957">
        <ele>94.400001525879</ele>
        <time>2022-02-17T09:43:37.000Z</time>
      </trkpt>
      <trkpt lat="47.33769" lon="-2.42982">
        <ele>94.400001525879</ele>
        <time>2022-02-17T09:43:43.000Z</time>
      </trkpt>
      <trkpt lat="47.33777" lon="-2.42992">
        <ele>94.400001525879</ele>
        <time>2022-02-17T09:43:47.000Z</time>
      </trkpt>
      <trkpt lat="47.33798" lon="-2.43007">
        <ele>94.400001525879</ele>
        <time>2022-02-17T09:43:54.000Z</time>
      </trkpt>
      <trkpt lat="47.33815" lon="-2.43023">
        <ele>94.400001525879</ele>
        <time>2022-02-17T09:43:59.000Z</time>
      </trkpt>
      <trkpt lat="47.33822" lon="-2.43032">
        <ele>94.400001525879</ele>
        <time>2022-02-17T09:44:01.000Z</time>
      </trkpt>
      <trkpt lat="47.33842" lon="-2.43057">
        <ele>94.400001525879</ele>
        <time>2022-02-17T09:44:08.000Z</time>
      </trkpt>
      <trkpt lat="47.33859" lon="-2.43087">
        <ele>94.400001525879</ele>
        <time>2022-02-17T09:44:15.000Z</time>
      </trkpt>
      <trkpt lat="47.33875" lon="-2.43116">
        <ele>94.400001525879</ele>
        <time>2022-02-17T09:44:22.000Z</time>
      </trkpt>
      <trkpt lat="47.33879" lon="-2.43134">
        <ele>94.400001525879</ele>
        <time>2022-02-17T09:44:26.000Z</time>
      </trkpt>
      <trkpt lat="47.33882" lon="-2.43136">
        <ele>94.400001525879</ele>
        <time>2022-02-17T09:44:27.000Z</time>
      </trkpt>
      <trkpt lat="47.33892" lon="-2.43136">
        <ele>94.400001525879</ele>
        <time>2022-02-17T09:44:30.000Z</time>
      </trkpt>
      <trkpt lat="47.33896" lon="-2.43136">
        <ele>94.400001525879</ele>
        <time>2022-02-17T09:44:31.000Z</time>
      </trkpt>
      <trkpt lat="47.33911" lon="-2.43134">
        <ele>94.400001525879</ele>
        <time>2022-02-17T09:44:36.000Z</time>
      </trkpt>
      <trkpt lat="47.33916" lon="-2.43134">
        <ele>94.400001525879</ele>
        <time>2022-02-17T09:44:39.000Z</time>
      </trkpt>
      <trkpt lat="47.33917" lon="-2.43135">
        <ele>94.400001525879</ele>
        <time>2022-02-17T09:44:40.000Z</time>
      </trkpt>
      <trkpt lat="47.33916" lon="-2.43145">
        <ele>94.400001525879</ele>
        <time>2022-02-17T09:44:44.000Z</time>
      </trkpt>
      <trkpt lat="47.33911" lon="-2.43141">
        <ele>94.400001525879</ele>
        <time>2022-02-17T09:44:47.000Z</time>
      </trkpt>
      <trkpt lat="47.33904" lon="-2.43136">
        <ele>94.400001525879</ele>
        <time>2022-02-17T09:44:51.000Z</time>
      </trkpt>
      <trkpt lat="47.33902" lon="-2.43136">
        <ele>94.400001525879</ele>
        <time>2022-02-17T09:44:52.000Z</time>
      </trkpt>
      <trkpt lat="47.33893" lon="-2.4314">
        <ele>94.400001525879</ele>
        <time>2022-02-17T09:44:55.000Z</time>
      </trkpt>
      <trkpt lat="47.33875" lon="-2.43149">
        <ele>94.400001525879</ele>
        <time>2022-02-17T09:45:01.000Z</time>
      </trkpt>
      <trkpt lat="47.33854" lon="-2.43161">
        <ele>94.400001525879</ele>
        <time>2022-02-17T09:45:06.000Z</time>
      </trkpt>
      <trkpt lat="47.33831" lon="-2.4317">
        <ele>94.400001525879</ele>
        <time>2022-02-17T09:45:11.000Z</time>
      </trkpt>
      <trkpt lat="47.33803" lon="-2.43186">
        <ele>94.400001525879</ele>
        <time>2022-02-17T09:45:17.000Z</time>
      </trkpt>
      <trkpt lat="47.3379" lon="-2.43195">
        <ele>94.400001525879</ele>
        <time>2022-02-17T09:45:20.000Z</time>
      </trkpt>
      <trkpt lat="47.33781" lon="-2.432">
        <ele>94.400001525879</ele>
        <time>2022-02-17T09:45:22.000Z</time>
      </trkpt>
      <trkpt lat="47.33761" lon="-2.4321">
        <ele>94.800003051758</ele>
        <time>2022-02-17T09:45:27.000Z</time>
      </trkpt>
      <trkpt lat="47.33756" lon="-2.43212">
        <ele>95.199996948242</ele>
        <time>2022-02-17T09:45:28.000Z</time>
      </trkpt>
      <trkpt lat="47.33752" lon="-2.43214">
        <ele>95.599998474121</ele>
        <time>2022-02-17T09:45:29.000Z</time>
      </trkpt>
      <trkpt lat="47.33747" lon="-2.43215">
        <ele>96</ele>
        <time>2022-02-17T09:45:30.000Z</time>
      </trkpt>
      <trkpt lat="47.33743" lon="-2.43217">
        <ele>96.400001525879</ele>
        <time>2022-02-17T09:45:31.000Z</time>
      </trkpt>
      <trkpt lat="47.33718" lon="-2.43224">
        <ele>96.400001525879</ele>
        <time>2022-02-17T09:45:36.000Z</time>
      </trkpt>
      <trkpt lat="47.33692" lon="-2.43235">
        <ele>96.400001525879</ele>
        <time>2022-02-17T09:45:41.000Z</time>
      </trkpt>
      <trkpt lat="47.33667" lon="-2.43251">
        <ele>96.400001525879</ele>
        <time>2022-02-17T09:45:46.000Z</time>
      </trkpt>
      <trkpt lat="47.33627" lon="-2.43281">
        <ele>96.400001525879</ele>
        <time>2022-02-17T09:45:54.000Z</time>
      </trkpt>
      <trkpt lat="47.33609" lon="-2.43293">
        <ele>96.400001525879</ele>
        <time>2022-02-17T09:45:58.000Z</time>
      </trkpt>
      <trkpt lat="47.33597" lon="-2.43305">
        <ele>96.400001525879</ele>
        <time>2022-02-17T09:46:01.000Z</time>
      </trkpt>
      <trkpt lat="47.33585" lon="-2.43316">
        <ele>96.400001525879</ele>
        <time>2022-02-17T09:46:04.000Z</time>
      </trkpt>
      <trkpt lat="47.33578" lon="-2.43323">
        <ele>96.400001525879</ele>
        <time>2022-02-17T09:46:06.000Z</time>
      </trkpt>
      <trkpt lat="47.33575" lon="-2.43325">
        <ele>96.400001525879</ele>
        <time>2022-02-17T09:46:07.000Z</time>
      </trkpt>
      <trkpt lat="47.33567" lon="-2.43324">
        <ele>96.400001525879</ele>
        <time>2022-02-17T09:46:09.000Z</time>
      </trkpt>
      <trkpt lat="47.3356" lon="-2.43319">
        <ele>96.400001525879</ele>
        <time>2022-02-17T09:46:11.000Z</time>
      </trkpt>
      <trkpt lat="47.33546" lon="-2.43314">
        <ele>96.400001525879</ele>
        <time>2022-02-17T09:46:14.000Z</time>
      </trkpt>
      <trkpt lat="47.33542" lon="-2.43311">
        <ele>96.400001525879</ele>
        <time>2022-02-17T09:46:15.000Z</time>
      </trkpt>
      <trkpt lat="47.33516" lon="-2.43295">
        <ele>96.400001525879</ele>
        <time>2022-02-17T09:46:21.000Z</time>
      </trkpt>
      <trkpt lat="47.33479" lon="-2.43275">
        <ele>96.400001525879</ele>
        <time>2022-02-17T09:46:29.000Z</time>
      </trkpt>
      <trkpt lat="47.3345" lon="-2.43264">
        <ele>96.400001525879</ele>
        <time>2022-02-17T09:46:35.000Z</time>
      </trkpt>
      <trkpt lat="47.33445" lon="-2.43265">
        <ele>96.400001525879</ele>
        <time>2022-02-17T09:46:36.000Z</time>
      </trkpt>
      <trkpt lat="47.33438" lon="-2.43277">
        <ele>96.400001525879</ele>
        <time>2022-02-17T09:46:38.000Z</time>
      </trkpt>
      <trkpt lat="47.33435" lon="-2.43291">
        <ele>96.400001525879</ele>
        <time>2022-02-17T09:46:40.000Z</time>
      </trkpt>
      <trkpt lat="47.33431" lon="-2.43313">
        <ele>96.400001525879</ele>
        <time>2022-02-17T09:46:43.000Z</time>
      </trkpt>
      <trkpt lat="47.33416" lon="-2.43373">
        <ele>96.400001525879</ele>
        <time>2022-02-17T09:46:51.000Z</time>
      </trkpt>
      <trkpt lat="47.33406" lon="-2.43418">
        <ele>96.400001525879</ele>
        <time>2022-02-17T09:46:58.000Z</time>
      </trkpt>
      <trkpt lat="47.33406" lon="-2.43424">
        <ele>96.400001525879</ele>
        <time>2022-02-17T09:46:59.000Z</time>
      </trkpt>
      <trkpt lat="47.33409" lon="-2.43445">
        <ele>96.400001525879</ele>
        <time>2022-02-17T09:47:02.000Z</time>
      </trkpt>
      <trkpt lat="47.33411" lon="-2.43451">
        <ele>96.400001525879</ele>
        <time>2022-02-17T09:47:03.000Z</time>
      </trkpt>
      <trkpt lat="47.33413" lon="-2.43464">
        <ele>96.400001525879</ele>
        <time>2022-02-17T09:47:05.000Z</time>
      </trkpt>
      <trkpt lat="47.33419" lon="-2.4349">
        <ele>96.400001525879</ele>
        <time>2022-02-17T09:47:09.000Z</time>
      </trkpt>
      <trkpt lat="47.33421" lon="-2.43503">
        <ele>96.800003051758</ele>
        <time>2022-02-17T09:47:11.000Z</time>
      </trkpt>
      <trkpt lat="47.33422" lon="-2.4351">
        <ele>97.199996948242</ele>
        <time>2022-02-17T09:47:12.000Z</time>
      </trkpt>
      <trkpt lat="47.33422" lon="-2.43517">
        <ele>97.599998474121</ele>
        <time>2022-02-17T09:47:13.000Z</time>
      </trkpt>
      <trkpt lat="47.33422" lon="-2.43523">
        <ele>98</ele>
        <time>2022-02-17T09:47:14.000Z</time>
      </trkpt>
      <trkpt lat="47.33422" lon="-2.4353">
        <ele>98.400001525879</ele>
        <time>2022-02-17T09:47:15.000Z</time>
      </trkpt>
      <trkpt lat="47.33416" lon="-2.43578">
        <ele>98.400001525879</ele>
        <time>2022-02-17T09:47:22.000Z</time>
      </trkpt>
      <trkpt lat="47.33412" lon="-2.43609">
        <ele>98.400001525879</ele>
        <time>2022-02-17T09:47:27.000Z</time>
      </trkpt>
      <trkpt lat="47.33408" lon="-2.43621">
        <ele>98.400001525879</ele>
        <time>2022-02-17T09:47:29.000Z</time>
      </trkpt>
      <trkpt lat="47.33402" lon="-2.43634">
        <ele>98.400001525879</ele>
        <time>2022-02-17T09:47:31.000Z</time>
      </trkpt>
      <trkpt lat="47.3339" lon="-2.43657">
        <ele>98.400001525879</ele>
        <time>2022-02-17T09:47:35.000Z</time>
      </trkpt>
      <trkpt lat="47.3337" lon="-2.43677">
        <ele>98.400001525879</ele>
        <time>2022-02-17T09:47:40.000Z</time>
      </trkpt>
      <trkpt lat="47.3336" lon="-2.43682">
        <ele>98.400001525879</ele>
        <time>2022-02-17T09:47:42.000Z</time>
      </trkpt>
      <trkpt lat="47.33355" lon="-2.43685">
        <ele>98.400001525879</ele>
        <time>2022-02-17T09:47:43.000Z</time>
      </trkpt>
      <trkpt lat="47.33346" lon="-2.4369">
        <ele>98.400001525879</ele>
        <time>2022-02-17T09:47:45.000Z</time>
      </trkpt>
      <trkpt lat="47.33327" lon="-2.437">
        <ele>98.400001525879</ele>
        <time>2022-02-17T09:47:49.000Z</time>
      </trkpt>
      <trkpt lat="47.33323" lon="-2.43704">
        <ele>98.400001525879</ele>
        <time>2022-02-17T09:47:50.000Z</time>
      </trkpt>
      <trkpt lat="47.333" lon="-2.43734">
        <ele>98.400001525879</ele>
        <time>2022-02-17T09:47:57.000Z</time>
      </trkpt>
      <trkpt lat="47.33294" lon="-2.43758">
        <ele>98.400001525879</ele>
        <time>2022-02-17T09:48:01.000Z</time>
      </trkpt>
      <trkpt lat="47.33296" lon="-2.43771">
        <ele>98.400001525879</ele>
        <time>2022-02-17T09:48:03.000Z</time>
      </trkpt>
      <trkpt lat="47.33299" lon="-2.4379">
        <ele>98.400001525879</ele>
        <time>2022-02-17T09:48:06.000Z</time>
      </trkpt>
      <trkpt lat="47.33308" lon="-2.43833">
        <ele>98.400001525879</ele>
        <time>2022-02-17T09:48:13.000Z</time>
      </trkpt>
      <trkpt lat="47.33323" lon="-2.4384">
        <ele>98.400001525879</ele>
        <time>2022-02-17T09:48:17.000Z</time>
      </trkpt>
      <trkpt lat="47.3334" lon="-2.43833">
        <ele>98.400001525879</ele>
        <time>2022-02-17T09:48:21.000Z</time>
      </trkpt>
      <trkpt lat="47.33347" lon="-2.43829">
        <ele>98.400001525879</ele>
        <time>2022-02-17T09:48:23.000Z</time>
      </trkpt>
      <trkpt lat="47.33356" lon="-2.43823">
        <ele>98.400001525879</ele>
        <time>2022-02-17T09:48:26.000Z</time>
      </trkpt>
      <trkpt lat="47.33359" lon="-2.43823">
        <ele>98.400001525879</ele>
        <time>2022-02-17T09:48:27.000Z</time>
      </trkpt>
      <trkpt lat="47.33365" lon="-2.43827">
        <ele>98.400001525879</ele>
        <time>2022-02-17T09:48:30.000Z</time>
      </trkpt>
      <trkpt lat="47.33374" lon="-2.43843">
        <ele>98.400001525879</ele>
        <time>2022-02-17T09:48:34.000Z</time>
      </trkpt>
      <trkpt lat="47.33394" lon="-2.43877">
        <ele>98.400001525879</ele>
        <time>2022-02-17T09:48:42.000Z</time>
      </trkpt>
      <trkpt lat="47.33413" lon="-2.43909">
        <ele>98.400001525879</ele>
        <time>2022-02-17T09:48:50.000Z</time>
      </trkpt>
      <trkpt lat="47.33429" lon="-2.43934">
        <ele>98.400001525879</ele>
        <time>2022-02-17T09:48:55.000Z</time>
      </trkpt>
      <trkpt lat="47.33432" lon="-2.43939">
        <ele>98.400001525879</ele>
        <time>2022-02-17T09:48:56.000Z</time>
      </trkpt>
      <trkpt lat="47.33454" lon="-2.43974">
        <ele>98.400001525879</ele>
        <time>2022-02-17T09:49:03.000Z</time>
      </trkpt>
      <trkpt lat="47.33468" lon="-2.43997">
        <ele>98.400001525879</ele>
        <time>2022-02-17T09:49:07.000Z</time>
      </trkpt>
      <trkpt lat="47.33476" lon="-2.44009">
        <ele>98.400001525879</ele>
        <time>2022-02-17T09:49:09.000Z</time>
      </trkpt>
      <trkpt lat="47.33504" lon="-2.44056">
        <ele>98.400001525879</ele>
        <time>2022-02-17T09:49:17.000Z</time>
      </trkpt>
      <trkpt lat="47.33507" lon="-2.44075">
        <ele>98.400001525879</ele>
        <time>2022-02-17T09:49:20.000Z</time>
      </trkpt>
      <trkpt lat="47.3351" lon="-2.44107">
        <ele>98.400001525879</ele>
        <time>2022-02-17T09:49:26.000Z</time>
      </trkpt>
      <trkpt lat="47.33516" lon="-2.44114">
        <ele>98.800003051758</ele>
        <time>2022-02-17T09:49:28.000Z</time>
      </trkpt>
      <trkpt lat="47.3352" lon="-2.44117">
        <ele>99.199996948242</ele>
        <time>2022-02-17T09:49:29.000Z</time>
      </trkpt>
      <trkpt lat="47.33524" lon="-2.44121">
        <ele>99.599998474121</ele>
        <time>2022-02-17T09:49:30.000Z</time>
      </trkpt>
      <trkpt lat="47.33528" lon="-2.44125">
        <ele>100</ele>
        <time>2022-02-17T09:49:31.000Z</time>
      </trkpt>
      <trkpt lat="47.33533" lon="-2.44129">
        <ele>100.40000152588</ele>
        <time>2022-02-17T09:49:32.000Z</time>
      </trkpt>
      <trkpt lat="47.33537" lon="-2.44132">
        <ele>100.40000152588</ele>
        <time>2022-02-17T09:49:33.000Z</time>
      </trkpt>
      <trkpt lat="47.33546" lon="-2.44139">
        <ele>100.40000152588</ele>
        <time>2022-02-17T09:49:35.000Z</time>
      </trkpt>
      <trkpt lat="47.33581" lon="-2.44166">
        <ele>100.40000152588</ele>
        <time>2022-02-17T09:49:42.000Z</time>
      </trkpt>
      <trkpt lat="47.33624" lon="-2.442">
        <ele>100.40000152588</ele>
        <time>2022-02-17T09:49:50.000Z</time>
      </trkpt>
      <trkpt lat="47.33663" lon="-2.44233">
        <ele>100.40000152588</ele>
        <time>2022-02-17T09:49:57.000Z</time>
      </trkpt>
      <trkpt lat="47.33697" lon="-2.44265">
        <ele>100.40000152588</ele>
        <time>2022-02-17T09:50:03.000Z</time>
      </trkpt>
      <trkpt lat="47.33732" lon="-2.44302">
        <ele>100.40000152588</ele>
        <time>2022-02-17T09:50:10.000Z</time>
      </trkpt>
      <trkpt lat="47.33742" lon="-2.44311">
        <ele>100.40000152588</ele>
        <time>2022-02-17T09:50:12.000Z</time>
      </trkpt>
      <trkpt lat="47.33759" lon="-2.44322">
        <ele>100.40000152588</ele>
        <time>2022-02-17T09:50:15.000Z</time>
      </trkpt>
      <trkpt lat="47.33765" lon="-2.44325">
        <ele>100.40000152588</ele>
        <time>2022-02-17T09:50:16.000Z</time>
      </trkpt>
      <trkpt lat="47.33807" lon="-2.44339">
        <ele>100.40000152588</ele>
        <time>2022-02-17T09:50:23.000Z</time>
      </trkpt>
      <trkpt lat="47.33831" lon="-2.44345">
        <ele>100.40000152588</ele>
        <time>2022-02-17T09:50:27.000Z</time>
      </trkpt>
      <trkpt lat="47.33848" lon="-2.44351">
        <ele>99.599998474121</ele>
        <time>2022-02-17T09:50:30.000Z</time>
      </trkpt>
      <trkpt lat="47.33854" lon="-2.44351">
        <ele>99.199996948242</ele>
        <time>2022-02-17T09:50:31.000Z</time>
      </trkpt>
      <trkpt lat="47.33859" lon="-2.44352">
        <ele>98.800003051758</ele>
        <time>2022-02-17T09:50:32.000Z</time>
      </trkpt>
      <trkpt lat="47.33864" lon="-2.44353">
        <ele>98.400001525879</ele>
        <time>2022-02-17T09:50:33.000Z</time>
      </trkpt>
      <trkpt lat="47.33887" lon="-2.44352">
        <ele>98.400001525879</ele>
        <time>2022-02-17T09:50:37.000Z</time>
      </trkpt>
      <trkpt lat="47.3392" lon="-2.44355">
        <ele>98.400001525879</ele>
        <time>2022-02-17T09:50:42.000Z</time>
      </trkpt>
      <trkpt lat="47.33926" lon="-2.44357">
        <ele>98.400001525879</ele>
        <time>2022-02-17T09:50:43.000Z</time>
      </trkpt>
      <trkpt lat="47.33933" lon="-2.44361">
        <ele>98.400001525879</ele>
        <time>2022-02-17T09:50:44.000Z</time>
      </trkpt>
      <trkpt lat="47.33939" lon="-2.44364">
        <ele>98</ele>
        <time>2022-02-17T09:50:45.000Z</time>
      </trkpt>
      <trkpt lat="47.33945" lon="-2.44368">
        <ele>97.400001525879</ele>
        <time>2022-02-17T09:50:46.000Z</time>
      </trkpt>
      <trkpt lat="47.33952" lon="-2.44373">
        <ele>97</ele>
        <time>2022-02-17T09:50:47.000Z</time>
      </trkpt>
      <trkpt lat="47.33959" lon="-2.44377">
        <ele>96.400001525879</ele>
        <time>2022-02-17T09:50:48.000Z</time>
      </trkpt>
      <trkpt lat="47.33966" lon="-2.44381">
        <ele>96</ele>
        <time>2022-02-17T09:50:49.000Z</time>
      </trkpt>
      <trkpt lat="47.33997" lon="-2.44401">
        <ele>95.599998474121</ele>
        <time>2022-02-17T09:50:54.000Z</time>
      </trkpt>
      <trkpt lat="47.34003" lon="-2.44405">
        <ele>95.199996948242</ele>
        <time>2022-02-17T09:50:55.000Z</time>
      </trkpt>
      <trkpt lat="47.34009" lon="-2.44408">
        <ele>94.800003051758</ele>
        <time>2022-02-17T09:50:56.000Z</time>
      </trkpt>
      <trkpt lat="47.34015" lon="-2.44412">
        <ele>94.400001525879</ele>
        <time>2022-02-17T09:50:57.000Z</time>
      </trkpt>
      <trkpt lat="47.34021" lon="-2.44416">
        <ele>94</ele>
        <time>2022-02-17T09:50:58.000Z</time>
      </trkpt>
      <trkpt lat="47.34032" lon="-2.44426">
        <ele>94</ele>
        <time>2022-02-17T09:51:00.000Z</time>
      </trkpt>
      <trkpt lat="47.34042" lon="-2.44439">
        <ele>93.599998474121</ele>
        <time>2022-02-17T09:51:02.000Z</time>
      </trkpt>
      <trkpt lat="47.34047" lon="-2.44446">
        <ele>93.199996948242</ele>
        <time>2022-02-17T09:51:03.000Z</time>
      </trkpt>
      <trkpt lat="47.3405" lon="-2.44453">
        <ele>92.800003051758</ele>
        <time>2022-02-17T09:51:04.000Z</time>
      </trkpt>
      <trkpt lat="47.34053" lon="-2.44461">
        <ele>92.400001525879</ele>
        <time>2022-02-17T09:51:05.000Z</time>
      </trkpt>
      <trkpt lat="47.34055" lon="-2.44468">
        <ele>92</ele>
        <time>2022-02-17T09:51:06.000Z</time>
      </trkpt>
      <trkpt lat="47.34055" lon="-2.44483">
        <ele>92</ele>
        <time>2022-02-17T09:51:08.000Z</time>
      </trkpt>
      <trkpt lat="47.34055" lon="-2.44491">
        <ele>92</ele>
        <time>2022-02-17T09:51:09.000Z</time>
      </trkpt>
      <trkpt lat="47.34055" lon="-2.44522">
        <ele>92</ele>
        <time>2022-02-17T09:51:13.000Z</time>
      </trkpt>
      <trkpt lat="47.34055" lon="-2.4453">
        <ele>92</ele>
        <time>2022-02-17T09:51:14.000Z</time>
      </trkpt>
      <trkpt lat="47.34055" lon="-2.44579">
        <ele>92</ele>
        <time>2022-02-17T09:51:20.000Z</time>
      </trkpt>
      <trkpt lat="47.34052" lon="-2.44644">
        <ele>92.400001525879</ele>
        <time>2022-02-17T09:51:27.000Z</time>
      </trkpt>
      <trkpt lat="47.34051" lon="-2.44652">
        <ele>92.800003051758</ele>
        <time>2022-02-17T09:51:28.000Z</time>
      </trkpt>
      <trkpt lat="47.34051" lon="-2.44661">
        <ele>93.199996948242</ele>
        <time>2022-02-17T09:51:29.000Z</time>
      </trkpt>
      <trkpt lat="47.34049" lon="-2.44669">
        <ele>93.599998474121</ele>
        <time>2022-02-17T09:51:30.000Z</time>
      </trkpt>
      <trkpt lat="47.34049" lon="-2.44679">
        <ele>94</ele>
        <time>2022-02-17T09:51:31.000Z</time>
      </trkpt>
      <trkpt lat="47.34042" lon="-2.4472">
        <ele>94</ele>
        <time>2022-02-17T09:51:36.000Z</time>
      </trkpt>
      <trkpt lat="47.34033" lon="-2.44771">
        <ele>94</ele>
        <time>2022-02-17T09:51:43.000Z</time>
      </trkpt>
      <trkpt lat="47.34029" lon="-2.44786">
        <ele>94.400001525879</ele>
        <time>2022-02-17T09:51:45.000Z</time>
      </trkpt>
      <trkpt lat="47.34027" lon="-2.44793">
        <ele>94.800003051758</ele>
        <time>2022-02-17T09:51:46.000Z</time>
      </trkpt>
      <trkpt lat="47.34025" lon="-2.448">
        <ele>95.199996948242</ele>
        <time>2022-02-17T09:51:47.000Z</time>
      </trkpt>
      <trkpt lat="47.34023" lon="-2.44808">
        <ele>95.599998474121</ele>
        <time>2022-02-17T09:51:48.000Z</time>
      </trkpt>
      <trkpt lat="47.34021" lon="-2.44814">
        <ele>96.199996948242</ele>
        <time>2022-02-17T09:51:49.000Z</time>
      </trkpt>
      <trkpt lat="47.34017" lon="-2.44827">
        <ele>96.199996948242</ele>
        <time>2022-02-17T09:51:51.000Z</time>
      </trkpt>
      <trkpt lat="47.34005" lon="-2.44867">
        <ele>96.199996948242</ele>
        <time>2022-02-17T09:51:57.000Z</time>
      </trkpt>
      <trkpt lat="47.33995" lon="-2.44919">
        <ele>96.199996948242</ele>
        <time>2022-02-17T09:52:04.000Z</time>
      </trkpt>
      <trkpt lat="47.3399" lon="-2.44956">
        <ele>96.199996948242</ele>
        <time>2022-02-17T09:52:09.000Z</time>
      </trkpt>
      <trkpt lat="47.3399" lon="-2.44972">
        <ele>96.199996948242</ele>
        <time>2022-02-17T09:52:11.000Z</time>
      </trkpt>
      <trkpt lat="47.33995" lon="-2.45003">
        <ele>96.199996948242</ele>
        <time>2022-02-17T09:52:15.000Z</time>
      </trkpt>
      <trkpt lat="47.34004" lon="-2.45046">
        <ele>96.199996948242</ele>
        <time>2022-02-17T09:52:21.000Z</time>
      </trkpt>
      <trkpt lat="47.34016" lon="-2.45091">
        <ele>96.199996948242</ele>
        <time>2022-02-17T09:52:27.000Z</time>
      </trkpt>
      <trkpt lat="47.34018" lon="-2.45098">
        <ele>96.599998474121</ele>
        <time>2022-02-17T09:52:28.000Z</time>
      </trkpt>
      <trkpt lat="47.34021" lon="-2.45104">
        <ele>97</ele>
        <time>2022-02-17T09:52:29.000Z</time>
      </trkpt>
      <trkpt lat="47.34023" lon="-2.45111">
        <ele>97.400001525879</ele>
        <time>2022-02-17T09:52:30.000Z</time>
      </trkpt>
      <trkpt lat="47.34025" lon="-2.45118">
        <ele>97.800003051758</ele>
        <time>2022-02-17T09:52:31.000Z</time>
      </trkpt>
      <trkpt lat="47.34028" lon="-2.45126">
        <ele>98.199996948242</ele>
        <time>2022-02-17T09:52:32.000Z</time>
      </trkpt>
      <trkpt lat="47.34035" lon="-2.45148">
        <ele>98.199996948242</ele>
        <time>2022-02-17T09:52:35.000Z</time>
      </trkpt>
      <trkpt lat="47.34047" lon="-2.45194">
        <ele>98.199996948242</ele>
        <time>2022-02-17T09:52:41.000Z</time>
      </trkpt>
      <trkpt lat="47.34058" lon="-2.45232">
        <ele>98.199996948242</ele>
        <time>2022-02-17T09:52:47.000Z</time>
      </trkpt>
      <trkpt lat="47.34064" lon="-2.45251">
        <ele>98.199996948242</ele>
        <time>2022-02-17T09:52:52.000Z</time>
      </trkpt>
      <trkpt lat="47.34071" lon="-2.45256">
        <ele>98.199996948242</ele>
        <time>2022-02-17T09:52:55.000Z</time>
      </trkpt>
      <trkpt lat="47.34074" lon="-2.45253">
        <ele>98.199996948242</ele>
        <time>2022-02-17T09:52:56.000Z</time>
      </trkpt>
      <trkpt lat="47.34096" lon="-2.45236">
        <ele>98.199996948242</ele>
        <time>2022-02-17T09:53:01.000Z</time>
      </trkpt>
      <trkpt lat="47.341" lon="-2.45233">
        <ele>98.599998474121</ele>
        <time>2022-02-17T09:53:02.000Z</time>
      </trkpt>
      <trkpt lat="47.34105" lon="-2.4523">
        <ele>99</ele>
        <time>2022-02-17T09:53:03.000Z</time>
      </trkpt>
      <trkpt lat="47.34109" lon="-2.45226">
        <ele>99.400001525879</ele>
        <time>2022-02-17T09:53:04.000Z</time>
      </trkpt>
      <trkpt lat="47.34112" lon="-2.45223">
        <ele>99.800003051758</ele>
        <time>2022-02-17T09:53:05.000Z</time>
      </trkpt>
      <trkpt lat="47.34116" lon="-2.4522">
        <ele>100.19999694824</ele>
        <time>2022-02-17T09:53:06.000Z</time>
      </trkpt>
      <trkpt lat="47.34126" lon="-2.45213">
        <ele>100.19999694824</ele>
        <time>2022-02-17T09:53:09.000Z</time>
      </trkpt>
      <trkpt lat="47.34136" lon="-2.45214">
        <ele>100.19999694824</ele>
        <time>2022-02-17T09:53:12.000Z</time>
      </trkpt>
      <trkpt lat="47.34139" lon="-2.45219">
        <ele>100.19999694824</ele>
        <time>2022-02-17T09:53:13.000Z</time>
      </trkpt>
      <trkpt lat="47.34144" lon="-2.45245">
        <ele>100.19999694824</ele>
        <time>2022-02-17T09:53:17.000Z</time>
      </trkpt>
      <trkpt lat="47.34151" lon="-2.45297">
        <ele>100.19999694824</ele>
        <time>2022-02-17T09:53:24.000Z</time>
      </trkpt>
      <trkpt lat="47.34157" lon="-2.45344">
        <ele>100.19999694824</ele>
        <time>2022-02-17T09:53:32.000Z</time>
      </trkpt>
      <trkpt lat="47.34158" lon="-2.45351">
        <ele>100.19999694824</ele>
        <time>2022-02-17T09:53:36.000Z</time>
      </trkpt>
      <trkpt lat="47.34158" lon="-2.45351">
        <ele>100.19999694824</ele>
        <time>2022-02-17T09:53:37.000Z</time>
      </trkpt>
      <trkpt lat="47.34157" lon="-2.45351">
        <ele>100.19999694824</ele>
        <time>2022-02-17T09:53:44.000Z</time>
      </trkpt>
      <trkpt lat="47.34156" lon="-2.45348">
        <ele>100.19999694824</ele>
        <time>2022-02-17T09:53:46.000Z</time>
      </trkpt>
      <trkpt lat="47.34155" lon="-2.45335">
        <ele>100.19999694824</ele>
        <time>2022-02-17T09:53:50.000Z</time>
      </trkpt>
      <trkpt lat="47.34149" lon="-2.45296">
        <ele>100.19999694824</ele>
        <time>2022-02-17T09:53:58.000Z</time>
      </trkpt>
      <trkpt lat="47.34144" lon="-2.45247">
        <ele>100.19999694824</ele>
        <time>2022-02-17T09:54:07.000Z</time>
      </trkpt>
      <trkpt lat="47.34139" lon="-2.4521">
        <ele>100.19999694824</ele>
        <time>2022-02-17T09:54:14.000Z</time>
      </trkpt>
      <trkpt lat="47.34143" lon="-2.45201">
        <ele>100.19999694824</ele>
        <time>2022-02-17T09:54:16.000Z</time>
      </trkpt>
      <trkpt lat="47.34147" lon="-2.45198">
        <ele>100.19999694824</ele>
        <time>2022-02-17T09:54:17.000Z</time>
      </trkpt>
      <trkpt lat="47.3417" lon="-2.4518">
        <ele>100.19999694824</ele>
        <time>2022-02-17T09:54:22.000Z</time>
      </trkpt>
      <trkpt lat="47.34208" lon="-2.45151">
        <ele>100.19999694824</ele>
        <time>2022-02-17T09:54:29.000Z</time>
      </trkpt>
      <trkpt lat="47.3426" lon="-2.45113">
        <ele>100.19999694824</ele>
        <time>2022-02-17T09:54:38.000Z</time>
      </trkpt>
      <trkpt lat="47.34265" lon="-2.45108">
        <ele>100.19999694824</ele>
        <time>2022-02-17T09:54:39.000Z</time>
      </trkpt>
      <trkpt lat="47.34315" lon="-2.45068">
        <ele>100.19999694824</ele>
        <time>2022-02-17T09:54:48.000Z</time>
      </trkpt>
      <trkpt lat="47.34349" lon="-2.4503">
        <ele>100.19999694824</ele>
        <time>2022-02-17T09:54:55.000Z</time>
      </trkpt>
      <trkpt lat="47.34388" lon="-2.44989">
        <ele>100.19999694824</ele>
        <time>2022-02-17T09:55:04.000Z</time>
      </trkpt>
      <trkpt lat="47.34392" lon="-2.44986">
        <ele>100.19999694824</ele>
        <time>2022-02-17T09:55:05.000Z</time>
      </trkpt>
      <trkpt lat="47.34402" lon="-2.44987">
        <ele>100.19999694824</ele>
        <time>2022-02-17T09:55:07.000Z</time>
      </trkpt>
      <trkpt lat="47.34413" lon="-2.45005">
        <ele>100.19999694824</ele>
        <time>2022-02-17T09:55:10.000Z</time>
      </trkpt>
      <trkpt lat="47.34415" lon="-2.45012">
        <ele>100.19999694824</ele>
        <time>2022-02-17T09:55:11.000Z</time>
      </trkpt>
      <trkpt lat="47.34431" lon="-2.4505">
        <ele>100.19999694824</ele>
        <time>2022-02-17T09:55:16.000Z</time>
      </trkpt>
      <trkpt lat="47.34438" lon="-2.45066">
        <ele>99.800003051758</ele>
        <time>2022-02-17T09:55:18.000Z</time>
      </trkpt>
      <trkpt lat="47.34442" lon="-2.45074">
        <ele>99.400001525879</ele>
        <time>2022-02-17T09:55:19.000Z</time>
      </trkpt>
      <trkpt lat="47.34446" lon="-2.45082">
        <ele>98.800003051758</ele>
        <time>2022-02-17T09:55:20.000Z</time>
      </trkpt>
      <trkpt lat="47.3445" lon="-2.4509">
        <ele>98.400001525879</ele>
        <time>2022-02-17T09:55:21.000Z</time>
      </trkpt>
      <trkpt lat="47.34453" lon="-2.45098">
        <ele>98</ele>
        <time>2022-02-17T09:55:22.000Z</time>
      </trkpt>
      <trkpt lat="47.34461" lon="-2.45114">
        <ele>98</ele>
        <time>2022-02-17T09:55:24.000Z</time>
      </trkpt>
      <trkpt lat="47.34475" lon="-2.45139">
        <ele>98</ele>
        <time>2022-02-17T09:55:27.000Z</time>
      </trkpt>
      <trkpt lat="47.34487" lon="-2.45153">
        <ele>98</ele>
        <time>2022-02-17T09:55:29.000Z</time>
      </trkpt>
      <trkpt lat="47.34493" lon="-2.4516">
        <ele>97.599998474121</ele>
        <time>2022-02-17T09:55:30.000Z</time>
      </trkpt>
      <trkpt lat="47.34499" lon="-2.45168">
        <ele>97.199996948242</ele>
        <time>2022-02-17T09:55:31.000Z</time>
      </trkpt>
      <trkpt lat="47.34506" lon="-2.45175">
        <ele>96.800003051758</ele>
        <time>2022-02-17T09:55:32.000Z</time>
      </trkpt>
      <trkpt lat="47.34512" lon="-2.45183">
        <ele>96.400001525879</ele>
        <time>2022-02-17T09:55:33.000Z</time>
      </trkpt>
      <trkpt lat="47.34518" lon="-2.45191">
        <ele>96</ele>
        <time>2022-02-17T09:55:34.000Z</time>
      </trkpt>
      <trkpt lat="47.34536" lon="-2.45217">
        <ele>96</ele>
        <time>2022-02-17T09:55:37.000Z</time>
      </trkpt>
      <trkpt lat="47.34564" lon="-2.45258">
        <ele>95.599998474121</ele>
        <time>2022-02-17T09:55:42.000Z</time>
      </trkpt>
      <trkpt lat="47.3457" lon="-2.45267">
        <ele>95.199996948242</ele>
        <time>2022-02-17T09:55:43.000Z</time>
      </trkpt>
      <trkpt lat="47.34575" lon="-2.45275">
        <ele>94.800003051758</ele>
        <time>2022-02-17T09:55:44.000Z</time>
      </trkpt>
      <trkpt lat="47.34581" lon="-2.45283">
        <ele>94.400001525879</ele>
        <time>2022-02-17T09:55:45.000Z</time>
      </trkpt>
      <trkpt lat="47.34586" lon="-2.45292">
        <ele>94</ele>
        <time>2022-02-17T09:55:46.000Z</time>
      </trkpt>
      <trkpt lat="47.34604" lon="-2.4533">
        <ele>94</ele>
        <time>2022-02-17T09:55:50.000Z</time>
      </trkpt>
      <trkpt lat="47.34624" lon="-2.45384">
        <ele>94</ele>
        <time>2022-02-17T09:55:56.000Z</time>
      </trkpt>
      <trkpt lat="47.3464" lon="-2.45423">
        <ele>94</ele>
        <time>2022-02-17T09:56:01.000Z</time>
      </trkpt>
      <trkpt lat="47.34657" lon="-2.4547">
        <ele>94</ele>
        <time>2022-02-17T09:56:07.000Z</time>
      </trkpt>
      <trkpt lat="47.34679" lon="-2.45535">
        <ele>94.400001525879</ele>
        <time>2022-02-17T09:56:16.000Z</time>
      </trkpt>
      <trkpt lat="47.34682" lon="-2.45541">
        <ele>94.800003051758</ele>
        <time>2022-02-17T09:56:17.000Z</time>
      </trkpt>
      <trkpt lat="47.34684" lon="-2.45548">
        <ele>95.199996948242</ele>
        <time>2022-02-17T09:56:18.000Z</time>
      </trkpt>
      <trkpt lat="47.34687" lon="-2.45556">
        <ele>95.599998474121</ele>
        <time>2022-02-17T09:56:19.000Z</time>
      </trkpt>
      <trkpt lat="47.3469" lon="-2.45563">
        <ele>96</ele>
        <time>2022-02-17T09:56:20.000Z</time>
      </trkpt>
      <trkpt lat="47.34698" lon="-2.45584">
        <ele>96</ele>
        <time>2022-02-17T09:56:23.000Z</time>
      </trkpt>
      <trkpt lat="47.34721" lon="-2.45631">
        <ele>96</ele>
        <time>2022-02-17T09:56:30.000Z</time>
      </trkpt>
      <trkpt lat="47.34748" lon="-2.45688">
        <ele>96</ele>
        <time>2022-02-17T09:56:38.000Z</time>
      </trkpt>
      <trkpt lat="47.34771" lon="-2.45747">
        <ele>96</ele>
        <time>2022-02-17T09:56:45.000Z</time>
      </trkpt>
      <trkpt lat="47.34784" lon="-2.45803">
        <ele>96</ele>
        <time>2022-02-17T09:56:51.000Z</time>
      </trkpt>
      <trkpt lat="47.34788" lon="-2.45854">
        <ele>96</ele>
        <time>2022-02-17T09:56:57.000Z</time>
      </trkpt>
      <trkpt lat="47.3479" lon="-2.45867">
        <ele>96</ele>
        <time>2022-02-17T09:56:59.000Z</time>
      </trkpt>
      <trkpt lat="47.34792" lon="-2.4588">
        <ele>96</ele>
        <time>2022-02-17T09:57:01.000Z</time>
      </trkpt>
      <trkpt lat="47.34793" lon="-2.45887">
        <ele>96</ele>
        <time>2022-02-17T09:57:02.000Z</time>
      </trkpt>
      <trkpt lat="47.34795" lon="-2.45903">
        <ele>95.599998474121</ele>
        <time>2022-02-17T09:57:04.000Z</time>
      </trkpt>
      <trkpt lat="47.34795" lon="-2.45912">
        <ele>94.800003051758</ele>
        <time>2022-02-17T09:57:05.000Z</time>
      </trkpt>
      <trkpt lat="47.34797" lon="-2.45921">
        <ele>94.400001525879</ele>
        <time>2022-02-17T09:57:06.000Z</time>
      </trkpt>
      <trkpt lat="47.34798" lon="-2.45931">
        <ele>94</ele>
        <time>2022-02-17T09:57:07.000Z</time>
      </trkpt>
      <trkpt lat="47.34802" lon="-2.45972">
        <ele>94</ele>
        <time>2022-02-17T09:57:11.000Z</time>
      </trkpt>
      <trkpt lat="47.34807" lon="-2.46003">
        <ele>93.400001525879</ele>
        <time>2022-02-17T09:57:14.000Z</time>
      </trkpt>
      <trkpt lat="47.34808" lon="-2.46013">
        <ele>93</ele>
        <time>2022-02-17T09:57:15.000Z</time>
      </trkpt>
      <trkpt lat="47.3481" lon="-2.46023">
        <ele>92.599998474121</ele>
        <time>2022-02-17T09:57:16.000Z</time>
      </trkpt>
      <trkpt lat="47.34811" lon="-2.46034">
        <ele>92.199996948242</ele>
        <time>2022-02-17T09:57:17.000Z</time>
      </trkpt>
      <trkpt lat="47.34813" lon="-2.46044">
        <ele>91.800003051758</ele>
        <time>2022-02-17T09:57:18.000Z</time>
      </trkpt>
      <trkpt lat="47.34815" lon="-2.46064">
        <ele>91.800003051758</ele>
        <time>2022-02-17T09:57:20.000Z</time>
      </trkpt>
      <trkpt lat="47.34818" lon="-2.46106">
        <ele>91.800003051758</ele>
        <time>2022-02-17T09:57:24.000Z</time>
      </trkpt>
      <trkpt lat="47.34819" lon="-2.46139">
        <ele>91.800003051758</ele>
        <time>2022-02-17T09:57:27.000Z</time>
      </trkpt>
      <trkpt lat="47.34822" lon="-2.46209">
        <ele>91.800003051758</ele>
        <time>2022-02-17T09:57:34.000Z</time>
      </trkpt>
      <trkpt lat="47.34826" lon="-2.46272">
        <ele>91.800003051758</ele>
        <time>2022-02-17T09:57:41.000Z</time>
      </trkpt>
      <trkpt lat="47.34835" lon="-2.46336">
        <ele>91.800003051758</ele>
        <time>2022-02-17T09:57:49.000Z</time>
      </trkpt>
      <trkpt lat="47.34844" lon="-2.46407">
        <ele>91.800003051758</ele>
        <time>2022-02-17T09:57:58.000Z</time>
      </trkpt>
      <trkpt lat="47.3485" lon="-2.46453">
        <ele>91.800003051758</ele>
        <time>2022-02-17T09:58:05.000Z</time>
      </trkpt>
      <trkpt lat="47.34859" lon="-2.4648">
        <ele>91.800003051758</ele>
        <time>2022-02-17T09:58:11.000Z</time>
      </trkpt>
      <trkpt lat="47.34863" lon="-2.46494">
        <ele>91.800003051758</ele>
        <time>2022-02-17T09:58:16.000Z</time>
      </trkpt>
      <trkpt lat="47.34863" lon="-2.46495">
        <ele>91.800003051758</ele>
        <time>2022-02-17T09:58:18.000Z</time>
      </trkpt>
      <trkpt lat="47.34851" lon="-2.46505">
        <ele>91.800003051758</ele>
        <time>2022-02-17T10:14:14.000Z</time>
      </trkpt>
      <trkpt lat="47.34849" lon="-2.46509">
        <ele>91.800003051758</ele>
        <time>2022-02-17T10:14:16.000Z</time>
      </trkpt>
      <trkpt lat="47.34849" lon="-2.46512">
        <ele>91.800003051758</ele>
        <time>2022-02-17T10:14:17.000Z</time>
      </trkpt>
      <trkpt lat="47.34847" lon="-2.46525">
        <ele>91.800003051758</ele>
        <time>2022-02-17T10:14:21.000Z</time>
      </trkpt>
      <trkpt lat="47.34843" lon="-2.46535">
        <ele>91.800003051758</ele>
        <time>2022-02-17T10:14:23.000Z</time>
      </trkpt>
      <trkpt lat="47.34838" lon="-2.46545">
        <ele>91.800003051758</ele>
        <time>2022-02-17T10:14:25.000Z</time>
      </trkpt>
      <trkpt lat="47.34832" lon="-2.46557">
        <ele>91.800003051758</ele>
        <time>2022-02-17T10:14:27.000Z</time>
      </trkpt>
      <trkpt lat="47.34824" lon="-2.46574">
        <ele>92.199996948242</ele>
        <time>2022-02-17T10:14:30.000Z</time>
      </trkpt>
      <trkpt lat="47.34822" lon="-2.46579">
        <ele>92.599998474121</ele>
        <time>2022-02-17T10:14:31.000Z</time>
      </trkpt>
      <trkpt lat="47.34819" lon="-2.46583">
        <ele>93</ele>
        <time>2022-02-17T10:14:32.000Z</time>
      </trkpt>
      <trkpt lat="47.34817" lon="-2.46588">
        <ele>93.400001525879</ele>
        <time>2022-02-17T10:14:33.000Z</time>
      </trkpt>
      <trkpt lat="47.34816" lon="-2.46593">
        <ele>93.800003051758</ele>
        <time>2022-02-17T10:14:34.000Z</time>
      </trkpt>
      <trkpt lat="47.34813" lon="-2.46598">
        <ele>93.800003051758</ele>
        <time>2022-02-17T10:14:35.000Z</time>
      </trkpt>
      <trkpt lat="47.34803" lon="-2.46617">
        <ele>93.800003051758</ele>
        <time>2022-02-17T10:14:39.000Z</time>
      </trkpt>
      <trkpt lat="47.34798" lon="-2.46625">
        <ele>93.800003051758</ele>
        <time>2022-02-17T10:14:41.000Z</time>
      </trkpt>
      <trkpt lat="47.34782" lon="-2.46649">
        <ele>93.800003051758</ele>
        <time>2022-02-17T10:14:47.000Z</time>
      </trkpt>
      <trkpt lat="47.34761" lon="-2.46682">
        <ele>93.800003051758</ele>
        <time>2022-02-17T10:14:55.000Z</time>
      </trkpt>
      <trkpt lat="47.34749" lon="-2.46703">
        <ele>94.199996948242</ele>
        <time>2022-02-17T10:15:00.000Z</time>
      </trkpt>
      <trkpt lat="47.34746" lon="-2.46707">
        <ele>94.599998474121</ele>
        <time>2022-02-17T10:15:01.000Z</time>
      </trkpt>
      <trkpt lat="47.34743" lon="-2.46711">
        <ele>95.199996948242</ele>
        <time>2022-02-17T10:15:02.000Z</time>
      </trkpt>
      <trkpt lat="47.34741" lon="-2.46716">
        <ele>95.599998474121</ele>
        <time>2022-02-17T10:15:03.000Z</time>
      </trkpt>
      <trkpt lat="47.34738" lon="-2.46719">
        <ele>96</ele>
        <time>2022-02-17T10:15:04.000Z</time>
      </trkpt>
      <trkpt lat="47.34728" lon="-2.46735">
        <ele>96</ele>
        <time>2022-02-17T10:15:08.000Z</time>
      </trkpt>
      <trkpt lat="47.34711" lon="-2.46759">
        <ele>96</ele>
        <time>2022-02-17T10:15:14.000Z</time>
      </trkpt>
      <trkpt lat="47.34692" lon="-2.46783">
        <ele>96</ele>
        <time>2022-02-17T10:15:21.000Z</time>
      </trkpt>
      <trkpt lat="47.34685" lon="-2.46801">
        <ele>96</ele>
        <time>2022-02-17T10:15:25.000Z</time>
      </trkpt>
      <trkpt lat="47.34683" lon="-2.46806">
        <ele>96.400001525879</ele>
        <time>2022-02-17T10:15:26.000Z</time>
      </trkpt>
      <trkpt lat="47.34681" lon="-2.4681">
        <ele>96.800003051758</ele>
        <time>2022-02-17T10:15:27.000Z</time>
      </trkpt>
      <trkpt lat="47.34678" lon="-2.46815">
        <ele>97.199996948242</ele>
        <time>2022-02-17T10:15:28.000Z</time>
      </trkpt>
      <trkpt lat="47.34676" lon="-2.4682">
        <ele>97.599998474121</ele>
        <time>2022-02-17T10:15:29.000Z</time>
      </trkpt>
      <trkpt lat="47.34674" lon="-2.46825">
        <ele>98</ele>
        <time>2022-02-17T10:15:30.000Z</time>
      </trkpt>
      <trkpt lat="47.34655" lon="-2.46855">
        <ele>98</ele>
        <time>2022-02-17T10:15:37.000Z</time>
      </trkpt>
      <trkpt lat="47.34633" lon="-2.46883">
        <ele>98</ele>
        <time>2022-02-17T10:15:44.000Z</time>
      </trkpt>
      <trkpt lat="47.34626" lon="-2.46902">
        <ele>98</ele>
        <time>2022-02-17T10:15:48.000Z</time>
      </trkpt>
      <trkpt lat="47.34615" lon="-2.46918">
        <ele>98</ele>
        <time>2022-02-17T10:15:53.000Z</time>
      </trkpt>
      <trkpt lat="47.34599" lon="-2.46928">
        <ele>98</ele>
        <time>2022-02-17T10:15:58.000Z</time>
      </trkpt>
      <trkpt lat="47.34584" lon="-2.46942">
        <ele>98</ele>
        <time>2022-02-17T10:16:03.000Z</time>
      </trkpt>
      <trkpt lat="47.34564" lon="-2.46961">
        <ele>98</ele>
        <time>2022-02-17T10:16:09.000Z</time>
      </trkpt>
      <trkpt lat="47.34545" lon="-2.4697">
        <ele>98</ele>
        <time>2022-02-17T10:16:14.000Z</time>
      </trkpt>
      <trkpt lat="47.34541" lon="-2.46972">
        <ele>98</ele>
        <time>2022-02-17T10:16:15.000Z</time>
      </trkpt>
      <trkpt lat="47.3452" lon="-2.46984">
        <ele>98</ele>
        <time>2022-02-17T10:16:20.000Z</time>
      </trkpt>
      <trkpt lat="47.34483" lon="-2.47004">
        <ele>98</ele>
        <time>2022-02-17T10:16:28.000Z</time>
      </trkpt>
      <trkpt lat="47.34456" lon="-2.47021">
        <ele>98</ele>
        <time>2022-02-17T10:16:34.000Z</time>
      </trkpt>
      <trkpt lat="47.34432" lon="-2.47035">
        <ele>98</ele>
        <time>2022-02-17T10:16:40.000Z</time>
      </trkpt>
      <trkpt lat="47.34404" lon="-2.4705">
        <ele>98</ele>
        <time>2022-02-17T10:16:48.000Z</time>
      </trkpt>
      <trkpt lat="47.34386" lon="-2.47061">
        <ele>98</ele>
        <time>2022-02-17T10:16:54.000Z</time>
      </trkpt>
      <trkpt lat="47.34363" lon="-2.47073">
        <ele>98</ele>
        <time>2022-02-17T10:17:00.000Z</time>
      </trkpt>
      <trkpt lat="47.34334" lon="-2.47096">
        <ele>98</ele>
        <time>2022-02-17T10:17:07.000Z</time>
      </trkpt>
      <trkpt lat="47.34301" lon="-2.47118">
        <ele>98</ele>
        <time>2022-02-17T10:17:14.000Z</time>
      </trkpt>
      <trkpt lat="47.34273" lon="-2.47136">
        <ele>98</ele>
        <time>2022-02-17T10:17:20.000Z</time>
      </trkpt>
      <trkpt lat="47.34259" lon="-2.47148">
        <ele>98</ele>
        <time>2022-02-17T10:17:23.000Z</time>
      </trkpt>
      <trkpt lat="47.34247" lon="-2.47164">
        <ele>98</ele>
        <time>2022-02-17T10:17:26.000Z</time>
      </trkpt>
      <trkpt lat="47.34221" lon="-2.472">
        <ele>98</ele>
        <time>2022-02-17T10:17:32.000Z</time>
      </trkpt>
      <trkpt lat="47.34192" lon="-2.47232">
        <ele>97.599998474121</ele>
        <time>2022-02-17T10:17:38.000Z</time>
      </trkpt>
      <trkpt lat="47.34187" lon="-2.47237">
        <ele>96.800003051758</ele>
        <time>2022-02-17T10:17:39.000Z</time>
      </trkpt>
      <trkpt lat="47.34182" lon="-2.47242">
        <ele>96.400001525879</ele>
        <time>2022-02-17T10:17:40.000Z</time>
      </trkpt>
      <trkpt lat="47.34177" lon="-2.47248">
        <ele>96</ele>
        <time>2022-02-17T10:17:41.000Z</time>
      </trkpt>
      <trkpt lat="47.34149" lon="-2.47279">
        <ele>96</ele>
        <time>2022-02-17T10:17:47.000Z</time>
      </trkpt>
      <trkpt lat="47.34141" lon="-2.47291">
        <ele>95.599998474121</ele>
        <time>2022-02-17T10:17:49.000Z</time>
      </trkpt>
      <trkpt lat="47.34137" lon="-2.47298">
        <ele>95.199996948242</ele>
        <time>2022-02-17T10:17:50.000Z</time>
      </trkpt>
      <trkpt lat="47.34134" lon="-2.47304">
        <ele>94.599998474121</ele>
        <time>2022-02-17T10:17:51.000Z</time>
      </trkpt>
      <trkpt lat="47.34131" lon="-2.47311">
        <ele>94.199996948242</ele>
        <time>2022-02-17T10:17:52.000Z</time>
      </trkpt>
      <trkpt lat="47.34127" lon="-2.4732">
        <ele>93.800003051758</ele>
        <time>2022-02-17T10:17:53.000Z</time>
      </trkpt>
      <trkpt lat="47.34113" lon="-2.47354">
        <ele>93.400001525879</ele>
        <time>2022-02-17T10:17:57.000Z</time>
      </trkpt>
      <trkpt lat="47.3411" lon="-2.47363">
        <ele>92.800003051758</ele>
        <time>2022-02-17T10:17:58.000Z</time>
      </trkpt>
      <trkpt lat="47.34107" lon="-2.47372">
        <ele>92.400001525879</ele>
        <time>2022-02-17T10:17:59.000Z</time>
      </trkpt>
      <trkpt lat="47.34103" lon="-2.4738">
        <ele>92</ele>
        <time>2022-02-17T10:18:00.000Z</time>
      </trkpt>
      <trkpt lat="47.341" lon="-2.47387">
        <ele>91.599998474121</ele>
        <time>2022-02-17T10:18:01.000Z</time>
      </trkpt>
      <trkpt lat="47.34098" lon="-2.47393">
        <ele>91.199996948242</ele>
        <time>2022-02-17T10:18:02.000Z</time>
      </trkpt>
      <trkpt lat="47.34095" lon="-2.47396">
        <ele>90.599998474121</ele>
        <time>2022-02-17T10:18:03.000Z</time>
      </trkpt>
      <trkpt lat="47.34093" lon="-2.47399">
        <ele>89.800003051758</ele>
        <time>2022-02-17T10:18:04.000Z</time>
      </trkpt>
      <trkpt lat="47.34092" lon="-2.47402">
        <ele>89.400001525879</ele>
        <time>2022-02-17T10:18:05.000Z</time>
      </trkpt>
      <trkpt lat="47.34082" lon="-2.47418">
        <ele>89.400001525879</ele>
        <time>2022-02-17T10:18:10.000Z</time>
      </trkpt>
      <trkpt lat="47.34074" lon="-2.47429">
        <ele>89.400001525879</ele>
        <time>2022-02-17T10:18:13.000Z</time>
      </trkpt>
      <trkpt lat="47.3407" lon="-2.47433">
        <ele>89.400001525879</ele>
        <time>2022-02-17T10:18:14.000Z</time>
      </trkpt>
      <trkpt lat="47.3405" lon="-2.47456">
        <ele>89</ele>
        <time>2022-02-17T10:18:19.000Z</time>
      </trkpt>
      <trkpt lat="47.34046" lon="-2.4746">
        <ele>88.599998474121</ele>
        <time>2022-02-17T10:18:20.000Z</time>
      </trkpt>
      <trkpt lat="47.34042" lon="-2.47464">
        <ele>88</ele>
        <time>2022-02-17T10:18:21.000Z</time>
      </trkpt>
      <trkpt lat="47.34037" lon="-2.47469">
        <ele>87.599998474121</ele>
        <time>2022-02-17T10:18:22.000Z</time>
      </trkpt>
      <trkpt lat="47.34032" lon="-2.47473">
        <ele>87.199996948242</ele>
        <time>2022-02-17T10:18:23.000Z</time>
      </trkpt>
      <trkpt lat="47.34016" lon="-2.47489">
        <ele>87.199996948242</ele>
        <time>2022-02-17T10:18:27.000Z</time>
      </trkpt>
      <trkpt lat="47.34012" lon="-2.47493">
        <ele>87.199996948242</ele>
        <time>2022-02-17T10:18:28.000Z</time>
      </trkpt>
      <trkpt lat="47.34004" lon="-2.475">
        <ele>86.800003051758</ele>
        <time>2022-02-17T10:18:30.000Z</time>
      </trkpt>
      <trkpt lat="47.34" lon="-2.47504">
        <ele>86.400001525879</ele>
        <time>2022-02-17T10:18:31.000Z</time>
      </trkpt>
      <trkpt lat="47.33996" lon="-2.47508">
        <ele>85.800003051758</ele>
        <time>2022-02-17T10:18:32.000Z</time>
      </trkpt>
      <trkpt lat="47.33992" lon="-2.47512">
        <ele>85.400001525879</ele>
        <time>2022-02-17T10:18:33.000Z</time>
      </trkpt>
      <trkpt lat="47.33987" lon="-2.47516">
        <ele>85</ele>
        <time>2022-02-17T10:18:34.000Z</time>
      </trkpt>
      <trkpt lat="47.33967" lon="-2.4754">
        <ele>84.599998474121</ele>
        <time>2022-02-17T10:18:39.000Z</time>
      </trkpt>
      <trkpt lat="47.33963" lon="-2.47546">
        <ele>84.199996948242</ele>
        <time>2022-02-17T10:18:40.000Z</time>
      </trkpt>
      <trkpt lat="47.33959" lon="-2.47552">
        <ele>83.599998474121</ele>
        <time>2022-02-17T10:18:41.000Z</time>
      </trkpt>
      <trkpt lat="47.33956" lon="-2.47559">
        <ele>83.199996948242</ele>
        <time>2022-02-17T10:18:42.000Z</time>
      </trkpt>
      <trkpt lat="47.33953" lon="-2.47566">
        <ele>82.800003051758</ele>
        <time>2022-02-17T10:18:43.000Z</time>
      </trkpt>
      <trkpt lat="47.3395" lon="-2.47574">
        <ele>82.800003051758</ele>
        <time>2022-02-17T10:18:44.000Z</time>
      </trkpt>
      <trkpt lat="47.33945" lon="-2.47592">
        <ele>82.400001525879</ele>
        <time>2022-02-17T10:18:46.000Z</time>
      </trkpt>
      <trkpt lat="47.33942" lon="-2.47601">
        <ele>82</ele>
        <time>2022-02-17T10:18:47.000Z</time>
      </trkpt>
      <trkpt lat="47.3394" lon="-2.47609">
        <ele>81.400001525879</ele>
        <time>2022-02-17T10:18:48.000Z</time>
      </trkpt>
      <trkpt lat="47.33937" lon="-2.47617">
        <ele>81</ele>
        <time>2022-02-17T10:18:49.000Z</time>
      </trkpt>
      <trkpt lat="47.33935" lon="-2.47624">
        <ele>80.599998474121</ele>
        <time>2022-02-17T10:18:50.000Z</time>
      </trkpt>
      <trkpt lat="47.33927" lon="-2.47645">
        <ele>80.199996948242</ele>
        <time>2022-02-17T10:18:53.000Z</time>
      </trkpt>
      <trkpt lat="47.33925" lon="-2.47652">
        <ele>79.400001525879</ele>
        <time>2022-02-17T10:18:54.000Z</time>
      </trkpt>
      <trkpt lat="47.33922" lon="-2.47658">
        <ele>79</ele>
        <time>2022-02-17T10:18:55.000Z</time>
      </trkpt>
      <trkpt lat="47.33919" lon="-2.47665">
        <ele>78.599998474121</ele>
        <time>2022-02-17T10:18:56.000Z</time>
      </trkpt>
      <trkpt lat="47.33915" lon="-2.47672">
        <ele>78.599998474121</ele>
        <time>2022-02-17T10:18:57.000Z</time>
      </trkpt>
      <trkpt lat="47.33901" lon="-2.47697">
        <ele>78.599998474121</ele>
        <time>2022-02-17T10:19:01.000Z</time>
      </trkpt>
      <trkpt lat="47.33898" lon="-2.47704">
        <ele>78.199996948242</ele>
        <time>2022-02-17T10:19:02.000Z</time>
      </trkpt>
      <trkpt lat="47.33894" lon="-2.4771">
        <ele>77.599998474121</ele>
        <time>2022-02-17T10:19:03.000Z</time>
      </trkpt>
      <trkpt lat="47.3389" lon="-2.47717">
        <ele>77.199996948242</ele>
        <time>2022-02-17T10:19:04.000Z</time>
      </trkpt>
      <trkpt lat="47.33887" lon="-2.47724">
        <ele>76.800003051758</ele>
        <time>2022-02-17T10:19:05.000Z</time>
      </trkpt>
      <trkpt lat="47.33884" lon="-2.4773">
        <ele>76.400001525879</ele>
        <time>2022-02-17T10:19:06.000Z</time>
      </trkpt>
      <trkpt lat="47.33881" lon="-2.47736">
        <ele>76.400001525879</ele>
        <time>2022-02-17T10:19:07.000Z</time>
      </trkpt>
      <trkpt lat="47.33873" lon="-2.47748">
        <ele>76</ele>
        <time>2022-02-17T10:19:09.000Z</time>
      </trkpt>
      <trkpt lat="47.3387" lon="-2.47754">
        <ele>75.599998474121</ele>
        <time>2022-02-17T10:19:10.000Z</time>
      </trkpt>
      <trkpt lat="47.33866" lon="-2.47758">
        <ele>75.199996948242</ele>
        <time>2022-02-17T10:19:11.000Z</time>
      </trkpt>
      <trkpt lat="47.33863" lon="-2.47762">
        <ele>74.800003051758</ele>
        <time>2022-02-17T10:19:12.000Z</time>
      </trkpt>
      <trkpt lat="47.3386" lon="-2.47766">
        <ele>74.400001525879</ele>
        <time>2022-02-17T10:19:13.000Z</time>
      </trkpt>
      <trkpt lat="47.33852" lon="-2.47769">
        <ele>74.400001525879</ele>
        <time>2022-02-17T10:19:15.000Z</time>
      </trkpt>
      <trkpt lat="47.33848" lon="-2.47768">
        <ele>74.400001525879</ele>
        <time>2022-02-17T10:19:16.000Z</time>
      </trkpt>
      <trkpt lat="47.3384" lon="-2.47761">
        <ele>74.400001525879</ele>
        <time>2022-02-17T10:19:18.000Z</time>
      </trkpt>
      <trkpt lat="47.33837" lon="-2.47757">
        <ele>74.400001525879</ele>
        <time>2022-02-17T10:19:19.000Z</time>
      </trkpt>
      <trkpt lat="47.33834" lon="-2.47752">
        <ele>74.400001525879</ele>
        <time>2022-02-17T10:19:20.000Z</time>
      </trkpt>
      <trkpt lat="47.33822" lon="-2.47737">
        <ele>74.400001525879</ele>
        <time>2022-02-17T10:19:24.000Z</time>
      </trkpt>
      <trkpt lat="47.33811" lon="-2.47725">
        <ele>74.400001525879</ele>
        <time>2022-02-17T10:19:29.000Z</time>
      </trkpt>
      <trkpt lat="47.33798" lon="-2.47709">
        <ele>74.400001525879</ele>
        <time>2022-02-17T10:19:35.000Z</time>
      </trkpt>
      <trkpt lat="47.33782" lon="-2.47688">
        <ele>74.400001525879</ele>
        <time>2022-02-17T10:19:41.000Z</time>
      </trkpt>
      <trkpt lat="47.33767" lon="-2.47668">
        <ele>74.800003051758</ele>
        <time>2022-02-17T10:19:47.000Z</time>
      </trkpt>
      <trkpt lat="47.33765" lon="-2.47665">
        <ele>75.199996948242</ele>
        <time>2022-02-17T10:19:48.000Z</time>
      </trkpt>
      <trkpt lat="47.33763" lon="-2.47661">
        <ele>75.599998474121</ele>
        <time>2022-02-17T10:19:49.000Z</time>
      </trkpt>
      <trkpt lat="47.33761" lon="-2.47656">
        <ele>76</ele>
        <time>2022-02-17T10:19:50.000Z</time>
      </trkpt>
      <trkpt lat="47.3376" lon="-2.47651">
        <ele>76.400001525879</ele>
        <time>2022-02-17T10:19:51.000Z</time>
      </trkpt>
      <trkpt lat="47.33745" lon="-2.4763">
        <ele>76.400001525879</ele>
        <time>2022-02-17T10:19:57.000Z</time>
      </trkpt>
      <trkpt lat="47.33725" lon="-2.47619">
        <ele>76.400001525879</ele>
        <time>2022-02-17T10:20:03.000Z</time>
      </trkpt>
      <trkpt lat="47.33713" lon="-2.47619">
        <ele>76.800003051758</ele>
        <time>2022-02-17T10:20:06.000Z</time>
      </trkpt>
      <trkpt lat="47.33709" lon="-2.47619">
        <ele>77.599998474121</ele>
        <time>2022-02-17T10:20:07.000Z</time>
      </trkpt>
      <trkpt lat="47.33704" lon="-2.47619">
        <ele>78.199996948242</ele>
        <time>2022-02-17T10:20:08.000Z</time>
      </trkpt>
      <trkpt lat="47.337" lon="-2.47619">
        <ele>78.599998474121</ele>
        <time>2022-02-17T10:20:09.000Z</time>
      </trkpt>
      <trkpt lat="47.33696" lon="-2.47619">
        <ele>78.599998474121</ele>
        <time>2022-02-17T10:20:10.000Z</time>
      </trkpt>
      <trkpt lat="47.33677" lon="-2.47626">
        <ele>78.599998474121</ele>
        <time>2022-02-17T10:20:15.000Z</time>
      </trkpt>
      <trkpt lat="47.33666" lon="-2.47635">
        <ele>78.599998474121</ele>
        <time>2022-02-17T10:20:18.000Z</time>
      </trkpt>
      <trkpt lat="47.33653" lon="-2.47644">
        <ele>78.599998474121</ele>
        <time>2022-02-17T10:20:21.000Z</time>
      </trkpt>
      <trkpt lat="47.33636" lon="-2.47655">
        <ele>78.599998474121</ele>
        <time>2022-02-17T10:20:25.000Z</time>
      </trkpt>
      <trkpt lat="47.33623" lon="-2.47664">
        <ele>78.599998474121</ele>
        <time>2022-02-17T10:20:28.000Z</time>
      </trkpt>
      <trkpt lat="47.33619" lon="-2.47668">
        <ele>78.599998474121</ele>
        <time>2022-02-17T10:20:29.000Z</time>
      </trkpt>
      <trkpt lat="47.33604" lon="-2.47684">
        <ele>78.599998474121</ele>
        <time>2022-02-17T10:20:33.000Z</time>
      </trkpt>
      <trkpt lat="47.336" lon="-2.47687">
        <ele>78.599998474121</ele>
        <time>2022-02-17T10:20:34.000Z</time>
      </trkpt>
      <trkpt lat="47.33588" lon="-2.47697">
        <ele>78.599998474121</ele>
        <time>2022-02-17T10:20:37.000Z</time>
      </trkpt>
      <trkpt lat="47.33584" lon="-2.47699">
        <ele>78.599998474121</ele>
        <time>2022-02-17T10:20:38.000Z</time>
      </trkpt>
      <trkpt lat="47.33568" lon="-2.47696">
        <ele>78.599998474121</ele>
        <time>2022-02-17T10:20:42.000Z</time>
      </trkpt>
      <trkpt lat="47.3356" lon="-2.47691">
        <ele>78.599998474121</ele>
        <time>2022-02-17T10:20:44.000Z</time>
      </trkpt>
      <trkpt lat="47.33545" lon="-2.47677">
        <ele>78.599998474121</ele>
        <time>2022-02-17T10:20:48.000Z</time>
      </trkpt>
      <trkpt lat="47.3353" lon="-2.47668">
        <ele>78.599998474121</ele>
        <time>2022-02-17T10:20:51.000Z</time>
      </trkpt>
      <trkpt lat="47.33526" lon="-2.47663">
        <ele>78.199996948242</ele>
        <time>2022-02-17T10:20:52.000Z</time>
      </trkpt>
      <trkpt lat="47.33522" lon="-2.47657">
        <ele>77.800003051758</ele>
        <time>2022-02-17T10:20:53.000Z</time>
      </trkpt>
      <trkpt lat="47.33519" lon="-2.4765">
        <ele>77.400001525879</ele>
        <time>2022-02-17T10:20:54.000Z</time>
      </trkpt>
      <trkpt lat="47.33515" lon="-2.47643">
        <ele>77</ele>
        <time>2022-02-17T10:20:55.000Z</time>
      </trkpt>
      <trkpt lat="47.33512" lon="-2.47636">
        <ele>76.599998474121</ele>
        <time>2022-02-17T10:20:56.000Z</time>
      </trkpt>
      <trkpt lat="47.33503" lon="-2.47616">
        <ele>76.599998474121</ele>
        <time>2022-02-17T10:20:59.000Z</time>
      </trkpt>
      <trkpt lat="47.33499" lon="-2.4761">
        <ele>76.599998474121</ele>
        <time>2022-02-17T10:21:00.000Z</time>
      </trkpt>
      <trkpt lat="47.33486" lon="-2.47597">
        <ele>76.599998474121</ele>
        <time>2022-02-17T10:21:03.000Z</time>
      </trkpt>
      <trkpt lat="47.33474" lon="-2.47584">
        <ele>76.199996948242</ele>
        <time>2022-02-17T10:21:06.000Z</time>
      </trkpt>
      <trkpt lat="47.3347" lon="-2.47579">
        <ele>75.599998474121</ele>
        <time>2022-02-17T10:21:07.000Z</time>
      </trkpt>
      <trkpt lat="47.33467" lon="-2.47574">
        <ele>75.199996948242</ele>
        <time>2022-02-17T10:21:08.000Z</time>
      </trkpt>
      <trkpt lat="47.33464" lon="-2.47568">
        <ele>74.800003051758</ele>
        <time>2022-02-17T10:21:09.000Z</time>
      </trkpt>
      <trkpt lat="47.33461" lon="-2.47562">
        <ele>74.400001525879</ele>
        <time>2022-02-17T10:21:10.000Z</time>
      </trkpt>
      <trkpt lat="47.33459" lon="-2.47556">
        <ele>74.400001525879</ele>
        <time>2022-02-17T10:21:11.000Z</time>
      </trkpt>
      <trkpt lat="47.3345" lon="-2.47538">
        <ele>74.400001525879</ele>
        <time>2022-02-17T10:21:14.000Z</time>
      </trkpt>
      <trkpt lat="47.33431" lon="-2.47495">
        <ele>74.400001525879</ele>
        <time>2022-02-17T10:21:21.000Z</time>
      </trkpt>
      <trkpt lat="47.33429" lon="-2.47489">
        <ele>74.800003051758</ele>
        <time>2022-02-17T10:21:22.000Z</time>
      </trkpt>
      <trkpt lat="47.33426" lon="-2.47483">
        <ele>75.400001525879</ele>
        <time>2022-02-17T10:21:23.000Z</time>
      </trkpt>
      <trkpt lat="47.33424" lon="-2.47477">
        <ele>75.800003051758</ele>
        <time>2022-02-17T10:21:24.000Z</time>
      </trkpt>
      <trkpt lat="47.33422" lon="-2.47471">
        <ele>76.199996948242</ele>
        <time>2022-02-17T10:21:25.000Z</time>
      </trkpt>
      <trkpt lat="47.3342" lon="-2.47465">
        <ele>76.599998474121</ele>
        <time>2022-02-17T10:21:26.000Z</time>
      </trkpt>
      <trkpt lat="47.33413" lon="-2.47438">
        <ele>76.599998474121</ele>
        <time>2022-02-17T10:21:30.000Z</time>
      </trkpt>
      <trkpt lat="47.33404" lon="-2.47396">
        <ele>76.599998474121</ele>
        <time>2022-02-17T10:21:37.000Z</time>
      </trkpt>
      <trkpt lat="47.334" lon="-2.47384">
        <ele>76.599998474121</ele>
        <time>2022-02-17T10:21:39.000Z</time>
      </trkpt>
      <trkpt lat="47.33395" lon="-2.47365">
        <ele>76.599998474121</ele>
        <time>2022-02-17T10:21:42.000Z</time>
      </trkpt>
      <trkpt lat="47.33389" lon="-2.47339">
        <ele>76.599998474121</ele>
        <time>2022-02-17T10:21:46.000Z</time>
      </trkpt>
      <trkpt lat="47.33388" lon="-2.47333">
        <ele>76.599998474121</ele>
        <time>2022-02-17T10:21:47.000Z</time>
      </trkpt>
      <trkpt lat="47.33385" lon="-2.47304">
        <ele>76.599998474121</ele>
        <time>2022-02-17T10:21:51.000Z</time>
      </trkpt>
      <trkpt lat="47.33383" lon="-2.4728">
        <ele>76.199996948242</ele>
        <time>2022-02-17T10:21:54.000Z</time>
      </trkpt>
      <trkpt lat="47.33382" lon="-2.47271">
        <ele>75.599998474121</ele>
        <time>2022-02-17T10:21:55.000Z</time>
      </trkpt>
      <trkpt lat="47.33381" lon="-2.47263">
        <ele>75.199996948242</ele>
        <time>2022-02-17T10:21:56.000Z</time>
      </trkpt>
      <trkpt lat="47.3338" lon="-2.47255">
        <ele>74.599998474121</ele>
        <time>2022-02-17T10:21:57.000Z</time>
      </trkpt>
      <trkpt lat="47.33379" lon="-2.47248">
        <ele>74.199996948242</ele>
        <time>2022-02-17T10:21:58.000Z</time>
      </trkpt>
      <trkpt lat="47.33372" lon="-2.47202">
        <ele>74.199996948242</ele>
        <time>2022-02-17T10:22:04.000Z</time>
      </trkpt>
      <trkpt lat="47.33367" lon="-2.47163">
        <ele>74.199996948242</ele>
        <time>2022-02-17T10:22:10.000Z</time>
      </trkpt>
      <trkpt lat="47.33368" lon="-2.4716">
        <ele>74.199996948242</ele>
        <time>2022-02-17T10:22:11.000Z</time>
      </trkpt>
      <trkpt lat="47.33374" lon="-2.47146">
        <ele>74.199996948242</ele>
        <time>2022-02-17T10:22:15.000Z</time>
      </trkpt>
      <trkpt lat="47.33385" lon="-2.47123">
        <ele>74.199996948242</ele>
        <time>2022-02-17T10:22:20.000Z</time>
      </trkpt>
      <trkpt lat="47.33389" lon="-2.47097">
        <ele>74.199996948242</ele>
        <time>2022-02-17T10:22:24.000Z</time>
      </trkpt>
      <trkpt lat="47.33391" lon="-2.47083">
        <ele>74.199996948242</ele>
        <time>2022-02-17T10:22:26.000Z</time>
      </trkpt>
      <trkpt lat="47.33398" lon="-2.47064">
        <ele>74.199996948242</ele>
        <time>2022-02-17T10:22:29.000Z</time>
      </trkpt>
      <trkpt lat="47.334" lon="-2.47058">
        <ele>74.199996948242</ele>
        <time>2022-02-17T10:22:30.000Z</time>
      </trkpt>
      <trkpt lat="47.33405" lon="-2.47046">
        <ele>74.599998474121</ele>
        <time>2022-02-17T10:22:32.000Z</time>
      </trkpt>
      <trkpt lat="47.33408" lon="-2.4704">
        <ele>75</ele>
        <time>2022-02-17T10:22:33.000Z</time>
      </trkpt>
      <trkpt lat="47.3341" lon="-2.47034">
        <ele>75.400001525879</ele>
        <time>2022-02-17T10:22:34.000Z</time>
      </trkpt>
      <trkpt lat="47.33413" lon="-2.47028">
        <ele>75.800003051758</ele>
        <time>2022-02-17T10:22:35.000Z</time>
      </trkpt>
      <trkpt lat="47.33416" lon="-2.47023">
        <ele>76.199996948242</ele>
        <time>2022-02-17T10:22:36.000Z</time>
      </trkpt>
      <trkpt lat="47.33419" lon="-2.47018">
        <ele>76.199996948242</ele>
        <time>2022-02-17T10:22:37.000Z</time>
      </trkpt>
      <trkpt lat="47.33432" lon="-2.46999">
        <ele>76.199996948242</ele>
        <time>2022-02-17T10:22:41.000Z</time>
      </trkpt>
      <trkpt lat="47.33455" lon="-2.46967">
        <ele>76.199996948242</ele>
        <time>2022-02-17T10:22:49.000Z</time>
      </trkpt>
      <trkpt lat="47.33467" lon="-2.46946">
        <ele>76.199996948242</ele>
        <time>2022-02-17T10:22:55.000Z</time>
      </trkpt>
      <trkpt lat="47.3347" lon="-2.4694">
        <ele>76.599998474121</ele>
        <time>2022-02-17T10:22:58.000Z</time>
      </trkpt>
      <trkpt lat="47.33472" lon="-2.46939">
        <ele>77</ele>
        <time>2022-02-17T10:22:59.000Z</time>
      </trkpt>
      <trkpt lat="47.33473" lon="-2.46937">
        <ele>77.400001525879</ele>
        <time>2022-02-17T10:23:00.000Z</time>
      </trkpt>
      <trkpt lat="47.33474" lon="-2.46935">
        <ele>78.199996948242</ele>
        <time>2022-02-17T10:23:01.000Z</time>
      </trkpt>
      <trkpt lat="47.33483" lon="-2.46924">
        <ele>78.199996948242</ele>
        <time>2022-02-17T10:23:07.000Z</time>
      </trkpt>
      <trkpt lat="47.33494" lon="-2.46916">
        <ele>78.199996948242</ele>
        <time>2022-02-17T10:23:12.000Z</time>
      </trkpt>
      <trkpt lat="47.33503" lon="-2.4691">
        <ele>78.800003051758</ele>
        <time>2022-02-17T10:23:19.000Z</time>
      </trkpt>
      <trkpt lat="47.33503" lon="-2.46909">
        <ele>79.199996948242</ele>
        <time>2022-02-17T10:23:20.000Z</time>
      </trkpt>
      <trkpt lat="47.33504" lon="-2.46908">
        <ele>79.599998474121</ele>
        <time>2022-02-17T10:23:21.000Z</time>
      </trkpt>
      <trkpt lat="47.33504" lon="-2.46908">
        <ele>80</ele>
        <time>2022-02-17T10:23:22.000Z</time>
      </trkpt>
      <trkpt lat="47.33506" lon="-2.46906">
        <ele>80.400001525879</ele>
        <time>2022-02-17T10:23:23.000Z</time>
      </trkpt>
      <trkpt lat="47.33509" lon="-2.46902">
        <ele>80.400001525879</ele>
        <time>2022-02-17T10:23:26.000Z</time>
      </trkpt>
      <trkpt lat="47.33517" lon="-2.46894">
        <ele>80.400001525879</ele>
        <time>2022-02-17T10:23:32.000Z</time>
      </trkpt>
      <trkpt lat="47.33523" lon="-2.46888">
        <ele>80.400001525879</ele>
        <time>2022-02-17T10:23:38.000Z</time>
      </trkpt>
      <trkpt lat="47.33527" lon="-2.46882">
        <ele>80.400001525879</ele>
        <time>2022-02-17T10:23:42.000Z</time>
      </trkpt>
      <trkpt lat="47.33531" lon="-2.46875">
        <ele>80.400001525879</ele>
        <time>2022-02-17T10:23:45.000Z</time>
      </trkpt>
      <trkpt lat="47.33533" lon="-2.4687">
        <ele>80.800003051758</ele>
        <time>2022-02-17T10:23:47.000Z</time>
      </trkpt>
      <trkpt lat="47.33532" lon="-2.46867">
        <ele>81.199996948242</ele>
        <time>2022-02-17T10:23:48.000Z</time>
      </trkpt>
      <trkpt lat="47.33532" lon="-2.46864">
        <ele>81.599998474121</ele>
        <time>2022-02-17T10:23:49.000Z</time>
      </trkpt>
      <trkpt lat="47.33532" lon="-2.4686">
        <ele>82</ele>
        <time>2022-02-17T10:23:50.000Z</time>
      </trkpt>
      <trkpt lat="47.33531" lon="-2.46857">
        <ele>82.400001525879</ele>
        <time>2022-02-17T10:23:51.000Z</time>
      </trkpt>
      <trkpt lat="47.33531" lon="-2.46846">
        <ele>82.400001525879</ele>
        <time>2022-02-17T10:23:55.000Z</time>
      </trkpt>
      <trkpt lat="47.33533" lon="-2.46841">
        <ele>82.800003051758</ele>
        <time>2022-02-17T10:23:57.000Z</time>
      </trkpt>
      <trkpt lat="47.33535" lon="-2.46838">
        <ele>83.199996948242</ele>
        <time>2022-02-17T10:23:58.000Z</time>
      </trkpt>
      <trkpt lat="47.33537" lon="-2.46836">
        <ele>83.599998474121</ele>
        <time>2022-02-17T10:23:59.000Z</time>
      </trkpt>
      <trkpt lat="47.33539" lon="-2.46834">
        <ele>84</ele>
        <time>2022-02-17T10:24:00.000Z</time>
      </trkpt>
      <trkpt lat="47.33541" lon="-2.46832">
        <ele>84.400001525879</ele>
        <time>2022-02-17T10:24:01.000Z</time>
      </trkpt>
      <trkpt lat="47.33554" lon="-2.46818">
        <ele>84.400001525879</ele>
        <time>2022-02-17T10:24:07.000Z</time>
      </trkpt>
      <trkpt lat="47.33564" lon="-2.46809">
        <ele>84.800003051758</ele>
        <time>2022-02-17T10:24:12.000Z</time>
      </trkpt>
      <trkpt lat="47.33567" lon="-2.46807">
        <ele>85.199996948242</ele>
        <time>2022-02-17T10:24:13.000Z</time>
      </trkpt>
      <trkpt lat="47.33568" lon="-2.46806">
        <ele>85.599998474121</ele>
        <time>2022-02-17T10:24:14.000Z</time>
      </trkpt>
      <trkpt lat="47.3357" lon="-2.46804">
        <ele>86</ele>
        <time>2022-02-17T10:24:15.000Z</time>
      </trkpt>
      <trkpt lat="47.33572" lon="-2.46802">
        <ele>86.400001525879</ele>
        <time>2022-02-17T10:24:16.000Z</time>
      </trkpt>
      <trkpt lat="47.33573" lon="-2.46799">
        <ele>86.400001525879</ele>
        <time>2022-02-17T10:24:17.000Z</time>
      </trkpt>
      <trkpt lat="47.33579" lon="-2.46792">
        <ele>87</ele>
        <time>2022-02-17T10:24:20.000Z</time>
      </trkpt>
      <trkpt lat="47.33581" lon="-2.4679">
        <ele>87.400001525879</ele>
        <time>2022-02-17T10:24:21.000Z</time>
      </trkpt>
      <trkpt lat="47.33583" lon="-2.46788">
        <ele>87.800003051758</ele>
        <time>2022-02-17T10:24:22.000Z</time>
      </trkpt>
      <trkpt lat="47.33585" lon="-2.46785">
        <ele>88.400001525879</ele>
        <time>2022-02-17T10:24:23.000Z</time>
      </trkpt>
      <trkpt lat="47.33586" lon="-2.46782">
        <ele>88.800003051758</ele>
        <time>2022-02-17T10:24:24.000Z</time>
      </trkpt>
      <trkpt lat="47.33593" lon="-2.46774">
        <ele>89.199996948242</ele>
        <time>2022-02-17T10:24:28.000Z</time>
      </trkpt>
      <trkpt lat="47.33596" lon="-2.46772">
        <ele>89.599998474121</ele>
        <time>2022-02-17T10:24:29.000Z</time>
      </trkpt>
      <trkpt lat="47.33598" lon="-2.4677">
        <ele>90.199996948242</ele>
        <time>2022-02-17T10:24:30.000Z</time>
      </trkpt>
      <trkpt lat="47.336" lon="-2.46767">
        <ele>90.599998474121</ele>
        <time>2022-02-17T10:24:31.000Z</time>
      </trkpt>
      <trkpt lat="47.33602" lon="-2.46765">
        <ele>91</ele>
        <time>2022-02-17T10:24:32.000Z</time>
      </trkpt>
      <trkpt lat="47.33612" lon="-2.46756">
        <ele>91</ele>
        <time>2022-02-17T10:24:36.000Z</time>
      </trkpt>
      <trkpt lat="47.33618" lon="-2.46743">
        <ele>91.400001525879</ele>
        <time>2022-02-17T10:24:40.000Z</time>
      </trkpt>
      <trkpt lat="47.33619" lon="-2.46739">
        <ele>92.400001525879</ele>
        <time>2022-02-17T10:24:41.000Z</time>
      </trkpt>
      <trkpt lat="47.33619" lon="-2.46734">
        <ele>92.800003051758</ele>
        <time>2022-02-17T10:24:42.000Z</time>
      </trkpt>
      <trkpt lat="47.33618" lon="-2.4673">
        <ele>93.199996948242</ele>
        <time>2022-02-17T10:24:43.000Z</time>
      </trkpt>
      <trkpt lat="47.33615" lon="-2.4672">
        <ele>93.199996948242</ele>
        <time>2022-02-17T10:24:45.000Z</time>
      </trkpt>
      <trkpt lat="47.33604" lon="-2.4669">
        <ele>93.199996948242</ele>
        <time>2022-02-17T10:24:52.000Z</time>
      </trkpt>
      <trkpt lat="47.33592" lon="-2.46662">
        <ele>93.199996948242</ele>
        <time>2022-02-17T10:24:58.000Z</time>
      </trkpt>
      <trkpt lat="47.33579" lon="-2.46625">
        <ele>93.199996948242</ele>
        <time>2022-02-17T10:25:05.000Z</time>
      </trkpt>
      <trkpt lat="47.33567" lon="-2.46598">
        <ele>93.199996948242</ele>
        <time>2022-02-17T10:25:11.000Z</time>
      </trkpt>
      <trkpt lat="47.33554" lon="-2.46582">
        <ele>93.199996948242</ele>
        <time>2022-02-17T10:25:15.000Z</time>
      </trkpt>
      <trkpt lat="47.33547" lon="-2.46561">
        <ele>93.199996948242</ele>
        <time>2022-02-17T10:25:19.000Z</time>
      </trkpt>
      <trkpt lat="47.33542" lon="-2.4653">
        <ele>93.199996948242</ele>
        <time>2022-02-17T10:25:25.000Z</time>
      </trkpt>
      <trkpt lat="47.33539" lon="-2.46511">
        <ele>93.199996948242</ele>
        <time>2022-02-17T10:25:28.000Z</time>
      </trkpt>
      <trkpt lat="47.33537" lon="-2.465">
        <ele>93.199996948242</ele>
        <time>2022-02-17T10:25:30.000Z</time>
      </trkpt>
      <trkpt lat="47.33536" lon="-2.46493">
        <ele>93.800003051758</ele>
        <time>2022-02-17T10:25:32.000Z</time>
      </trkpt>
      <trkpt lat="47.33536" lon="-2.46492">
        <ele>94.400001525879</ele>
        <time>2022-02-17T10:25:33.000Z</time>
      </trkpt>
      <trkpt lat="47.33534" lon="-2.4649">
        <ele>94.800003051758</ele>
        <time>2022-02-17T10:25:34.000Z</time>
      </trkpt>
      <trkpt lat="47.33533" lon="-2.4649">
        <ele>95.400001525879</ele>
        <time>2022-02-17T10:25:35.000Z</time>
      </trkpt>
      <trkpt lat="47.33532" lon="-2.46489">
        <ele>96</ele>
        <time>2022-02-17T10:25:36.000Z</time>
      </trkpt>
      <trkpt lat="47.33527" lon="-2.46484">
        <ele>96</ele>
        <time>2022-02-17T10:25:38.000Z</time>
      </trkpt>
      <trkpt lat="47.33523" lon="-2.46477">
        <ele>96</ele>
        <time>2022-02-17T10:25:41.000Z</time>
      </trkpt>
      <trkpt lat="47.33522" lon="-2.46479">
        <ele>96</ele>
        <time>2022-02-17T10:25:42.000Z</time>
      </trkpt>
      <trkpt lat="47.3352" lon="-2.46485">
        <ele>96</ele>
        <time>2022-02-17T10:25:47.000Z</time>
      </trkpt>
      <trkpt lat="47.33513" lon="-2.46495">
        <ele>96</ele>
        <time>2022-02-17T10:25:54.000Z</time>
      </trkpt>
      <trkpt lat="47.33499" lon="-2.46511">
        <ele>96</ele>
        <time>2022-02-17T10:25:58.000Z</time>
      </trkpt>
      <trkpt lat="47.33494" lon="-2.46517">
        <ele>95.599998474121</ele>
        <time>2022-02-17T10:25:59.000Z</time>
      </trkpt>
      <trkpt lat="47.3349" lon="-2.46522">
        <ele>95.199996948242</ele>
        <time>2022-02-17T10:26:00.000Z</time>
      </trkpt>
      <trkpt lat="47.33486" lon="-2.46527">
        <ele>94.800003051758</ele>
        <time>2022-02-17T10:26:01.000Z</time>
      </trkpt>
      <trkpt lat="47.33481" lon="-2.46533">
        <ele>94.400001525879</ele>
        <time>2022-02-17T10:26:02.000Z</time>
      </trkpt>
      <trkpt lat="47.33478" lon="-2.46538">
        <ele>94</ele>
        <time>2022-02-17T10:26:03.000Z</time>
      </trkpt>
      <trkpt lat="47.3347" lon="-2.46547">
        <ele>94</ele>
        <time>2022-02-17T10:26:05.000Z</time>
      </trkpt>
      <trkpt lat="47.33466" lon="-2.46552">
        <ele>94</ele>
        <time>2022-02-17T10:26:06.000Z</time>
      </trkpt>
      <trkpt lat="47.33451" lon="-2.46569">
        <ele>93.599998474121</ele>
        <time>2022-02-17T10:26:09.000Z</time>
      </trkpt>
      <trkpt lat="47.33446" lon="-2.46574">
        <ele>93</ele>
        <time>2022-02-17T10:26:10.000Z</time>
      </trkpt>
      <trkpt lat="47.3344" lon="-2.46579">
        <ele>92.599998474121</ele>
        <time>2022-02-17T10:26:11.000Z</time>
      </trkpt>
      <trkpt lat="47.33435" lon="-2.46583">
        <ele>92.199996948242</ele>
        <time>2022-02-17T10:26:12.000Z</time>
      </trkpt>
      <trkpt lat="47.3343" lon="-2.46587">
        <ele>91.800003051758</ele>
        <time>2022-02-17T10:26:13.000Z</time>
      </trkpt>
      <trkpt lat="47.33424" lon="-2.4659">
        <ele>91.400001525879</ele>
        <time>2022-02-17T10:26:14.000Z</time>
      </trkpt>
      <trkpt lat="47.33419" lon="-2.46594">
        <ele>90.800003051758</ele>
        <time>2022-02-17T10:26:15.000Z</time>
      </trkpt>
      <trkpt lat="47.33415" lon="-2.46598">
        <ele>90.400001525879</ele>
        <time>2022-02-17T10:26:16.000Z</time>
      </trkpt>
      <trkpt lat="47.3341" lon="-2.46603">
        <ele>90</ele>
        <time>2022-02-17T10:26:17.000Z</time>
      </trkpt>
      <trkpt lat="47.33405" lon="-2.46608">
        <ele>89.400001525879</ele>
        <time>2022-02-17T10:26:18.000Z</time>
      </trkpt>
      <trkpt lat="47.33399" lon="-2.46613">
        <ele>88.400001525879</ele>
        <time>2022-02-17T10:26:19.000Z</time>
      </trkpt>
      <trkpt lat="47.33394" lon="-2.46618">
        <ele>88</ele>
        <time>2022-02-17T10:26:20.000Z</time>
      </trkpt>
      <trkpt lat="47.3339" lon="-2.46625">
        <ele>87.400001525879</ele>
        <time>2022-02-17T10:26:21.000Z</time>
      </trkpt>
      <trkpt lat="47.33385" lon="-2.4663">
        <ele>87.400001525879</ele>
        <time>2022-02-17T10:26:22.000Z</time>
      </trkpt>
      <trkpt lat="47.33381" lon="-2.46635">
        <ele>87</ele>
        <time>2022-02-17T10:26:23.000Z</time>
      </trkpt>
      <trkpt lat="47.33377" lon="-2.4664">
        <ele>86.599998474121</ele>
        <time>2022-02-17T10:26:24.000Z</time>
      </trkpt>
      <trkpt lat="47.33372" lon="-2.46643">
        <ele>86.199996948242</ele>
        <time>2022-02-17T10:26:25.000Z</time>
      </trkpt>
      <trkpt lat="47.33368" lon="-2.46645">
        <ele>85.800003051758</ele>
        <time>2022-02-17T10:26:26.000Z</time>
      </trkpt>
      <trkpt lat="47.33364" lon="-2.46646">
        <ele>85.400001525879</ele>
        <time>2022-02-17T10:26:27.000Z</time>
      </trkpt>
      <trkpt lat="47.33353" lon="-2.4665">
        <ele>85</ele>
        <time>2022-02-17T10:26:30.000Z</time>
      </trkpt>
      <trkpt lat="47.33349" lon="-2.46652">
        <ele>84.400001525879</ele>
        <time>2022-02-17T10:26:31.000Z</time>
      </trkpt>
      <trkpt lat="47.33345" lon="-2.46653">
        <ele>84</ele>
        <time>2022-02-17T10:26:32.000Z</time>
      </trkpt>
      <trkpt lat="47.33342" lon="-2.46654">
        <ele>83.599998474121</ele>
        <time>2022-02-17T10:26:33.000Z</time>
      </trkpt>
      <trkpt lat="47.33339" lon="-2.46654">
        <ele>83.199996948242</ele>
        <time>2022-02-17T10:26:34.000Z</time>
      </trkpt>
      <trkpt lat="47.33334" lon="-2.46652">
        <ele>83.199996948242</ele>
        <time>2022-02-17T10:26:36.000Z</time>
      </trkpt>
      <trkpt lat="47.33332" lon="-2.4665">
        <ele>83.199996948242</ele>
        <time>2022-02-17T10:26:37.000Z</time>
      </trkpt>
      <trkpt lat="47.33328" lon="-2.46629">
        <ele>83.199996948242</ele>
        <time>2022-02-17T10:26:41.000Z</time>
      </trkpt>
      <trkpt lat="47.33316" lon="-2.46611">
        <ele>83.199996948242</ele>
        <time>2022-02-17T10:26:45.000Z</time>
      </trkpt>
      <trkpt lat="47.33301" lon="-2.4659">
        <ele>83.199996948242</ele>
        <time>2022-02-17T10:26:49.000Z</time>
      </trkpt>
      <trkpt lat="47.33296" lon="-2.46575">
        <ele>83.199996948242</ele>
        <time>2022-02-17T10:26:51.000Z</time>
      </trkpt>
      <trkpt lat="47.3329" lon="-2.46535">
        <ele>83.199996948242</ele>
        <time>2022-02-17T10:26:56.000Z</time>
      </trkpt>
      <trkpt lat="47.33285" lon="-2.46492">
        <ele>83.599998474121</ele>
        <time>2022-02-17T10:27:02.000Z</time>
      </trkpt>
      <trkpt lat="47.33284" lon="-2.46485">
        <ele>84</ele>
        <time>2022-02-17T10:27:03.000Z</time>
      </trkpt>
      <trkpt lat="47.33283" lon="-2.46478">
        <ele>84.400001525879</ele>
        <time>2022-02-17T10:27:04.000Z</time>
      </trkpt>
      <trkpt lat="47.33283" lon="-2.46472">
        <ele>84.800003051758</ele>
        <time>2022-02-17T10:27:05.000Z</time>
      </trkpt>
      <trkpt lat="47.33282" lon="-2.46466">
        <ele>85.199996948242</ele>
        <time>2022-02-17T10:27:06.000Z</time>
      </trkpt>
      <trkpt lat="47.33281" lon="-2.4646">
        <ele>85.199996948242</ele>
        <time>2022-02-17T10:27:07.000Z</time>
      </trkpt>
      <trkpt lat="47.33278" lon="-2.46448">
        <ele>85.199996948242</ele>
        <time>2022-02-17T10:27:09.000Z</time>
      </trkpt>
      <trkpt lat="47.33276" lon="-2.46443">
        <ele>85.800003051758</ele>
        <time>2022-02-17T10:27:10.000Z</time>
      </trkpt>
      <trkpt lat="47.33274" lon="-2.46439">
        <ele>86.199996948242</ele>
        <time>2022-02-17T10:27:11.000Z</time>
      </trkpt>
      <trkpt lat="47.33272" lon="-2.46434">
        <ele>86.599998474121</ele>
        <time>2022-02-17T10:27:12.000Z</time>
      </trkpt>
      <trkpt lat="47.33269" lon="-2.46431">
        <ele>87</ele>
        <time>2022-02-17T10:27:13.000Z</time>
      </trkpt>
      <trkpt lat="47.33266" lon="-2.46429">
        <ele>87.400001525879</ele>
        <time>2022-02-17T10:27:14.000Z</time>
      </trkpt>
      <trkpt lat="47.3325" lon="-2.4643">
        <ele>87.400001525879</ele>
        <time>2022-02-17T10:27:18.000Z</time>
      </trkpt>
      <trkpt lat="47.33242" lon="-2.46433">
        <ele>87.400001525879</ele>
        <time>2022-02-17T10:27:20.000Z</time>
      </trkpt>
      <trkpt lat="47.33236" lon="-2.46441">
        <ele>87.400001525879</ele>
        <time>2022-02-17T10:27:22.000Z</time>
      </trkpt>
      <trkpt lat="47.33233" lon="-2.46446">
        <ele>87</ele>
        <time>2022-02-17T10:27:23.000Z</time>
      </trkpt>
      <trkpt lat="47.33231" lon="-2.46451">
        <ele>86.599998474121</ele>
        <time>2022-02-17T10:27:24.000Z</time>
      </trkpt>
      <trkpt lat="47.33228" lon="-2.46457">
        <ele>86.199996948242</ele>
        <time>2022-02-17T10:27:25.000Z</time>
      </trkpt>
      <trkpt lat="47.33226" lon="-2.46462">
        <ele>85.800003051758</ele>
        <time>2022-02-17T10:27:26.000Z</time>
      </trkpt>
      <trkpt lat="47.33224" lon="-2.46466">
        <ele>85.400001525879</ele>
        <time>2022-02-17T10:27:27.000Z</time>
      </trkpt>
      <trkpt lat="47.33221" lon="-2.46469">
        <ele>85.400001525879</ele>
        <time>2022-02-17T10:27:28.000Z</time>
      </trkpt>
      <trkpt lat="47.33213" lon="-2.46472">
        <ele>85.400001525879</ele>
        <time>2022-02-17T10:27:32.000Z</time>
      </trkpt>
      <trkpt lat="47.3321" lon="-2.46473">
        <ele>84.400001525879</ele>
        <time>2022-02-17T10:27:33.000Z</time>
      </trkpt>
      <trkpt lat="47.33208" lon="-2.46474">
        <ele>84</ele>
        <time>2022-02-17T10:27:34.000Z</time>
      </trkpt>
      <trkpt lat="47.33206" lon="-2.46473">
        <ele>83.599998474121</ele>
        <time>2022-02-17T10:27:35.000Z</time>
      </trkpt>
      <trkpt lat="47.33203" lon="-2.46473">
        <ele>83.199996948242</ele>
        <time>2022-02-17T10:27:36.000Z</time>
      </trkpt>
      <trkpt lat="47.33197" lon="-2.46473">
        <ele>83.199996948242</ele>
        <time>2022-02-17T10:27:38.000Z</time>
      </trkpt>
      <trkpt lat="47.33187" lon="-2.46478">
        <ele>82.599998474121</ele>
        <time>2022-02-17T10:27:41.000Z</time>
      </trkpt>
      <trkpt lat="47.33183" lon="-2.4648">
        <ele>82.199996948242</ele>
        <time>2022-02-17T10:27:42.000Z</time>
      </trkpt>
      <trkpt lat="47.3318" lon="-2.46482">
        <ele>81.599998474121</ele>
        <time>2022-02-17T10:27:43.000Z</time>
      </trkpt>
      <trkpt lat="47.33176" lon="-2.46485">
        <ele>81.199996948242</ele>
        <time>2022-02-17T10:27:44.000Z</time>
      </trkpt>
      <trkpt lat="47.33172" lon="-2.46487">
        <ele>80.599998474121</ele>
        <time>2022-02-17T10:27:45.000Z</time>
      </trkpt>
      <trkpt lat="47.33166" lon="-2.4649">
        <ele>80.199996948242</ele>
        <time>2022-02-17T10:27:47.000Z</time>
      </trkpt>
      <trkpt lat="47.33163" lon="-2.46491">
        <ele>79.800003051758</ele>
        <time>2022-02-17T10:27:48.000Z</time>
      </trkpt>
      <trkpt lat="47.33159" lon="-2.46493">
        <ele>79.400001525879</ele>
        <time>2022-02-17T10:27:49.000Z</time>
      </trkpt>
      <trkpt lat="47.33155" lon="-2.46494">
        <ele>78.800003051758</ele>
        <time>2022-02-17T10:27:50.000Z</time>
      </trkpt>
      <trkpt lat="47.33151" lon="-2.46495">
        <ele>78.400001525879</ele>
        <time>2022-02-17T10:27:51.000Z</time>
      </trkpt>
      <trkpt lat="47.33144" lon="-2.46496">
        <ele>78.400001525879</ele>
        <time>2022-02-17T10:27:53.000Z</time>
      </trkpt>
      <trkpt lat="47.33128" lon="-2.46499">
        <ele>78</ele>
        <time>2022-02-17T10:27:57.000Z</time>
      </trkpt>
      <trkpt lat="47.33124" lon="-2.465">
        <ele>77.199996948242</ele>
        <time>2022-02-17T10:27:58.000Z</time>
      </trkpt>
      <trkpt lat="47.3312" lon="-2.46501">
        <ele>76.800003051758</ele>
        <time>2022-02-17T10:27:59.000Z</time>
      </trkpt>
      <trkpt lat="47.33116" lon="-2.46503">
        <ele>76.400001525879</ele>
        <time>2022-02-17T10:28:00.000Z</time>
      </trkpt>
      <trkpt lat="47.33098" lon="-2.46513">
        <ele>76.400001525879</ele>
        <time>2022-02-17T10:28:04.000Z</time>
      </trkpt>
      <trkpt lat="47.33092" lon="-2.46515">
        <ele>76.400001525879</ele>
        <time>2022-02-17T10:28:05.000Z</time>
      </trkpt>
      <trkpt lat="47.33087" lon="-2.46518">
        <ele>76</ele>
        <time>2022-02-17T10:28:06.000Z</time>
      </trkpt>
      <trkpt lat="47.33081" lon="-2.46521">
        <ele>75.599998474121</ele>
        <time>2022-02-17T10:28:07.000Z</time>
      </trkpt>
      <trkpt lat="47.33076" lon="-2.46524">
        <ele>75.199996948242</ele>
        <time>2022-02-17T10:28:08.000Z</time>
      </trkpt>
      <trkpt lat="47.3307" lon="-2.46527">
        <ele>74.400001525879</ele>
        <time>2022-02-17T10:28:09.000Z</time>
      </trkpt>
      <trkpt lat="47.33065" lon="-2.46529">
        <ele>73.800003051758</ele>
        <time>2022-02-17T10:28:10.000Z</time>
      </trkpt>
      <trkpt lat="47.3306" lon="-2.46531">
        <ele>73.199996948242</ele>
        <time>2022-02-17T10:28:11.000Z</time>
      </trkpt>
      <trkpt lat="47.33056" lon="-2.46533">
        <ele>72.599998474121</ele>
        <time>2022-02-17T10:28:12.000Z</time>
      </trkpt>
      <trkpt lat="47.33052" lon="-2.46535">
        <ele>72</ele>
        <time>2022-02-17T10:28:13.000Z</time>
      </trkpt>
      <trkpt lat="47.33049" lon="-2.46537">
        <ele>71.599998474121</ele>
        <time>2022-02-17T10:28:14.000Z</time>
      </trkpt>
      <trkpt lat="47.33044" lon="-2.46538">
        <ele>71.199996948242</ele>
        <time>2022-02-17T10:28:15.000Z</time>
      </trkpt>
      <trkpt lat="47.3304" lon="-2.46539">
        <ele>70.800003051758</ele>
        <time>2022-02-17T10:28:16.000Z</time>
      </trkpt>
      <trkpt lat="47.33035" lon="-2.46541">
        <ele>70.400001525879</ele>
        <time>2022-02-17T10:28:17.000Z</time>
      </trkpt>
      <trkpt lat="47.33029" lon="-2.4654">
        <ele>70</ele>
        <time>2022-02-17T10:28:18.000Z</time>
      </trkpt>
      <trkpt lat="47.33023" lon="-2.4654">
        <ele>70</ele>
        <time>2022-02-17T10:28:19.000Z</time>
      </trkpt>
      <trkpt lat="47.33017" lon="-2.4654">
        <ele>70</ele>
        <time>2022-02-17T10:28:20.000Z</time>
      </trkpt>
      <trkpt lat="47.33001" lon="-2.46548">
        <ele>70</ele>
        <time>2022-02-17T10:28:23.000Z</time>
      </trkpt>
      <trkpt lat="47.32983" lon="-2.46558">
        <ele>69.599998474121</ele>
        <time>2022-02-17T10:28:26.000Z</time>
      </trkpt>
      <trkpt lat="47.32978" lon="-2.46561">
        <ele>69</ele>
        <time>2022-02-17T10:28:27.000Z</time>
      </trkpt>
      <trkpt lat="47.32972" lon="-2.46564">
        <ele>68.400001525879</ele>
        <time>2022-02-17T10:28:28.000Z</time>
      </trkpt>
      <trkpt lat="47.32968" lon="-2.46566">
        <ele>67.800003051758</ele>
        <time>2022-02-17T10:28:29.000Z</time>
      </trkpt>
      <trkpt lat="47.32965" lon="-2.46567">
        <ele>67.199996948242</ele>
        <time>2022-02-17T10:28:30.000Z</time>
      </trkpt>
      <trkpt lat="47.32962" lon="-2.46565">
        <ele>66.599998474121</ele>
        <time>2022-02-17T10:28:31.000Z</time>
      </trkpt>
      <trkpt lat="47.3296" lon="-2.46563">
        <ele>65.800003051758</ele>
        <time>2022-02-17T10:28:32.000Z</time>
      </trkpt>
      <trkpt lat="47.32958" lon="-2.46559">
        <ele>65.199996948242</ele>
        <time>2022-02-17T10:28:33.000Z</time>
      </trkpt>
      <trkpt lat="47.32957" lon="-2.46554">
        <ele>64.800003051758</ele>
        <time>2022-02-17T10:28:34.000Z</time>
      </trkpt>
      <trkpt lat="47.32956" lon="-2.46548">
        <ele>64.199996948242</ele>
        <time>2022-02-17T10:28:35.000Z</time>
      </trkpt>
      <trkpt lat="47.32955" lon="-2.46542">
        <ele>63.599998474121</ele>
        <time>2022-02-17T10:28:36.000Z</time>
      </trkpt>
      <trkpt lat="47.32955" lon="-2.46535">
        <ele>63</ele>
        <time>2022-02-17T10:28:37.000Z</time>
      </trkpt>
      <trkpt lat="47.32956" lon="-2.46516">
        <ele>63</ele>
        <time>2022-02-17T10:28:40.000Z</time>
      </trkpt>
      <trkpt lat="47.32957" lon="-2.4651">
        <ele>63</ele>
        <time>2022-02-17T10:28:41.000Z</time>
      </trkpt>
      <trkpt lat="47.32958" lon="-2.46478">
        <ele>63</ele>
        <time>2022-02-17T10:28:46.000Z</time>
      </trkpt>
      <trkpt lat="47.32958" lon="-2.46466">
        <ele>63.799999237061</ele>
        <time>2022-02-17T10:28:48.000Z</time>
      </trkpt>
      <trkpt lat="47.32959" lon="-2.46459">
        <ele>64.199996948242</ele>
        <time>2022-02-17T10:28:49.000Z</time>
      </trkpt>
      <trkpt lat="47.32958" lon="-2.46454">
        <ele>64.599998474121</ele>
        <time>2022-02-17T10:28:50.000Z</time>
      </trkpt>
      <trkpt lat="47.32958" lon="-2.46448">
        <ele>65</ele>
        <time>2022-02-17T10:28:51.000Z</time>
      </trkpt>
      <trkpt lat="47.32959" lon="-2.46442">
        <ele>65</ele>
        <time>2022-02-17T10:28:52.000Z</time>
      </trkpt>
      <trkpt lat="47.32959" lon="-2.46431">
        <ele>65.400001525879</ele>
        <time>2022-02-17T10:28:54.000Z</time>
      </trkpt>
      <trkpt lat="47.3296" lon="-2.46425">
        <ele>66</ele>
        <time>2022-02-17T10:28:55.000Z</time>
      </trkpt>
      <trkpt lat="47.32959" lon="-2.46419">
        <ele>66.400001525879</ele>
        <time>2022-02-17T10:28:56.000Z</time>
      </trkpt>
      <trkpt lat="47.32959" lon="-2.46414">
        <ele>66.800003051758</ele>
        <time>2022-02-17T10:28:57.000Z</time>
      </trkpt>
      <trkpt lat="47.32959" lon="-2.46409">
        <ele>67.400001525879</ele>
        <time>2022-02-17T10:28:58.000Z</time>
      </trkpt>
      <trkpt lat="47.3296" lon="-2.46404">
        <ele>67.400001525879</ele>
        <time>2022-02-17T10:28:59.000Z</time>
      </trkpt>
      <trkpt lat="47.3296" lon="-2.46398">
        <ele>67.800003051758</ele>
        <time>2022-02-17T10:29:00.000Z</time>
      </trkpt>
      <trkpt lat="47.3296" lon="-2.46393">
        <ele>68.199996948242</ele>
        <time>2022-02-17T10:29:01.000Z</time>
      </trkpt>
      <trkpt lat="47.32959" lon="-2.46389">
        <ele>68.599998474121</ele>
        <time>2022-02-17T10:29:02.000Z</time>
      </trkpt>
      <trkpt lat="47.32959" lon="-2.46384">
        <ele>69</ele>
        <time>2022-02-17T10:29:03.000Z</time>
      </trkpt>
      <trkpt lat="47.32959" lon="-2.46379">
        <ele>69.400001525879</ele>
        <time>2022-02-17T10:29:04.000Z</time>
      </trkpt>
      <trkpt lat="47.32957" lon="-2.46369">
        <ele>70</ele>
        <time>2022-02-17T10:29:06.000Z</time>
      </trkpt>
      <trkpt lat="47.32957" lon="-2.46364">
        <ele>70.400001525879</ele>
        <time>2022-02-17T10:29:07.000Z</time>
      </trkpt>
      <trkpt lat="47.32955" lon="-2.46359">
        <ele>70.800003051758</ele>
        <time>2022-02-17T10:29:08.000Z</time>
      </trkpt>
      <trkpt lat="47.32954" lon="-2.46353">
        <ele>71.199996948242</ele>
        <time>2022-02-17T10:29:09.000Z</time>
      </trkpt>
      <trkpt lat="47.32953" lon="-2.46349">
        <ele>71.599998474121</ele>
        <time>2022-02-17T10:29:10.000Z</time>
      </trkpt>
      <trkpt lat="47.32951" lon="-2.4634">
        <ele>72</ele>
        <time>2022-02-17T10:29:12.000Z</time>
      </trkpt>
      <trkpt lat="47.3295" lon="-2.46335">
        <ele>72.800003051758</ele>
        <time>2022-02-17T10:29:13.000Z</time>
      </trkpt>
      <trkpt lat="47.32949" lon="-2.46331">
        <ele>73.199996948242</ele>
        <time>2022-02-17T10:29:14.000Z</time>
      </trkpt>
      <trkpt lat="47.32948" lon="-2.46326">
        <ele>73.599998474121</ele>
        <time>2022-02-17T10:29:15.000Z</time>
      </trkpt>
      <trkpt lat="47.32942" lon="-2.46307">
        <ele>74.199996948242</ele>
        <time>2022-02-17T10:29:19.000Z</time>
      </trkpt>
      <trkpt lat="47.32941" lon="-2.46302">
        <ele>74.599998474121</ele>
        <time>2022-02-17T10:29:20.000Z</time>
      </trkpt>
      <trkpt lat="47.32939" lon="-2.46297">
        <ele>75</ele>
        <time>2022-02-17T10:29:21.000Z</time>
      </trkpt>
      <trkpt lat="47.32938" lon="-2.46292">
        <ele>75.599998474121</ele>
        <time>2022-02-17T10:29:22.000Z</time>
      </trkpt>
      <trkpt lat="47.32937" lon="-2.46286">
        <ele>76</ele>
        <time>2022-02-17T10:29:23.000Z</time>
      </trkpt>
      <trkpt lat="47.32931" lon="-2.46263">
        <ele>76</ele>
        <time>2022-02-17T10:29:27.000Z</time>
      </trkpt>
      <trkpt lat="47.32916" lon="-2.46204">
        <ele>76</ele>
        <time>2022-02-17T10:29:37.000Z</time>
      </trkpt>
      <trkpt lat="47.32912" lon="-2.46186">
        <ele>76.400001525879</ele>
        <time>2022-02-17T10:29:40.000Z</time>
      </trkpt>
      <trkpt lat="47.3291" lon="-2.4618">
        <ele>76.800003051758</ele>
        <time>2022-02-17T10:29:41.000Z</time>
      </trkpt>
      <trkpt lat="47.32909" lon="-2.46175">
        <ele>77.199996948242</ele>
        <time>2022-02-17T10:29:42.000Z</time>
      </trkpt>
      <trkpt lat="47.32908" lon="-2.46169">
        <ele>77.599998474121</ele>
        <time>2022-02-17T10:29:43.000Z</time>
      </trkpt>
      <trkpt lat="47.32907" lon="-2.46164">
        <ele>78</ele>
        <time>2022-02-17T10:29:44.000Z</time>
      </trkpt>
      <trkpt lat="47.32899" lon="-2.46148">
        <ele>78</ele>
        <time>2022-02-17T10:29:48.000Z</time>
      </trkpt>
      <trkpt lat="47.32887" lon="-2.46151">
        <ele>78</ele>
        <time>2022-02-17T10:29:51.000Z</time>
      </trkpt>
      <trkpt lat="47.32879" lon="-2.46156">
        <ele>78</ele>
        <time>2022-02-17T10:29:53.000Z</time>
      </trkpt>
      <trkpt lat="47.32865" lon="-2.46167">
        <ele>78</ele>
        <time>2022-02-17T10:29:56.000Z</time>
      </trkpt>
      <trkpt lat="47.32848" lon="-2.46179">
        <ele>77.599998474121</ele>
        <time>2022-02-17T10:29:59.000Z</time>
      </trkpt>
      <trkpt lat="47.32842" lon="-2.46183">
        <ele>77</ele>
        <time>2022-02-17T10:30:00.000Z</time>
      </trkpt>
      <trkpt lat="47.32836" lon="-2.46187">
        <ele>76.599998474121</ele>
        <time>2022-02-17T10:30:01.000Z</time>
      </trkpt>
      <trkpt lat="47.3283" lon="-2.4619">
        <ele>75.599998474121</ele>
        <time>2022-02-17T10:30:02.000Z</time>
      </trkpt>
      <trkpt lat="47.32824" lon="-2.46193">
        <ele>75</ele>
        <time>2022-02-17T10:30:03.000Z</time>
      </trkpt>
      <trkpt lat="47.32818" lon="-2.46195">
        <ele>74.599998474121</ele>
        <time>2022-02-17T10:30:04.000Z</time>
      </trkpt>
      <trkpt lat="47.32812" lon="-2.46194">
        <ele>74.199996948242</ele>
        <time>2022-02-17T10:30:05.000Z</time>
      </trkpt>
      <trkpt lat="47.32806" lon="-2.46192">
        <ele>73.599998474121</ele>
        <time>2022-02-17T10:30:06.000Z</time>
      </trkpt>
      <trkpt lat="47.32799" lon="-2.4619">
        <ele>73.199996948242</ele>
        <time>2022-02-17T10:30:07.000Z</time>
      </trkpt>
      <trkpt lat="47.32794" lon="-2.46187">
        <ele>73.199996948242</ele>
        <time>2022-02-17T10:30:08.000Z</time>
      </trkpt>
      <trkpt lat="47.32783" lon="-2.46179">
        <ele>73.199996948242</ele>
        <time>2022-02-17T10:30:10.000Z</time>
      </trkpt>
      <trkpt lat="47.32778" lon="-2.46173">
        <ele>72.800003051758</ele>
        <time>2022-02-17T10:30:11.000Z</time>
      </trkpt>
      <trkpt lat="47.32774" lon="-2.46167">
        <ele>72.199996948242</ele>
        <time>2022-02-17T10:30:12.000Z</time>
      </trkpt>
      <trkpt lat="47.3277" lon="-2.46161">
        <ele>71.800003051758</ele>
        <time>2022-02-17T10:30:13.000Z</time>
      </trkpt>
      <trkpt lat="47.32767" lon="-2.46155">
        <ele>71.400001525879</ele>
        <time>2022-02-17T10:30:14.000Z</time>
      </trkpt>
      <trkpt lat="47.32765" lon="-2.4615">
        <ele>71</ele>
        <time>2022-02-17T10:30:15.000Z</time>
      </trkpt>
      <trkpt lat="47.32764" lon="-2.46146">
        <ele>71</ele>
        <time>2022-02-17T10:30:16.000Z</time>
      </trkpt>
      <trkpt lat="47.32764" lon="-2.46138">
        <ele>71</ele>
        <time>2022-02-17T10:30:19.000Z</time>
      </trkpt>
      <trkpt lat="47.32764" lon="-2.46135">
        <ele>70.400001525879</ele>
        <time>2022-02-17T10:30:20.000Z</time>
      </trkpt>
      <trkpt lat="47.32764" lon="-2.46132">
        <ele>70</ele>
        <time>2022-02-17T10:30:21.000Z</time>
      </trkpt>
      <trkpt lat="47.32763" lon="-2.46128">
        <ele>69.599998474121</ele>
        <time>2022-02-17T10:30:22.000Z</time>
      </trkpt>
      <trkpt lat="47.32763" lon="-2.46126">
        <ele>69.199996948242</ele>
        <time>2022-02-17T10:30:23.000Z</time>
      </trkpt>
      <trkpt lat="47.32763" lon="-2.46123">
        <ele>68.800003051758</ele>
        <time>2022-02-17T10:30:24.000Z</time>
      </trkpt>
      <trkpt lat="47.32762" lon="-2.46117">
        <ele>68.800003051758</ele>
        <time>2022-02-17T10:30:25.000Z</time>
      </trkpt>
      <trkpt lat="47.32759" lon="-2.46112">
        <ele>68.800003051758</ele>
        <time>2022-02-17T10:30:26.000Z</time>
      </trkpt>
      <trkpt lat="47.32751" lon="-2.46097">
        <ele>68.800003051758</ele>
        <time>2022-02-17T10:30:29.000Z</time>
      </trkpt>
      <trkpt lat="47.3274" lon="-2.46081">
        <ele>68.400001525879</ele>
        <time>2022-02-17T10:30:34.000Z</time>
      </trkpt>
      <trkpt lat="47.32738" lon="-2.4608">
        <ele>68</ele>
        <time>2022-02-17T10:30:35.000Z</time>
      </trkpt>
      <trkpt lat="47.32736" lon="-2.46078">
        <ele>67.599998474121</ele>
        <time>2022-02-17T10:30:36.000Z</time>
      </trkpt>
      <trkpt lat="47.32733" lon="-2.46076">
        <ele>67.199996948242</ele>
        <time>2022-02-17T10:30:37.000Z</time>
      </trkpt>
      <trkpt lat="47.32731" lon="-2.46074">
        <ele>66.800003051758</ele>
        <time>2022-02-17T10:30:38.000Z</time>
      </trkpt>
      <trkpt lat="47.32724" lon="-2.46067">
        <ele>66.800003051758</ele>
        <time>2022-02-17T10:30:41.000Z</time>
      </trkpt>
      <trkpt lat="47.3271" lon="-2.4605">
        <ele>66.800003051758</ele>
        <time>2022-02-17T10:30:47.000Z</time>
      </trkpt>
      <trkpt lat="47.32701" lon="-2.46035">
        <ele>65.800003051758</ele>
        <time>2022-02-17T10:30:52.000Z</time>
      </trkpt>
      <trkpt lat="47.32699" lon="-2.46033">
        <ele>65.400001525879</ele>
        <time>2022-02-17T10:30:53.000Z</time>
      </trkpt>
      <trkpt lat="47.32697" lon="-2.46031">
        <ele>65</ele>
        <time>2022-02-17T10:30:54.000Z</time>
      </trkpt>
      <trkpt lat="47.32696" lon="-2.46028">
        <ele>64.599998474121</ele>
        <time>2022-02-17T10:30:55.000Z</time>
      </trkpt>
      <trkpt lat="47.32692" lon="-2.46022">
        <ele>64.599998474121</ele>
        <time>2022-02-17T10:30:57.000Z</time>
      </trkpt>
      <trkpt lat="47.3268" lon="-2.46004">
        <ele>64.599998474121</ele>
        <time>2022-02-17T10:31:03.000Z</time>
      </trkpt>
      <trkpt lat="47.32659" lon="-2.45983">
        <ele>64.599998474121</ele>
        <time>2022-02-17T10:31:10.000Z</time>
      </trkpt>
      <trkpt lat="47.32654" lon="-2.45978">
        <ele>64.599998474121</ele>
        <time>2022-02-17T10:31:11.000Z</time>
      </trkpt>
      <trkpt lat="47.32639" lon="-2.45966">
        <ele>64.599998474121</ele>
        <time>2022-02-17T10:31:15.000Z</time>
      </trkpt>
      <trkpt lat="47.32628" lon="-2.45948">
        <ele>64.599998474121</ele>
        <time>2022-02-17T10:31:20.000Z</time>
      </trkpt>
      <trkpt lat="47.32617" lon="-2.45929">
        <ele>64.599998474121</ele>
        <time>2022-02-17T10:31:26.000Z</time>
      </trkpt>
      <trkpt lat="47.32615" lon="-2.45926">
        <ele>64.599998474121</ele>
        <time>2022-02-17T10:31:29.000Z</time>
      </trkpt>
      <trkpt lat="47.32613" lon="-2.45921">
        <ele>64.599998474121</ele>
        <time>2022-02-17T10:31:38.000Z</time>
      </trkpt>
      <trkpt lat="47.32604" lon="-2.45906">
        <ele>64.599998474121</ele>
        <time>2022-02-17T10:31:43.000Z</time>
      </trkpt>
      <trkpt lat="47.32586" lon="-2.45884">
        <ele>64.599998474121</ele>
        <time>2022-02-17T10:31:50.000Z</time>
      </trkpt>
      <trkpt lat="47.32571" lon="-2.45866">
        <ele>64.599998474121</ele>
        <time>2022-02-17T10:31:56.000Z</time>
      </trkpt>
      <trkpt lat="47.32562" lon="-2.45847">
        <ele>64.599998474121</ele>
        <time>2022-02-17T10:32:02.000Z</time>
      </trkpt>
      <trkpt lat="47.32551" lon="-2.45828">
        <ele>64.599998474121</ele>
        <time>2022-02-17T10:32:07.000Z</time>
      </trkpt>
      <trkpt lat="47.32534" lon="-2.45804">
        <ele>64.599998474121</ele>
        <time>2022-02-17T10:32:13.000Z</time>
      </trkpt>
      <trkpt lat="47.32515" lon="-2.45769">
        <ele>64.599998474121</ele>
        <time>2022-02-17T10:32:19.000Z</time>
      </trkpt>
      <trkpt lat="47.32503" lon="-2.45748">
        <ele>64.199996948242</ele>
        <time>2022-02-17T10:32:22.000Z</time>
      </trkpt>
      <trkpt lat="47.32499" lon="-2.45741">
        <ele>63.799999237061</ele>
        <time>2022-02-17T10:32:23.000Z</time>
      </trkpt>
      <trkpt lat="47.32495" lon="-2.45734">
        <ele>63.400001525879</ele>
        <time>2022-02-17T10:32:24.000Z</time>
      </trkpt>
      <trkpt lat="47.32491" lon="-2.45727">
        <ele>63</ele>
        <time>2022-02-17T10:32:25.000Z</time>
      </trkpt>
      <trkpt lat="47.32486" lon="-2.4572">
        <ele>62.599998474121</ele>
        <time>2022-02-17T10:32:26.000Z</time>
      </trkpt>
      <trkpt lat="47.32459" lon="-2.45674">
        <ele>62.599998474121</ele>
        <time>2022-02-17T10:32:33.000Z</time>
      </trkpt>
      <trkpt lat="47.32438" lon="-2.45643">
        <ele>62.599998474121</ele>
        <time>2022-02-17T10:32:39.000Z</time>
      </trkpt>
      <trkpt lat="47.32417" lon="-2.45611">
        <ele>62.599998474121</ele>
        <time>2022-02-17T10:32:45.000Z</time>
      </trkpt>
      <trkpt lat="47.32404" lon="-2.45584">
        <ele>62.599998474121</ele>
        <time>2022-02-17T10:32:50.000Z</time>
      </trkpt>
      <trkpt lat="47.32385" lon="-2.4554">
        <ele>62.599998474121</ele>
        <time>2022-02-17T10:32:58.000Z</time>
      </trkpt>
      <trkpt lat="47.32358" lon="-2.45496">
        <ele>62.599998474121</ele>
        <time>2022-02-17T10:33:06.000Z</time>
      </trkpt>
      <trkpt lat="47.32332" lon="-2.45455">
        <ele>62.599998474121</ele>
        <time>2022-02-17T10:33:13.000Z</time>
      </trkpt>
      <trkpt lat="47.32327" lon="-2.4545">
        <ele>62.599998474121</ele>
        <time>2022-02-17T10:33:14.000Z</time>
      </trkpt>
      <trkpt lat="47.32311" lon="-2.45421">
        <ele>62.599998474121</ele>
        <time>2022-02-17T10:33:19.000Z</time>
      </trkpt>
      <trkpt lat="47.3231" lon="-2.45416">
        <ele>62.599998474121</ele>
        <time>2022-02-17T10:33:20.000Z</time>
      </trkpt>
      <trkpt lat="47.32313" lon="-2.45402">
        <ele>62.599998474121</ele>
        <time>2022-02-17T10:33:23.000Z</time>
      </trkpt>
      <trkpt lat="47.32317" lon="-2.45383">
        <ele>62.599998474121</ele>
        <time>2022-02-17T10:33:27.000Z</time>
      </trkpt>
      <trkpt lat="47.32317" lon="-2.45378">
        <ele>62.599998474121</ele>
        <time>2022-02-17T10:33:28.000Z</time>
      </trkpt>
      <trkpt lat="47.32313" lon="-2.45356">
        <ele>62.599998474121</ele>
        <time>2022-02-17T10:33:33.000Z</time>
      </trkpt>
      <trkpt lat="47.32312" lon="-2.45352">
        <ele>63</ele>
        <time>2022-02-17T10:33:34.000Z</time>
      </trkpt>
      <trkpt lat="47.32312" lon="-2.45347">
        <ele>63.400001525879</ele>
        <time>2022-02-17T10:33:35.000Z</time>
      </trkpt>
      <trkpt lat="47.32312" lon="-2.45343">
        <ele>63.799999237061</ele>
        <time>2022-02-17T10:33:36.000Z</time>
      </trkpt>
      <trkpt lat="47.32314" lon="-2.45338">
        <ele>64.199996948242</ele>
        <time>2022-02-17T10:33:37.000Z</time>
      </trkpt>
      <trkpt lat="47.32315" lon="-2.45334">
        <ele>64.599998474121</ele>
        <time>2022-02-17T10:33:38.000Z</time>
      </trkpt>
      <trkpt lat="47.32314" lon="-2.45309">
        <ele>64.599998474121</ele>
        <time>2022-02-17T10:33:43.000Z</time>
      </trkpt>
      <trkpt lat="47.32305" lon="-2.45275">
        <ele>64.599998474121</ele>
        <time>2022-02-17T10:33:49.000Z</time>
      </trkpt>
      <trkpt lat="47.32291" lon="-2.45232">
        <ele>64.599998474121</ele>
        <time>2022-02-17T10:33:55.000Z</time>
      </trkpt>
      <trkpt lat="47.3227" lon="-2.45187">
        <ele>64.599998474121</ele>
        <time>2022-02-17T10:34:01.000Z</time>
      </trkpt>
      <trkpt lat="47.32266" lon="-2.45181">
        <ele>64.599998474121</ele>
        <time>2022-02-17T10:34:02.000Z</time>
      </trkpt>
      <trkpt lat="47.32263" lon="-2.45161">
        <ele>64.599998474121</ele>
        <time>2022-02-17T10:34:05.000Z</time>
      </trkpt>
      <trkpt lat="47.32258" lon="-2.45142">
        <ele>64.599998474121</ele>
        <time>2022-02-17T10:34:08.000Z</time>
      </trkpt>
      <trkpt lat="47.32253" lon="-2.45125">
        <ele>64.599998474121</ele>
        <time>2022-02-17T10:34:11.000Z</time>
      </trkpt>
      <trkpt lat="47.3225" lon="-2.45119">
        <ele>65</ele>
        <time>2022-02-17T10:34:12.000Z</time>
      </trkpt>
      <trkpt lat="47.32248" lon="-2.45113">
        <ele>65.400001525879</ele>
        <time>2022-02-17T10:34:13.000Z</time>
      </trkpt>
      <trkpt lat="47.32246" lon="-2.45107">
        <ele>65.800003051758</ele>
        <time>2022-02-17T10:34:14.000Z</time>
      </trkpt>
      <trkpt lat="47.32244" lon="-2.45101">
        <ele>66.199996948242</ele>
        <time>2022-02-17T10:34:15.000Z</time>
      </trkpt>
      <trkpt lat="47.32241" lon="-2.45096">
        <ele>66.599998474121</ele>
        <time>2022-02-17T10:34:16.000Z</time>
      </trkpt>
      <trkpt lat="47.32234" lon="-2.45079">
        <ele>66.599998474121</ele>
        <time>2022-02-17T10:34:19.000Z</time>
      </trkpt>
      <trkpt lat="47.32215" lon="-2.45036">
        <ele>66.599998474121</ele>
        <time>2022-02-17T10:34:26.000Z</time>
      </trkpt>
      <trkpt lat="47.32212" lon="-2.4503">
        <ele>66.599998474121</ele>
        <time>2022-02-17T10:34:27.000Z</time>
      </trkpt>
      <trkpt lat="47.32202" lon="-2.4501">
        <ele>66.599998474121</ele>
        <time>2022-02-17T10:34:31.000Z</time>
      </trkpt>
      <trkpt lat="47.32185" lon="-2.44978">
        <ele>66.599998474121</ele>
        <time>2022-02-17T10:34:37.000Z</time>
      </trkpt>
      <trkpt lat="47.32181" lon="-2.44975">
        <ele>66.599998474121</ele>
        <time>2022-02-17T10:34:38.000Z</time>
      </trkpt>
      <trkpt lat="47.32159" lon="-2.44953">
        <ele>66.599998474121</ele>
        <time>2022-02-17T10:34:44.000Z</time>
      </trkpt>
      <trkpt lat="47.3213" lon="-2.44921">
        <ele>66.199996948242</ele>
        <time>2022-02-17T10:34:52.000Z</time>
      </trkpt>
      <trkpt lat="47.32127" lon="-2.44915">
        <ele>65.800003051758</ele>
        <time>2022-02-17T10:34:53.000Z</time>
      </trkpt>
      <trkpt lat="47.32124" lon="-2.44908">
        <ele>65.400001525879</ele>
        <time>2022-02-17T10:34:54.000Z</time>
      </trkpt>
      <trkpt lat="47.32121" lon="-2.44902">
        <ele>65</ele>
        <time>2022-02-17T10:34:55.000Z</time>
      </trkpt>
      <trkpt lat="47.32117" lon="-2.44896">
        <ele>64.400001525879</ele>
        <time>2022-02-17T10:34:56.000Z</time>
      </trkpt>
      <trkpt lat="47.32109" lon="-2.44875">
        <ele>64.400001525879</ele>
        <time>2022-02-17T10:34:59.000Z</time>
      </trkpt>
      <trkpt lat="47.32087" lon="-2.44824">
        <ele>64.400001525879</ele>
        <time>2022-02-17T10:35:07.000Z</time>
      </trkpt>
      <trkpt lat="47.32065" lon="-2.44774">
        <ele>64.400001525879</ele>
        <time>2022-02-17T10:35:15.000Z</time>
      </trkpt>
      <trkpt lat="47.32062" lon="-2.44769">
        <ele>64.400001525879</ele>
        <time>2022-02-17T10:35:16.000Z</time>
      </trkpt>
      <trkpt lat="47.32046" lon="-2.44742">
        <ele>64.400001525879</ele>
        <time>2022-02-17T10:35:21.000Z</time>
      </trkpt>
      <trkpt lat="47.32039" lon="-2.44731">
        <ele>64</ele>
        <time>2022-02-17T10:35:23.000Z</time>
      </trkpt>
      <trkpt lat="47.32035" lon="-2.44727">
        <ele>63.200000762939</ele>
        <time>2022-02-17T10:35:24.000Z</time>
      </trkpt>
      <trkpt lat="47.32032" lon="-2.44721">
        <ele>62.799999237061</ele>
        <time>2022-02-17T10:35:25.000Z</time>
      </trkpt>
      <trkpt lat="47.32028" lon="-2.44716">
        <ele>62.400001525879</ele>
        <time>2022-02-17T10:35:26.000Z</time>
      </trkpt>
      <trkpt lat="47.3202" lon="-2.44705">
        <ele>62.400001525879</ele>
        <time>2022-02-17T10:35:28.000Z</time>
      </trkpt>
      <trkpt lat="47.31991" lon="-2.44665">
        <ele>62.400001525879</ele>
        <time>2022-02-17T10:35:36.000Z</time>
      </trkpt>
      <trkpt lat="47.31961" lon="-2.4463">
        <ele>62.400001525879</ele>
        <time>2022-02-17T10:35:43.000Z</time>
      </trkpt>
      <trkpt lat="47.31931" lon="-2.44595">
        <ele>62.400001525879</ele>
        <time>2022-02-17T10:35:50.000Z</time>
      </trkpt>
      <trkpt lat="47.31909" lon="-2.44568">
        <ele>62.400001525879</ele>
        <time>2022-02-17T10:35:56.000Z</time>
      </trkpt>
      <trkpt lat="47.31904" lon="-2.44565">
        <ele>62.400001525879</ele>
        <time>2022-02-17T10:35:57.000Z</time>
      </trkpt>
      <trkpt lat="47.31896" lon="-2.44571">
        <ele>62.400001525879</ele>
        <time>2022-02-17T10:35:59.000Z</time>
      </trkpt>
      <trkpt lat="47.31887" lon="-2.4459">
        <ele>62.400001525879</ele>
        <time>2022-02-17T10:36:02.000Z</time>
      </trkpt>
      <trkpt lat="47.31881" lon="-2.44605">
        <ele>62.400001525879</ele>
        <time>2022-02-17T10:36:04.000Z</time>
      </trkpt>
      <trkpt lat="47.3187" lon="-2.44637">
        <ele>62</ele>
        <time>2022-02-17T10:36:08.000Z</time>
      </trkpt>
      <trkpt lat="47.31867" lon="-2.44645">
        <ele>61.599998474121</ele>
        <time>2022-02-17T10:36:09.000Z</time>
      </trkpt>
      <trkpt lat="47.31864" lon="-2.44652">
        <ele>61</ele>
        <time>2022-02-17T10:36:10.000Z</time>
      </trkpt>
      <trkpt lat="47.3186" lon="-2.4466">
        <ele>60.599998474121</ele>
        <time>2022-02-17T10:36:11.000Z</time>
      </trkpt>
      <trkpt lat="47.31857" lon="-2.44668">
        <ele>60.200000762939</ele>
        <time>2022-02-17T10:36:12.000Z</time>
      </trkpt>
      <trkpt lat="47.31847" lon="-2.44688">
        <ele>60.200000762939</ele>
        <time>2022-02-17T10:36:15.000Z</time>
      </trkpt>
      <trkpt lat="47.31826" lon="-2.44716">
        <ele>60.200000762939</ele>
        <time>2022-02-17T10:36:20.000Z</time>
      </trkpt>
      <trkpt lat="47.31821" lon="-2.44721">
        <ele>60.200000762939</ele>
        <time>2022-02-17T10:36:21.000Z</time>
      </trkpt>
      <trkpt lat="47.31812" lon="-2.44728">
        <ele>60.200000762939</ele>
        <time>2022-02-17T10:36:23.000Z</time>
      </trkpt>
      <trkpt lat="47.31794" lon="-2.44736">
        <ele>60.200000762939</ele>
        <time>2022-02-17T10:36:27.000Z</time>
      </trkpt>
      <trkpt lat="47.31785" lon="-2.44741">
        <ele>60.200000762939</ele>
        <time>2022-02-17T10:36:29.000Z</time>
      </trkpt>
      <trkpt lat="47.31769" lon="-2.44751">
        <ele>60.200000762939</ele>
        <time>2022-02-17T10:36:33.000Z</time>
      </trkpt>
      <trkpt lat="47.31766" lon="-2.44755">
        <ele>60.200000762939</ele>
        <time>2022-02-17T10:36:34.000Z</time>
      </trkpt>
      <trkpt lat="47.31752" lon="-2.4477">
        <ele>60.200000762939</ele>
        <time>2022-02-17T10:36:38.000Z</time>
      </trkpt>
      <trkpt lat="47.31748" lon="-2.44773">
        <ele>60.200000762939</ele>
        <time>2022-02-17T10:36:39.000Z</time>
      </trkpt>
      <trkpt lat="47.31737" lon="-2.44783">
        <ele>59.799999237061</ele>
        <time>2022-02-17T10:36:43.000Z</time>
      </trkpt>
      <trkpt lat="47.31735" lon="-2.44784">
        <ele>59.400001525879</ele>
        <time>2022-02-17T10:36:44.000Z</time>
      </trkpt>
      <trkpt lat="47.31733" lon="-2.44785">
        <ele>59</ele>
        <time>2022-02-17T10:36:45.000Z</time>
      </trkpt>
      <trkpt lat="47.31731" lon="-2.44786">
        <ele>58.599998474121</ele>
        <time>2022-02-17T10:36:46.000Z</time>
      </trkpt>
      <trkpt lat="47.31731" lon="-2.44785">
        <ele>58.200000762939</ele>
        <time>2022-02-17T10:36:47.000Z</time>
      </trkpt>
      <trkpt lat="47.31732" lon="-2.44785">
        <ele>58.200000762939</ele>
        <time>2022-02-17T10:36:48.000Z</time>
      </trkpt>
      <trkpt lat="47.31729" lon="-2.44785">
        <ele>58.200000762939</ele>
        <time>2022-02-17T10:36:52.000Z</time>
      </trkpt>
      <trkpt lat="47.31724" lon="-2.44783">
        <ele>58.200000762939</ele>
        <time>2022-02-17T10:36:55.000Z</time>
      </trkpt>
      <trkpt lat="47.31717" lon="-2.44774">
        <ele>58.200000762939</ele>
        <time>2022-02-17T10:36:58.000Z</time>
      </trkpt>
      <trkpt lat="47.31716" lon="-2.4477">
        <ele>58.200000762939</ele>
        <time>2022-02-17T10:36:59.000Z</time>
      </trkpt>
      <trkpt lat="47.3171" lon="-2.44756">
        <ele>58.200000762939</ele>
        <time>2022-02-17T10:37:04.000Z</time>
      </trkpt>
      <trkpt lat="47.31702" lon="-2.44735">
        <ele>58.200000762939</ele>
        <time>2022-02-17T10:37:09.000Z</time>
      </trkpt>
      <trkpt lat="47.31685" lon="-2.44696">
        <ele>58.200000762939</ele>
        <time>2022-02-17T10:37:17.000Z</time>
      </trkpt>
      <trkpt lat="47.31667" lon="-2.44653">
        <ele>58.200000762939</ele>
        <time>2022-02-17T10:37:24.000Z</time>
      </trkpt>
      <trkpt lat="47.31639" lon="-2.4459">
        <ele>58.200000762939</ele>
        <time>2022-02-17T10:37:34.000Z</time>
      </trkpt>
      <trkpt lat="47.31635" lon="-2.44583">
        <ele>58.200000762939</ele>
        <time>2022-02-17T10:37:35.000Z</time>
      </trkpt>
      <trkpt lat="47.31617" lon="-2.44552">
        <ele>58.200000762939</ele>
        <time>2022-02-17T10:37:40.000Z</time>
      </trkpt>
      <trkpt lat="47.31593" lon="-2.44511">
        <ele>58.200000762939</ele>
        <time>2022-02-17T10:37:46.000Z</time>
      </trkpt>
      <trkpt lat="47.3158" lon="-2.44465">
        <ele>58.200000762939</ele>
        <time>2022-02-17T10:37:51.000Z</time>
      </trkpt>
      <trkpt lat="47.31577" lon="-2.44446">
        <ele>57.599998474121</ele>
        <time>2022-02-17T10:37:53.000Z</time>
      </trkpt>
      <trkpt lat="47.31576" lon="-2.44436">
        <ele>57.200000762939</ele>
        <time>2022-02-17T10:37:54.000Z</time>
      </trkpt>
      <trkpt lat="47.31575" lon="-2.44427">
        <ele>56.799999237061</ele>
        <time>2022-02-17T10:37:55.000Z</time>
      </trkpt>
      <trkpt lat="47.31573" lon="-2.44419">
        <ele>56.400001525879</ele>
        <time>2022-02-17T10:37:56.000Z</time>
      </trkpt>
      <trkpt lat="47.31572" lon="-2.4441">
        <ele>56</ele>
        <time>2022-02-17T10:37:57.000Z</time>
      </trkpt>
      <trkpt lat="47.31571" lon="-2.44401">
        <ele>56</ele>
        <time>2022-02-17T10:37:58.000Z</time>
      </trkpt>
      <trkpt lat="47.31559" lon="-2.44323">
        <ele>56</ele>
        <time>2022-02-17T10:38:07.000Z</time>
      </trkpt>
      <trkpt lat="47.31549" lon="-2.44259">
        <ele>56</ele>
        <time>2022-02-17T10:38:14.000Z</time>
      </trkpt>
      <trkpt lat="47.31534" lon="-2.44192">
        <ele>56</ele>
        <time>2022-02-17T10:38:22.000Z</time>
      </trkpt>
      <trkpt lat="47.31522" lon="-2.44163">
        <ele>56.400001525879</ele>
        <time>2022-02-17T10:38:26.000Z</time>
      </trkpt>
      <trkpt lat="47.31518" lon="-2.44156">
        <ele>56.799999237061</ele>
        <time>2022-02-17T10:38:27.000Z</time>
      </trkpt>
      <trkpt lat="47.31514" lon="-2.44149">
        <ele>57.200000762939</ele>
        <time>2022-02-17T10:38:28.000Z</time>
      </trkpt>
      <trkpt lat="47.3151" lon="-2.44143">
        <ele>57.599998474121</ele>
        <time>2022-02-17T10:38:29.000Z</time>
      </trkpt>
      <trkpt lat="47.31505" lon="-2.44136">
        <ele>58</ele>
        <time>2022-02-17T10:38:30.000Z</time>
      </trkpt>
      <trkpt lat="47.31475" lon="-2.44096">
        <ele>58</ele>
        <time>2022-02-17T10:38:36.000Z</time>
      </trkpt>
      <trkpt lat="47.31436" lon="-2.44046">
        <ele>58</ele>
        <time>2022-02-17T10:38:44.000Z</time>
      </trkpt>
      <trkpt lat="47.31393" lon="-2.43992">
        <ele>58</ele>
        <time>2022-02-17T10:38:53.000Z</time>
      </trkpt>
      <trkpt lat="47.31366" lon="-2.4395">
        <ele>58</ele>
        <time>2022-02-17T10:38:59.000Z</time>
      </trkpt>
      <trkpt lat="47.31342" lon="-2.43891">
        <ele>58</ele>
        <time>2022-02-17T10:39:06.000Z</time>
      </trkpt>
      <trkpt lat="47.31322" lon="-2.43839">
        <ele>58</ele>
        <time>2022-02-17T10:39:12.000Z</time>
      </trkpt>
      <trkpt lat="47.31317" lon="-2.43832">
        <ele>58</ele>
        <time>2022-02-17T10:39:13.000Z</time>
      </trkpt>
      <trkpt lat="47.31298" lon="-2.43805">
        <ele>58</ele>
        <time>2022-02-17T10:39:17.000Z</time>
      </trkpt>
      <trkpt lat="47.31294" lon="-2.43797">
        <ele>58</ele>
        <time>2022-02-17T10:39:18.000Z</time>
      </trkpt>
      <trkpt lat="47.3127" lon="-2.43741">
        <ele>58</ele>
        <time>2022-02-17T10:39:24.000Z</time>
      </trkpt>
      <trkpt lat="47.31248" lon="-2.43678">
        <ele>58</ele>
        <time>2022-02-17T10:39:31.000Z</time>
      </trkpt>
      <trkpt lat="47.31235" lon="-2.43613">
        <ele>58</ele>
        <time>2022-02-17T10:39:38.000Z</time>
      </trkpt>
      <trkpt lat="47.31223" lon="-2.43537">
        <ele>58</ele>
        <time>2022-02-17T10:39:46.000Z</time>
      </trkpt>
      <trkpt lat="47.31212" lon="-2.43458">
        <ele>58</ele>
        <time>2022-02-17T10:39:54.000Z</time>
      </trkpt>
      <trkpt lat="47.3121" lon="-2.43448">
        <ele>58</ele>
        <time>2022-02-17T10:39:55.000Z</time>
      </trkpt>
      <trkpt lat="47.31198" lon="-2.43369">
        <ele>58</ele>
        <time>2022-02-17T10:40:03.000Z</time>
      </trkpt>
      <trkpt lat="47.31195" lon="-2.43351">
        <ele>58</ele>
        <time>2022-02-17T10:40:05.000Z</time>
      </trkpt>
      <trkpt lat="47.31183" lon="-2.43308">
        <ele>58</ele>
        <time>2022-02-17T10:40:10.000Z</time>
      </trkpt>
      <trkpt lat="47.31162" lon="-2.4327">
        <ele>58</ele>
        <time>2022-02-17T10:40:15.000Z</time>
      </trkpt>
      <trkpt lat="47.31123" lon="-2.4321">
        <ele>58</ele>
        <time>2022-02-17T10:40:23.000Z</time>
      </trkpt>
      <trkpt lat="47.31118" lon="-2.43203">
        <ele>58</ele>
        <time>2022-02-17T10:40:24.000Z</time>
      </trkpt>
      <trkpt lat="47.311" lon="-2.43171">
        <ele>58</ele>
        <time>2022-02-17T10:40:28.000Z</time>
      </trkpt>
      <trkpt lat="47.31093" lon="-2.43152">
        <ele>58</ele>
        <time>2022-02-17T10:40:30.000Z</time>
      </trkpt>
      <trkpt lat="47.31074" lon="-2.43089">
        <ele>58</ele>
        <time>2022-02-17T10:40:37.000Z</time>
      </trkpt>
      <trkpt lat="47.31058" lon="-2.4303">
        <ele>58</ele>
        <time>2022-02-17T10:40:44.000Z</time>
      </trkpt>
      <trkpt lat="47.31053" lon="-2.43007">
        <ele>58</ele>
        <time>2022-02-17T10:40:47.000Z</time>
      </trkpt>
      <trkpt lat="47.31048" lon="-2.42995">
        <ele>58</ele>
        <time>2022-02-17T10:40:49.000Z</time>
      </trkpt>
      <trkpt lat="47.31043" lon="-2.42977">
        <ele>58</ele>
        <time>2022-02-17T10:40:53.000Z</time>
      </trkpt>
      <trkpt lat="47.31044" lon="-2.42975">
        <ele>58</ele>
        <time>2022-02-17T10:40:55.000Z</time>
      </trkpt>
      <trkpt lat="47.31044" lon="-2.42973">
        <ele>58</ele>
        <time>2022-02-17T10:41:06.000Z</time>
      </trkpt>
      <trkpt lat="47.31044" lon="-2.4297">
        <ele>58</ele>
        <time>2022-02-17T10:41:07.000Z</time>
      </trkpt>
      <trkpt lat="47.31052" lon="-2.42957">
        <ele>58</ele>
        <time>2022-02-17T10:41:11.000Z</time>
      </trkpt>
      <trkpt lat="47.31073" lon="-2.42952">
        <ele>58</ele>
        <time>2022-02-17T10:41:15.000Z</time>
      </trkpt>
      <trkpt lat="47.31121" lon="-2.42945">
        <ele>58</ele>
        <time>2022-02-17T10:41:23.000Z</time>
      </trkpt>
      <trkpt lat="47.3117" lon="-2.42937">
        <ele>58.400001525879</ele>
        <time>2022-02-17T10:41:31.000Z</time>
      </trkpt>
      <trkpt lat="47.31177" lon="-2.42937">
        <ele>58.799999237061</ele>
        <time>2022-02-17T10:41:32.000Z</time>
      </trkpt>
      <trkpt lat="47.31183" lon="-2.42936">
        <ele>59.400001525879</ele>
        <time>2022-02-17T10:41:33.000Z</time>
      </trkpt>
      <trkpt lat="47.31189" lon="-2.42935">
        <ele>59.799999237061</ele>
        <time>2022-02-17T10:41:34.000Z</time>
      </trkpt>
      <trkpt lat="47.31195" lon="-2.42933">
        <ele>60.200000762939</ele>
        <time>2022-02-17T10:41:35.000Z</time>
      </trkpt>
      <trkpt lat="47.31227" lon="-2.42928">
        <ele>60.200000762939</ele>
        <time>2022-02-17T10:41:40.000Z</time>
      </trkpt>
      <trkpt lat="47.31284" lon="-2.42916">
        <ele>60.200000762939</ele>
        <time>2022-02-17T10:41:49.000Z</time>
      </trkpt>
      <trkpt lat="47.31334" lon="-2.42904">
        <ele>60.200000762939</ele>
        <time>2022-02-17T10:41:57.000Z</time>
      </trkpt>
      <trkpt lat="47.31382" lon="-2.42891">
        <ele>60.200000762939</ele>
        <time>2022-02-17T10:42:05.000Z</time>
      </trkpt>
      <trkpt lat="47.31388" lon="-2.42889">
        <ele>60.599998474121</ele>
        <time>2022-02-17T10:42:06.000Z</time>
      </trkpt>
      <trkpt lat="47.31394" lon="-2.42888">
        <ele>61</ele>
        <time>2022-02-17T10:42:07.000Z</time>
      </trkpt>
      <trkpt lat="47.314" lon="-2.42885">
        <ele>61.400001525879</ele>
        <time>2022-02-17T10:42:08.000Z</time>
      </trkpt>
      <trkpt lat="47.31406" lon="-2.42883">
        <ele>61.799999237061</ele>
        <time>2022-02-17T10:42:09.000Z</time>
      </trkpt>
      <trkpt lat="47.31411" lon="-2.42881">
        <ele>62.200000762939</ele>
        <time>2022-02-17T10:42:10.000Z</time>
      </trkpt>
      <trkpt lat="47.31423" lon="-2.42877">
        <ele>62.200000762939</ele>
        <time>2022-02-17T10:42:12.000Z</time>
      </trkpt>
      <trkpt lat="47.31461" lon="-2.42859">
        <ele>62.200000762939</ele>
        <time>2022-02-17T10:42:19.000Z</time>
      </trkpt>
      <trkpt lat="47.31467" lon="-2.42837">
        <ele>62.200000762939</ele>
        <time>2022-02-17T10:42:22.000Z</time>
      </trkpt>
      <trkpt lat="47.31465" lon="-2.4282">
        <ele>62.200000762939</ele>
        <time>2022-02-17T10:42:24.000Z</time>
      </trkpt>
      <trkpt lat="47.3146" lon="-2.42794">
        <ele>62.200000762939</ele>
        <time>2022-02-17T10:42:27.000Z</time>
      </trkpt>
      <trkpt lat="47.31454" lon="-2.42767">
        <ele>62.200000762939</ele>
        <time>2022-02-17T10:42:30.000Z</time>
      </trkpt>
      <trkpt lat="47.31444" lon="-2.42741">
        <ele>62.200000762939</ele>
        <time>2022-02-17T10:42:33.000Z</time>
      </trkpt>
      <trkpt lat="47.31416" lon="-2.42694">
        <ele>62.200000762939</ele>
        <time>2022-02-17T10:42:39.000Z</time>
      </trkpt>
      <trkpt lat="47.31377" lon="-2.42628">
        <ele>62.200000762939</ele>
        <time>2022-02-17T10:42:47.000Z</time>
      </trkpt>
      <trkpt lat="47.31359" lon="-2.4258">
        <ele>62.200000762939</ele>
        <time>2022-02-17T10:42:52.000Z</time>
      </trkpt>
      <trkpt lat="47.31354" lon="-2.42549">
        <ele>62.200000762939</ele>
        <time>2022-02-17T10:42:55.000Z</time>
      </trkpt>
      <trkpt lat="47.31352" lon="-2.42528">
        <ele>62.200000762939</ele>
        <time>2022-02-17T10:42:57.000Z</time>
      </trkpt>
      <trkpt lat="47.31343" lon="-2.42467">
        <ele>62.200000762939</ele>
        <time>2022-02-17T10:43:03.000Z</time>
      </trkpt>
      <trkpt lat="47.3134" lon="-2.42457">
        <ele>62.200000762939</ele>
        <time>2022-02-17T10:43:04.000Z</time>
      </trkpt>
      <trkpt lat="47.31326" lon="-2.42428">
        <ele>62.200000762939</ele>
        <time>2022-02-17T10:43:07.000Z</time>
      </trkpt>
      <trkpt lat="47.3129" lon="-2.42368">
        <ele>62.200000762939</ele>
        <time>2022-02-17T10:43:14.000Z</time>
      </trkpt>
      <trkpt lat="47.31259" lon="-2.4233">
        <ele>62.200000762939</ele>
        <time>2022-02-17T10:43:19.000Z</time>
      </trkpt>
      <trkpt lat="47.31216" lon="-2.42279">
        <ele>62.200000762939</ele>
        <time>2022-02-17T10:43:26.000Z</time>
      </trkpt>
      <trkpt lat="47.31185" lon="-2.42213">
        <ele>62.200000762939</ele>
        <time>2022-02-17T10:43:33.000Z</time>
      </trkpt>
      <trkpt lat="47.31159" lon="-2.42159">
        <ele>61.799999237061</ele>
        <time>2022-02-17T10:43:39.000Z</time>
      </trkpt>
      <trkpt lat="47.31154" lon="-2.4215">
        <ele>61.400001525879</ele>
        <time>2022-02-17T10:43:40.000Z</time>
      </trkpt>
      <trkpt lat="47.3115" lon="-2.4214">
        <ele>61</ele>
        <time>2022-02-17T10:43:41.000Z</time>
      </trkpt>
      <trkpt lat="47.31145" lon="-2.42131">
        <ele>60.400001525879</ele>
        <time>2022-02-17T10:43:42.000Z</time>
      </trkpt>
      <trkpt lat="47.31141" lon="-2.42121">
        <ele>60</ele>
        <time>2022-02-17T10:43:43.000Z</time>
      </trkpt>
      <trkpt lat="47.31127" lon="-2.42092">
        <ele>60</ele>
        <time>2022-02-17T10:43:46.000Z</time>
      </trkpt>
      <trkpt lat="47.31101" lon="-2.42026">
        <ele>60</ele>
        <time>2022-02-17T10:43:53.000Z</time>
      </trkpt>
      <trkpt lat="47.31085" lon="-2.41971">
        <ele>60</ele>
        <time>2022-02-17T10:43:59.000Z</time>
      </trkpt>
      <trkpt lat="47.31078" lon="-2.4195">
        <ele>60</ele>
        <time>2022-02-17T10:44:02.000Z</time>
      </trkpt>
      <trkpt lat="47.31076" lon="-2.41947">
        <ele>60</ele>
        <time>2022-02-17T10:44:03.000Z</time>
      </trkpt>
      <trkpt lat="47.3107" lon="-2.41943">
        <ele>60</ele>
        <time>2022-02-17T10:44:07.000Z</time>
      </trkpt>
      <trkpt lat="47.31067" lon="-2.41951">
        <ele>60</ele>
        <time>2022-02-17T10:44:11.000Z</time>
      </trkpt>
      <trkpt lat="47.31063" lon="-2.41955">
        <ele>60</ele>
        <time>2022-02-17T10:44:16.000Z</time>
      </trkpt>
      <trkpt lat="47.31063" lon="-2.41953">
        <ele>60</ele>
        <time>2022-02-17T10:44:17.000Z</time>
      </trkpt>
      <trkpt lat="47.31067" lon="-2.41948">
        <ele>60</ele>
        <time>2022-02-17T10:44:21.000Z</time>
      </trkpt>
      <trkpt lat="47.3107" lon="-2.41944">
        <ele>60</ele>
        <time>2022-02-17T10:44:24.000Z</time>
      </trkpt>
      <trkpt lat="47.31073" lon="-2.41942">
        <ele>60</ele>
        <time>2022-02-17T10:44:27.000Z</time>
      </trkpt>
      <trkpt lat="47.31076" lon="-2.41943">
        <ele>60</ele>
        <time>2022-02-17T10:44:32.000Z</time>
      </trkpt>
      <trkpt lat="47.31075" lon="-2.41945">
        <ele>60</ele>
        <time>2022-02-17T10:44:34.000Z</time>
      </trkpt>
      <trkpt lat="47.31075" lon="-2.41947">
        <ele>60</ele>
        <time>2022-02-17T10:44:40.000Z</time>
      </trkpt>
      <trkpt lat="47.31073" lon="-2.41948">
        <ele>60</ele>
        <time>2022-02-17T10:44:41.000Z</time>
      </trkpt>
      <trkpt lat="47.31072" lon="-2.41943">
        <ele>60</ele>
        <time>2022-02-17T10:44:44.000Z</time>
      </trkpt>
      <trkpt lat="47.31074" lon="-2.4193">
        <ele>60</ele>
        <time>2022-02-17T10:44:48.000Z</time>
      </trkpt>
      <trkpt lat="47.31071" lon="-2.4192">
        <ele>60</ele>
        <time>2022-02-17T10:44:50.000Z</time>
      </trkpt>
      <trkpt lat="47.31068" lon="-2.41908">
        <ele>60</ele>
        <time>2022-02-17T10:44:52.000Z</time>
      </trkpt>
      <trkpt lat="47.31057" lon="-2.41867">
        <ele>60</ele>
        <time>2022-02-17T10:44:58.000Z</time>
      </trkpt>
      <trkpt lat="47.31037" lon="-2.41814">
        <ele>60</ele>
        <time>2022-02-17T10:45:05.000Z</time>
      </trkpt>
      <trkpt lat="47.31013" lon="-2.41771">
        <ele>60.400001525879</ele>
        <time>2022-02-17T10:45:11.000Z</time>
      </trkpt>
      <trkpt lat="47.31008" lon="-2.41764">
        <ele>60.799999237061</ele>
        <time>2022-02-17T10:45:12.000Z</time>
      </trkpt>
      <trkpt lat="47.31003" lon="-2.41756">
        <ele>61.200000762939</ele>
        <time>2022-02-17T10:45:13.000Z</time>
      </trkpt>
      <trkpt lat="47.30998" lon="-2.41749">
        <ele>61.799999237061</ele>
        <time>2022-02-17T10:45:14.000Z</time>
      </trkpt>
      <trkpt lat="47.30993" lon="-2.41742">
        <ele>62.200000762939</ele>
        <time>2022-02-17T10:45:15.000Z</time>
      </trkpt>
      <trkpt lat="47.30972" lon="-2.4171">
        <ele>62.200000762939</ele>
        <time>2022-02-17T10:45:19.000Z</time>
      </trkpt>
      <trkpt lat="47.30951" lon="-2.41668">
        <ele>62.200000762939</ele>
        <time>2022-02-17T10:45:24.000Z</time>
      </trkpt>
      <trkpt lat="47.30948" lon="-2.41658">
        <ele>62.200000762939</ele>
        <time>2022-02-17T10:45:25.000Z</time>
      </trkpt>
      <trkpt lat="47.30944" lon="-2.41638">
        <ele>62.200000762939</ele>
        <time>2022-02-17T10:45:27.000Z</time>
      </trkpt>
      <trkpt lat="47.30939" lon="-2.41608">
        <ele>62.200000762939</ele>
        <time>2022-02-17T10:45:30.000Z</time>
      </trkpt>
      <trkpt lat="47.3093" lon="-2.41544">
        <ele>62.200000762939</ele>
        <time>2022-02-17T10:45:37.000Z</time>
      </trkpt>
      <trkpt lat="47.30924" lon="-2.41508">
        <ele>62.200000762939</ele>
        <time>2022-02-17T10:45:42.000Z</time>
      </trkpt>
      <trkpt lat="47.30919" lon="-2.41478">
        <ele>62.200000762939</ele>
        <time>2022-02-17T10:45:45.000Z</time>
      </trkpt>
      <trkpt lat="47.30908" lon="-2.4142">
        <ele>62.200000762939</ele>
        <time>2022-02-17T10:45:51.000Z</time>
      </trkpt>
      <trkpt lat="47.30899" lon="-2.41393">
        <ele>62.200000762939</ele>
        <time>2022-02-17T10:45:54.000Z</time>
      </trkpt>
      <trkpt lat="47.30889" lon="-2.41378">
        <ele>62.200000762939</ele>
        <time>2022-02-17T10:45:56.000Z</time>
      </trkpt>
      <trkpt lat="47.30854" lon="-2.4134">
        <ele>62.200000762939</ele>
        <time>2022-02-17T10:46:02.000Z</time>
      </trkpt>
      <trkpt lat="47.30813" lon="-2.41302">
        <ele>62.200000762939</ele>
        <time>2022-02-17T10:46:09.000Z</time>
      </trkpt>
      <trkpt lat="47.30784" lon="-2.41263">
        <ele>62.200000762939</ele>
        <time>2022-02-17T10:46:14.000Z</time>
      </trkpt>
      <trkpt lat="47.30764" lon="-2.41214">
        <ele>62.200000762939</ele>
        <time>2022-02-17T10:46:19.000Z</time>
      </trkpt>
      <trkpt lat="47.30745" lon="-2.41161">
        <ele>62.200000762939</ele>
        <time>2022-02-17T10:46:25.000Z</time>
      </trkpt>
      <trkpt lat="47.30734" lon="-2.41109">
        <ele>62.200000762939</ele>
        <time>2022-02-17T10:46:31.000Z</time>
      </trkpt>
      <trkpt lat="47.30721" lon="-2.41059">
        <ele>62.200000762939</ele>
        <time>2022-02-17T10:46:37.000Z</time>
      </trkpt>
      <trkpt lat="47.30697" lon="-2.41017">
        <ele>62.200000762939</ele>
        <time>2022-02-17T10:46:43.000Z</time>
      </trkpt>
      <trkpt lat="47.30662" lon="-2.40962">
        <ele>62.200000762939</ele>
        <time>2022-02-17T10:46:51.000Z</time>
      </trkpt>
      <trkpt lat="47.30638" lon="-2.40922">
        <ele>62.200000762939</ele>
        <time>2022-02-17T10:46:57.000Z</time>
      </trkpt>
      <trkpt lat="47.30631" lon="-2.40908">
        <ele>62.200000762939</ele>
        <time>2022-02-17T10:46:59.000Z</time>
      </trkpt>
      <trkpt lat="47.3062" lon="-2.40883">
        <ele>62.200000762939</ele>
        <time>2022-02-17T10:47:03.000Z</time>
      </trkpt>
      <trkpt lat="47.30612" lon="-2.40869">
        <ele>62.200000762939</ele>
        <time>2022-02-17T10:47:07.000Z</time>
      </trkpt>
      <trkpt lat="47.30605" lon="-2.40855">
        <ele>62.200000762939</ele>
        <time>2022-02-17T10:47:12.000Z</time>
      </trkpt>
      <trkpt lat="47.30603" lon="-2.4085">
        <ele>62.200000762939</ele>
        <time>2022-02-17T10:47:13.000Z</time>
      </trkpt>
      <trkpt lat="47.30599" lon="-2.40832">
        <ele>62.200000762939</ele>
        <time>2022-02-17T10:47:16.000Z</time>
      </trkpt>
      <trkpt lat="47.30594" lon="-2.40812">
        <ele>62.200000762939</ele>
        <time>2022-02-17T10:47:19.000Z</time>
      </trkpt>
      <trkpt lat="47.30592" lon="-2.40805">
        <ele>62.200000762939</ele>
        <time>2022-02-17T10:47:20.000Z</time>
      </trkpt>
      <trkpt lat="47.30578" lon="-2.40768">
        <ele>62.200000762939</ele>
        <time>2022-02-17T10:47:25.000Z</time>
      </trkpt>
      <trkpt lat="47.30554" lon="-2.40707">
        <ele>62.200000762939</ele>
        <time>2022-02-17T10:47:33.000Z</time>
      </trkpt>
      <trkpt lat="47.30538" lon="-2.40666">
        <ele>62.200000762939</ele>
        <time>2022-02-17T10:47:39.000Z</time>
      </trkpt>
      <trkpt lat="47.30519" lon="-2.40619">
        <ele>61.799999237061</ele>
        <time>2022-02-17T10:47:46.000Z</time>
      </trkpt>
      <trkpt lat="47.30516" lon="-2.40612">
        <ele>61.400001525879</ele>
        <time>2022-02-17T10:47:47.000Z</time>
      </trkpt>
      <trkpt lat="47.30514" lon="-2.40606">
        <ele>61</ele>
        <time>2022-02-17T10:47:48.000Z</time>
      </trkpt>
      <trkpt lat="47.30511" lon="-2.40598">
        <ele>60.400001525879</ele>
        <time>2022-02-17T10:47:49.000Z</time>
      </trkpt>
      <trkpt lat="47.30508" lon="-2.40591">
        <ele>60</ele>
        <time>2022-02-17T10:47:50.000Z</time>
      </trkpt>
      <trkpt lat="47.30499" lon="-2.40569">
        <ele>60</ele>
        <time>2022-02-17T10:47:53.000Z</time>
      </trkpt>
      <trkpt lat="47.30481" lon="-2.40517">
        <ele>60</ele>
        <time>2022-02-17T10:48:00.000Z</time>
      </trkpt>
      <trkpt lat="47.30462" lon="-2.40468">
        <ele>60</ele>
        <time>2022-02-17T10:48:07.000Z</time>
      </trkpt>
      <trkpt lat="47.30444" lon="-2.40424">
        <ele>60.400001525879</ele>
        <time>2022-02-17T10:48:14.000Z</time>
      </trkpt>
      <trkpt lat="47.30442" lon="-2.40418">
        <ele>61</ele>
        <time>2022-02-17T10:48:15.000Z</time>
      </trkpt>
      <trkpt lat="47.3044" lon="-2.40412">
        <ele>61.400001525879</ele>
        <time>2022-02-17T10:48:16.000Z</time>
      </trkpt>
      <trkpt lat="47.30438" lon="-2.40406">
        <ele>61.799999237061</ele>
        <time>2022-02-17T10:48:17.000Z</time>
      </trkpt>
      <trkpt lat="47.30436" lon="-2.404">
        <ele>62.200000762939</ele>
        <time>2022-02-17T10:48:18.000Z</time>
      </trkpt>
      <trkpt lat="47.30432" lon="-2.40391">
        <ele>62.200000762939</ele>
        <time>2022-02-17T10:48:20.000Z</time>
      </trkpt>
      <trkpt lat="47.30423" lon="-2.40368">
        <ele>62.200000762939</ele>
        <time>2022-02-17T10:48:25.000Z</time>
      </trkpt>
      <trkpt lat="47.30418" lon="-2.40358">
        <ele>62.599998474121</ele>
        <time>2022-02-17T10:48:27.000Z</time>
      </trkpt>
      <trkpt lat="47.30415" lon="-2.40352">
        <ele>63.400001525879</ele>
        <time>2022-02-17T10:48:28.000Z</time>
      </trkpt>
      <trkpt lat="47.30412" lon="-2.40347">
        <ele>63.799999237061</ele>
        <time>2022-02-17T10:48:29.000Z</time>
      </trkpt>
      <trkpt lat="47.3041" lon="-2.40342">
        <ele>64.199996948242</ele>
        <time>2022-02-17T10:48:30.000Z</time>
      </trkpt>
      <trkpt lat="47.30405" lon="-2.40331">
        <ele>64.199996948242</ele>
        <time>2022-02-17T10:48:32.000Z</time>
      </trkpt>
      <trkpt lat="47.30394" lon="-2.403">
        <ele>64.599998474121</ele>
        <time>2022-02-17T10:48:37.000Z</time>
      </trkpt>
      <trkpt lat="47.30392" lon="-2.40294">
        <ele>65</ele>
        <time>2022-02-17T10:48:38.000Z</time>
      </trkpt>
      <trkpt lat="47.3039" lon="-2.40288">
        <ele>65.400001525879</ele>
        <time>2022-02-17T10:48:39.000Z</time>
      </trkpt>
      <trkpt lat="47.30388" lon="-2.40281">
        <ele>65.800003051758</ele>
        <time>2022-02-17T10:48:40.000Z</time>
      </trkpt>
      <trkpt lat="47.30385" lon="-2.40275">
        <ele>66.199996948242</ele>
        <time>2022-02-17T10:48:41.000Z</time>
      </trkpt>
      <trkpt lat="47.30377" lon="-2.40248">
        <ele>66.199996948242</ele>
        <time>2022-02-17T10:48:45.000Z</time>
      </trkpt>
      <trkpt lat="47.30363" lon="-2.40206">
        <ele>66.199996948242</ele>
        <time>2022-02-17T10:48:51.000Z</time>
      </trkpt>
      <trkpt lat="47.30356" lon="-2.40194">
        <ele>66.199996948242</ele>
        <time>2022-02-17T10:48:53.000Z</time>
      </trkpt>
      <trkpt lat="47.30347" lon="-2.40184">
        <ele>66.199996948242</ele>
        <time>2022-02-17T10:48:55.000Z</time>
      </trkpt>
      <trkpt lat="47.30339" lon="-2.40172">
        <ele>66.199996948242</ele>
        <time>2022-02-17T10:48:57.000Z</time>
      </trkpt>
      <trkpt lat="47.30337" lon="-2.40165">
        <ele>66.199996948242</ele>
        <time>2022-02-17T10:48:58.000Z</time>
      </trkpt>
      <trkpt lat="47.30327" lon="-2.40125">
        <ele>66.199996948242</ele>
        <time>2022-02-17T10:49:03.000Z</time>
      </trkpt>
      <trkpt lat="47.30313" lon="-2.40076">
        <ele>66.199996948242</ele>
        <time>2022-02-17T10:49:09.000Z</time>
      </trkpt>
      <trkpt lat="47.30293" lon="-2.40019">
        <ele>66.199996948242</ele>
        <time>2022-02-17T10:49:16.000Z</time>
      </trkpt>
      <trkpt lat="47.30284" lon="-2.39985">
        <ele>66.199996948242</ele>
        <time>2022-02-17T10:49:20.000Z</time>
      </trkpt>
      <trkpt lat="47.30282" lon="-2.39977">
        <ele>66.199996948242</ele>
        <time>2022-02-17T10:49:21.000Z</time>
      </trkpt>
      <trkpt lat="47.30262" lon="-2.39912">
        <ele>66.199996948242</ele>
        <time>2022-02-17T10:49:29.000Z</time>
      </trkpt>
      <trkpt lat="47.30246" lon="-2.39865">
        <ele>66.199996948242</ele>
        <time>2022-02-17T10:49:35.000Z</time>
      </trkpt>
      <trkpt lat="47.30226" lon="-2.39801">
        <ele>66.199996948242</ele>
        <time>2022-02-17T10:49:43.000Z</time>
      </trkpt>
      <trkpt lat="47.30208" lon="-2.39746">
        <ele>66.199996948242</ele>
        <time>2022-02-17T10:49:50.000Z</time>
      </trkpt>
      <trkpt lat="47.30202" lon="-2.3973">
        <ele>66.199996948242</ele>
        <time>2022-02-17T10:49:52.000Z</time>
      </trkpt>
      <trkpt lat="47.30194" lon="-2.39706">
        <ele>66.199996948242</ele>
        <time>2022-02-17T10:49:55.000Z</time>
      </trkpt>
      <trkpt lat="47.30185" lon="-2.39683">
        <ele>66.199996948242</ele>
        <time>2022-02-17T10:49:58.000Z</time>
      </trkpt>
      <trkpt lat="47.30176" lon="-2.39674">
        <ele>66.599998474121</ele>
        <time>2022-02-17T10:50:00.000Z</time>
      </trkpt>
      <trkpt lat="47.3017" lon="-2.39672">
        <ele>67</ele>
        <time>2022-02-17T10:50:01.000Z</time>
      </trkpt>
      <trkpt lat="47.30164" lon="-2.39671">
        <ele>67.400001525879</ele>
        <time>2022-02-17T10:50:02.000Z</time>
      </trkpt>
      <trkpt lat="47.30157" lon="-2.3967">
        <ele>68</ele>
        <time>2022-02-17T10:50:03.000Z</time>
      </trkpt>
      <trkpt lat="47.30152" lon="-2.39669">
        <ele>68.400001525879</ele>
        <time>2022-02-17T10:50:04.000Z</time>
      </trkpt>
      <trkpt lat="47.30134" lon="-2.39667">
        <ele>68.400001525879</ele>
        <time>2022-02-17T10:50:07.000Z</time>
      </trkpt>
      <trkpt lat="47.30117" lon="-2.39663">
        <ele>68.400001525879</ele>
        <time>2022-02-17T10:50:10.000Z</time>
      </trkpt>
      <trkpt lat="47.30069" lon="-2.39655">
        <ele>68.400001525879</ele>
        <time>2022-02-17T10:50:18.000Z</time>
      </trkpt>
      <trkpt lat="47.30024" lon="-2.39645">
        <ele>68.400001525879</ele>
        <time>2022-02-17T10:50:26.000Z</time>
      </trkpt>
      <trkpt lat="47.29981" lon="-2.39633">
        <ele>68.400001525879</ele>
        <time>2022-02-17T10:50:34.000Z</time>
      </trkpt>
      <trkpt lat="47.29962" lon="-2.39632">
        <ele>68.400001525879</ele>
        <time>2022-02-17T10:50:39.000Z</time>
      </trkpt>
      <trkpt lat="47.29953" lon="-2.39631">
        <ele>67.800003051758</ele>
        <time>2022-02-17T10:50:42.000Z</time>
      </trkpt>
      <trkpt lat="47.29951" lon="-2.39627">
        <ele>67.400001525879</ele>
        <time>2022-02-17T10:50:43.000Z</time>
      </trkpt>
      <trkpt lat="47.2995" lon="-2.39623">
        <ele>67</ele>
        <time>2022-02-17T10:50:44.000Z</time>
      </trkpt>
      <trkpt lat="47.29949" lon="-2.39619">
        <ele>66.599998474121</ele>
        <time>2022-02-17T10:50:45.000Z</time>
      </trkpt>
      <trkpt lat="47.29947" lon="-2.39616">
        <ele>66.199996948242</ele>
        <time>2022-02-17T10:50:46.000Z</time>
      </trkpt>
      <trkpt lat="47.29946" lon="-2.39616">
        <ele>66.199996948242</ele>
        <time>2022-02-17T10:50:47.000Z</time>
      </trkpt>
      <trkpt lat="47.29944" lon="-2.39615">
        <ele>66.199996948242</ele>
        <time>2022-02-17T10:50:48.000Z</time>
      </trkpt>
      <trkpt lat="47.29933" lon="-2.39613">
        <ele>66.199996948242</ele>
        <time>2022-02-17T10:50:52.000Z</time>
      </trkpt>
      <trkpt lat="47.29912" lon="-2.39609">
        <ele>66.199996948242</ele>
        <time>2022-02-17T10:50:56.000Z</time>
      </trkpt>
      <trkpt lat="47.29868" lon="-2.396">
        <ele>66.199996948242</ele>
        <time>2022-02-17T10:51:03.000Z</time>
      </trkpt>
      <trkpt lat="47.29855" lon="-2.39598">
        <ele>65.800003051758</ele>
        <time>2022-02-17T10:51:05.000Z</time>
      </trkpt>
      <trkpt lat="47.29849" lon="-2.39597">
        <ele>65.400001525879</ele>
        <time>2022-02-17T10:51:06.000Z</time>
      </trkpt>
      <trkpt lat="47.29842" lon="-2.39596">
        <ele>65</ele>
        <time>2022-02-17T10:51:07.000Z</time>
      </trkpt>
      <trkpt lat="47.29835" lon="-2.39595">
        <ele>64.599998474121</ele>
        <time>2022-02-17T10:51:08.000Z</time>
      </trkpt>
      <trkpt lat="47.29828" lon="-2.39593">
        <ele>64.199996948242</ele>
        <time>2022-02-17T10:51:09.000Z</time>
      </trkpt>
      <trkpt lat="47.29822" lon="-2.39592">
        <ele>64.199996948242</ele>
        <time>2022-02-17T10:51:10.000Z</time>
      </trkpt>
      <trkpt lat="47.29764" lon="-2.39579">
        <ele>64.199996948242</ele>
        <time>2022-02-17T10:51:18.000Z</time>
      </trkpt>
      <trkpt lat="47.29707" lon="-2.39569">
        <ele>63.799999237061</ele>
        <time>2022-02-17T10:51:26.000Z</time>
      </trkpt>
      <trkpt lat="47.297" lon="-2.39568">
        <ele>63.400001525879</ele>
        <time>2022-02-17T10:51:27.000Z</time>
      </trkpt>
      <trkpt lat="47.29694" lon="-2.39567">
        <ele>63</ele>
        <time>2022-02-17T10:51:28.000Z</time>
      </trkpt>
      <trkpt lat="47.29687" lon="-2.39566">
        <ele>62.599998474121</ele>
        <time>2022-02-17T10:51:29.000Z</time>
      </trkpt>
      <trkpt lat="47.2968" lon="-2.39564">
        <ele>62.200000762939</ele>
        <time>2022-02-17T10:51:30.000Z</time>
      </trkpt>
      <trkpt lat="47.29638" lon="-2.39557">
        <ele>62.200000762939</ele>
        <time>2022-02-17T10:51:36.000Z</time>
      </trkpt>
      <trkpt lat="47.296" lon="-2.39551">
        <ele>62.200000762939</ele>
        <time>2022-02-17T10:51:42.000Z</time>
      </trkpt>
      <trkpt lat="47.29587" lon="-2.39548">
        <ele>62.200000762939</ele>
        <time>2022-02-17T10:51:46.000Z</time>
      </trkpt>
      <trkpt lat="47.29566" lon="-2.39544">
        <ele>62.200000762939</ele>
        <time>2022-02-17T10:51:52.000Z</time>
      </trkpt>
      <trkpt lat="47.29554" lon="-2.39537">
        <ele>62.200000762939</ele>
        <time>2022-02-17T10:51:56.000Z</time>
      </trkpt>
      <trkpt lat="47.29555" lon="-2.39531">
        <ele>61.599998474121</ele>
        <time>2022-02-17T10:51:58.000Z</time>
      </trkpt>
      <trkpt lat="47.29555" lon="-2.39528">
        <ele>61.200000762939</ele>
        <time>2022-02-17T10:51:59.000Z</time>
      </trkpt>
      <trkpt lat="47.29555" lon="-2.39524">
        <ele>60.799999237061</ele>
        <time>2022-02-17T10:52:00.000Z</time>
      </trkpt>
      <trkpt lat="47.29554" lon="-2.39521">
        <ele>60.400001525879</ele>
        <time>2022-02-17T10:52:01.000Z</time>
      </trkpt>
      <trkpt lat="47.29553" lon="-2.39516">
        <ele>60</ele>
        <time>2022-02-17T10:52:02.000Z</time>
      </trkpt>
      <trkpt lat="47.29554" lon="-2.39505">
        <ele>60</ele>
        <time>2022-02-17T10:52:04.000Z</time>
      </trkpt>
      <trkpt lat="47.29555" lon="-2.395">
        <ele>59.599998474121</ele>
        <time>2022-02-17T10:52:05.000Z</time>
      </trkpt>
      <trkpt lat="47.29556" lon="-2.39495">
        <ele>59.200000762939</ele>
        <time>2022-02-17T10:52:06.000Z</time>
      </trkpt>
      <trkpt lat="47.2956" lon="-2.39491">
        <ele>58.799999237061</ele>
        <time>2022-02-17T10:52:07.000Z</time>
      </trkpt>
      <trkpt lat="47.29564" lon="-2.39489">
        <ele>58.400001525879</ele>
        <time>2022-02-17T10:52:08.000Z</time>
      </trkpt>
      <trkpt lat="47.29568" lon="-2.39491">
        <ele>58</ele>
        <time>2022-02-17T10:52:09.000Z</time>
      </trkpt>
      <trkpt lat="47.29578" lon="-2.39496">
        <ele>58</ele>
        <time>2022-02-17T10:52:11.000Z</time>
      </trkpt>
      <trkpt lat="47.29583" lon="-2.39496">
        <ele>58</ele>
        <time>2022-02-17T10:52:12.000Z</time>
      </trkpt>
      <trkpt lat="47.29594" lon="-2.39491">
        <ele>58</ele>
        <time>2022-02-17T10:52:14.000Z</time>
      </trkpt>
      <trkpt lat="47.2961" lon="-2.39466">
        <ele>58</ele>
        <time>2022-02-17T10:52:18.000Z</time>
      </trkpt>
      <trkpt lat="47.29618" lon="-2.39452">
        <ele>57.599998474121</ele>
        <time>2022-02-17T10:52:20.000Z</time>
      </trkpt>
      <trkpt lat="47.29622" lon="-2.39446">
        <ele>57.200000762939</ele>
        <time>2022-02-17T10:52:21.000Z</time>
      </trkpt>
      <trkpt lat="47.29626" lon="-2.39438">
        <ele>56.799999237061</ele>
        <time>2022-02-17T10:52:22.000Z</time>
      </trkpt>
      <trkpt lat="47.2963" lon="-2.39431">
        <ele>56.400001525879</ele>
        <time>2022-02-17T10:52:23.000Z</time>
      </trkpt>
      <trkpt lat="47.29632" lon="-2.39422">
        <ele>56</ele>
        <time>2022-02-17T10:52:24.000Z</time>
      </trkpt>
      <trkpt lat="47.29633" lon="-2.39412">
        <ele>56</ele>
        <time>2022-02-17T10:52:25.000Z</time>
      </trkpt>
      <trkpt lat="47.29641" lon="-2.39379">
        <ele>56</ele>
        <time>2022-02-17T10:52:29.000Z</time>
      </trkpt>
      <trkpt lat="47.29642" lon="-2.39361">
        <ele>56</ele>
        <time>2022-02-17T10:52:31.000Z</time>
      </trkpt>
      <trkpt lat="47.29644" lon="-2.39343">
        <ele>56</ele>
        <time>2022-02-17T10:52:33.000Z</time>
      </trkpt>
      <trkpt lat="47.29649" lon="-2.39279">
        <ele>56</ele>
        <time>2022-02-17T10:52:40.000Z</time>
      </trkpt>
      <trkpt lat="47.29657" lon="-2.3922">
        <ele>56</ele>
        <time>2022-02-17T10:52:47.000Z</time>
      </trkpt>
      <trkpt lat="47.29665" lon="-2.39193">
        <ele>56</ele>
        <time>2022-02-17T10:52:51.000Z</time>
      </trkpt>
      <trkpt lat="47.29664" lon="-2.39187">
        <ele>56</ele>
        <time>2022-02-17T10:52:52.000Z</time>
      </trkpt>
      <trkpt lat="47.29653" lon="-2.39179">
        <ele>56</ele>
        <time>2022-02-17T10:52:55.000Z</time>
      </trkpt>
      <trkpt lat="47.29649" lon="-2.39178">
        <ele>56</ele>
        <time>2022-02-17T10:52:56.000Z</time>
      </trkpt>
      <trkpt lat="47.29645" lon="-2.39174">
        <ele>56</ele>
        <time>2022-02-17T10:52:57.000Z</time>
      </trkpt>
      <trkpt lat="47.29638" lon="-2.39162">
        <ele>56</ele>
        <time>2022-02-17T10:52:59.000Z</time>
      </trkpt>
      <trkpt lat="47.29631" lon="-2.39142">
        <ele>56</ele>
        <time>2022-02-17T10:53:02.000Z</time>
      </trkpt>
      <trkpt lat="47.29629" lon="-2.39135">
        <ele>56.400001525879</ele>
        <time>2022-02-17T10:53:03.000Z</time>
      </trkpt>
      <trkpt lat="47.29627" lon="-2.39127">
        <ele>56.799999237061</ele>
        <time>2022-02-17T10:53:04.000Z</time>
      </trkpt>
      <trkpt lat="47.29626" lon="-2.3912">
        <ele>57.200000762939</ele>
        <time>2022-02-17T10:53:05.000Z</time>
      </trkpt>
      <trkpt lat="47.29626" lon="-2.39112">
        <ele>57.599998474121</ele>
        <time>2022-02-17T10:53:06.000Z</time>
      </trkpt>
      <trkpt lat="47.29625" lon="-2.39104">
        <ele>58</ele>
        <time>2022-02-17T10:53:07.000Z</time>
      </trkpt>
      <trkpt lat="47.29624" lon="-2.39082">
        <ele>58</ele>
        <time>2022-02-17T10:53:10.000Z</time>
      </trkpt>
      <trkpt lat="47.29623" lon="-2.39028">
        <ele>58</ele>
        <time>2022-02-17T10:53:18.000Z</time>
      </trkpt>
      <trkpt lat="47.29621" lon="-2.39022">
        <ele>58</ele>
        <time>2022-02-17T10:53:19.000Z</time>
      </trkpt>
      <trkpt lat="47.29615" lon="-2.39013">
        <ele>58</ele>
        <time>2022-02-17T10:53:21.000Z</time>
      </trkpt>
      <trkpt lat="47.29611" lon="-2.39011">
        <ele>58.400001525879</ele>
        <time>2022-02-17T10:53:22.000Z</time>
      </trkpt>
      <trkpt lat="47.29607" lon="-2.39009">
        <ele>58.799999237061</ele>
        <time>2022-02-17T10:53:23.000Z</time>
      </trkpt>
      <trkpt lat="47.29603" lon="-2.39006">
        <ele>59.200000762939</ele>
        <time>2022-02-17T10:53:24.000Z</time>
      </trkpt>
      <trkpt lat="47.29599" lon="-2.39004">
        <ele>60</ele>
        <time>2022-02-17T10:53:25.000Z</time>
      </trkpt>
      <trkpt lat="47.29595" lon="-2.39003">
        <ele>60</ele>
        <time>2022-02-17T10:53:26.000Z</time>
      </trkpt>
      <trkpt lat="47.29576" lon="-2.38994">
        <ele>60</ele>
        <time>2022-02-17T10:53:30.000Z</time>
      </trkpt>
      <trkpt lat="47.29539" lon="-2.38973">
        <ele>60</ele>
        <time>2022-02-17T10:53:38.000Z</time>
      </trkpt>
      <trkpt lat="47.29513" lon="-2.38949">
        <ele>60</ele>
        <time>2022-02-17T10:53:44.000Z</time>
      </trkpt>
      <trkpt lat="47.29506" lon="-2.3894">
        <ele>60</ele>
        <time>2022-02-17T10:53:46.000Z</time>
      </trkpt>
      <trkpt lat="47.29497" lon="-2.38924">
        <ele>60</ele>
        <time>2022-02-17T10:53:49.000Z</time>
      </trkpt>
      <trkpt lat="47.29493" lon="-2.38911">
        <ele>60</ele>
        <time>2022-02-17T10:53:51.000Z</time>
      </trkpt>
      <trkpt lat="47.29484" lon="-2.38881">
        <ele>60</ele>
        <time>2022-02-17T10:53:56.000Z</time>
      </trkpt>
      <trkpt lat="47.29481" lon="-2.38869">
        <ele>60</ele>
        <time>2022-02-17T10:53:58.000Z</time>
      </trkpt>
      <trkpt lat="47.29471" lon="-2.3884">
        <ele>60</ele>
        <time>2022-02-17T10:54:03.000Z</time>
      </trkpt>
      <trkpt lat="47.29471" lon="-2.38809">
        <ele>60</ele>
        <time>2022-02-17T10:54:07.000Z</time>
      </trkpt>
      <trkpt lat="47.29471" lon="-2.38759">
        <ele>60</ele>
        <time>2022-02-17T10:54:13.000Z</time>
      </trkpt>
      <trkpt lat="47.29469" lon="-2.38703">
        <ele>60</ele>
        <time>2022-02-17T10:54:19.000Z</time>
      </trkpt>
      <trkpt lat="47.2946" lon="-2.38651">
        <ele>60</ele>
        <time>2022-02-17T10:54:25.000Z</time>
      </trkpt>
      <trkpt lat="47.29462" lon="-2.38623">
        <ele>59.599998474121</ele>
        <time>2022-02-17T10:54:28.000Z</time>
      </trkpt>
      <trkpt lat="47.29462" lon="-2.38613">
        <ele>59.200000762939</ele>
        <time>2022-02-17T10:54:29.000Z</time>
      </trkpt>
      <trkpt lat="47.29461" lon="-2.38603">
        <ele>58.799999237061</ele>
        <time>2022-02-17T10:54:30.000Z</time>
      </trkpt>
      <trkpt lat="47.29461" lon="-2.38593">
        <ele>58.400001525879</ele>
        <time>2022-02-17T10:54:31.000Z</time>
      </trkpt>
      <trkpt lat="47.29461" lon="-2.38584">
        <ele>58</ele>
        <time>2022-02-17T10:54:32.000Z</time>
      </trkpt>
      <trkpt lat="47.29461" lon="-2.38556">
        <ele>58</ele>
        <time>2022-02-17T10:54:35.000Z</time>
      </trkpt>
      <trkpt lat="47.29459" lon="-2.38485">
        <ele>58</ele>
        <time>2022-02-17T10:54:42.000Z</time>
      </trkpt>
      <trkpt lat="47.29455" lon="-2.38398">
        <ele>58</ele>
        <time>2022-02-17T10:54:50.000Z</time>
      </trkpt>
      <trkpt lat="47.29454" lon="-2.38388">
        <ele>58</ele>
        <time>2022-02-17T10:54:51.000Z</time>
      </trkpt>
      <trkpt lat="47.29453" lon="-2.38326">
        <ele>58</ele>
        <time>2022-02-17T10:54:57.000Z</time>
      </trkpt>
      <trkpt lat="47.29456" lon="-2.38262">
        <ele>58</ele>
        <time>2022-02-17T10:55:04.000Z</time>
      </trkpt>
      <trkpt lat="47.2945" lon="-2.38204">
        <ele>58</ele>
        <time>2022-02-17T10:55:11.000Z</time>
      </trkpt>
      <trkpt lat="47.29438" lon="-2.38132">
        <ele>58</ele>
        <time>2022-02-17T10:55:19.000Z</time>
      </trkpt>
      <trkpt lat="47.29417" lon="-2.38071">
        <ele>58</ele>
        <time>2022-02-17T10:55:26.000Z</time>
      </trkpt>
      <trkpt lat="47.29399" lon="-2.38022">
        <ele>58</ele>
        <time>2022-02-17T10:55:32.000Z</time>
      </trkpt>
      <trkpt lat="47.29377" lon="-2.3796">
        <ele>58</ele>
        <time>2022-02-17T10:55:40.000Z</time>
      </trkpt>
      <trkpt lat="47.29355" lon="-2.37898">
        <ele>58</ele>
        <time>2022-02-17T10:55:48.000Z</time>
      </trkpt>
      <trkpt lat="47.29352" lon="-2.37891">
        <ele>58.400001525879</ele>
        <time>2022-02-17T10:55:49.000Z</time>
      </trkpt>
      <trkpt lat="47.2935" lon="-2.37883">
        <ele>58.799999237061</ele>
        <time>2022-02-17T10:55:50.000Z</time>
      </trkpt>
      <trkpt lat="47.29348" lon="-2.37876">
        <ele>59.200000762939</ele>
        <time>2022-02-17T10:55:51.000Z</time>
      </trkpt>
      <trkpt lat="47.29345" lon="-2.37869">
        <ele>60</ele>
        <time>2022-02-17T10:55:52.000Z</time>
      </trkpt>
      <trkpt lat="47.2934" lon="-2.37855">
        <ele>60</ele>
        <time>2022-02-17T10:55:54.000Z</time>
      </trkpt>
      <trkpt lat="47.29339" lon="-2.37848">
        <ele>60</ele>
        <time>2022-02-17T10:55:55.000Z</time>
      </trkpt>
      <trkpt lat="47.29334" lon="-2.37816">
        <ele>60</ele>
        <time>2022-02-17T10:55:59.000Z</time>
      </trkpt>
      <trkpt lat="47.29333" lon="-2.37795">
        <ele>60.400001525879</ele>
        <time>2022-02-17T10:56:02.000Z</time>
      </trkpt>
      <trkpt lat="47.29333" lon="-2.3779">
        <ele>60.799999237061</ele>
        <time>2022-02-17T10:56:03.000Z</time>
      </trkpt>
      <trkpt lat="47.29332" lon="-2.37784">
        <ele>61.200000762939</ele>
        <time>2022-02-17T10:56:04.000Z</time>
      </trkpt>
      <trkpt lat="47.29332" lon="-2.3778">
        <ele>61.599998474121</ele>
        <time>2022-02-17T10:56:05.000Z</time>
      </trkpt>
      <trkpt lat="47.29332" lon="-2.37775">
        <ele>62</ele>
        <time>2022-02-17T10:56:06.000Z</time>
      </trkpt>
      <trkpt lat="47.2933" lon="-2.37761">
        <ele>62</ele>
        <time>2022-02-17T10:56:10.000Z</time>
      </trkpt>
      <trkpt lat="47.29328" lon="-2.37741">
        <ele>62.400001525879</ele>
        <time>2022-02-17T10:56:16.000Z</time>
      </trkpt>
      <trkpt lat="47.29327" lon="-2.37738">
        <ele>63.400001525879</ele>
        <time>2022-02-17T10:56:17.000Z</time>
      </trkpt>
      <trkpt lat="47.29326" lon="-2.37736">
        <ele>63.799999237061</ele>
        <time>2022-02-17T10:56:18.000Z</time>
      </trkpt>
      <trkpt lat="47.29325" lon="-2.37735">
        <ele>64.199996948242</ele>
        <time>2022-02-17T10:56:19.000Z</time>
      </trkpt>
      <trkpt lat="47.29324" lon="-2.37735">
        <ele>64.199996948242</ele>
        <time>2022-02-17T10:56:20.000Z</time>
      </trkpt>
      <trkpt lat="47.29324" lon="-2.37735">
        <ele>64.199996948242</ele>
        <time>2022-02-17T10:56:21.000Z</time>
      </trkpt>
      <trkpt lat="47.29319" lon="-2.37735">
        <ele>64.199996948242</ele>
        <time>2022-02-17T10:57:29.000Z</time>
      </trkpt>
      <trkpt lat="47.29317" lon="-2.37737">
        <ele>64.199996948242</ele>
        <time>2022-02-17T10:57:31.000Z</time>
      </trkpt>
      <trkpt lat="47.29312" lon="-2.37742">
        <ele>64.199996948242</ele>
        <time>2022-02-17T10:57:35.000Z</time>
      </trkpt>
      <trkpt lat="47.29294" lon="-2.37742">
        <ele>64.199996948242</ele>
        <time>2022-02-17T10:57:39.000Z</time>
      </trkpt>
      <trkpt lat="47.2928" lon="-2.37739">
        <ele>63.799999237061</ele>
        <time>2022-02-17T10:57:42.000Z</time>
      </trkpt>
      <trkpt lat="47.29275" lon="-2.37738">
        <ele>63.200000762939</ele>
        <time>2022-02-17T10:57:43.000Z</time>
      </trkpt>
      <trkpt lat="47.2927" lon="-2.37737">
        <ele>62.799999237061</ele>
        <time>2022-02-17T10:57:44.000Z</time>
      </trkpt>
      <trkpt lat="47.29266" lon="-2.37735">
        <ele>62.400001525879</ele>
        <time>2022-02-17T10:57:45.000Z</time>
      </trkpt>
      <trkpt lat="47.29261" lon="-2.37734">
        <ele>62</ele>
        <time>2022-02-17T10:57:46.000Z</time>
      </trkpt>
      <trkpt lat="47.29255" lon="-2.37729">
        <ele>62</ele>
        <time>2022-02-17T10:57:50.000Z</time>
      </trkpt>
      <trkpt lat="47.29252" lon="-2.37728">
        <ele>62</ele>
        <time>2022-02-17T10:58:11.000Z</time>
      </trkpt>
      <trkpt lat="47.2925" lon="-2.37728">
        <ele>62</ele>
        <time>2022-02-17T10:58:14.000Z</time>
      </trkpt>
      <trkpt lat="47.29247" lon="-2.37728">
        <ele>62</ele>
        <time>2022-02-17T10:58:29.000Z</time>
      </trkpt>
      <trkpt lat="47.29241" lon="-2.37727">
        <ele>62</ele>
        <time>2022-02-17T10:58:32.000Z</time>
      </trkpt>
      <trkpt lat="47.29237" lon="-2.37727">
        <ele>62</ele>
        <time>2022-02-17T10:58:33.000Z</time>
      </trkpt>
      <trkpt lat="47.29223" lon="-2.37729">
        <ele>62</ele>
        <time>2022-02-17T10:58:36.000Z</time>
      </trkpt>
      <trkpt lat="47.29218" lon="-2.37733">
        <ele>61.599998474121</ele>
        <time>2022-02-17T10:58:37.000Z</time>
      </trkpt>
      <trkpt lat="47.29213" lon="-2.37738">
        <ele>61</ele>
        <time>2022-02-17T10:58:38.000Z</time>
      </trkpt>
      <trkpt lat="47.29208" lon="-2.37743">
        <ele>60.599998474121</ele>
        <time>2022-02-17T10:58:39.000Z</time>
      </trkpt>
      <trkpt lat="47.29203" lon="-2.37749">
        <ele>60.200000762939</ele>
        <time>2022-02-17T10:58:40.000Z</time>
      </trkpt>
      <trkpt lat="47.29199" lon="-2.37755">
        <ele>59.799999237061</ele>
        <time>2022-02-17T10:58:41.000Z</time>
      </trkpt>
      <trkpt lat="47.29194" lon="-2.37762">
        <ele>59.799999237061</ele>
        <time>2022-02-17T10:58:42.000Z</time>
      </trkpt>
      <trkpt lat="47.29187" lon="-2.37777">
        <ele>59.799999237061</ele>
        <time>2022-02-17T10:58:44.000Z</time>
      </trkpt>
      <trkpt lat="47.29183" lon="-2.37784">
        <ele>59.200000762939</ele>
        <time>2022-02-17T10:58:45.000Z</time>
      </trkpt>
      <trkpt lat="47.2918" lon="-2.37792">
        <ele>58.400001525879</ele>
        <time>2022-02-17T10:58:46.000Z</time>
      </trkpt>
      <trkpt lat="47.29177" lon="-2.378">
        <ele>58</ele>
        <time>2022-02-17T10:58:47.000Z</time>
      </trkpt>
      <trkpt lat="47.29173" lon="-2.37807">
        <ele>57.599998474121</ele>
        <time>2022-02-17T10:58:48.000Z</time>
      </trkpt>
      <trkpt lat="47.29161" lon="-2.37834">
        <ele>57.599998474121</ele>
        <time>2022-02-17T10:58:52.000Z</time>
      </trkpt>
      <trkpt lat="47.29148" lon="-2.37853">
        <ele>57.599998474121</ele>
        <time>2022-02-17T10:58:56.000Z</time>
      </trkpt>
      <trkpt lat="47.29144" lon="-2.37854">
        <ele>57.599998474121</ele>
        <time>2022-02-17T10:58:57.000Z</time>
      </trkpt>
      <trkpt lat="47.29133" lon="-2.37845">
        <ele>57.599998474121</ele>
        <time>2022-02-17T10:59:00.000Z</time>
      </trkpt>
      <trkpt lat="47.29129" lon="-2.37841">
        <ele>57.200000762939</ele>
        <time>2022-02-17T10:59:01.000Z</time>
      </trkpt>
      <trkpt lat="47.29126" lon="-2.37837">
        <ele>56.799999237061</ele>
        <time>2022-02-17T10:59:02.000Z</time>
      </trkpt>
      <trkpt lat="47.29121" lon="-2.37833">
        <ele>56.400001525879</ele>
        <time>2022-02-17T10:59:03.000Z</time>
      </trkpt>
      <trkpt lat="47.29117" lon="-2.37829">
        <ele>56</ele>
        <time>2022-02-17T10:59:04.000Z</time>
      </trkpt>
      <trkpt lat="47.29114" lon="-2.37825">
        <ele>55.599998474121</ele>
        <time>2022-02-17T10:59:05.000Z</time>
      </trkpt>
      <trkpt lat="47.2911" lon="-2.37821">
        <ele>55.599998474121</ele>
        <time>2022-02-17T10:59:06.000Z</time>
      </trkpt>
      <trkpt lat="47.2908" lon="-2.37798">
        <ele>55.599998474121</ele>
        <time>2022-02-17T10:59:13.000Z</time>
      </trkpt>
      <trkpt lat="47.29076" lon="-2.37793">
        <ele>55.599998474121</ele>
        <time>2022-02-17T10:59:14.000Z</time>
      </trkpt>
      <trkpt lat="47.29054" lon="-2.37772">
        <ele>55.599998474121</ele>
        <time>2022-02-17T10:59:19.000Z</time>
      </trkpt>
      <trkpt lat="47.29021" lon="-2.37731">
        <ele>55.599998474121</ele>
        <time>2022-02-17T10:59:27.000Z</time>
      </trkpt>
      <trkpt lat="47.28991" lon="-2.37686">
        <ele>55.599998474121</ele>
        <time>2022-02-17T10:59:35.000Z</time>
      </trkpt>
      <trkpt lat="47.28956" lon="-2.37645">
        <ele>55.599998474121</ele>
        <time>2022-02-17T10:59:44.000Z</time>
      </trkpt>
      <trkpt lat="47.28949" lon="-2.37639">
        <ele>55.599998474121</ele>
        <time>2022-02-17T10:59:46.000Z</time>
      </trkpt>
      <trkpt lat="47.28942" lon="-2.37641">
        <ele>55.599998474121</ele>
        <time>2022-02-17T10:59:48.000Z</time>
      </trkpt>
      <trkpt lat="47.28935" lon="-2.37643">
        <ele>55.599998474121</ele>
        <time>2022-02-17T10:59:50.000Z</time>
      </trkpt>
      <trkpt lat="47.28932" lon="-2.37644">
        <ele>56</ele>
        <time>2022-02-17T10:59:51.000Z</time>
      </trkpt>
      <trkpt lat="47.28928" lon="-2.37644">
        <ele>56.400001525879</ele>
        <time>2022-02-17T10:59:52.000Z</time>
      </trkpt>
      <trkpt lat="47.28924" lon="-2.37645">
        <ele>56.799999237061</ele>
        <time>2022-02-17T10:59:53.000Z</time>
      </trkpt>
      <trkpt lat="47.2892" lon="-2.37645">
        <ele>57.200000762939</ele>
        <time>2022-02-17T10:59:54.000Z</time>
      </trkpt>
      <trkpt lat="47.28916" lon="-2.37645">
        <ele>57.599998474121</ele>
        <time>2022-02-17T10:59:55.000Z</time>
      </trkpt>
      <trkpt lat="47.28911" lon="-2.37646">
        <ele>57.599998474121</ele>
        <time>2022-02-17T10:59:56.000Z</time>
      </trkpt>
      <trkpt lat="47.28891" lon="-2.37651">
        <ele>57.599998474121</ele>
        <time>2022-02-17T11:00:01.000Z</time>
      </trkpt>
      <trkpt lat="47.28864" lon="-2.37656">
        <ele>57.599998474121</ele>
        <time>2022-02-17T11:00:08.000Z</time>
      </trkpt>
      <trkpt lat="47.28861" lon="-2.37654">
        <ele>57.599998474121</ele>
        <time>2022-02-17T11:00:09.000Z</time>
      </trkpt>
      <trkpt lat="47.28856" lon="-2.37644">
        <ele>57.599998474121</ele>
        <time>2022-02-17T11:00:11.000Z</time>
      </trkpt>
      <trkpt lat="47.28856" lon="-2.37626">
        <ele>57.599998474121</ele>
        <time>2022-02-17T11:00:15.000Z</time>
      </trkpt>
      <trkpt lat="47.28857" lon="-2.37619">
        <ele>57.599998474121</ele>
        <time>2022-02-17T11:00:20.000Z</time>
      </trkpt>
      <trkpt lat="47.28854" lon="-2.37614">
        <ele>57.599998474121</ele>
        <time>2022-02-17T11:00:42.000Z</time>
      </trkpt>
      <trkpt lat="47.28854" lon="-2.37607">
        <ele>57.599998474121</ele>
        <time>2022-02-17T11:00:44.000Z</time>
      </trkpt>
      <trkpt lat="47.28856" lon="-2.37587">
        <ele>57.599998474121</ele>
        <time>2022-02-17T11:00:48.000Z</time>
      </trkpt>
      <trkpt lat="47.28858" lon="-2.37578">
        <ele>57.599998474121</ele>
        <time>2022-02-17T11:00:50.000Z</time>
      </trkpt>
      <trkpt lat="47.28862" lon="-2.37569">
        <ele>57.599998474121</ele>
        <time>2022-02-17T11:00:53.000Z</time>
      </trkpt>
      <trkpt lat="47.28876" lon="-2.37542">
        <ele>57.599998474121</ele>
        <time>2022-02-17T11:00:59.000Z</time>
      </trkpt>
      <trkpt lat="47.28879" lon="-2.37519">
        <ele>57.599998474121</ele>
        <time>2022-02-17T11:01:03.000Z</time>
      </trkpt>
      <trkpt lat="47.28874" lon="-2.37478">
        <ele>57.599998474121</ele>
        <time>2022-02-17T11:01:09.000Z</time>
      </trkpt>
      <trkpt lat="47.28869" lon="-2.37431">
        <ele>57.599998474121</ele>
        <time>2022-02-17T11:01:16.000Z</time>
      </trkpt>
      <trkpt lat="47.28864" lon="-2.37381">
        <ele>57.599998474121</ele>
        <time>2022-02-17T11:01:23.000Z</time>
      </trkpt>
      <trkpt lat="47.28864" lon="-2.37373">
        <ele>57.599998474121</ele>
        <time>2022-02-17T11:01:24.000Z</time>
      </trkpt>
      <trkpt lat="47.28863" lon="-2.37359">
        <ele>58</ele>
        <time>2022-02-17T11:01:26.000Z</time>
      </trkpt>
      <trkpt lat="47.28862" lon="-2.37351">
        <ele>58.400001525879</ele>
        <time>2022-02-17T11:01:27.000Z</time>
      </trkpt>
      <trkpt lat="47.28862" lon="-2.37344">
        <ele>59</ele>
        <time>2022-02-17T11:01:28.000Z</time>
      </trkpt>
      <trkpt lat="47.28862" lon="-2.37337">
        <ele>59.400001525879</ele>
        <time>2022-02-17T11:01:29.000Z</time>
      </trkpt>
      <trkpt lat="47.28861" lon="-2.37329">
        <ele>59.799999237061</ele>
        <time>2022-02-17T11:01:30.000Z</time>
      </trkpt>
      <trkpt lat="47.28857" lon="-2.37283">
        <ele>59.799999237061</ele>
        <time>2022-02-17T11:01:37.000Z</time>
      </trkpt>
      <trkpt lat="47.28853" lon="-2.37254">
        <ele>59.799999237061</ele>
        <time>2022-02-17T11:01:43.000Z</time>
      </trkpt>
      <trkpt lat="47.28846" lon="-2.37241">
        <ele>59.799999237061</ele>
        <time>2022-02-17T11:01:48.000Z</time>
      </trkpt>
      <trkpt lat="47.28843" lon="-2.37236">
        <ele>59.799999237061</ele>
        <time>2022-02-17T11:01:50.000Z</time>
      </trkpt>
      <trkpt lat="47.28841" lon="-2.3723">
        <ele>59.799999237061</ele>
        <time>2022-02-17T11:01:52.000Z</time>
      </trkpt>
      <trkpt lat="47.28838" lon="-2.37204">
        <ele>59.799999237061</ele>
        <time>2022-02-17T11:01:59.000Z</time>
      </trkpt>
      <trkpt lat="47.28835" lon="-2.37189">
        <ele>59.799999237061</ele>
        <time>2022-02-17T11:02:01.000Z</time>
      </trkpt>
      <trkpt lat="47.28834" lon="-2.3717">
        <ele>59.799999237061</ele>
        <time>2022-02-17T11:02:04.000Z</time>
      </trkpt>
      <trkpt lat="47.2883" lon="-2.37133">
        <ele>59.799999237061</ele>
        <time>2022-02-17T11:02:10.000Z</time>
      </trkpt>
      <trkpt lat="47.28833" lon="-2.37103">
        <ele>59.799999237061</ele>
        <time>2022-02-17T11:02:15.000Z</time>
      </trkpt>
      <trkpt lat="47.28832" lon="-2.37096">
        <ele>59.799999237061</ele>
        <time>2022-02-17T11:02:16.000Z</time>
      </trkpt>
      <trkpt lat="47.28831" lon="-2.37082">
        <ele>59.799999237061</ele>
        <time>2022-02-17T11:02:18.000Z</time>
      </trkpt>
      <trkpt lat="47.28829" lon="-2.37068">
        <ele>59.799999237061</ele>
        <time>2022-02-17T11:02:20.000Z</time>
      </trkpt>
      <trkpt lat="47.28826" lon="-2.37062">
        <ele>59.799999237061</ele>
        <time>2022-02-17T11:02:21.000Z</time>
      </trkpt>
      <trkpt lat="47.28817" lon="-2.37042">
        <ele>59.799999237061</ele>
        <time>2022-02-17T11:02:24.000Z</time>
      </trkpt>
      <trkpt lat="47.28813" lon="-2.37027">
        <ele>59.799999237061</ele>
        <time>2022-02-17T11:02:26.000Z</time>
      </trkpt>
      <trkpt lat="47.2881" lon="-2.37015">
        <ele>59.799999237061</ele>
        <time>2022-02-17T11:02:28.000Z</time>
      </trkpt>
      <trkpt lat="47.28796" lon="-2.36971">
        <ele>59.799999237061</ele>
        <time>2022-02-17T11:02:34.000Z</time>
      </trkpt>
      <trkpt lat="47.28781" lon="-2.36923">
        <ele>60.200000762939</ele>
        <time>2022-02-17T11:02:41.000Z</time>
      </trkpt>
      <trkpt lat="47.28778" lon="-2.36921">
        <ele>60.599998474121</ele>
        <time>2022-02-17T11:02:42.000Z</time>
      </trkpt>
      <trkpt lat="47.28775" lon="-2.36919">
        <ele>61</ele>
        <time>2022-02-17T11:02:43.000Z</time>
      </trkpt>
      <trkpt lat="47.28772" lon="-2.36916">
        <ele>61.400001525879</ele>
        <time>2022-02-17T11:02:44.000Z</time>
      </trkpt>
      <trkpt lat="47.2877" lon="-2.36913">
        <ele>61.799999237061</ele>
        <time>2022-02-17T11:02:45.000Z</time>
      </trkpt>
      <trkpt lat="47.28767" lon="-2.36896">
        <ele>61.799999237061</ele>
        <time>2022-02-17T11:02:49.000Z</time>
      </trkpt>
      <trkpt lat="47.28765" lon="-2.36884">
        <ele>62.200000762939</ele>
        <time>2022-02-17T11:02:51.000Z</time>
      </trkpt>
      <trkpt lat="47.28765" lon="-2.3688">
        <ele>63.200000762939</ele>
        <time>2022-02-17T11:02:52.000Z</time>
      </trkpt>
      <trkpt lat="47.28764" lon="-2.3687">
        <ele>64</ele>
        <time>2022-02-17T11:02:54.000Z</time>
      </trkpt>
      <trkpt lat="47.28765" lon="-2.36866">
        <ele>64</ele>
        <time>2022-02-17T11:02:55.000Z</time>
      </trkpt>
      <trkpt lat="47.28768" lon="-2.36851">
        <ele>64.400001525879</ele>
        <time>2022-02-17T11:02:58.000Z</time>
      </trkpt>
      <trkpt lat="47.28769" lon="-2.36845">
        <ele>64.800003051758</ele>
        <time>2022-02-17T11:02:59.000Z</time>
      </trkpt>
      <trkpt lat="47.2877" lon="-2.36841">
        <ele>65.400001525879</ele>
        <time>2022-02-17T11:03:00.000Z</time>
      </trkpt>
      <trkpt lat="47.28771" lon="-2.36836">
        <ele>65.800003051758</ele>
        <time>2022-02-17T11:03:01.000Z</time>
      </trkpt>
      <trkpt lat="47.28772" lon="-2.3683">
        <ele>66.199996948242</ele>
        <time>2022-02-17T11:03:02.000Z</time>
      </trkpt>
      <trkpt lat="47.28776" lon="-2.36812">
        <ele>66.599998474121</ele>
        <time>2022-02-17T11:03:05.000Z</time>
      </trkpt>
      <trkpt lat="47.28777" lon="-2.36806">
        <ele>67</ele>
        <time>2022-02-17T11:03:06.000Z</time>
      </trkpt>
      <trkpt lat="47.28777" lon="-2.36802">
        <ele>67.400001525879</ele>
        <time>2022-02-17T11:03:07.000Z</time>
      </trkpt>
      <trkpt lat="47.28779" lon="-2.36797">
        <ele>68</ele>
        <time>2022-02-17T11:03:08.000Z</time>
      </trkpt>
      <trkpt lat="47.28779" lon="-2.36792">
        <ele>68.400001525879</ele>
        <time>2022-02-17T11:03:09.000Z</time>
      </trkpt>
      <trkpt lat="47.28781" lon="-2.36768">
        <ele>68.400001525879</ele>
        <time>2022-02-17T11:03:13.000Z</time>
      </trkpt>
      <trkpt lat="47.28783" lon="-2.36764">
        <ele>68.400001525879</ele>
        <time>2022-02-17T11:03:14.000Z</time>
      </trkpt>
      <trkpt lat="47.28788" lon="-2.36752">
        <ele>68.400001525879</ele>
        <time>2022-02-17T11:03:17.000Z</time>
      </trkpt>
      <trkpt lat="47.2879" lon="-2.36741">
        <ele>68.800003051758</ele>
        <time>2022-02-17T11:03:19.000Z</time>
      </trkpt>
      <trkpt lat="47.28791" lon="-2.36736">
        <ele>69.199996948242</ele>
        <time>2022-02-17T11:03:20.000Z</time>
      </trkpt>
      <trkpt lat="47.28792" lon="-2.36732">
        <ele>69.599998474121</ele>
        <time>2022-02-17T11:03:21.000Z</time>
      </trkpt>
      <trkpt lat="47.28793" lon="-2.36727">
        <ele>70</ele>
        <time>2022-02-17T11:03:22.000Z</time>
      </trkpt>
      <trkpt lat="47.28794" lon="-2.36723">
        <ele>70.400001525879</ele>
        <time>2022-02-17T11:03:23.000Z</time>
      </trkpt>
      <trkpt lat="47.28797" lon="-2.36713">
        <ele>70.800003051758</ele>
        <time>2022-02-17T11:03:26.000Z</time>
      </trkpt>
      <trkpt lat="47.28797" lon="-2.36711">
        <ele>71.199996948242</ele>
        <time>2022-02-17T11:03:27.000Z</time>
      </trkpt>
      <trkpt lat="47.28798" lon="-2.36709">
        <ele>71.599998474121</ele>
        <time>2022-02-17T11:03:28.000Z</time>
      </trkpt>
      <trkpt lat="47.28799" lon="-2.36706">
        <ele>72</ele>
        <time>2022-02-17T11:03:29.000Z</time>
      </trkpt>
      <trkpt lat="47.288" lon="-2.36703">
        <ele>72.400001525879</ele>
        <time>2022-02-17T11:03:30.000Z</time>
      </trkpt>
      <trkpt lat="47.28802" lon="-2.36692">
        <ele>73</ele>
        <time>2022-02-17T11:03:33.000Z</time>
      </trkpt>
      <trkpt lat="47.28804" lon="-2.36687">
        <ele>73.400001525879</ele>
        <time>2022-02-17T11:03:34.000Z</time>
      </trkpt>
      <trkpt lat="47.28805" lon="-2.36684">
        <ele>73.800003051758</ele>
        <time>2022-02-17T11:03:35.000Z</time>
      </trkpt>
      <trkpt lat="47.28806" lon="-2.3668">
        <ele>74.199996948242</ele>
        <time>2022-02-17T11:03:36.000Z</time>
      </trkpt>
      <trkpt lat="47.28807" lon="-2.36677">
        <ele>74.800003051758</ele>
        <time>2022-02-17T11:03:37.000Z</time>
      </trkpt>
      <trkpt lat="47.28813" lon="-2.36664">
        <ele>75.199996948242</ele>
        <time>2022-02-17T11:03:41.000Z</time>
      </trkpt>
      <trkpt lat="47.28814" lon="-2.3666">
        <ele>75.599998474121</ele>
        <time>2022-02-17T11:03:42.000Z</time>
      </trkpt>
      <trkpt lat="47.28814" lon="-2.36656">
        <ele>76.599998474121</ele>
        <time>2022-02-17T11:03:43.000Z</time>
      </trkpt>
      <trkpt lat="47.28815" lon="-2.36653">
        <ele>77</ele>
        <time>2022-02-17T11:03:44.000Z</time>
      </trkpt>
      <trkpt lat="47.28815" lon="-2.36645">
        <ele>77.400001525879</ele>
        <time>2022-02-17T11:03:47.000Z</time>
      </trkpt>
      <trkpt lat="47.28815" lon="-2.36642">
        <ele>77.800003051758</ele>
        <time>2022-02-17T11:03:48.000Z</time>
      </trkpt>
      <trkpt lat="47.28815" lon="-2.36639">
        <ele>78.199996948242</ele>
        <time>2022-02-17T11:03:49.000Z</time>
      </trkpt>
      <trkpt lat="47.28814" lon="-2.36637">
        <ele>78.599998474121</ele>
        <time>2022-02-17T11:03:50.000Z</time>
      </trkpt>
      <trkpt lat="47.28814" lon="-2.36634">
        <ele>79</ele>
        <time>2022-02-17T11:03:51.000Z</time>
      </trkpt>
      <trkpt lat="47.28813" lon="-2.36627">
        <ele>79</ele>
        <time>2022-02-17T11:03:54.000Z</time>
      </trkpt>
      <trkpt lat="47.28809" lon="-2.36618">
        <ele>79.400001525879</ele>
        <time>2022-02-17T11:03:58.000Z</time>
      </trkpt>
      <trkpt lat="47.28808" lon="-2.36615">
        <ele>79.800003051758</ele>
        <time>2022-02-17T11:03:59.000Z</time>
      </trkpt>
      <trkpt lat="47.28806" lon="-2.36612">
        <ele>80.400001525879</ele>
        <time>2022-02-17T11:04:00.000Z</time>
      </trkpt>
      <trkpt lat="47.28805" lon="-2.36609">
        <ele>80.800003051758</ele>
        <time>2022-02-17T11:04:01.000Z</time>
      </trkpt>
      <trkpt lat="47.28804" lon="-2.36606">
        <ele>81.199996948242</ele>
        <time>2022-02-17T11:04:02.000Z</time>
      </trkpt>
      <trkpt lat="47.288" lon="-2.36594">
        <ele>81.199996948242</ele>
        <time>2022-02-17T11:04:07.000Z</time>
      </trkpt>
      <trkpt lat="47.28799" lon="-2.3659">
        <ele>81.599998474121</ele>
        <time>2022-02-17T11:04:09.000Z</time>
      </trkpt>
      <trkpt lat="47.28799" lon="-2.36587">
        <ele>82</ele>
        <time>2022-02-17T11:04:10.000Z</time>
      </trkpt>
      <trkpt lat="47.28799" lon="-2.36585">
        <ele>82.400001525879</ele>
        <time>2022-02-17T11:04:11.000Z</time>
      </trkpt>
      <trkpt lat="47.28798" lon="-2.36582">
        <ele>82.800003051758</ele>
        <time>2022-02-17T11:04:12.000Z</time>
      </trkpt>
      <trkpt lat="47.28798" lon="-2.36579">
        <ele>83.199996948242</ele>
        <time>2022-02-17T11:04:13.000Z</time>
      </trkpt>
      <trkpt lat="47.28792" lon="-2.36555">
        <ele>83.199996948242</ele>
        <time>2022-02-17T11:04:19.000Z</time>
      </trkpt>
      <trkpt lat="47.28792" lon="-2.36541">
        <ele>83.199996948242</ele>
        <time>2022-02-17T11:04:24.000Z</time>
      </trkpt>
      <trkpt lat="47.28793" lon="-2.36539">
        <ele>83.199996948242</ele>
        <time>2022-02-17T11:04:25.000Z</time>
      </trkpt>
      <trkpt lat="47.28796" lon="-2.36532">
        <ele>83.599998474121</ele>
        <time>2022-02-17T11:04:28.000Z</time>
      </trkpt>
      <trkpt lat="47.28797" lon="-2.36528">
        <ele>84</ele>
        <time>2022-02-17T11:04:29.000Z</time>
      </trkpt>
      <trkpt lat="47.28798" lon="-2.36525">
        <ele>84.400001525879</ele>
        <time>2022-02-17T11:04:30.000Z</time>
      </trkpt>
      <trkpt lat="47.28799" lon="-2.36522">
        <ele>85</ele>
        <time>2022-02-17T11:04:31.000Z</time>
      </trkpt>
      <trkpt lat="47.28799" lon="-2.36519">
        <ele>85.400001525879</ele>
        <time>2022-02-17T11:04:32.000Z</time>
      </trkpt>
      <trkpt lat="47.288" lon="-2.36498">
        <ele>85.400001525879</ele>
        <time>2022-02-17T11:04:36.000Z</time>
      </trkpt>
      <trkpt lat="47.28801" lon="-2.36488">
        <ele>85.800003051758</ele>
        <time>2022-02-17T11:04:38.000Z</time>
      </trkpt>
      <trkpt lat="47.28801" lon="-2.36483">
        <ele>86.199996948242</ele>
        <time>2022-02-17T11:04:39.000Z</time>
      </trkpt>
      <trkpt lat="47.28801" lon="-2.3648">
        <ele>86.599998474121</ele>
        <time>2022-02-17T11:04:40.000Z</time>
      </trkpt>
      <trkpt lat="47.28801" lon="-2.36476">
        <ele>87.199996948242</ele>
        <time>2022-02-17T11:04:41.000Z</time>
      </trkpt>
      <trkpt lat="47.288" lon="-2.36473">
        <ele>87.599998474121</ele>
        <time>2022-02-17T11:04:42.000Z</time>
      </trkpt>
      <trkpt lat="47.28799" lon="-2.36452">
        <ele>87.599998474121</ele>
        <time>2022-02-17T11:04:46.000Z</time>
      </trkpt>
      <trkpt lat="47.28805" lon="-2.36418">
        <ele>87.599998474121</ele>
        <time>2022-02-17T11:04:52.000Z</time>
      </trkpt>
      <trkpt lat="47.28811" lon="-2.36387">
        <ele>87.599998474121</ele>
        <time>2022-02-17T11:04:58.000Z</time>
      </trkpt>
      <trkpt lat="47.28821" lon="-2.36351">
        <ele>87.599998474121</ele>
        <time>2022-02-17T11:05:04.000Z</time>
      </trkpt>
      <trkpt lat="47.28826" lon="-2.36344">
        <ele>87.599998474121</ele>
        <time>2022-02-17T11:05:05.000Z</time>
      </trkpt>
      <trkpt lat="47.28834" lon="-2.36331">
        <ele>87.599998474121</ele>
        <time>2022-02-17T11:05:07.000Z</time>
      </trkpt>
      <trkpt lat="47.28836" lon="-2.36325">
        <ele>87.599998474121</ele>
        <time>2022-02-17T11:05:08.000Z</time>
      </trkpt>
      <trkpt lat="47.28835" lon="-2.36309">
        <ele>87.599998474121</ele>
        <time>2022-02-17T11:05:11.000Z</time>
      </trkpt>
      <trkpt lat="47.28822" lon="-2.36297">
        <ele>87.599998474121</ele>
        <time>2022-02-17T11:05:14.000Z</time>
      </trkpt>
      <trkpt lat="47.28799" lon="-2.36278">
        <ele>87.599998474121</ele>
        <time>2022-02-17T11:05:20.000Z</time>
      </trkpt>
      <trkpt lat="47.28781" lon="-2.36256">
        <ele>87.599998474121</ele>
        <time>2022-02-17T11:05:26.000Z</time>
      </trkpt>
      <trkpt lat="47.28776" lon="-2.36248">
        <ele>87.599998474121</ele>
        <time>2022-02-17T11:05:28.000Z</time>
      </trkpt>
      <trkpt lat="47.28767" lon="-2.36233">
        <ele>87.599998474121</ele>
        <time>2022-02-17T11:05:31.000Z</time>
      </trkpt>
      <trkpt lat="47.28755" lon="-2.36232">
        <ele>87.599998474121</ele>
        <time>2022-02-17T11:05:34.000Z</time>
      </trkpt>
      <trkpt lat="47.28747" lon="-2.36236">
        <ele>87.599998474121</ele>
        <time>2022-02-17T11:05:36.000Z</time>
      </trkpt>
      <trkpt lat="47.28737" lon="-2.36241">
        <ele>87.599998474121</ele>
        <time>2022-02-17T11:05:39.000Z</time>
      </trkpt>
      <trkpt lat="47.2873" lon="-2.36231">
        <ele>87.599998474121</ele>
        <time>2022-02-17T11:05:42.000Z</time>
      </trkpt>
      <trkpt lat="47.28728" lon="-2.36225">
        <ele>87.599998474121</ele>
        <time>2022-02-17T11:05:44.000Z</time>
      </trkpt>
      <trkpt lat="47.28722" lon="-2.36223">
        <ele>87.599998474121</ele>
        <time>2022-02-17T11:05:46.000Z</time>
      </trkpt>
      <trkpt lat="47.28707" lon="-2.36221">
        <ele>87.599998474121</ele>
        <time>2022-02-17T11:05:51.000Z</time>
      </trkpt>
      <trkpt lat="47.28706" lon="-2.36217">
        <ele>87.599998474121</ele>
        <time>2022-02-17T11:05:52.000Z</time>
      </trkpt>
      <trkpt lat="47.28705" lon="-2.3621">
        <ele>87.599998474121</ele>
        <time>2022-02-17T11:05:54.000Z</time>
      </trkpt>
      <trkpt lat="47.287" lon="-2.36193">
        <ele>87.599998474121</ele>
        <time>2022-02-17T11:05:59.000Z</time>
      </trkpt>
      <trkpt lat="47.28699" lon="-2.36191">
        <ele>87.599998474121</ele>
        <time>2022-02-17T11:06:00.000Z</time>
      </trkpt>
      <trkpt lat="47.28694" lon="-2.36186">
        <ele>87.599998474121</ele>
        <time>2022-02-17T11:06:06.000Z</time>
      </trkpt>
      <trkpt lat="47.28685" lon="-2.36168">
        <ele>87.599998474121</ele>
        <time>2022-02-17T11:06:18.000Z</time>
      </trkpt>
      <trkpt lat="47.28681" lon="-2.36157">
        <ele>87.599998474121</ele>
        <time>2022-02-17T11:06:20.000Z</time>
      </trkpt>
      <trkpt lat="47.2867" lon="-2.36117">
        <ele>87.599998474121</ele>
        <time>2022-02-17T11:06:27.000Z</time>
      </trkpt>
      <trkpt lat="47.28668" lon="-2.36111">
        <ele>87.599998474121</ele>
        <time>2022-02-17T11:06:28.000Z</time>
      </trkpt>
      <trkpt lat="47.28661" lon="-2.36094">
        <ele>87.599998474121</ele>
        <time>2022-02-17T11:06:31.000Z</time>
      </trkpt>
      <trkpt lat="47.28654" lon="-2.36083">
        <ele>87.599998474121</ele>
        <time>2022-02-17T11:06:33.000Z</time>
      </trkpt>
      <trkpt lat="47.28649" lon="-2.36078">
        <ele>87.599998474121</ele>
        <time>2022-02-17T11:06:34.000Z</time>
      </trkpt>
      <trkpt lat="47.28635" lon="-2.36067">
        <ele>87.599998474121</ele>
        <time>2022-02-17T11:06:37.000Z</time>
      </trkpt>
      <trkpt lat="47.28617" lon="-2.36046">
        <ele>87.599998474121</ele>
        <time>2022-02-17T11:06:42.000Z</time>
      </trkpt>
      <trkpt lat="47.286" lon="-2.36007">
        <ele>87.599998474121</ele>
        <time>2022-02-17T11:06:48.000Z</time>
      </trkpt>
      <trkpt lat="47.28584" lon="-2.35965">
        <ele>87.599998474121</ele>
        <time>2022-02-17T11:06:54.000Z</time>
      </trkpt>
      <trkpt lat="47.28581" lon="-2.3596">
        <ele>87.599998474121</ele>
        <time>2022-02-17T11:06:55.000Z</time>
      </trkpt>
      <trkpt lat="47.28573" lon="-2.35945">
        <ele>87.599998474121</ele>
        <time>2022-02-17T11:06:58.000Z</time>
      </trkpt>
      <trkpt lat="47.28571" lon="-2.3594">
        <ele>87.599998474121</ele>
        <time>2022-02-17T11:06:59.000Z</time>
      </trkpt>
      <trkpt lat="47.28563" lon="-2.35932">
        <ele>87.599998474121</ele>
        <time>2022-02-17T11:07:02.000Z</time>
      </trkpt>
      <trkpt lat="47.2856" lon="-2.35931">
        <ele>88</ele>
        <time>2022-02-17T11:07:03.000Z</time>
      </trkpt>
      <trkpt lat="47.28557" lon="-2.3593">
        <ele>88.400001525879</ele>
        <time>2022-02-17T11:07:04.000Z</time>
      </trkpt>
      <trkpt lat="47.28554" lon="-2.35931">
        <ele>89</ele>
        <time>2022-02-17T11:07:05.000Z</time>
      </trkpt>
      <trkpt lat="47.28551" lon="-2.35931">
        <ele>89.400001525879</ele>
        <time>2022-02-17T11:07:06.000Z</time>
      </trkpt>
      <trkpt lat="47.2855" lon="-2.35933">
        <ele>89.800003051758</ele>
        <time>2022-02-17T11:07:07.000Z</time>
      </trkpt>
      <trkpt lat="47.28548" lon="-2.35939">
        <ele>90.199996948242</ele>
        <time>2022-02-17T11:07:09.000Z</time>
      </trkpt>
      <trkpt lat="47.28547" lon="-2.35941">
        <ele>90.599998474121</ele>
        <time>2022-02-17T11:07:10.000Z</time>
      </trkpt>
      <trkpt lat="47.28546" lon="-2.35943">
        <ele>91</ele>
        <time>2022-02-17T11:07:11.000Z</time>
      </trkpt>
      <trkpt lat="47.28544" lon="-2.35945">
        <ele>91.400001525879</ele>
        <time>2022-02-17T11:07:12.000Z</time>
      </trkpt>
      <trkpt lat="47.28543" lon="-2.35947">
        <ele>91.800003051758</ele>
        <time>2022-02-17T11:07:13.000Z</time>
      </trkpt>
      <trkpt lat="47.28541" lon="-2.35949">
        <ele>91.800003051758</ele>
        <time>2022-02-17T11:07:14.000Z</time>
      </trkpt>
      <trkpt lat="47.28537" lon="-2.3595">
        <ele>92.199996948242</ele>
        <time>2022-02-17T11:07:16.000Z</time>
      </trkpt>
      <trkpt lat="47.28533" lon="-2.3595">
        <ele>92.599998474121</ele>
        <time>2022-02-17T11:07:17.000Z</time>
      </trkpt>
      <trkpt lat="47.28529" lon="-2.35949">
        <ele>93</ele>
        <time>2022-02-17T11:07:18.000Z</time>
      </trkpt>
      <trkpt lat="47.28525" lon="-2.35949">
        <ele>93.400001525879</ele>
        <time>2022-02-17T11:07:19.000Z</time>
      </trkpt>
      <trkpt lat="47.28522" lon="-2.35949">
        <ele>93.800003051758</ele>
        <time>2022-02-17T11:07:20.000Z</time>
      </trkpt>
      <trkpt lat="47.28518" lon="-2.3595">
        <ele>93.800003051758</ele>
        <time>2022-02-17T11:07:21.000Z</time>
      </trkpt>
      <trkpt lat="47.28497" lon="-2.35955">
        <ele>93.800003051758</ele>
        <time>2022-02-17T11:07:26.000Z</time>
      </trkpt>
      <trkpt lat="47.28481" lon="-2.3597">
        <ele>93.400001525879</ele>
        <time>2022-02-17T11:07:30.000Z</time>
      </trkpt>
      <trkpt lat="47.28478" lon="-2.35974">
        <ele>93</ele>
        <time>2022-02-17T11:07:31.000Z</time>
      </trkpt>
      <trkpt lat="47.28475" lon="-2.35977">
        <ele>92.599998474121</ele>
        <time>2022-02-17T11:07:32.000Z</time>
      </trkpt>
      <trkpt lat="47.28473" lon="-2.35979">
        <ele>92.199996948242</ele>
        <time>2022-02-17T11:07:33.000Z</time>
      </trkpt>
      <trkpt lat="47.28471" lon="-2.35981">
        <ele>91.800003051758</ele>
        <time>2022-02-17T11:07:34.000Z</time>
      </trkpt>
      <trkpt lat="47.28467" lon="-2.35983">
        <ele>91.800003051758</ele>
        <time>2022-02-17T11:07:36.000Z</time>
      </trkpt>
      <trkpt lat="47.28465" lon="-2.35982">
        <ele>91.800003051758</ele>
        <time>2022-02-17T11:07:37.000Z</time>
      </trkpt>
      <trkpt lat="47.28463" lon="-2.35975">
        <ele>91.800003051758</ele>
        <time>2022-02-17T11:07:39.000Z</time>
      </trkpt>
      <trkpt lat="47.28466" lon="-2.35963">
        <ele>91.800003051758</ele>
        <time>2022-02-17T11:07:41.000Z</time>
      </trkpt>
      <trkpt lat="47.28469" lon="-2.35955">
        <ele>91.800003051758</ele>
        <time>2022-02-17T11:07:42.000Z</time>
      </trkpt>
      <trkpt lat="47.28474" lon="-2.3594">
        <ele>91.400001525879</ele>
        <time>2022-02-17T11:07:44.000Z</time>
      </trkpt>
      <trkpt lat="47.28477" lon="-2.35932">
        <ele>91</ele>
        <time>2022-02-17T11:07:45.000Z</time>
      </trkpt>
      <trkpt lat="47.28478" lon="-2.35924">
        <ele>90.400001525879</ele>
        <time>2022-02-17T11:07:46.000Z</time>
      </trkpt>
      <trkpt lat="47.28479" lon="-2.35917">
        <ele>90</ele>
        <time>2022-02-17T11:07:47.000Z</time>
      </trkpt>
      <trkpt lat="47.28478" lon="-2.35909">
        <ele>89.199996948242</ele>
        <time>2022-02-17T11:07:48.000Z</time>
      </trkpt>
      <trkpt lat="47.28475" lon="-2.35903">
        <ele>88.599998474121</ele>
        <time>2022-02-17T11:07:49.000Z</time>
      </trkpt>
      <trkpt lat="47.28472" lon="-2.35898">
        <ele>87.199996948242</ele>
        <time>2022-02-17T11:07:50.000Z</time>
      </trkpt>
      <trkpt lat="47.2847" lon="-2.35893">
        <ele>86.400001525879</ele>
        <time>2022-02-17T11:07:51.000Z</time>
      </trkpt>
      <trkpt lat="47.28468" lon="-2.35887">
        <ele>85.800003051758</ele>
        <time>2022-02-17T11:07:52.000Z</time>
      </trkpt>
      <trkpt lat="47.28467" lon="-2.3588">
        <ele>85</ele>
        <time>2022-02-17T11:07:53.000Z</time>
      </trkpt>
      <trkpt lat="47.28466" lon="-2.35873">
        <ele>84.199996948242</ele>
        <time>2022-02-17T11:07:54.000Z</time>
      </trkpt>
      <trkpt lat="47.28467" lon="-2.35851">
        <ele>83.800003051758</ele>
        <time>2022-02-17T11:07:58.000Z</time>
      </trkpt>
      <trkpt lat="47.28468" lon="-2.35845">
        <ele>83.400001525879</ele>
        <time>2022-02-17T11:07:59.000Z</time>
      </trkpt>
      <trkpt lat="47.28468" lon="-2.3584">
        <ele>83</ele>
        <time>2022-02-17T11:08:00.000Z</time>
      </trkpt>
      <trkpt lat="47.28469" lon="-2.35836">
        <ele>82.599998474121</ele>
        <time>2022-02-17T11:08:01.000Z</time>
      </trkpt>
      <trkpt lat="47.28469" lon="-2.35832">
        <ele>82.199996948242</ele>
        <time>2022-02-17T11:08:02.000Z</time>
      </trkpt>
      <trkpt lat="47.28468" lon="-2.35829">
        <ele>82.199996948242</ele>
        <time>2022-02-17T11:08:03.000Z</time>
      </trkpt>
      <trkpt lat="47.28461" lon="-2.35825">
        <ele>82.199996948242</ele>
        <time>2022-02-17T11:08:08.000Z</time>
      </trkpt>
      <trkpt lat="47.28454" lon="-2.35833">
        <ele>82.199996948242</ele>
        <time>2022-02-17T11:08:13.000Z</time>
      </trkpt>
      <trkpt lat="47.28439" lon="-2.35838">
        <ele>82.199996948242</ele>
        <time>2022-02-17T11:08:18.000Z</time>
      </trkpt>
      <trkpt lat="47.28419" lon="-2.35845">
        <ele>82.199996948242</ele>
        <time>2022-02-17T11:08:23.000Z</time>
      </trkpt>
      <trkpt lat="47.28403" lon="-2.35857">
        <ele>82.199996948242</ele>
        <time>2022-02-17T11:08:28.000Z</time>
      </trkpt>
      <trkpt lat="47.28376" lon="-2.35865">
        <ele>81.800003051758</ele>
        <time>2022-02-17T11:08:34.000Z</time>
      </trkpt>
      <trkpt lat="47.2837" lon="-2.35865">
        <ele>81.400001525879</ele>
        <time>2022-02-17T11:08:35.000Z</time>
      </trkpt>
      <trkpt lat="47.28365" lon="-2.35864">
        <ele>81</ele>
        <time>2022-02-17T11:08:36.000Z</time>
      </trkpt>
      <trkpt lat="47.28361" lon="-2.35866">
        <ele>80.400001525879</ele>
        <time>2022-02-17T11:08:37.000Z</time>
      </trkpt>
      <trkpt lat="47.28357" lon="-2.35867">
        <ele>80</ele>
        <time>2022-02-17T11:08:38.000Z</time>
      </trkpt>
      <trkpt lat="47.28346" lon="-2.35877">
        <ele>80</ele>
        <time>2022-02-17T11:08:42.000Z</time>
      </trkpt>
      <trkpt lat="47.28344" lon="-2.35879">
        <ele>80</ele>
        <time>2022-02-17T11:08:43.000Z</time>
      </trkpt>
      <trkpt lat="47.28337" lon="-2.35879">
        <ele>80</ele>
        <time>2022-02-17T11:08:46.000Z</time>
      </trkpt>
      <trkpt lat="47.28335" lon="-2.35879">
        <ele>80</ele>
        <time>2022-02-17T11:08:47.000Z</time>
      </trkpt>
      <trkpt lat="47.28323" lon="-2.35873">
        <ele>80</ele>
        <time>2022-02-17T11:08:51.000Z</time>
      </trkpt>
      <trkpt lat="47.28311" lon="-2.35879">
        <ele>79.599998474121</ele>
        <time>2022-02-17T11:08:56.000Z</time>
      </trkpt>
      <trkpt lat="47.28307" lon="-2.35879">
        <ele>79.199996948242</ele>
        <time>2022-02-17T11:08:57.000Z</time>
      </trkpt>
      <trkpt lat="47.28304" lon="-2.35879">
        <ele>78.800003051758</ele>
        <time>2022-02-17T11:08:58.000Z</time>
      </trkpt>
      <trkpt lat="47.283" lon="-2.3588">
        <ele>78.400001525879</ele>
        <time>2022-02-17T11:08:59.000Z</time>
      </trkpt>
      <trkpt lat="47.28298" lon="-2.35881">
        <ele>78</ele>
        <time>2022-02-17T11:09:00.000Z</time>
      </trkpt>
      <trkpt lat="47.28296" lon="-2.35882">
        <ele>78</ele>
        <time>2022-02-17T11:09:01.000Z</time>
      </trkpt>
      <trkpt lat="47.28289" lon="-2.35877">
        <ele>78</ele>
        <time>2022-02-17T11:09:06.000Z</time>
      </trkpt>
      <trkpt lat="47.28284" lon="-2.35852">
        <ele>78</ele>
        <time>2022-02-17T11:09:13.000Z</time>
      </trkpt>
      <trkpt lat="47.28273" lon="-2.35828">
        <ele>78</ele>
        <time>2022-02-17T11:09:19.000Z</time>
      </trkpt>
      <trkpt lat="47.2826" lon="-2.35819">
        <ele>78</ele>
        <time>2022-02-17T11:09:24.000Z</time>
      </trkpt>
      <trkpt lat="47.2825" lon="-2.35805">
        <ele>78</ele>
        <time>2022-02-17T11:09:31.000Z</time>
      </trkpt>
      <trkpt lat="47.28249" lon="-2.35804">
        <ele>78</ele>
        <time>2022-02-17T11:09:32.000Z</time>
      </trkpt>
      <trkpt lat="47.28246" lon="-2.35777">
        <ele>75.800003051758</ele>
        <time>2022-02-17T11:10:03.000Z</time>
      </trkpt>
      <trkpt lat="47.28245" lon="-2.35781">
        <ele>75.800003051758</ele>
        <time>2022-02-17T11:10:05.000Z</time>
      </trkpt>
      <trkpt lat="47.28246" lon="-2.35795">
        <ele>75.800003051758</ele>
        <time>2022-02-17T11:10:11.000Z</time>
      </trkpt>
      <trkpt lat="47.28247" lon="-2.35795">
        <ele>75.800003051758</ele>
        <time>2022-02-17T11:10:12.000Z</time>
      </trkpt>
      <trkpt lat="47.28251" lon="-2.358">
        <ele>75.800003051758</ele>
        <time>2022-02-17T11:10:16.000Z</time>
      </trkpt>
      <trkpt lat="47.28256" lon="-2.35801">
        <ele>75.800003051758</ele>
        <time>2022-02-17T11:10:21.000Z</time>
      </trkpt>
      <trkpt lat="47.28258" lon="-2.35803">
        <ele>75.800003051758</ele>
        <time>2022-02-17T11:10:23.000Z</time>
      </trkpt>
      <trkpt lat="47.2826" lon="-2.3581">
        <ele>75.800003051758</ele>
        <time>2022-02-17T11:10:26.000Z</time>
      </trkpt>
      <trkpt lat="47.28263" lon="-2.35826">
        <ele>75.800003051758</ele>
        <time>2022-02-17T11:10:30.000Z</time>
      </trkpt>
      <trkpt lat="47.28266" lon="-2.35843">
        <ele>75.800003051758</ele>
        <time>2022-02-17T11:10:36.000Z</time>
      </trkpt>
      <trkpt lat="47.28273" lon="-2.35851">
        <ele>75.800003051758</ele>
        <time>2022-02-17T11:10:40.000Z</time>
      </trkpt>
      <trkpt lat="47.28274" lon="-2.35854">
        <ele>75.800003051758</ele>
        <time>2022-02-17T11:10:41.000Z</time>
      </trkpt>
      <trkpt lat="47.2827" lon="-2.35861">
        <ele>75.800003051758</ele>
        <time>2022-02-17T11:10:45.000Z</time>
      </trkpt>
      <trkpt lat="47.28261" lon="-2.35868">
        <ele>75.800003051758</ele>
        <time>2022-02-17T11:10:49.000Z</time>
      </trkpt>
      <trkpt lat="47.28255" lon="-2.35873">
        <ele>75.800003051758</ele>
        <time>2022-02-17T11:10:51.000Z</time>
      </trkpt>
      <trkpt lat="47.28247" lon="-2.35879">
        <ele>75.800003051758</ele>
        <time>2022-02-17T11:10:54.000Z</time>
      </trkpt>
      <trkpt lat="47.28229" lon="-2.35886">
        <ele>75.800003051758</ele>
        <time>2022-02-17T11:10:58.000Z</time>
      </trkpt>
      <trkpt lat="47.28225" lon="-2.35887">
        <ele>75.400001525879</ele>
        <time>2022-02-17T11:10:59.000Z</time>
      </trkpt>
      <trkpt lat="47.28221" lon="-2.35888">
        <ele>75</ele>
        <time>2022-02-17T11:11:00.000Z</time>
      </trkpt>
      <trkpt lat="47.28217" lon="-2.35888">
        <ele>74.599998474121</ele>
        <time>2022-02-17T11:11:01.000Z</time>
      </trkpt>
      <trkpt lat="47.28212" lon="-2.35888">
        <ele>74</ele>
        <time>2022-02-17T11:11:02.000Z</time>
      </trkpt>
      <trkpt lat="47.28209" lon="-2.35888">
        <ele>73.599998474121</ele>
        <time>2022-02-17T11:11:03.000Z</time>
      </trkpt>
      <trkpt lat="47.28205" lon="-2.35888">
        <ele>73.599998474121</ele>
        <time>2022-02-17T11:11:04.000Z</time>
      </trkpt>
      <trkpt lat="47.28198" lon="-2.35893">
        <ele>73.599998474121</ele>
        <time>2022-02-17T11:11:06.000Z</time>
      </trkpt>
      <trkpt lat="47.28189" lon="-2.35912">
        <ele>73.599998474121</ele>
        <time>2022-02-17T11:11:10.000Z</time>
      </trkpt>
      <trkpt lat="47.28184" lon="-2.35921">
        <ele>73.199996948242</ele>
        <time>2022-02-17T11:11:12.000Z</time>
      </trkpt>
      <trkpt lat="47.28182" lon="-2.35923">
        <ele>72.599998474121</ele>
        <time>2022-02-17T11:11:13.000Z</time>
      </trkpt>
      <trkpt lat="47.2818" lon="-2.35924">
        <ele>72.199996948242</ele>
        <time>2022-02-17T11:11:14.000Z</time>
      </trkpt>
      <trkpt lat="47.28179" lon="-2.35923">
        <ele>71.800003051758</ele>
        <time>2022-02-17T11:11:15.000Z</time>
      </trkpt>
      <trkpt lat="47.28178" lon="-2.35921">
        <ele>71.400001525879</ele>
        <time>2022-02-17T11:11:16.000Z</time>
      </trkpt>
      <trkpt lat="47.28178" lon="-2.35916">
        <ele>71.400001525879</ele>
        <time>2022-02-17T11:11:18.000Z</time>
      </trkpt>
      <trkpt lat="47.28178" lon="-2.35913">
        <ele>71.400001525879</ele>
        <time>2022-02-17T11:11:19.000Z</time>
      </trkpt>
      <trkpt lat="47.28179" lon="-2.35906">
        <ele>71.400001525879</ele>
        <time>2022-02-17T11:11:22.000Z</time>
      </trkpt>
      <trkpt lat="47.2818" lon="-2.35901">
        <ele>71.400001525879</ele>
        <time>2022-02-17T11:11:24.000Z</time>
      </trkpt>
      <trkpt lat="47.28181" lon="-2.35884">
        <ele>71.400001525879</ele>
        <time>2022-02-17T11:11:30.000Z</time>
      </trkpt>
      <trkpt lat="47.28182" lon="-2.35867">
        <ele>71.400001525879</ele>
        <time>2022-02-17T11:11:36.000Z</time>
      </trkpt>
      <trkpt lat="47.28184" lon="-2.35861">
        <ele>71.400001525879</ele>
        <time>2022-02-17T11:11:40.000Z</time>
      </trkpt>
      <trkpt lat="47.28183" lon="-2.35857">
        <ele>71.400001525879</ele>
        <time>2022-02-17T11:12:17.000Z</time>
      </trkpt>
      <trkpt lat="47.2818" lon="-2.35857">
        <ele>71.400001525879</ele>
        <time>2022-02-17T11:12:18.000Z</time>
      </trkpt>
      <trkpt lat="47.28165" lon="-2.35845">
        <ele>71.400001525879</ele>
        <time>2022-02-17T11:12:23.000Z</time>
      </trkpt>
      <trkpt lat="47.28153" lon="-2.35825">
        <ele>71.400001525879</ele>
        <time>2022-02-17T11:12:28.000Z</time>
      </trkpt>
      <trkpt lat="47.28149" lon="-2.35801">
        <ele>71.400001525879</ele>
        <time>2022-02-17T11:12:33.000Z</time>
      </trkpt>
      <trkpt lat="47.2815" lon="-2.35782">
        <ele>71.400001525879</ele>
        <time>2022-02-17T11:12:39.000Z</time>
      </trkpt>
      <trkpt lat="47.28147" lon="-2.35782">
        <ele>71.400001525879</ele>
        <time>2022-02-17T11:12:41.000Z</time>
      </trkpt>
      <trkpt lat="47.28143" lon="-2.35786">
        <ele>71.400001525879</ele>
        <time>2022-02-17T11:12:43.000Z</time>
      </trkpt>
      <trkpt lat="47.28136" lon="-2.35787">
        <ele>71.400001525879</ele>
        <time>2022-02-17T11:12:45.000Z</time>
      </trkpt>
      <trkpt lat="47.2813" lon="-2.35792">
        <ele>70.400001525879</ele>
        <time>2022-02-17T11:12:47.000Z</time>
      </trkpt>
      <trkpt lat="47.28127" lon="-2.35794">
        <ele>70</ele>
        <time>2022-02-17T11:12:48.000Z</time>
      </trkpt>
      <trkpt lat="47.28124" lon="-2.35796">
        <ele>69.599998474121</ele>
        <time>2022-02-17T11:12:49.000Z</time>
      </trkpt>
      <trkpt lat="47.28122" lon="-2.35799">
        <ele>69.199996948242</ele>
        <time>2022-02-17T11:12:50.000Z</time>
      </trkpt>
      <trkpt lat="47.28116" lon="-2.35805">
        <ele>69.199996948242</ele>
        <time>2022-02-17T11:12:52.000Z</time>
      </trkpt>
      <trkpt lat="47.28105" lon="-2.3582">
        <ele>69.199996948242</ele>
        <time>2022-02-17T11:12:57.000Z</time>
      </trkpt>
      <trkpt lat="47.28096" lon="-2.35817">
        <ele>69.199996948242</ele>
        <time>2022-02-17T11:12:59.000Z</time>
      </trkpt>
      <trkpt lat="47.28091" lon="-2.35812">
        <ele>69.199996948242</ele>
        <time>2022-02-17T11:13:00.000Z</time>
      </trkpt>
      <trkpt lat="47.28082" lon="-2.3579">
        <ele>69.199996948242</ele>
        <time>2022-02-17T11:13:04.000Z</time>
      </trkpt>
      <trkpt lat="47.28081" lon="-2.35783">
        <ele>69.800003051758</ele>
        <time>2022-02-17T11:13:06.000Z</time>
      </trkpt>
      <trkpt lat="47.28081" lon="-2.3578">
        <ele>70.199996948242</ele>
        <time>2022-02-17T11:13:07.000Z</time>
      </trkpt>
      <trkpt lat="47.28082" lon="-2.35776">
        <ele>70.599998474121</ele>
        <time>2022-02-17T11:13:08.000Z</time>
      </trkpt>
      <trkpt lat="47.28083" lon="-2.35772">
        <ele>71</ele>
        <time>2022-02-17T11:13:09.000Z</time>
      </trkpt>
      <trkpt lat="47.28083" lon="-2.35768">
        <ele>71.599998474121</ele>
        <time>2022-02-17T11:13:10.000Z</time>
      </trkpt>
      <trkpt lat="47.28085" lon="-2.35745">
        <ele>71.599998474121</ele>
        <time>2022-02-17T11:13:15.000Z</time>
      </trkpt>
      <trkpt lat="47.28087" lon="-2.35736">
        <ele>72</ele>
        <time>2022-02-17T11:13:17.000Z</time>
      </trkpt>
      <trkpt lat="47.28088" lon="-2.35733">
        <ele>72.400001525879</ele>
        <time>2022-02-17T11:13:18.000Z</time>
      </trkpt>
      <trkpt lat="47.28089" lon="-2.35729">
        <ele>72.800003051758</ele>
        <time>2022-02-17T11:13:19.000Z</time>
      </trkpt>
      <trkpt lat="47.2809" lon="-2.35725">
        <ele>73.199996948242</ele>
        <time>2022-02-17T11:13:20.000Z</time>
      </trkpt>
      <trkpt lat="47.28091" lon="-2.35721">
        <ele>73.800003051758</ele>
        <time>2022-02-17T11:13:21.000Z</time>
      </trkpt>
      <trkpt lat="47.28092" lon="-2.35718">
        <ele>73.800003051758</ele>
        <time>2022-02-17T11:13:22.000Z</time>
      </trkpt>
      <trkpt lat="47.2809" lon="-2.35697">
        <ele>73.800003051758</ele>
        <time>2022-02-17T11:13:27.000Z</time>
      </trkpt>
      <trkpt lat="47.28088" lon="-2.35683">
        <ele>73.800003051758</ele>
        <time>2022-02-17T11:13:29.000Z</time>
      </trkpt>
      <trkpt lat="47.28084" lon="-2.35665">
        <ele>73.800003051758</ele>
        <time>2022-02-17T11:13:31.000Z</time>
      </trkpt>
      <trkpt lat="47.28079" lon="-2.35646">
        <ele>73.199996948242</ele>
        <time>2022-02-17T11:13:34.000Z</time>
      </trkpt>
      <trkpt lat="47.28077" lon="-2.3564">
        <ele>72.800003051758</ele>
        <time>2022-02-17T11:13:35.000Z</time>
      </trkpt>
      <trkpt lat="47.28076" lon="-2.35634">
        <ele>72</ele>
        <time>2022-02-17T11:13:36.000Z</time>
      </trkpt>
      <trkpt lat="47.28075" lon="-2.35627">
        <ele>71.400001525879</ele>
        <time>2022-02-17T11:13:37.000Z</time>
      </trkpt>
      <trkpt lat="47.28075" lon="-2.35622">
        <ele>71</ele>
        <time>2022-02-17T11:13:38.000Z</time>
      </trkpt>
      <trkpt lat="47.28076" lon="-2.35618">
        <ele>70.400001525879</ele>
        <time>2022-02-17T11:13:39.000Z</time>
      </trkpt>
      <trkpt lat="47.28078" lon="-2.35616">
        <ele>69.800003051758</ele>
        <time>2022-02-17T11:13:40.000Z</time>
      </trkpt>
      <trkpt lat="47.28079" lon="-2.35615">
        <ele>69.400001525879</ele>
        <time>2022-02-17T11:13:41.000Z</time>
      </trkpt>
      <trkpt lat="47.28084" lon="-2.35616">
        <ele>69.400001525879</ele>
        <time>2022-02-17T11:13:44.000Z</time>
      </trkpt>
      <trkpt lat="47.28089" lon="-2.3562">
        <ele>69.400001525879</ele>
        <time>2022-02-17T11:13:49.000Z</time>
      </trkpt>
      <trkpt lat="47.28079" lon="-2.35609">
        <ele>71.400001525879</ele>
        <time>2022-02-17T11:27:47.000Z</time>
      </trkpt>
      <trkpt lat="47.28075" lon="-2.35609">
        <ele>71.400001525879</ele>
        <time>2022-02-17T11:27:49.000Z</time>
      </trkpt>
      <trkpt lat="47.28069" lon="-2.3561">
        <ele>71.400001525879</ele>
        <time>2022-02-17T11:27:51.000Z</time>
      </trkpt>
      <trkpt lat="47.28059" lon="-2.35607">
        <ele>71.400001525879</ele>
        <time>2022-02-17T11:27:54.000Z</time>
      </trkpt>
      <trkpt lat="47.28047" lon="-2.356">
        <ele>71.400001525879</ele>
        <time>2022-02-17T11:27:57.000Z</time>
      </trkpt>
      <trkpt lat="47.28038" lon="-2.35601">
        <ele>71.400001525879</ele>
        <time>2022-02-17T11:27:59.000Z</time>
      </trkpt>
      <trkpt lat="47.28028" lon="-2.35603">
        <ele>71.400001525879</ele>
        <time>2022-02-17T11:28:01.000Z</time>
      </trkpt>
      <trkpt lat="47.28009" lon="-2.35606">
        <ele>71.400001525879</ele>
        <time>2022-02-17T11:28:05.000Z</time>
      </trkpt>
      <trkpt lat="47.27999" lon="-2.35606">
        <ele>71.400001525879</ele>
        <time>2022-02-17T11:28:07.000Z</time>
      </trkpt>
      <trkpt lat="47.27983" lon="-2.35601">
        <ele>71.400001525879</ele>
        <time>2022-02-17T11:28:10.000Z</time>
      </trkpt>
      <trkpt lat="47.27979" lon="-2.35597">
        <ele>71.400001525879</ele>
        <time>2022-02-17T11:28:11.000Z</time>
      </trkpt>
      <trkpt lat="47.2797" lon="-2.35585">
        <ele>71.400001525879</ele>
        <time>2022-02-17T11:28:13.000Z</time>
      </trkpt>
      <trkpt lat="47.27958" lon="-2.35576">
        <ele>71.400001525879</ele>
        <time>2022-02-17T11:28:15.000Z</time>
      </trkpt>
      <trkpt lat="47.27951" lon="-2.35575">
        <ele>71.400001525879</ele>
        <time>2022-02-17T11:28:16.000Z</time>
      </trkpt>
      <trkpt lat="47.27934" lon="-2.35579">
        <ele>71.400001525879</ele>
        <time>2022-02-17T11:28:19.000Z</time>
      </trkpt>
      <trkpt lat="47.27913" lon="-2.35585">
        <ele>71</ele>
        <time>2022-02-17T11:28:23.000Z</time>
      </trkpt>
      <trkpt lat="47.27908" lon="-2.35587">
        <ele>70.599998474121</ele>
        <time>2022-02-17T11:28:24.000Z</time>
      </trkpt>
      <trkpt lat="47.27902" lon="-2.35588">
        <ele>70.199996948242</ele>
        <time>2022-02-17T11:28:25.000Z</time>
      </trkpt>
      <trkpt lat="47.27897" lon="-2.3559">
        <ele>69.199996948242</ele>
        <time>2022-02-17T11:28:26.000Z</time>
      </trkpt>
      <trkpt lat="47.27891" lon="-2.35591">
        <ele>69.199996948242</ele>
        <time>2022-02-17T11:28:27.000Z</time>
      </trkpt>
      <trkpt lat="47.27855" lon="-2.35602">
        <ele>69.199996948242</ele>
        <time>2022-02-17T11:28:33.000Z</time>
      </trkpt>
      <trkpt lat="47.27849" lon="-2.35604">
        <ele>68.800003051758</ele>
        <time>2022-02-17T11:28:34.000Z</time>
      </trkpt>
      <trkpt lat="47.27843" lon="-2.35605">
        <ele>68.400001525879</ele>
        <time>2022-02-17T11:28:35.000Z</time>
      </trkpt>
      <trkpt lat="47.27837" lon="-2.35607">
        <ele>68</ele>
        <time>2022-02-17T11:28:36.000Z</time>
      </trkpt>
      <trkpt lat="47.27831" lon="-2.35609">
        <ele>67.599998474121</ele>
        <time>2022-02-17T11:28:37.000Z</time>
      </trkpt>
      <trkpt lat="47.27825" lon="-2.35611">
        <ele>67.199996948242</ele>
        <time>2022-02-17T11:28:38.000Z</time>
      </trkpt>
      <trkpt lat="47.27812" lon="-2.35614">
        <ele>67.199996948242</ele>
        <time>2022-02-17T11:28:40.000Z</time>
      </trkpt>
      <trkpt lat="47.27777" lon="-2.3563">
        <ele>66.800003051758</ele>
        <time>2022-02-17T11:28:46.000Z</time>
      </trkpt>
      <trkpt lat="47.27771" lon="-2.35635">
        <ele>66.400001525879</ele>
        <time>2022-02-17T11:28:47.000Z</time>
      </trkpt>
      <trkpt lat="47.27766" lon="-2.3564">
        <ele>65.800003051758</ele>
        <time>2022-02-17T11:28:48.000Z</time>
      </trkpt>
      <trkpt lat="47.27761" lon="-2.35645">
        <ele>65.400001525879</ele>
        <time>2022-02-17T11:28:49.000Z</time>
      </trkpt>
      <trkpt lat="47.27757" lon="-2.35651">
        <ele>65</ele>
        <time>2022-02-17T11:28:50.000Z</time>
      </trkpt>
      <trkpt lat="47.27752" lon="-2.35657">
        <ele>65</ele>
        <time>2022-02-17T11:28:51.000Z</time>
      </trkpt>
      <trkpt lat="47.27729" lon="-2.35695">
        <ele>65</ele>
        <time>2022-02-17T11:28:57.000Z</time>
      </trkpt>
      <trkpt lat="47.2771" lon="-2.35719">
        <ele>64.599998474121</ele>
        <time>2022-02-17T11:29:01.000Z</time>
      </trkpt>
      <trkpt lat="47.27705" lon="-2.35723">
        <ele>64</ele>
        <time>2022-02-17T11:29:02.000Z</time>
      </trkpt>
      <trkpt lat="47.277" lon="-2.35728">
        <ele>63.599998474121</ele>
        <time>2022-02-17T11:29:03.000Z</time>
      </trkpt>
      <trkpt lat="47.27695" lon="-2.35732">
        <ele>63.200000762939</ele>
        <time>2022-02-17T11:29:04.000Z</time>
      </trkpt>
      <trkpt lat="47.2769" lon="-2.35737">
        <ele>62.599998474121</ele>
        <time>2022-02-17T11:29:05.000Z</time>
      </trkpt>
      <trkpt lat="47.27675" lon="-2.35747">
        <ele>62.599998474121</ele>
        <time>2022-02-17T11:29:08.000Z</time>
      </trkpt>
      <trkpt lat="47.27667" lon="-2.35739">
        <ele>62.599998474121</ele>
        <time>2022-02-17T11:29:10.000Z</time>
      </trkpt>
      <trkpt lat="47.27649" lon="-2.35721">
        <ele>62.599998474121</ele>
        <time>2022-02-17T11:29:14.000Z</time>
      </trkpt>
      <trkpt lat="47.27643" lon="-2.35719">
        <ele>62.200000762939</ele>
        <time>2022-02-17T11:29:15.000Z</time>
      </trkpt>
      <trkpt lat="47.27637" lon="-2.35717">
        <ele>61.799999237061</ele>
        <time>2022-02-17T11:29:16.000Z</time>
      </trkpt>
      <trkpt lat="47.27631" lon="-2.35716">
        <ele>61.400001525879</ele>
        <time>2022-02-17T11:29:17.000Z</time>
      </trkpt>
      <trkpt lat="47.27625" lon="-2.35714">
        <ele>60.799999237061</ele>
        <time>2022-02-17T11:29:18.000Z</time>
      </trkpt>
      <trkpt lat="47.27619" lon="-2.35712">
        <ele>60.400001525879</ele>
        <time>2022-02-17T11:29:19.000Z</time>
      </trkpt>
      <trkpt lat="47.27579" lon="-2.35703">
        <ele>60.400001525879</ele>
        <time>2022-02-17T11:29:26.000Z</time>
      </trkpt>
      <trkpt lat="47.27534" lon="-2.35692">
        <ele>60.400001525879</ele>
        <time>2022-02-17T11:29:34.000Z</time>
      </trkpt>
      <trkpt lat="47.27528" lon="-2.3569">
        <ele>60</ele>
        <time>2022-02-17T11:29:35.000Z</time>
      </trkpt>
      <trkpt lat="47.27522" lon="-2.35688">
        <ele>59.599998474121</ele>
        <time>2022-02-17T11:29:36.000Z</time>
      </trkpt>
      <trkpt lat="47.27516" lon="-2.35687">
        <ele>59.200000762939</ele>
        <time>2022-02-17T11:29:37.000Z</time>
      </trkpt>
      <trkpt lat="47.27509" lon="-2.35686">
        <ele>58.799999237061</ele>
        <time>2022-02-17T11:29:38.000Z</time>
      </trkpt>
      <trkpt lat="47.27503" lon="-2.35685">
        <ele>58.400001525879</ele>
        <time>2022-02-17T11:29:39.000Z</time>
      </trkpt>
      <trkpt lat="47.2749" lon="-2.35682">
        <ele>58.400001525879</ele>
        <time>2022-02-17T11:29:41.000Z</time>
      </trkpt>
      <trkpt lat="47.27447" lon="-2.35674">
        <ele>58.400001525879</ele>
        <time>2022-02-17T11:29:48.000Z</time>
      </trkpt>
      <trkpt lat="47.27431" lon="-2.35671">
        <ele>58</ele>
        <time>2022-02-17T11:29:51.000Z</time>
      </trkpt>
      <trkpt lat="47.27425" lon="-2.3567">
        <ele>57.599998474121</ele>
        <time>2022-02-17T11:29:52.000Z</time>
      </trkpt>
      <trkpt lat="47.2742" lon="-2.3567">
        <ele>57.200000762939</ele>
        <time>2022-02-17T11:29:53.000Z</time>
      </trkpt>
      <trkpt lat="47.27415" lon="-2.3567">
        <ele>56.599998474121</ele>
        <time>2022-02-17T11:29:54.000Z</time>
      </trkpt>
      <trkpt lat="47.27408" lon="-2.3567">
        <ele>56.200000762939</ele>
        <time>2022-02-17T11:29:55.000Z</time>
      </trkpt>
      <trkpt lat="47.27402" lon="-2.35672">
        <ele>56.200000762939</ele>
        <time>2022-02-17T11:29:56.000Z</time>
      </trkpt>
      <trkpt lat="47.27382" lon="-2.35685">
        <ele>56.200000762939</ele>
        <time>2022-02-17T11:30:00.000Z</time>
      </trkpt>
      <trkpt lat="47.27352" lon="-2.35704">
        <ele>56.200000762939</ele>
        <time>2022-02-17T11:30:06.000Z</time>
      </trkpt>
      <trkpt lat="47.27343" lon="-2.3571">
        <ele>56.200000762939</ele>
        <time>2022-02-17T11:30:08.000Z</time>
      </trkpt>
      <trkpt lat="47.27339" lon="-2.35712">
        <ele>56.200000762939</ele>
        <time>2022-02-17T11:30:10.000Z</time>
      </trkpt>
      <trkpt lat="47.2733" lon="-2.35721">
        <ele>56.200000762939</ele>
        <time>2022-02-17T11:30:16.000Z</time>
      </trkpt>
      <trkpt lat="47.27322" lon="-2.35727">
        <ele>56.200000762939</ele>
        <time>2022-02-17T11:30:21.000Z</time>
      </trkpt>
      <trkpt lat="47.27313" lon="-2.35737">
        <ele>56.200000762939</ele>
        <time>2022-02-17T11:30:25.000Z</time>
      </trkpt>
      <trkpt lat="47.2731" lon="-2.35738">
        <ele>56.200000762939</ele>
        <time>2022-02-17T11:30:26.000Z</time>
      </trkpt>
      <trkpt lat="47.27306" lon="-2.35737">
        <ele>56.200000762939</ele>
        <time>2022-02-17T11:30:28.000Z</time>
      </trkpt>
      <trkpt lat="47.27304" lon="-2.3573">
        <ele>56.200000762939</ele>
        <time>2022-02-17T11:30:30.000Z</time>
      </trkpt>
      <trkpt lat="47.273" lon="-2.3572">
        <ele>56.200000762939</ele>
        <time>2022-02-17T11:30:34.000Z</time>
      </trkpt>
      <trkpt lat="47.27291" lon="-2.35697">
        <ele>56.200000762939</ele>
        <time>2022-02-17T11:30:39.000Z</time>
      </trkpt>
      <trkpt lat="47.2727" lon="-2.3565">
        <ele>56.200000762939</ele>
        <time>2022-02-17T11:30:47.000Z</time>
      </trkpt>
      <trkpt lat="47.27248" lon="-2.35601">
        <ele>56.200000762939</ele>
        <time>2022-02-17T11:30:55.000Z</time>
      </trkpt>
      <trkpt lat="47.2722" lon="-2.3554">
        <ele>56.599998474121</ele>
        <time>2022-02-17T11:31:05.000Z</time>
      </trkpt>
      <trkpt lat="47.27217" lon="-2.35534">
        <ele>57</ele>
        <time>2022-02-17T11:31:06.000Z</time>
      </trkpt>
      <trkpt lat="47.27214" lon="-2.35528">
        <ele>57.400001525879</ele>
        <time>2022-02-17T11:31:07.000Z</time>
      </trkpt>
      <trkpt lat="47.27212" lon="-2.35521">
        <ele>58</ele>
        <time>2022-02-17T11:31:08.000Z</time>
      </trkpt>
      <trkpt lat="47.27209" lon="-2.35515">
        <ele>58.400001525879</ele>
        <time>2022-02-17T11:31:09.000Z</time>
      </trkpt>
      <trkpt lat="47.27188" lon="-2.35473">
        <ele>58.400001525879</ele>
        <time>2022-02-17T11:31:16.000Z</time>
      </trkpt>
      <trkpt lat="47.27163" lon="-2.35424">
        <ele>58.400001525879</ele>
        <time>2022-02-17T11:31:24.000Z</time>
      </trkpt>
      <trkpt lat="47.27141" lon="-2.35382">
        <ele>58.400001525879</ele>
        <time>2022-02-17T11:31:31.000Z</time>
      </trkpt>
      <trkpt lat="47.27108" lon="-2.35328">
        <ele>58.400001525879</ele>
        <time>2022-02-17T11:31:40.000Z</time>
      </trkpt>
      <trkpt lat="47.27079" lon="-2.35282">
        <ele>58.400001525879</ele>
        <time>2022-02-17T11:31:48.000Z</time>
      </trkpt>
      <trkpt lat="47.27043" lon="-2.35225">
        <ele>58.400001525879</ele>
        <time>2022-02-17T11:31:58.000Z</time>
      </trkpt>
      <trkpt lat="47.27011" lon="-2.35172">
        <ele>58.400001525879</ele>
        <time>2022-02-17T11:32:07.000Z</time>
      </trkpt>
      <trkpt lat="47.26972" lon="-2.35112">
        <ele>58.400001525879</ele>
        <time>2022-02-17T11:32:17.000Z</time>
      </trkpt>
      <trkpt lat="47.26939" lon="-2.35063">
        <ele>58.400001525879</ele>
        <time>2022-02-17T11:32:25.000Z</time>
      </trkpt>
      <trkpt lat="47.26908" lon="-2.35016">
        <ele>58.400001525879</ele>
        <time>2022-02-17T11:32:33.000Z</time>
      </trkpt>
      <trkpt lat="47.26874" lon="-2.34961">
        <ele>58.400001525879</ele>
        <time>2022-02-17T11:32:42.000Z</time>
      </trkpt>
      <trkpt lat="47.26834" lon="-2.34902">
        <ele>58.400001525879</ele>
        <time>2022-02-17T11:32:52.000Z</time>
      </trkpt>
      <trkpt lat="47.26798" lon="-2.3485">
        <ele>58.400001525879</ele>
        <time>2022-02-17T11:33:01.000Z</time>
      </trkpt>
      <trkpt lat="47.26769" lon="-2.34809">
        <ele>58.400001525879</ele>
        <time>2022-02-17T11:33:09.000Z</time>
      </trkpt>
      <trkpt lat="47.26754" lon="-2.34787">
        <ele>58.400001525879</ele>
        <time>2022-02-17T11:33:13.000Z</time>
      </trkpt>
      <trkpt lat="47.26749" lon="-2.34781">
        <ele>58.400001525879</ele>
        <time>2022-02-17T11:33:14.000Z</time>
      </trkpt>
      <trkpt lat="47.26731" lon="-2.34759">
        <ele>58.400001525879</ele>
        <time>2022-02-17T11:33:18.000Z</time>
      </trkpt>
      <trkpt lat="47.2669" lon="-2.3471">
        <ele>58.400001525879</ele>
        <time>2022-02-17T11:33:27.000Z</time>
      </trkpt>
      <trkpt lat="47.26656" lon="-2.34668">
        <ele>58.400001525879</ele>
        <time>2022-02-17T11:33:35.000Z</time>
      </trkpt>
      <trkpt lat="47.26621" lon="-2.34623">
        <ele>58.400001525879</ele>
        <time>2022-02-17T11:33:43.000Z</time>
      </trkpt>
      <trkpt lat="47.2659" lon="-2.34584">
        <ele>58.400001525879</ele>
        <time>2022-02-17T11:33:50.000Z</time>
      </trkpt>
      <trkpt lat="47.26557" lon="-2.34549">
        <ele>58.400001525879</ele>
        <time>2022-02-17T11:33:57.000Z</time>
      </trkpt>
      <trkpt lat="47.26532" lon="-2.3453">
        <ele>58.400001525879</ele>
        <time>2022-02-17T11:34:02.000Z</time>
      </trkpt>
      <trkpt lat="47.26527" lon="-2.34525">
        <ele>58.400001525879</ele>
        <time>2022-02-17T11:34:03.000Z</time>
      </trkpt>
      <trkpt lat="47.26503" lon="-2.34505">
        <ele>58.400001525879</ele>
        <time>2022-02-17T11:34:08.000Z</time>
      </trkpt>
      <trkpt lat="47.26467" lon="-2.3448">
        <ele>58.400001525879</ele>
        <time>2022-02-17T11:34:15.000Z</time>
      </trkpt>
      <trkpt lat="47.26432" lon="-2.34456">
        <ele>58.400001525879</ele>
        <time>2022-02-17T11:34:22.000Z</time>
      </trkpt>
      <trkpt lat="47.26397" lon="-2.3443">
        <ele>58.400001525879</ele>
        <time>2022-02-17T11:34:29.000Z</time>
      </trkpt>
      <trkpt lat="47.26366" lon="-2.34402">
        <ele>58.400001525879</ele>
        <time>2022-02-17T11:34:36.000Z</time>
      </trkpt>
      <trkpt lat="47.26339" lon="-2.34377">
        <ele>58.400001525879</ele>
        <time>2022-02-17T11:34:42.000Z</time>
      </trkpt>
      <trkpt lat="47.26333" lon="-2.34376">
        <ele>58.400001525879</ele>
        <time>2022-02-17T11:34:43.000Z</time>
      </trkpt>
      <trkpt lat="47.26319" lon="-2.34368">
        <ele>58.400001525879</ele>
        <time>2022-02-17T11:34:46.000Z</time>
      </trkpt>
      <trkpt lat="47.26316" lon="-2.34361">
        <ele>58.400001525879</ele>
        <time>2022-02-17T11:34:47.000Z</time>
      </trkpt>
      <trkpt lat="47.26308" lon="-2.34349">
        <ele>58.400001525879</ele>
        <time>2022-02-17T11:34:49.000Z</time>
      </trkpt>
      <trkpt lat="47.26298" lon="-2.3434">
        <ele>58.400001525879</ele>
        <time>2022-02-17T11:34:51.000Z</time>
      </trkpt>
      <trkpt lat="47.26257" lon="-2.34295">
        <ele>58.400001525879</ele>
        <time>2022-02-17T11:35:00.000Z</time>
      </trkpt>
      <trkpt lat="47.26218" lon="-2.34252">
        <ele>58.400001525879</ele>
        <time>2022-02-17T11:35:09.000Z</time>
      </trkpt>
      <trkpt lat="47.26176" lon="-2.34211">
        <ele>58.400001525879</ele>
        <time>2022-02-17T11:35:18.000Z</time>
      </trkpt>
      <trkpt lat="47.26148" lon="-2.34185">
        <ele>58.400001525879</ele>
        <time>2022-02-17T11:35:24.000Z</time>
      </trkpt>
      <trkpt lat="47.26143" lon="-2.34182">
        <ele>58.400001525879</ele>
        <time>2022-02-17T11:35:25.000Z</time>
      </trkpt>
      <trkpt lat="47.26127" lon="-2.34173">
        <ele>58.400001525879</ele>
        <time>2022-02-17T11:35:28.000Z</time>
      </trkpt>
      <trkpt lat="47.26118" lon="-2.34164">
        <ele>58.400001525879</ele>
        <time>2022-02-17T11:35:30.000Z</time>
      </trkpt>
      <trkpt lat="47.26107" lon="-2.34156">
        <ele>58.400001525879</ele>
        <time>2022-02-17T11:35:32.000Z</time>
      </trkpt>
      <trkpt lat="47.26091" lon="-2.34148">
        <ele>58.400001525879</ele>
        <time>2022-02-17T11:35:35.000Z</time>
      </trkpt>
      <trkpt lat="47.26042" lon="-2.34122">
        <ele>58.400001525879</ele>
        <time>2022-02-17T11:35:44.000Z</time>
      </trkpt>
      <trkpt lat="47.26008" lon="-2.34107">
        <ele>57.400001525879</ele>
        <time>2022-02-17T11:35:50.000Z</time>
      </trkpt>
      <trkpt lat="47.26002" lon="-2.34104">
        <ele>57</ele>
        <time>2022-02-17T11:35:51.000Z</time>
      </trkpt>
      <trkpt lat="47.25997" lon="-2.34101">
        <ele>56.599998474121</ele>
        <time>2022-02-17T11:35:52.000Z</time>
      </trkpt>
      <trkpt lat="47.25992" lon="-2.34098">
        <ele>56.200000762939</ele>
        <time>2022-02-17T11:35:53.000Z</time>
      </trkpt>
      <trkpt lat="47.25967" lon="-2.34087">
        <ele>56.200000762939</ele>
        <time>2022-02-17T11:35:58.000Z</time>
      </trkpt>
      <trkpt lat="47.25934" lon="-2.34074">
        <ele>56.200000762939</ele>
        <time>2022-02-17T11:36:05.000Z</time>
      </trkpt>
      <trkpt lat="47.2593" lon="-2.34073">
        <ele>56.200000762939</ele>
        <time>2022-02-17T11:36:06.000Z</time>
      </trkpt>
      <trkpt lat="47.2592" lon="-2.34074">
        <ele>56.200000762939</ele>
        <time>2022-02-17T11:36:09.000Z</time>
      </trkpt>
      <trkpt lat="47.25916" lon="-2.34074">
        <ele>56.200000762939</ele>
        <time>2022-02-17T11:36:10.000Z</time>
      </trkpt>
      <trkpt lat="47.25899" lon="-2.34061">
        <ele>56.200000762939</ele>
        <time>2022-02-17T11:36:14.000Z</time>
      </trkpt>
      <trkpt lat="47.25898" lon="-2.34038">
        <ele>56.200000762939</ele>
        <time>2022-02-17T11:36:17.000Z</time>
      </trkpt>
      <trkpt lat="47.25909" lon="-2.3401">
        <ele>56.200000762939</ele>
        <time>2022-02-17T11:36:21.000Z</time>
      </trkpt>
      <trkpt lat="47.25922" lon="-2.3397">
        <ele>56.200000762939</ele>
        <time>2022-02-17T11:36:26.000Z</time>
      </trkpt>
      <trkpt lat="47.25943" lon="-2.33926">
        <ele>56.200000762939</ele>
        <time>2022-02-17T11:36:32.000Z</time>
      </trkpt>
      <trkpt lat="47.25946" lon="-2.33919">
        <ele>56.200000762939</ele>
        <time>2022-02-17T11:36:33.000Z</time>
      </trkpt>
      <trkpt lat="47.25954" lon="-2.33901">
        <ele>56.200000762939</ele>
        <time>2022-02-17T11:36:36.000Z</time>
      </trkpt>
      <trkpt lat="47.25961" lon="-2.33894">
        <ele>56.200000762939</ele>
        <time>2022-02-17T11:36:38.000Z</time>
      </trkpt>
      <trkpt lat="47.25966" lon="-2.33888">
        <ele>56.200000762939</ele>
        <time>2022-02-17T11:36:40.000Z</time>
      </trkpt>
      <trkpt lat="47.25971" lon="-2.33878">
        <ele>56.200000762939</ele>
        <time>2022-02-17T11:36:42.000Z</time>
      </trkpt>
      <trkpt lat="47.25975" lon="-2.33865">
        <ele>56.200000762939</ele>
        <time>2022-02-17T11:36:44.000Z</time>
      </trkpt>
      <trkpt lat="47.25997" lon="-2.33802">
        <ele>56.200000762939</ele>
        <time>2022-02-17T11:36:53.000Z</time>
      </trkpt>
      <trkpt lat="47.26018" lon="-2.33745">
        <ele>56.200000762939</ele>
        <time>2022-02-17T11:37:01.000Z</time>
      </trkpt>
      <trkpt lat="47.2602" lon="-2.33738">
        <ele>56.200000762939</ele>
        <time>2022-02-17T11:37:02.000Z</time>
      </trkpt>
      <trkpt lat="47.26032" lon="-2.33706">
        <ele>56.200000762939</ele>
        <time>2022-02-17T11:37:07.000Z</time>
      </trkpt>
      <trkpt lat="47.26044" lon="-2.33695">
        <ele>56.200000762939</ele>
        <time>2022-02-17T11:37:10.000Z</time>
      </trkpt>
      <trkpt lat="47.26055" lon="-2.33669">
        <ele>56.200000762939</ele>
        <time>2022-02-17T11:37:14.000Z</time>
      </trkpt>
      <trkpt lat="47.26071" lon="-2.3362">
        <ele>56.200000762939</ele>
        <time>2022-02-17T11:37:20.000Z</time>
      </trkpt>
      <trkpt lat="47.26092" lon="-2.33566">
        <ele>56.200000762939</ele>
        <time>2022-02-17T11:37:27.000Z</time>
      </trkpt>
      <trkpt lat="47.26097" lon="-2.33549">
        <ele>56.200000762939</ele>
        <time>2022-02-17T11:37:29.000Z</time>
      </trkpt>
      <trkpt lat="47.26108" lon="-2.33516">
        <ele>56.200000762939</ele>
        <time>2022-02-17T11:37:33.000Z</time>
      </trkpt>
      <trkpt lat="47.26127" lon="-2.33465">
        <ele>56.200000762939</ele>
        <time>2022-02-17T11:37:40.000Z</time>
      </trkpt>
      <trkpt lat="47.26134" lon="-2.33445">
        <ele>56.200000762939</ele>
        <time>2022-02-17T11:37:44.000Z</time>
      </trkpt>
      <trkpt lat="47.26137" lon="-2.33428">
        <ele>56.200000762939</ele>
        <time>2022-02-17T11:37:47.000Z</time>
      </trkpt>
      <trkpt lat="47.26136" lon="-2.33421">
        <ele>56.200000762939</ele>
        <time>2022-02-17T11:37:48.000Z</time>
      </trkpt>
      <trkpt lat="47.26126" lon="-2.33409">
        <ele>56.200000762939</ele>
        <time>2022-02-17T11:37:51.000Z</time>
      </trkpt>
      <trkpt lat="47.26121" lon="-2.33406">
        <ele>56.200000762939</ele>
        <time>2022-02-17T11:37:52.000Z</time>
      </trkpt>
      <trkpt lat="47.26117" lon="-2.33402">
        <ele>56.200000762939</ele>
        <time>2022-02-17T11:37:53.000Z</time>
      </trkpt>
      <trkpt lat="47.26103" lon="-2.33389">
        <ele>56.200000762939</ele>
        <time>2022-02-17T11:37:56.000Z</time>
      </trkpt>
      <trkpt lat="47.26098" lon="-2.33384">
        <ele>56.200000762939</ele>
        <time>2022-02-17T11:37:57.000Z</time>
      </trkpt>
      <trkpt lat="47.26081" lon="-2.33363">
        <ele>56.200000762939</ele>
        <time>2022-02-17T11:38:01.000Z</time>
      </trkpt>
      <trkpt lat="47.26078" lon="-2.33357">
        <ele>56.200000762939</ele>
        <time>2022-02-17T11:38:02.000Z</time>
      </trkpt>
      <trkpt lat="47.26069" lon="-2.33336">
        <ele>56.200000762939</ele>
        <time>2022-02-17T11:38:05.000Z</time>
      </trkpt>
      <trkpt lat="47.26051" lon="-2.33286">
        <ele>56.200000762939</ele>
        <time>2022-02-17T11:38:12.000Z</time>
      </trkpt>
      <trkpt lat="47.2603" lon="-2.33222">
        <ele>56.200000762939</ele>
        <time>2022-02-17T11:38:20.000Z</time>
      </trkpt>
      <trkpt lat="47.26005" lon="-2.3315">
        <ele>56.200000762939</ele>
        <time>2022-02-17T11:38:29.000Z</time>
      </trkpt>
      <trkpt lat="47.25992" lon="-2.3311">
        <ele>56.200000762939</ele>
        <time>2022-02-17T11:38:34.000Z</time>
      </trkpt>
      <trkpt lat="47.25989" lon="-2.33095">
        <ele>56.200000762939</ele>
        <time>2022-02-17T11:38:36.000Z</time>
      </trkpt>
      <trkpt lat="47.25987" lon="-2.33087">
        <ele>56.200000762939</ele>
        <time>2022-02-17T11:38:37.000Z</time>
      </trkpt>
      <trkpt lat="47.25978" lon="-2.33065">
        <ele>56.200000762939</ele>
        <time>2022-02-17T11:38:40.000Z</time>
      </trkpt>
      <trkpt lat="47.25975" lon="-2.33058">
        <ele>56.200000762939</ele>
        <time>2022-02-17T11:38:41.000Z</time>
      </trkpt>
      <trkpt lat="47.25971" lon="-2.3305">
        <ele>56.200000762939</ele>
        <time>2022-02-17T11:38:42.000Z</time>
      </trkpt>
      <trkpt lat="47.25964" lon="-2.33027">
        <ele>56.200000762939</ele>
        <time>2022-02-17T11:38:45.000Z</time>
      </trkpt>
      <trkpt lat="47.25938" lon="-2.32953">
        <ele>56.200000762939</ele>
        <time>2022-02-17T11:38:54.000Z</time>
      </trkpt>
      <trkpt lat="47.25921" lon="-2.32904">
        <ele>56.200000762939</ele>
        <time>2022-02-17T11:39:00.000Z</time>
      </trkpt>
      <trkpt lat="47.25903" lon="-2.32856">
        <ele>56.200000762939</ele>
        <time>2022-02-17T11:39:06.000Z</time>
      </trkpt>
      <trkpt lat="47.25883" lon="-2.32798">
        <ele>56.200000762939</ele>
        <time>2022-02-17T11:39:13.000Z</time>
      </trkpt>
      <trkpt lat="47.25865" lon="-2.32742">
        <ele>56.200000762939</ele>
        <time>2022-02-17T11:39:20.000Z</time>
      </trkpt>
      <trkpt lat="47.25865" lon="-2.32735">
        <ele>56.200000762939</ele>
        <time>2022-02-17T11:39:21.000Z</time>
      </trkpt>
      <trkpt lat="47.25865" lon="-2.32721">
        <ele>56.200000762939</ele>
        <time>2022-02-17T11:39:23.000Z</time>
      </trkpt>
      <trkpt lat="47.25861" lon="-2.32707">
        <ele>56.200000762939</ele>
        <time>2022-02-17T11:39:25.000Z</time>
      </trkpt>
      <trkpt lat="47.25855" lon="-2.32695">
        <ele>56.200000762939</ele>
        <time>2022-02-17T11:39:27.000Z</time>
      </trkpt>
      <trkpt lat="47.25844" lon="-2.32669">
        <ele>56.200000762939</ele>
        <time>2022-02-17T11:39:31.000Z</time>
      </trkpt>
      <trkpt lat="47.25826" lon="-2.326">
        <ele>56.200000762939</ele>
        <time>2022-02-17T11:39:40.000Z</time>
      </trkpt>
      <trkpt lat="47.25812" lon="-2.32538">
        <ele>56.200000762939</ele>
        <time>2022-02-17T11:39:48.000Z</time>
      </trkpt>
      <trkpt lat="47.25799" lon="-2.32481">
        <ele>56.200000762939</ele>
        <time>2022-02-17T11:39:56.000Z</time>
      </trkpt>
      <trkpt lat="47.25799" lon="-2.32475">
        <ele>56.200000762939</ele>
        <time>2022-02-17T11:39:57.000Z</time>
      </trkpt>
      <trkpt lat="47.25802" lon="-2.32464">
        <ele>56.200000762939</ele>
        <time>2022-02-17T11:39:59.000Z</time>
      </trkpt>
      <trkpt lat="47.25805" lon="-2.32459">
        <ele>55.799999237061</ele>
        <time>2022-02-17T11:40:00.000Z</time>
      </trkpt>
      <trkpt lat="47.25808" lon="-2.32456">
        <ele>55.400001525879</ele>
        <time>2022-02-17T11:40:01.000Z</time>
      </trkpt>
      <trkpt lat="47.25812" lon="-2.32454">
        <ele>55</ele>
        <time>2022-02-17T11:40:02.000Z</time>
      </trkpt>
      <trkpt lat="47.25816" lon="-2.32455">
        <ele>54.599998474121</ele>
        <time>2022-02-17T11:40:03.000Z</time>
      </trkpt>
      <trkpt lat="47.2582" lon="-2.32457">
        <ele>54.200000762939</ele>
        <time>2022-02-17T11:40:04.000Z</time>
      </trkpt>
      <trkpt lat="47.25825" lon="-2.32459">
        <ele>54.200000762939</ele>
        <time>2022-02-17T11:40:05.000Z</time>
      </trkpt>
      <trkpt lat="47.25835" lon="-2.32464">
        <ele>54.200000762939</ele>
        <time>2022-02-17T11:40:07.000Z</time>
      </trkpt>
      <trkpt lat="47.25841" lon="-2.32466">
        <ele>54.200000762939</ele>
        <time>2022-02-17T11:40:08.000Z</time>
      </trkpt>
      <trkpt lat="47.25852" lon="-2.32468">
        <ele>54.200000762939</ele>
        <time>2022-02-17T11:40:10.000Z</time>
      </trkpt>
      <trkpt lat="47.25869" lon="-2.32467">
        <ele>54.200000762939</ele>
        <time>2022-02-17T11:40:13.000Z</time>
      </trkpt>
      <trkpt lat="47.25886" lon="-2.32463">
        <ele>54.200000762939</ele>
        <time>2022-02-17T11:40:16.000Z</time>
      </trkpt>
      <trkpt lat="47.25897" lon="-2.32456">
        <ele>54.200000762939</ele>
        <time>2022-02-17T11:40:18.000Z</time>
      </trkpt>
      <trkpt lat="47.25906" lon="-2.32445">
        <ele>54.200000762939</ele>
        <time>2022-02-17T11:40:20.000Z</time>
      </trkpt>
      <trkpt lat="47.25924" lon="-2.32423">
        <ele>54.200000762939</ele>
        <time>2022-02-17T11:40:24.000Z</time>
      </trkpt>
      <trkpt lat="47.25936" lon="-2.32406">
        <ele>54.200000762939</ele>
        <time>2022-02-17T11:40:27.000Z</time>
      </trkpt>
      <trkpt lat="47.25945" lon="-2.32396">
        <ele>54.200000762939</ele>
        <time>2022-02-17T11:40:29.000Z</time>
      </trkpt>
      <trkpt lat="47.25973" lon="-2.32358">
        <ele>54.200000762939</ele>
        <time>2022-02-17T11:40:36.000Z</time>
      </trkpt>
      <trkpt lat="47.25978" lon="-2.32353">
        <ele>54.200000762939</ele>
        <time>2022-02-17T11:40:37.000Z</time>
      </trkpt>
      <trkpt lat="47.25996" lon="-2.32332">
        <ele>54.200000762939</ele>
        <time>2022-02-17T11:40:41.000Z</time>
      </trkpt>
      <trkpt lat="47.26026" lon="-2.32296">
        <ele>54.200000762939</ele>
        <time>2022-02-17T11:40:48.000Z</time>
      </trkpt>
      <trkpt lat="47.26062" lon="-2.32254">
        <ele>54.200000762939</ele>
        <time>2022-02-17T11:40:56.000Z</time>
      </trkpt>
      <trkpt lat="47.26095" lon="-2.32211">
        <ele>54.200000762939</ele>
        <time>2022-02-17T11:41:04.000Z</time>
      </trkpt>
      <trkpt lat="47.26114" lon="-2.32169">
        <ele>54.200000762939</ele>
        <time>2022-02-17T11:41:10.000Z</time>
      </trkpt>
      <trkpt lat="47.26128" lon="-2.32124">
        <ele>54.200000762939</ele>
        <time>2022-02-17T11:41:16.000Z</time>
      </trkpt>
      <trkpt lat="47.26142" lon="-2.32078">
        <ele>54.200000762939</ele>
        <time>2022-02-17T11:41:22.000Z</time>
      </trkpt>
      <trkpt lat="47.26157" lon="-2.32025">
        <ele>54.200000762939</ele>
        <time>2022-02-17T11:41:29.000Z</time>
      </trkpt>
      <trkpt lat="47.26158" lon="-2.32018">
        <ele>54.200000762939</ele>
        <time>2022-02-17T11:41:30.000Z</time>
      </trkpt>
      <trkpt lat="47.26158" lon="-2.31995">
        <ele>54.200000762939</ele>
        <time>2022-02-17T11:41:33.000Z</time>
      </trkpt>
      <trkpt lat="47.26157" lon="-2.31988">
        <ele>54.200000762939</ele>
        <time>2022-02-17T11:41:34.000Z</time>
      </trkpt>
      <trkpt lat="47.26154" lon="-2.31966">
        <ele>54.200000762939</ele>
        <time>2022-02-17T11:41:37.000Z</time>
      </trkpt>
      <trkpt lat="47.26152" lon="-2.31951">
        <ele>54.200000762939</ele>
        <time>2022-02-17T11:41:39.000Z</time>
      </trkpt>
      <trkpt lat="47.26149" lon="-2.3192">
        <ele>54.200000762939</ele>
        <time>2022-02-17T11:41:43.000Z</time>
      </trkpt>
      <trkpt lat="47.26148" lon="-2.31905">
        <ele>54.200000762939</ele>
        <time>2022-02-17T11:41:45.000Z</time>
      </trkpt>
      <trkpt lat="47.26145" lon="-2.31872">
        <ele>54.200000762939</ele>
        <time>2022-02-17T11:41:49.000Z</time>
      </trkpt>
      <trkpt lat="47.26143" lon="-2.31856">
        <ele>54.200000762939</ele>
        <time>2022-02-17T11:41:51.000Z</time>
      </trkpt>
      <trkpt lat="47.26136" lon="-2.31792">
        <ele>54.200000762939</ele>
        <time>2022-02-17T11:41:59.000Z</time>
      </trkpt>
      <trkpt lat="47.26128" lon="-2.3172">
        <ele>54.200000762939</ele>
        <time>2022-02-17T11:42:08.000Z</time>
      </trkpt>
      <trkpt lat="47.26121" lon="-2.31676">
        <ele>54.200000762939</ele>
        <time>2022-02-17T11:42:14.000Z</time>
      </trkpt>
      <trkpt lat="47.26116" lon="-2.31633">
        <ele>54.200000762939</ele>
        <time>2022-02-17T11:42:20.000Z</time>
      </trkpt>
      <trkpt lat="47.26122" lon="-2.31615">
        <ele>54.200000762939</ele>
        <time>2022-02-17T11:42:23.000Z</time>
      </trkpt>
      <trkpt lat="47.26135" lon="-2.31612">
        <ele>54.200000762939</ele>
        <time>2022-02-17T11:42:26.000Z</time>
      </trkpt>
      <trkpt lat="47.2614" lon="-2.31611">
        <ele>54.200000762939</ele>
        <time>2022-02-17T11:42:27.000Z</time>
      </trkpt>
      <trkpt lat="47.26161" lon="-2.31605">
        <ele>54.200000762939</ele>
        <time>2022-02-17T11:42:31.000Z</time>
      </trkpt>
      <trkpt lat="47.26197" lon="-2.31593">
        <ele>54.200000762939</ele>
        <time>2022-02-17T11:42:38.000Z</time>
      </trkpt>
      <trkpt lat="47.26213" lon="-2.3159">
        <ele>54.200000762939</ele>
        <time>2022-02-17T11:42:41.000Z</time>
      </trkpt>
      <trkpt lat="47.26222" lon="-2.3159">
        <ele>54.200000762939</ele>
        <time>2022-02-17T11:42:43.000Z</time>
      </trkpt>
      <trkpt lat="47.26226" lon="-2.31592">
        <ele>54.200000762939</ele>
        <time>2022-02-17T11:42:44.000Z</time>
      </trkpt>
      <trkpt lat="47.2624" lon="-2.31602">
        <ele>54.200000762939</ele>
        <time>2022-02-17T11:42:48.000Z</time>
      </trkpt>
      <trkpt lat="47.2625" lon="-2.31615">
        <ele>54.200000762939</ele>
        <time>2022-02-17T11:42:51.000Z</time>
      </trkpt>
      <trkpt lat="47.26258" lon="-2.31632">
        <ele>54.200000762939</ele>
        <time>2022-02-17T11:42:54.000Z</time>
      </trkpt>
      <trkpt lat="47.26271" lon="-2.31664">
        <ele>54.200000762939</ele>
        <time>2022-02-17T11:42:59.000Z</time>
      </trkpt>
      <trkpt lat="47.26274" lon="-2.3167">
        <ele>54.200000762939</ele>
        <time>2022-02-17T11:43:00.000Z</time>
      </trkpt>
      <trkpt lat="47.26289" lon="-2.31698">
        <ele>54.200000762939</ele>
        <time>2022-02-17T11:43:05.000Z</time>
      </trkpt>
      <trkpt lat="47.26301" lon="-2.31709">
        <ele>54.200000762939</ele>
        <time>2022-02-17T11:43:08.000Z</time>
      </trkpt>
      <trkpt lat="47.26316" lon="-2.31704">
        <ele>54.200000762939</ele>
        <time>2022-02-17T11:43:12.000Z</time>
      </trkpt>
      <trkpt lat="47.26319" lon="-2.31703">
        <ele>54.599998474121</ele>
        <time>2022-02-17T11:43:13.000Z</time>
      </trkpt>
      <trkpt lat="47.26323" lon="-2.31702">
        <ele>55</ele>
        <time>2022-02-17T11:43:14.000Z</time>
      </trkpt>
      <trkpt lat="47.26325" lon="-2.31701">
        <ele>55.400001525879</ele>
        <time>2022-02-17T11:43:15.000Z</time>
      </trkpt>
      <trkpt lat="47.26328" lon="-2.317">
        <ele>55.799999237061</ele>
        <time>2022-02-17T11:43:16.000Z</time>
      </trkpt>
      <trkpt lat="47.2633" lon="-2.31698">
        <ele>56.200000762939</ele>
        <time>2022-02-17T11:43:17.000Z</time>
      </trkpt>
      <trkpt lat="47.26331" lon="-2.31696">
        <ele>56.200000762939</ele>
        <time>2022-02-17T11:43:18.000Z</time>
      </trkpt>
      <trkpt lat="47.26334" lon="-2.31687">
        <ele>56.200000762939</ele>
        <time>2022-02-17T11:43:21.000Z</time>
      </trkpt>
      <trkpt lat="47.26347" lon="-2.31678">
        <ele>56.200000762939</ele>
        <time>2022-02-17T11:43:26.000Z</time>
      </trkpt>
      <trkpt lat="47.26351" lon="-2.31676">
        <ele>56.599998474121</ele>
        <time>2022-02-17T11:43:27.000Z</time>
      </trkpt>
      <trkpt lat="47.26354" lon="-2.31675">
        <ele>57</ele>
        <time>2022-02-17T11:43:28.000Z</time>
      </trkpt>
      <trkpt lat="47.26358" lon="-2.31673">
        <ele>57.400001525879</ele>
        <time>2022-02-17T11:43:29.000Z</time>
      </trkpt>
      <trkpt lat="47.26362" lon="-2.31672">
        <ele>57.799999237061</ele>
        <time>2022-02-17T11:43:30.000Z</time>
      </trkpt>
      <trkpt lat="47.26366" lon="-2.3167">
        <ele>58.200000762939</ele>
        <time>2022-02-17T11:43:31.000Z</time>
      </trkpt>
      <trkpt lat="47.26373" lon="-2.31667">
        <ele>58.200000762939</ele>
        <time>2022-02-17T11:43:33.000Z</time>
      </trkpt>
      <trkpt lat="47.26393" lon="-2.31657">
        <ele>58.200000762939</ele>
        <time>2022-02-17T11:43:39.000Z</time>
      </trkpt>
      <trkpt lat="47.26409" lon="-2.31644">
        <ele>58.200000762939</ele>
        <time>2022-02-17T11:43:44.000Z</time>
      </trkpt>
      <trkpt lat="47.2641" lon="-2.31634">
        <ele>58.200000762939</ele>
        <time>2022-02-17T11:43:46.000Z</time>
      </trkpt>
      <trkpt lat="47.2641" lon="-2.31622">
        <ele>58.599998474121</ele>
        <time>2022-02-17T11:43:48.000Z</time>
      </trkpt>
      <trkpt lat="47.2641" lon="-2.31616">
        <ele>59</ele>
        <time>2022-02-17T11:43:49.000Z</time>
      </trkpt>
      <trkpt lat="47.2641" lon="-2.31611">
        <ele>59.400001525879</ele>
        <time>2022-02-17T11:43:50.000Z</time>
      </trkpt>
      <trkpt lat="47.2641" lon="-2.31607">
        <ele>59.799999237061</ele>
        <time>2022-02-17T11:43:51.000Z</time>
      </trkpt>
      <trkpt lat="47.2641" lon="-2.31603">
        <ele>60.200000762939</ele>
        <time>2022-02-17T11:43:52.000Z</time>
      </trkpt>
      <trkpt lat="47.2641" lon="-2.31578">
        <ele>60.200000762939</ele>
        <time>2022-02-17T11:43:58.000Z</time>
      </trkpt>
      <trkpt lat="47.2641" lon="-2.31562">
        <ele>60.200000762939</ele>
        <time>2022-02-17T11:44:03.000Z</time>
      </trkpt>
      <trkpt lat="47.26413" lon="-2.31551">
        <ele>60.200000762939</ele>
        <time>2022-02-17T11:44:07.000Z</time>
      </trkpt>
      <trkpt lat="47.26415" lon="-2.31551">
        <ele>60.200000762939</ele>
        <time>2022-02-17T11:44:08.000Z</time>
      </trkpt>
      <trkpt lat="47.26417" lon="-2.31552">
        <ele>60.200000762939</ele>
        <time>2022-02-17T11:44:11.000Z</time>
      </trkpt>
    </trkseg>
  </trk>
</gpx>